ECMWFFLT1_500_spd_000.txt.gz
Wind_Speed
45 45 47 47 47 48 49 50 50 51 53 55 56 57 56 56 55 55 54 54 53 52 53 51 50 50 47 48 55 56 56 57 56 54 53 53 51 49 49 49 48 46 46 45 43 43 42 40 39 38 37 36 36 35 34 33 32 30 29 29 28 29 30
45 44 46 47 47 48 48 49 51 52 52 54 55 57 59 59 58 58 57 57 57 56 55 54 52 52 49 50 55 55 56 58 58 56 55 54 53 51 51 52 51 50 48 47 45 44 42 41 40 39 38 37 35 35 35 34 33 31 29 28 28 29 30
44 44 45 46 47 48 49 49 51 52 53 54 54 56 58 60 61 61 61 60 59 58 58 57 55 54 53 53 55 56 57 58 58 58 58 55 55 54 54 54 54 53 50 48 46 44 43 42 41 40 40 38 37 36 36 35 33 32 30 29 29 29 30
44 44 44 46 47 48 49 50 51 52 53 54 55 55 56 58 61 63 64 63 62 61 60 59 58 56 56 56 56 57 59 57 56 58 59 58 57 57 56 56 55 54 52 50 48 46 45 43 42 42 42 40 39 39 38 36 35 33 32 32 31 31 31
44 44 45 45 47 48 49 50 51 53 53 54 55 55 55 56 58 62 65 65 64 64 62 61 60 59 58 58 57 57 57 56 56 56 58 60 60 59 57 56 56 55 54 52 51 49 47 45 44 43 43 42 41 40 39 38 37 36 35 34 33 32 33
45 45 45 45 47 48 49 50 51 53 54 54 54 55 55 57 57 59 62 65 66 66 65 63 62 61 60 59 58 58 56 56 56 56 57 58 60 61 60 58 58 57 55 54 54 52 49 47 46 44 44 43 42 41 40 39 38 38 37 36 35 35 36
44 44 44 44 45 47 48 49 50 52 53 54 54 54 54 56 58 58 59 62 65 67 67 65 64 63 63 61 60 59 57 56 56 56 56 57 58 59 62 63 61 59 57 56 55 54 52 50 48 46 46 44 43 42 40 39 38 38 38 37 36 37 37
43 43 43 44 45 47 48 50 50 51 52 53 53 53 53 54 56 58 58 59 61 65 67 67 66 64 64 64 62 60 58 57 56 54 55 58 59 57 60 63 63 61 60 58 56 55 54 52 50 49 48 46 44 42 40 39 39 39 38 38 38 38 39
43 43 44 44 45 47 49 51 51 51 52 52 53 54 53 53 55 56 57 58 59 61 64 66 67 66 66 65 64 63 60 59 57 56 56 58 60 60 59 61 64 65 63 60 58 57 55 54 52 51 50 47 44 42 40 39 39 39 39 39 39 39 39
44 44 44 44 45 47 49 51 52 53 53 53 54 55 54 54 55 56 56 57 58 59 60 63 65 67 68 67 66 65 63 60 58 58 58 58 61 63 61 59 62 64 65 64 61 58 57 56 55 53 51 47 44 42 40 38 38 39 40 40 40 40 40
44 44 44 44 45 46 48 51 52 53 53 54 55 55 56 55 56 56 57 57 57 58 59 59 62 65 68 68 67 66 64 62 59 58 58 58 60 63 62 59 60 61 63 64 62 60 59 57 56 56 53 49 46 42 39 39 39 40 40 41 40 40 41
44 44 45 45 45 45 47 49 51 52 53 55 55 56 57 57 57 58 58 58 58 58 58 59 59 61 65 68 68 67 65 64 61 58 56 56 56 59 61 61 60 60 61 61 61 60 60 58 57 56 55 52 48 43 41 40 40 39 41 41 41 41 41
45 45 45 44 44 44 45 47 49 51 53 55 56 57 58 59 59 60 60 60 60 59 59 59 59 59 61 65 68 68 66 65 63 60 58 56 55 57 60 60 59 60 61 60 60 60 59 58 57 55 55 53 50 45 43 42 41 40 42 42 42 42 41
46 45 44 44 43 43 44 45 47 49 51 54 56 57 59 60 61 62 62 62 62 62 61 60 60 59 59 61 65 68 68 66 65 62 60 58 58 59 60 60 59 60 60 59 58 59 58 57 57 55 54 53 51 48 46 44 43 42 43 43 43 43 41
46 46 45 43 42 42 43 44 45 47 48 51 54 56 58 60 63 64 65 65 65 64 63 62 62 61 60 59 61 66 69 68 66 65 63 60 59 59 59 60 59 58 60 59 56 57 58 57 56 55 53 52 51 50 49 47 46 46 45 44 44 43 42
46 46 45 43 42 42 42 42 43 44 46 47 51 54 56 58 61 64 65 66 67 67 66 64 64 63 62 61 60 62 66 69 68 66 65 63 60 58 57 59 60 59 61 60 56 55 57 57 56 55 52 52 52 52 53 51 49 48 47 46 45 44 42
46 45 44 43 42 41 41 41 42 42 43 45 48 51 53 54 56 58 60 63 67 68 68 67 66 65 64 63 62 60 62 67 70 68 66 64 61 57 54 56 60 60 62 61 57 56 57 57 56 54 52 53 53 53 54 53 51 48 47 47 46 44 42
46 45 43 42 41 41 41 41 42 42 43 44 47 50 50 50 50 50 52 55 61 66 69 69 68 67 66 65 64 62 61 64 69 70 67 65 62 58 55 57 61 61 61 60 57 56 57 56 56 54 53 52 53 52 51 52 50 44 43 46 46 43 42
45 44 43 42 41 42 41 41 42 43 44 45 47 49 49 47 47 46 45 47 52 58 64 68 68 68 68 67 66 64 62 61 66 70 69 66 63 60 58 60 61 58 58 59 57 55 55 56 55 54 53 52 53 52 50 51 48 40 37 42 43 42 42
45 44 43 42 42 42 43 43 44 45 45 46 48 50 49 47 46 45 43 44 47 51 56 61 66 67 68 69 67 66 64 62 63 69 70 67 65 62 59 58 56 53 53 55 55 54 54 55 55 54 53 53 53 51 50 50 48 42 41 44 43 40 41
44 44 43 43 43 44 45 45 46 47 47 47 49 51 50 49 48 46 45 45 46 48 50 54 60 63 65 68 69 67 66 64 62 67 70 69 66 63 59 55 53 52 53 53 53 54 55 56 55 54 53 54 53 52 51 50 49 46 43 43 44 43 43
44 44 44 44 45 46 47 48 48 49 49 49 50 51 51 50 50 48 48 48 47 49 49 50 53 56 59 65 69 68 67 66 64 65 69 70 66 64 60 55 53 54 55 54 53 53 57 57 56 55 53 52 52 51 49 49 48 44 40 41 44 43 40
44 44 45 45 47 48 50 51 51 50 49 50 52 52 51 51 51 51 51 51 50 50 50 49 49 50 53 60 67 70 68 67 66 65 68 71 68 64 61 56 54 54 55 55 53 53 58 59 56 54 52 50 49 47 46 45 41 39 40 43 44 41 40
44 45 45 46 48 50 51 52 52 50 49 51 53 52 51 50 50 51 52 53 52 52 51 50 49 48 48 54 64 70 70 69 68 66 67 70 68 64 61 57 56 56 55 54 53 53 57 58 55 54 51 49 48 46 45 43 38 40 44 42 37 38 40
44 45 46 47 48 50 51 51 49 48 49 51 53 52 50 50 50 50 51 53 53 53 52 51 50 48 47 50 59 68 70 70 69 66 67 69 68 64 62 61 60 58 55 54 54 54 55 54 54 54 52 49 48 46 45 42 40 43 44 39 34 32 33
43 44 45 47 48 47 46 45 44 44 46 49 51 51 50 50 50 50 51 53 53 53 54 53 50 49 48 48 55 65 70 71 69 66 66 68 68 65 64 64 63 59 55 53 52 54 56 55 54 53 51 48 45 45 44 40 39 41 40 38 38 35 35
41 42 43 43 42 40 38 37 37 40 43 46 48 50 50 51 52 52 52 53 53 54 55 55 51 50 49 48 51 60 69 70 69 68 67 68 69 67 67 66 62 56 54 52 51 54 57 56 53 52 51 48 44 43 44 41 39 41 41 42 44 43 44
38 37 37 36 34 33 32 33 36 39 43 46 48 50 51 52 53 54 53 53 54 54 56 55 52 51 51 49 49 57 66 70 69 69 68 69 70 70 68 64 59 56 56 55 53 55 55 51 50 50 50 48 45 43 44 42 42 43 44 45 46 45 46
34 31 30 29 29 30 32 35 38 41 44 47 49 50 52 53 54 55 54 54 54 54 54 53 52 51 51 49 49 54 64 69 70 70 70 70 71 71 68 63 57 55 56 56 56 56 52 47 46 47 48 49 50 48 47 46 45 44 43 44 46 45 45
28 27 26 27 28 31 34 37 40 42 44 47 49 50 52 52 53 52 50 49 50 51 50 50 50 51 50 50 51 54 62 69 70 71 72 71 70 71 67 59 53 51 52 54 55 52 48 47 48 49 49 51 52 53 53 50 46 43 43 45 45 42 41
25 25 26 28 29 32 36 39 42 44 46 47 49 50 49 48 47 45 43 44 45 46 47 48 49 49 49 51 52 54 62 69 71 72 72 69 69 69 64 53 47 46 46 48 49 46 45 48 50 51 53 52 50 50 49 47 44 43 44 44 41 40 40
23 24 26 28 30 33 37 41 43 44 46 46 45 45 45 45 44 41 40 42 43 42 44 48 48 47 49 51 52 54 62 69 71 71 72 70 67 64 60 55 51 46 43 43 45 45 46 48 50 52 53 52 50 49 45 43 43 43 43 42 42 42 43
22 24 25 27 29 32 35 38 39 41 41 40 40 40 41 43 43 40 39 42 43 42 44 47 47 46 49 51 52 55 62 68 70 70 71 70 66 61 59 60 56 50 47 47 47 47 48 48 48 49 49 49 49 47 44 43 44 44 43 43 44 44 43
22 24 24 25 26 30 33 34 35 35 36 37 40 40 39 41 43 41 38 41 43 42 43 46 46 47 50 51 51 55 61 67 69 68 67 67 65 59 57 58 57 54 54 53 50 47 48 47 45 43 44 48 48 45 43 43 44 44 44 44 44 43 40
22 23 22 22 25 30 32 31 30 31 32 34 37 37 36 39 42 41 38 39 42 42 43 45 46 47 51 51 51 55 62 67 68 65 62 61 61 57 53 54 55 55 55 53 49 48 48 47 47 45 43 44 45 43 43 44 44 44 44 43 42 39 36
21 22 22 22 25 29 28 25 25 26 27 28 30 30 31 35 39 40 39 39 40 41 43 45 46 49 51 51 52 57 63 66 65 62 57 55 55 53 50 50 49 48 48 49 49 51 52 51 49 49 47 44 42 42 43 43 42 41 40 39 37 35 34
21 21 22 23 25 25 22 20 21 21 20 20 21 24 28 31 34 37 38 38 39 42 45 47 48 50 51 52 54 60 64 64 63 59 54 51 50 48 47 47 46 45 47 50 52 52 53 52 49 48 47 45 43 42 41 40 38 37 36 35 35 35 34

ECMWFFLT1_500_spd_003.txt.gz
Wind_Speed
42 43 43 43 45 45 46 46 46 46 47 47 47 48 50 51 53 53 53 52 52 51 51 50 49 46 45 45 42 39 41 49 56 58 55 55 56 54 52 51 50 48 47 46 44 44 44 43 44 44 43 42 41 40 39 38 38 36 36 35 34 34 34
42 43 43 44 45 45 46 47 48 48 47 47 48 48 49 50 52 54 55 55 54 54 54 53 52 50 47 46 43 42 42 45 50 56 57 54 54 56 57 55 53 52 50 49 46 44 43 43 44 45 45 43 42 41 40 39 38 37 36 36 35 35 35
42 42 43 44 44 45 45 46 47 48 48 48 48 49 49 49 50 52 55 57 57 56 57 56 54 53 51 51 49 47 47 48 48 52 58 57 52 53 58 59 56 55 53 51 48 46 44 43 43 44 45 45 44 43 41 40 40 39 38 37 36 36 36
43 43 43 44 44 44 44 45 46 47 48 49 49 49 50 50 50 51 53 56 58 59 58 58 58 56 54 53 52 51 51 51 50 50 54 58 55 50 54 58 58 56 55 53 52 50 48 45 44 45 45 46 45 45 43 41 41 40 39 38 38 37 37
44 44 44 44 45 44 44 44 45 45 46 48 49 49 50 51 51 50 51 53 56 59 60 60 60 59 58 57 54 54 55 54 54 52 52 56 59 55 52 53 56 57 56 55 55 54 51 49 47 46 46 46 46 46 44 42 41 41 40 38 37 37 37
44 45 45 46 46 45 45 45 45 45 45 47 48 49 50 52 52 51 51 52 53 56 60 62 62 62 61 61 59 58 58 58 56 56 55 54 56 58 55 52 54 56 56 57 58 56 54 52 50 48 46 46 46 45 44 43 42 41 40 38 37 37 37
45 45 46 46 47 47 46 46 46 46 46 47 48 49 50 52 53 53 52 52 52 54 57 60 63 64 64 64 63 62 61 61 59 58 58 57 54 54 56 55 56 56 56 58 60 60 58 55 52 51 49 47 46 46 45 43 42 41 40 38 38 38 38
44 45 45 46 47 48 48 48 48 48 48 48 48 49 50 51 53 54 54 53 53 53 55 57 60 64 66 67 66 66 64 63 62 60 59 60 57 53 53 55 57 57 57 59 60 61 60 58 55 53 52 50 48 46 45 44 42 41 40 40 40 39 39
42 43 44 45 46 47 48 48 49 49 49 48 48 49 50 51 52 53 54 54 55 55 55 55 57 60 64 68 69 69 68 66 65 63 61 60 60 57 54 53 54 54 56 60 63 63 62 60 58 57 54 52 50 48 47 45 43 42 41 41 41 40 40
40 42 43 44 45 47 48 48 48 49 49 48 48 48 49 51 52 53 54 54 55 56 55 55 56 57 60 64 69 71 71 69 67 65 64 62 62 60 56 53 52 52 53 57 62 66 66 63 60 58 57 54 51 50 48 46 43 42 41 42 42 41 41
40 41 42 44 45 46 47 48 48 48 49 49 48 48 49 50 52 52 53 54 55 56 56 55 55 56 56 59 64 68 71 72 71 69 66 65 64 62 59 56 55 54 54 55 57 62 65 66 63 60 58 56 54 52 49 47 46 45 44 44 44 43 43
41 41 42 44 46 47 47 48 49 49 50 50 50 50 50 51 52 53 54 54 55 56 56 56 55 55 56 56 58 63 68 71 72 72 70 67 65 64 61 60 57 55 54 55 57 59 60 62 64 63 60 58 56 53 51 50 49 48 47 46 45 45 45
42 42 42 44 46 48 48 49 50 50 51 52 53 52 52 53 53 54 54 55 55 56 56 57 57 56 56 56 56 58 62 67 70 72 72 70 67 65 63 61 59 57 55 55 57 60 58 56 59 62 62 60 58 55 53 52 52 50 48 48 48 47 46
43 43 43 43 45 47 49 50 51 51 52 54 55 54 54 55 56 55 56 56 56 57 57 57 57 57 56 56 56 56 58 61 65 69 72 72 70 68 66 64 61 58 57 56 56 59 59 56 56 57 58 59 59 57 55 54 53 51 50 50 50 49 47
43 43 44 44 46 47 49 50 51 52 53 54 55 55 55 56 56 57 57 57 58 58 57 58 58 58 57 57 57 57 57 57 60 64 69 71 71 69 67 66 63 60 59 57 57 58 59 59 58 55 54 56 57 57 57 57 56 53 52 52 52 50 48
44 44 45 46 47 49 50 51 52 52 52 54 55 55 56 56 56 57 57 58 59 59 59 59 59 59 59 58 59 59 58 57 57 59 63 67 70 71 69 67 65 63 61 59 59 59 58 61 62 57 54 54 55 55 56 57 56 54 53 53 53 51 49
44 46 47 48 49 50 52 53 53 53 53 54 55 56 57 57 57 56 56 57 58 59 60 60 60 61 60 60 60 60 60 59 58 58 59 62 66 70 71 70 67 65 63 60 59 58 58 60 61 58 55 54 55 54 54 54 53 52 52 53 53 51 49
45 46 47 48 50 51 53 53 54 54 55 56 56 57 57 57 57 56 55 56 57 58 60 61 61 61 61 61 61 61 62 62 61 59 58 58 61 66 71 71 69 67 64 62 59 57 58 59 57 55 55 54 54 54 54 53 52 50 50 51 51 50 49
46 47 48 48 49 51 53 54 54 54 55 57 58 58 58 57 57 56 55 55 55 55 57 59 61 62 63 63 62 62 63 63 63 62 60 59 58 61 68 71 70 68 66 63 59 55 57 59 56 54 55 55 54 54 54 53 51 50 49 49 49 49 47
47 48 49 49 49 50 52 53 54 55 56 57 58 59 58 58 57 56 55 54 53 53 53 55 58 60 62 64 64 64 64 64 64 64 63 62 59 59 63 69 71 70 67 65 61 56 55 57 57 56 56 57 57 55 53 52 50 48 48 48 48 47 47
47 48 48 49 50 50 51 52 53 55 56 57 58 59 58 58 57 56 55 53 52 51 50 51 53 55 57 61 64 66 66 66 66 66 65 65 63 60 60 66 71 71 68 66 62 58 56 57 58 57 57 59 59 56 54 51 48 47 47 47 47 47 46
46 47 47 48 49 50 51 52 53 55 56 57 58 58 58 58 57 56 55 54 53 51 50 49 50 51 52 55 60 64 66 67 68 68 67 67 66 63 61 64 69 72 70 66 63 60 58 57 57 58 58 59 58 55 54 52 48 47 46 46 47 45 43
45 45 46 47 48 49 51 53 54 56 56 57 58 58 58 58 57 56 55 54 53 52 51 49 50 50 50 51 54 58 62 65 67 68 69 69 68 67 64 63 66 71 71 67 63 61 59 57 57 59 60 59 56 54 54 52 49 46 44 45 46 42 39
44 44 46 47 48 50 51 53 55 56 57 57 58 59 59 58 58 57 56 55 55 54 52 51 51 51 49 48 51 53 55 58 62 66 69 69 69 69 67 64 64 69 71 68 63 62 60 59 59 59 61 60 57 55 54 51 48 45 43 44 45 41 38
44 45 47 49 50 50 52 53 55 56 57 58 58 58 59 59 59 58 57 56 56 56 54 52 52 53 50 48 49 51 51 52 55 60 65 68 69 70 69 67 64 67 71 69 64 61 61 61 59 59 61 60 57 56 55 52 48 46 45 46 45 42 40
45 47 49 50 50 51 52 53 54 56 57 57 57 58 58 59 59 59 58 57 57 57 55 53 53 54 52 50 50 50 49 49 49 53 58 64 69 70 71 70 66 65 69 69 65 62 62 60 58 59 61 61 59 58 56 53 51 48 46 46 45 42 42
47 49 50 50 51 52 52 53 54 55 55 55 56 56 57 58 58 58 59 58 58 57 56 54 55 55 54 51 51 50 49 47 46 48 52 59 66 70 71 70 68 65 67 68 66 64 62 59 58 60 62 62 62 60 55 52 52 50 47 47 46 43 40
49 50 50 50 51 51 52 52 52 53 52 53 53 54 55 56 57 57 58 58 58 57 56 55 56 57 55 52 51 49 48 47 45 46 49 54 62 69 71 71 70 67 66 68 67 65 62 59 60 62 62 62 62 59 54 51 51 51 50 49 46 41 38
49 49 48 49 49 48 48 48 49 49 49 49 50 51 52 53 54 54 53 53 53 53 54 55 57 57 55 52 50 49 48 47 45 45 47 51 57 66 71 72 71 69 68 68 68 66 63 60 60 61 60 59 59 57 52 51 52 51 50 47 43 40 39
47 47 46 45 44 43 43 43 44 45 46 45 45 45 46 47 47 46 45 44 44 46 50 54 56 56 53 50 49 49 48 47 45 45 47 49 54 62 70 72 71 70 69 69 69 67 64 62 62 62 61 59 57 54 52 51 51 50 48 46 43 42 42
45 43 42 40 39 38 38 39 40 41 40 39 37 38 40 41 40 40 39 38 38 40 46 52 55 54 51 50 50 50 49 48 46 45 47 48 51 59 68 73 72 71 71 70 69 67 65 64 65 64 61 58 55 53 51 50 50 50 50 48 45 43 42
40 38 36 35 35 35 36 38 39 37 35 34 34 37 39 39 38 39 39 39 39 39 42 49 54 53 51 51 52 52 50 49 47 46 46 48 50 56 66 72 72 72 72 71 69 67 65 64 64 63 60 56 52 51 51 51 52 52 51 47 44 42 42
35 34 33 32 33 34 36 37 37 34 34 34 35 38 39 39 39 40 41 41 42 42 43 47 51 52 51 51 52 52 51 50 48 46 47 48 49 53 63 71 72 72 73 71 68 66 65 64 62 59 59 56 54 53 54 53 53 50 48 46 44 44 45
32 32 31 30 31 33 34 35 35 33 33 34 36 38 40 41 40 41 42 44 45 47 47 49 51 52 52 52 53 54 52 50 48 47 47 49 50 52 60 70 72 72 72 71 67 65 64 64 62 58 57 57 56 57 57 54 51 48 46 46 46 46 47
31 31 30 29 30 32 33 34 34 32 32 33 32 33 35 37 38 39 41 43 45 47 48 49 51 51 52 53 54 53 52 49 47 46 47 50 50 51 59 69 72 72 72 69 66 65 64 63 61 57 56 57 57 56 55 54 52 50 48 48 47 47 48
31 30 29 29 30 30 31 33 33 30 29 28 26 27 29 31 33 35 38 41 43 43 43 45 46 46 48 50 51 50 49 47 45 46 48 50 50 51 59 68 72 72 71 68 65 64 62 61 59 55 53 55 55 53 52 53 52 51 50 49 49 47 47
31 29 28 30 30 30 31 32 29 25 25 25 24 24 26 29 31 34 36 39 41 40 39 40 43 45 45 45 46 45 46 45 46 47 49 50 49 51 60 68 71 71 69 65 64 63 61 61 58 53 51 53 53 52 52 52 51 50 49 46 44 44 44

ECMWFFLT1_500_spd_006.txt.gz
Wind_Speed
36 37 37 37 37 36 37 38 40 41 42 43 42 42 43 45 46 47 49 51 52 52 52 52 51 51 50 50 50 49 51 55 55 53 53 55 57 57 56 54 53 53 52 51 48 47 47 45 46 48 47 47 47 45 44 42 42 41 41 40 40 40 40
37 37 37 38 38 38 38 38 39 41 42 44 44 44 44 45 46 47 48 50 52 53 54 54 54 53 53 53 53 52 52 54 57 54 52 56 59 58 60 59 56 55 55 54 51 49 47 46 46 46 46 47 47 47 46 44 43 42 41 41 41 41 40
38 38 38 38 39 40 40 40 40 41 42 43 45 46 46 46 47 47 48 49 51 53 54 55 56 56 55 55 54 55 55 55 56 54 50 53 59 60 61 61 59 57 57 56 54 51 48 47 47 46 45 45 46 46 47 46 45 44 43 42 42 41 40
40 40 40 40 40 40 41 42 42 42 43 43 44 46 47 47 48 48 49 49 50 52 54 55 57 57 57 58 57 57 57 56 55 54 50 49 54 59 60 60 60 59 58 58 56 54 53 51 50 48 47 45 45 46 46 46 46 46 44 44 43 43 41
41 42 42 43 42 42 42 43 44 44 44 44 45 46 47 48 48 49 50 50 50 51 53 55 56 58 58 59 60 60 59 58 56 55 53 49 51 55 56 57 61 62 62 61 59 57 57 55 53 52 50 48 47 46 45 45 46 46 46 45 45 44 43
43 43 43 44 44 44 44 44 45 45 46 46 46 46 47 48 48 49 49 51 51 51 52 54 55 57 58 60 62 62 61 60 59 57 55 52 52 52 51 54 60 62 61 62 62 61 59 58 57 56 53 51 49 48 46 44 44 44 45 45 45 45 44
44 44 44 45 45 45 45 46 46 46 47 47 47 47 47 48 48 49 49 50 51 51 52 53 54 55 57 59 61 63 63 62 61 59 57 55 52 50 48 50 56 59 59 58 59 61 62 62 60 58 56 55 52 50 48 45 44 43 43 43 44 45 44
44 44 44 44 45 46 46 46 47 47 48 48 48 48 48 48 49 49 49 49 50 51 51 52 53 54 55 57 59 62 64 64 64 61 59 58 55 51 48 48 51 54 56 57 57 58 60 62 63 61 58 59 57 53 51 48 46 44 43 42 42 43 43
43 44 44 44 44 45 46 46 47 48 48 48 48 49 49 49 49 49 50 50 50 50 51 52 53 54 54 55 57 59 62 65 66 64 63 61 58 56 54 53 53 52 53 56 57 58 57 57 61 64 63 62 60 56 54 52 50 47 45 43 42 42 43
43 44 44 44 44 44 44 45 46 47 48 49 49 49 49 49 49 50 50 50 51 51 51 51 52 53 54 55 55 56 59 63 65 66 66 64 61 60 59 58 58 56 54 53 53 56 56 53 54 60 63 63 61 59 57 56 52 50 48 46 44 43 43
43 43 44 44 43 42 43 44 45 46 46 47 48 48 49 49 49 50 50 50 51 51 52 52 52 53 54 55 55 55 56 60 63 65 67 67 65 63 62 62 61 59 58 56 52 50 52 52 51 52 56 60 62 61 60 58 55 53 51 48 46 46 45
43 43 43 43 43 42 42 42 43 44 44 45 46 47 48 48 49 50 50 50 51 51 52 52 53 53 54 55 55 55 55 56 60 63 66 67 67 66 65 64 63 62 61 61 59 55 53 51 50 48 48 53 59 61 60 59 57 56 54 50 48 48 47
44 44 44 44 43 43 43 42 42 43 44 45 46 46 47 48 49 49 50 50 50 50 51 52 53 54 54 54 54 55 56 55 57 60 63 65 67 69 69 67 66 65 64 63 62 62 60 56 52 49 45 47 54 57 58 58 58 58 56 53 53 52 50
44 45 45 45 44 44 43 43 43 43 44 45 46 47 47 48 49 50 50 50 50 50 50 51 52 53 54 54 54 54 55 56 57 58 60 63 65 68 69 70 69 69 67 66 64 63 63 63 59 53 48 48 52 53 54 58 59 59 57 56 57 55 53
44 45 45 45 45 45 44 44 44 43 44 44 46 48 49 50 50 51 51 50 51 51 51 51 51 52 53 54 54 54 54 56 57 58 58 60 63 66 67 69 70 72 70 68 66 64 63 63 60 55 50 50 52 52 52 55 57 59 60 59 57 55 55
45 46 46 46 46 45 45 45 45 45 45 45 46 48 50 51 52 53 53 53 52 52 52 52 52 52 53 54 54 54 54 55 57 58 59 59 60 63 65 67 69 72 72 70 69 67 65 62 60 56 53 52 55 56 55 53 54 57 60 60 58 57 58
47 47 47 47 47 47 47 47 47 46 46 47 47 48 50 52 53 54 55 55 55 54 54 54 54 54 54 54 54 55 55 55 55 57 59 59 59 60 62 65 67 68 71 72 71 70 66 63 60 58 56 56 56 57 55 52 52 55 57 57 58 59 61
49 49 49 48 48 48 48 48 48 48 48 48 48 49 50 51 53 54 55 56 56 56 56 56 57 57 56 55 55 55 55 55 55 57 59 60 61 60 60 62 64 66 68 70 72 72 69 65 63 61 59 58 58 58 56 53 53 54 55 54 55 59 62
49 49 49 49 48 48 49 49 50 50 50 50 50 50 50 51 52 54 56 57 58 58 57 58 58 58 58 57 56 56 56 57 56 57 58 60 61 61 61 61 62 63 66 67 69 71 69 67 66 64 61 60 60 60 58 56 54 54 55 53 52 56 59
48 48 48 48 48 48 49 50 51 51 51 52 51 51 51 52 52 53 55 57 59 60 59 59 59 59 59 58 58 57 57 57 58 58 58 60 61 62 62 62 62 62 63 64 66 68 68 69 69 66 64 62 61 61 60 57 53 54 56 54 53 55 56
48 48 48 48 48 48 49 50 51 51 52 52 52 52 52 53 53 53 54 56 58 60 61 60 60 60 59 59 59 58 57 58 58 59 59 59 61 62 63 64 64 63 62 62 63 65 67 70 70 68 66 63 61 61 61 60 56 55 58 56 54 56 54
48 48 49 49 49 49 50 50 51 51 52 52 52 52 53 53 53 54 54 56 58 60 62 61 61 61 60 59 59 58 58 58 58 59 59 59 60 62 63 64 65 64 62 61 61 63 66 68 70 69 66 64 62 61 61 61 60 60 61 56 54 56 53
48 49 49 50 49 50 50 51 51 51 52 53 53 53 53 53 53 54 54 55 56 59 61 61 61 61 61 60 60 59 59 59 58 58 59 59 60 61 63 64 65 66 65 62 61 62 63 65 68 69 67 65 64 63 62 61 60 62 61 54 52 53 50
50 50 50 50 50 50 50 51 51 51 51 52 53 53 53 53 54 54 54 55 55 57 59 60 61 61 61 61 60 60 60 59 58 57 58 59 59 61 63 64 65 66 67 65 63 62 62 64 66 68 68 65 63 64 65 63 61 61 59 53 50 49 47
50 51 51 51 51 51 50 50 50 50 51 51 52 53 53 53 53 54 54 55 55 56 57 59 60 60 61 61 61 61 61 60 58 56 56 57 58 60 63 65 65 65 67 67 65 63 63 63 64 66 67 66 65 65 65 63 61 62 59 53 49 48 47
49 50 51 51 51 51 51 51 51 51 51 52 52 53 53 53 53 54 54 55 55 56 56 58 59 59 60 61 61 61 61 60 58 56 54 54 55 57 61 64 65 65 66 67 67 65 64 63 63 65 66 67 66 65 64 62 62 63 62 55 50 50 49
48 48 49 49 50 50 50 51 51 52 52 52 53 53 53 53 54 54 54 55 56 56 57 57 58 59 60 61 61 61 61 60 58 55 53 53 53 54 57 61 64 64 65 66 68 67 65 64 63 64 66 67 67 66 65 63 61 62 61 56 53 53 51
46 47 47 47 47 47 48 49 50 51 53 53 53 53 53 53 53 53 54 55 56 56 56 57 58 59 59 60 61 61 61 60 59 56 53 52 52 52 55 58 60 62 63 65 67 68 67 66 64 64 66 67 67 67 66 64 61 60 59 56 55 55 53
45 46 46 46 46 46 47 49 51 52 53 53 54 54 54 53 53 53 54 55 55 54 54 55 57 58 59 60 61 61 61 60 59 57 54 53 53 53 54 55 56 58 60 63 66 68 68 67 66 65 65 66 68 68 67 64 62 61 60 58 57 57 54
44 45 45 45 46 47 49 50 51 52 53 53 54 54 53 53 51 51 51 52 53 52 52 53 56 57 58 60 60 60 60 60 59 58 56 54 53 53 53 53 53 54 56 59 63 66 68 69 68 67 66 67 69 69 68 64 62 60 59 58 58 57 54
43 43 43 45 46 48 49 49 50 51 51 51 51 50 49 48 46 45 46 47 48 49 49 51 53 55 57 59 60 59 59 59 59 58 57 55 53 53 52 51 51 51 52 54 59 63 68 70 70 69 68 68 69 69 67 65 63 61 58 57 57 59 58
41 41 43 44 46 46 47 47 47 47 47 47 46 46 45 44 41 40 41 42 43 44 46 47 49 52 54 57 57 57 58 58 57 57 56 54 53 53 52 50 49 49 49 51 54 60 66 70 71 70 69 68 68 68 66 64 65 64 61 59 58 59 61
39 41 43 43 43 43 43 43 43 43 44 45 45 45 45 44 41 40 41 41 40 40 42 43 45 48 51 53 54 55 55 56 55 55 54 53 52 52 51 49 48 48 48 48 50 55 63 69 71 71 70 68 67 66 65 64 65 63 61 60 59 59 61
39 40 41 40 40 40 40 40 41 42 44 45 46 46 46 45 43 41 41 41 39 37 37 38 40 43 46 49 50 51 52 52 51 51 51 51 51 52 50 49 48 48 47 47 47 51 59 67 71 71 70 68 66 65 64 64 64 63 61 60 59 60 61
38 38 38 37 37 37 38 40 42 44 45 44 44 44 43 42 41 39 39 39 38 36 35 36 38 40 42 43 44 44 44 44 45 46 47 49 51 51 50 48 47 45 44 45 47 49 54 63 69 71 71 69 66 65 65 65 64 63 61 59 57 59 60
37 36 35 35 34 35 38 40 42 44 44 42 41 40 38 36 36 36 37 38 39 37 36 37 38 39 40 40 39 37 37 38 40 43 47 50 51 51 48 45 42 41 43 46 48 49 51 59 67 71 71 70 67 65 66 66 65 63 61 58 57 59 58
35 34 33 33 34 35 37 38 41 43 42 38 34 33 31 30 31 32 34 36 39 40 40 39 40 42 42 41 39 37 37 37 39 42 47 49 50 49 46 43 42 43 46 49 50 49 51 57 65 70 71 69 66 66 68 68 67 65 62 59 59 59 55

ECMWFFLT1_500_spd_009.txt.gz
Wind_Speed
30 30 30 30 31 31 32 33 33 34 35 36 36 36 37 38 40 42 44 45 45 46 47 48 49 49 50 51 51 51 51 51 51 52 51 53 56 52 47 50 52 51 52 52 53 53 52 51 49 49 49 49 50 49 48 47 47 47 46 45 44 46 46
31 31 31 31 32 32 32 33 33 34 35 36 37 37 38 38 39 41 43 44 46 47 47 48 49 50 51 52 53 53 53 53 53 53 51 51 55 55 53 54 54 53 53 52 53 56 55 54 53 51 49 49 50 50 50 49 48 48 48 46 45 46 46
32 32 32 32 33 33 34 34 34 34 35 36 37 38 39 39 40 41 42 44 46 47 48 48 49 50 51 53 54 54 54 55 55 55 54 53 54 54 53 56 59 57 54 51 51 54 57 57 55 53 52 51 49 49 50 50 49 50 50 47 46 47 47
33 34 34 34 34 34 35 35 36 36 36 37 37 38 39 40 41 41 42 44 45 47 47 48 49 50 51 53 55 55 55 57 57 56 56 55 55 54 52 54 59 60 56 52 50 51 55 57 57 56 55 54 51 50 50 48 49 50 50 49 48 47 48
35 35 36 36 37 37 37 36 37 37 38 38 38 39 40 41 42 42 43 44 45 46 47 48 49 50 51 52 54 55 56 58 58 58 57 56 56 56 53 52 56 61 58 52 50 53 55 58 60 59 57 56 54 53 52 50 49 50 50 50 49 48 49
36 37 37 38 39 39 40 39 39 39 39 39 40 40 41 42 42 43 44 45 45 46 48 48 49 50 52 52 53 54 56 58 59 59 58 58 57 57 55 53 55 60 62 56 51 52 55 60 62 60 58 57 57 56 55 54 52 50 49 49 49 48 49
37 38 39 39 40 41 42 42 42 42 41 41 41 41 42 42 43 44 44 45 46 46 47 49 50 50 51 53 53 54 55 57 59 60 60 60 59 59 58 57 56 58 62 62 56 51 51 56 61 61 59 58 59 59 58 58 55 52 51 49 48 48 47
39 40 40 41 41 42 43 44 44 45 44 43 43 42 43 43 44 45 45 46 46 47 48 48 49 50 51 52 53 54 54 56 57 59 61 61 61 61 60 60 59 58 59 61 59 53 50 52 55 59 60 59 60 62 61 60 58 55 53 51 50 48 47
40 41 42 42 43 44 44 45 45 46 46 45 45 44 44 44 45 45 46 46 47 47 48 49 49 50 51 52 53 54 54 55 56 57 59 61 62 63 63 62 62 61 60 59 57 55 53 52 51 53 58 61 61 61 63 64 61 58 55 53 52 52 50
42 42 43 43 44 44 45 45 45 45 46 46 46 46 45 45 45 46 46 47 47 48 48 49 50 51 52 53 53 53 54 55 56 56 58 60 62 63 64 64 64 63 61 60 58 57 57 56 54 51 54 60 60 59 62 65 64 61 58 56 56 55 53
43 44 45 45 45 45 45 45 45 45 45 46 46 46 46 46 46 46 46 47 47 48 48 49 49 50 52 53 54 54 54 54 55 56 57 58 60 62 63 64 65 65 63 61 60 60 60 59 57 53 53 58 60 61 62 64 66 65 63 60 59 57 55
44 45 45 46 46 46 46 45 45 44 44 45 46 46 47 47 46 46 46 47 47 48 48 49 49 50 51 52 54 54 54 55 55 56 57 57 58 60 62 63 64 65 65 64 62 62 62 60 57 53 52 54 57 61 62 63 65 67 65 65 63 59 56
45 45 45 46 46 46 46 45 45 44 44 45 46 47 47 47 47 46 46 47 47 47 48 49 49 50 50 51 52 53 54 55 55 56 56 57 57 58 60 62 63 64 65 66 65 64 62 61 59 55 52 51 53 56 58 57 56 56 57 63 64 61 59
46 46 46 46 47 46 46 45 45 45 45 45 46 47 48 48 48 47 47 47 47 47 48 48 49 50 50 50 51 51 52 53 55 56 56 57 57 57 59 61 62 62 63 65 66 66 64 62 62 59 55 53 52 52 54 54 51 47 49 55 59 62 63
45 45 46 46 47 46 46 46 45 45 45 46 46 47 48 49 49 49 48 47 47 48 48 48 49 49 50 50 50 50 51 52 53 54 55 56 56 57 58 59 61 61 62 63 64 66 66 65 64 62 59 58 57 54 53 52 50 46 44 47 52 56 61
45 45 46 46 46 47 47 47 46 46 47 46 47 47 48 49 50 50 49 49 48 48 49 49 49 49 50 50 50 50 51 51 51 52 54 55 55 56 57 58 60 61 61 62 63 64 66 67 67 65 61 60 60 58 55 54 52 48 43 43 46 49 52
45 46 46 47 47 47 48 48 48 49 48 48 48 48 49 50 50 51 51 50 50 50 49 50 50 50 50 50 51 51 51 51 52 52 52 53 54 55 56 56 58 60 61 61 62 63 65 67 68 67 65 63 61 59 58 57 57 55 51 48 47 45 46
45 45 46 47 47 48 48 49 50 50 50 50 50 50 50 51 51 52 52 52 52 51 51 51 51 51 52 52 51 52 52 52 53 52 52 53 53 54 55 56 56 57 60 61 61 62 64 66 67 67 67 67 64 62 60 59 59 60 60 57 52 48 48
44 45 45 46 47 48 49 49 50 50 51 51 51 52 52 52 53 53 54 54 53 53 53 53 53 53 53 54 53 53 53 53 53 54 53 53 53 54 55 56 56 56 58 60 61 62 63 65 65 66 67 67 67 65 63 61 61 62 63 61 56 54 54
44 44 45 46 47 47 48 48 49 50 50 51 52 52 53 53 54 54 54 54 55 55 55 55 54 55 55 55 55 55 55 55 54 54 55 55 55 55 55 56 57 56 56 58 60 61 62 64 64 64 65 66 66 65 64 63 63 62 62 60 57 58 60
44 45 45 46 46 47 47 48 48 49 50 50 51 52 53 53 54 54 54 54 55 56 56 56 56 56 55 56 56 56 56 56 56 56 56 56 56 56 56 57 57 57 56 56 58 60 62 63 63 63 64 64 63 64 64 65 65 64 63 59 57 59 62
45 45 46 46 47 48 48 48 49 49 50 50 51 52 52 52 53 54 54 54 55 55 56 56 56 56 56 56 57 57 57 57 57 57 57 57 57 57 58 58 58 58 57 56 57 59 61 63 63 62 63 63 62 62 61 62 64 65 64 60 58 60 63
45 45 46 47 47 48 49 49 49 50 50 51 51 52 52 52 52 53 53 54 55 55 56 56 56 56 57 57 58 58 59 59 58 59 59 59 59 59 59 59 59 60 59 57 57 58 60 63 63 62 61 61 61 61 60 61 62 63 63 62 62 64 64
44 45 46 47 47 48 49 49 50 50 51 51 51 52 52 52 52 53 53 54 54 55 55 55 55 56 56 57 58 59 59 60 60 60 60 60 60 60 60 61 61 61 61 59 58 57 59 61 63 62 61 60 60 59 59 61 62 59 58 60 65 67 65
44 46 46 47 48 49 49 49 49 50 50 50 51 51 52 52 52 53 54 54 54 54 55 55 55 56 56 57 58 60 60 61 61 61 61 61 61 61 61 62 62 62 62 60 59 58 58 59 62 63 61 60 60 60 59 61 61 59 56 58 64 67 65
45 46 47 48 49 49 50 50 50 50 50 50 51 51 51 52 53 53 54 55 55 55 55 55 55 56 57 58 59 60 61 61 62 62 62 63 63 62 62 63 63 63 62 61 60 59 57 58 60 62 63 62 61 61 62 62 60 58 58 59 61 64 65
45 46 47 48 48 49 50 50 50 50 50 51 51 51 52 52 52 53 54 55 55 55 56 56 57 57 57 58 59 61 62 62 63 62 62 63 63 63 63 63 63 63 62 62 60 59 58 57 58 61 63 63 62 62 62 62 62 60 58 58 59 62 65
46 47 48 48 49 49 50 50 50 50 50 51 51 51 52 52 52 53 53 54 55 55 56 57 58 58 59 59 60 62 63 63 63 63 63 62 62 63 63 63 63 63 62 62 60 58 58 57 57 59 62 63 63 63 63 62 63 63 60 57 56 59 62
48 48 48 49 49 49 49 49 49 49 50 50 50 50 51 52 52 53 53 54 54 54 55 57 58 59 59 60 61 62 63 64 65 64 63 62 61 62 62 62 62 62 62 61 59 58 57 57 58 59 61 63 64 65 64 63 63 64 63 60 57 58 60
47 48 48 49 48 48 48 47 46 47 47 48 48 49 50 51 52 53 53 54 54 55 55 56 58 59 60 61 62 63 64 65 65 64 63 61 60 61 61 61 62 62 62 60 58 57 57 57 57 58 60 62 64 66 66 65 64 64 63 62 60 60 60
45 46 46 46 45 45 44 43 43 44 45 46 47 48 50 51 51 52 53 54 55 56 56 56 58 59 60 61 62 63 64 65 65 64 63 61 59 59 60 60 61 62 61 58 57 57 56 55 56 57 59 60 63 65 66 65 64 63 62 62 62 61 60
44 44 44 42 41 40 40 41 42 44 46 47 48 49 50 51 51 52 53 53 54 54 54 54 54 55 57 59 60 61 63 64 63 62 61 60 58 58 58 59 60 61 59 57 57 56 55 54 55 56 57 58 61 64 65 64 64 64 62 61 62 63 62
43 42 40 39 38 38 40 42 44 45 46 46 47 48 48 49 50 50 50 50 51 52 52 50 50 51 52 54 55 58 61 61 60 59 59 58 56 55 57 58 58 59 58 56 56 56 54 53 54 55 56 56 59 62 64 64 65 64 63 62 63 65 65
40 39 38 37 37 39 41 43 43 43 43 43 43 44 45 46 47 46 47 49 51 52 51 49 48 47 48 49 51 54 57 58 57 56 54 53 52 53 55 56 57 58 57 55 55 55 54 53 55 55 54 53 56 60 63 65 66 65 64 64 65 66 67
37 36 36 36 38 41 42 42 40 39 40 40 41 43 44 45 45 46 47 50 50 50 49 47 45 44 45 45 46 48 51 53 53 51 50 49 50 51 53 55 56 56 56 55 55 55 54 55 56 55 53 52 54 57 61 64 67 67 66 65 65 65 67
35 34 35 37 40 41 40 39 37 37 38 40 41 42 44 45 47 47 47 45 44 42 41 40 41 42 43 43 42 43 45 48 50 49 47 47 48 50 52 54 55 55 55 54 55 55 55 56 56 54 53 52 52 53 56 61 66 68 67 66 65 64 65
33 34 36 38 40 39 37 36 36 37 38 39 41 42 44 46 46 44 39 36 34 34 33 32 34 37 39 40 40 40 41 44 46 46 47 48 48 50 51 53 54 55 54 55 56 56 56 57 56 54 53 52 50 49 51 58 64 67 67 66 65 63 63

ECMWFFLT1_500_spd_012.txt.gz
Wind_Speed
26 27 27 27 28 28 29 29 30 30 31 31 30 30 30 30 30 31 32 34 34 36 37 38 40 41 42 43 45 46 46 46 46 45 44 44 44 44 47 51 53 53 53 51 50 49 48 47 47 46 45 44 43 42 43 44 45 46 46 46 45 45 46
27 27 27 28 28 28 29 30 30 30 31 32 32 32 31 31 31 31 32 33 34 36 36 38 39 40 42 43 45 46 47 47 47 47 47 47 46 45 46 49 51 54 55 53 51 50 49 48 49 50 49 48 47 46 44 44 45 46 46 46 46 46 46
27 27 27 28 28 28 29 29 30 30 31 31 32 32 33 33 32 32 33 33 34 36 37 38 39 40 41 42 44 46 47 48 48 49 48 49 49 48 48 49 49 52 55 56 54 54 53 49 46 48 50 50 50 50 49 48 47 47 46 45 45 45 46
28 28 28 28 28 28 28 29 29 29 30 31 31 32 33 34 34 34 34 34 35 36 37 38 39 40 41 42 44 46 47 48 49 50 49 50 51 51 51 51 52 51 53 55 56 58 60 57 51 48 47 49 50 51 52 52 51 49 47 46 45 43 45
28 28 28 28 29 29 29 29 29 29 30 30 31 31 32 33 34 35 36 36 36 36 37 38 40 41 41 43 44 46 47 48 50 51 51 51 52 53 53 54 54 53 54 54 54 56 58 59 58 54 49 49 50 50 51 53 55 54 51 49 48 45 44
29 29 29 29 29 30 31 31 31 31 31 31 31 31 32 33 34 35 36 37 38 38 38 39 40 41 42 43 44 46 48 49 50 51 52 52 53 54 55 55 55 56 56 55 55 55 55 56 56 54 53 53 53 52 50 49 52 56 55 52 50 49 47
29 30 30 30 30 31 32 33 33 34 34 34 33 33 33 33 34 35 35 36 38 39 40 40 41 42 43 44 45 46 48 49 50 52 52 53 53 55 56 56 57 57 58 58 57 57 57 57 55 53 54 55 56 55 52 49 49 53 56 54 53 53 52
30 31 31 32 32 33 34 34 35 36 36 37 36 36 36 36 36 36 36 37 37 39 40 41 42 43 44 45 45 46 48 50 51 52 53 54 54 55 56 57 57 58 59 59 59 59 59 58 57 56 55 54 56 56 52 49 49 49 51 54 55 55 54
32 33 33 33 34 34 35 36 37 37 38 38 39 39 39 39 39 39 39 39 39 39 40 41 43 44 45 46 47 47 48 50 51 52 53 54 55 56 57 58 58 58 59 60 60 61 60 59 58 58 57 54 54 55 53 50 48 47 48 52 56 57 56
34 34 35 35 36 37 37 38 38 39 39 39 40 40 41 41 42 42 41 41 41 41 41 41 42 44 45 47 48 49 49 50 51 52 53 54 55 56 57 58 59 59 59 60 61 61 61 60 59 59 59 57 54 54 55 55 52 48 48 52 55 57 58
36 37 38 38 38 39 39 40 40 40 40 40 41 41 42 43 43 44 44 43 43 43 43 42 42 43 45 46 48 49 50 51 52 52 54 55 55 55 56 58 59 59 59 60 60 61 61 61 61 60 60 59 57 55 54 57 57 51 47 49 51 54 57
38 39 40 40 40 40 41 41 41 42 42 42 43 43 43 44 45 45 46 45 45 45 45 44 44 44 44 46 47 49 50 52 52 53 54 56 56 56 56 57 58 59 60 60 60 60 61 61 61 62 61 60 59 57 54 56 57 53 49 49 48 51 56
39 40 41 41 42 42 42 43 43 44 44 44 45 45 45 45 46 46 47 46 46 46 46 46 46 45 45 45 47 48 49 51 52 53 54 56 57 57 57 57 58 58 59 60 60 60 60 60 61 61 62 62 60 60 57 56 55 52 51 53 51 50 53
40 41 42 42 44 44 45 45 45 46 46 46 46 46 46 46 46 47 47 47 47 46 46 46 47 47 46 46 46 47 49 50 51 52 53 55 56 58 58 58 58 58 58 59 59 60 60 60 60 60 61 62 61 61 60 58 57 54 53 55 54 53 50
41 42 43 44 45 46 47 47 47 47 47 47 47 47 47 46 46 46 47 48 48 48 47 47 48 48 48 48 47 47 48 49 50 51 52 53 55 57 58 59 59 59 59 59 59 59 59 59 60 59 60 61 61 61 61 60 60 58 55 54 54 55 53
42 43 44 45 46 46 47 48 48 48 47 47 47 48 47 47 47 47 47 48 49 49 49 48 48 49 49 49 49 48 49 49 50 51 51 52 53 55 57 59 60 59 59 60 59 59 59 59 60 59 59 60 60 60 60 61 61 60 58 55 54 55 53
42 43 43 44 45 46 46 47 47 47 47 47 47 47 48 48 48 48 48 49 49 50 50 50 50 49 50 50 50 50 50 50 50 50 51 52 52 53 55 56 59 60 60 60 60 60 59 59 60 60 59 59 60 59 59 60 61 61 60 58 56 56 52
42 42 42 42 43 44 45 45 46 46 46 47 47 48 48 49 49 50 49 49 50 51 51 52 52 51 51 51 51 51 51 51 51 51 51 51 52 53 53 54 56 58 59 60 60 60 60 59 59 60 60 60 60 59 58 59 59 59 61 60 58 58 55
40 40 40 40 41 43 44 44 46 46 47 48 48 49 49 50 50 50 50 50 51 51 52 53 53 53 53 53 53 53 53 52 52 53 52 52 52 52 53 53 54 55 57 59 60 60 60 59 59 59 60 60 60 60 59 58 58 58 60 61 60 60 60
37 37 37 38 39 41 42 44 45 46 48 48 49 49 50 50 51 51 51 51 52 52 52 53 54 54 54 54 54 54 54 54 54 54 54 53 53 53 52 53 53 54 55 56 58 59 59 59 59 58 60 60 60 61 61 59 58 58 59 59 60 62 62
35 36 38 39 40 42 43 44 46 47 49 49 50 50 51 51 51 51 51 52 52 52 53 53 54 54 54 55 55 55 56 56 56 55 55 55 55 54 54 53 53 53 54 55 56 57 58 59 59 59 60 60 59 61 61 61 59 59 59 58 58 61 63
36 37 39 40 41 43 44 45 46 47 48 49 50 51 51 52 52 52 52 52 53 53 53 53 53 54 54 55 56 57 56 57 57 57 57 57 56 56 56 55 54 54 54 54 55 56 57 58 58 59 59 59 60 60 60 61 61 59 59 58 58 60 63
36 37 38 39 41 42 43 44 45 45 46 46 47 48 49 50 50 51 52 52 53 53 53 53 53 53 54 55 56 57 57 57 58 58 58 58 58 58 58 57 57 56 55 55 55 56 56 56 57 59 59 59 59 59 59 60 61 60 59 58 58 60 60
37 37 38 39 40 41 42 43 44 44 44 45 45 46 47 48 49 50 51 51 51 52 52 52 52 53 54 55 56 57 57 58 58 58 59 59 59 59 59 59 59 58 56 55 55 56 56 56 56 58 59 59 59 60 59 59 60 60 60 58 58 58 57
38 38 39 40 41 42 43 44 44 44 44 45 45 45 46 47 48 49 50 51 51 51 51 51 51 52 53 54 55 57 57 58 58 58 59 59 60 60 60 60 60 60 58 57 56 56 56 57 57 57 59 59 59 60 60 59 59 59 59 58 59 60 58
39 39 40 42 43 43 44 44 45 45 45 45 45 45 47 48 48 49 50 51 51 51 51 51 51 52 53 54 55 56 57 57 58 58 58 59 60 60 60 60 61 60 60 59 58 57 56 56 58 58 59 59 60 60 60 60 59 58 58 58 59 60 58
39 41 42 43 44 45 45 45 45 45 46 47 46 47 49 49 49 50 50 51 51 52 52 52 52 53 53 54 55 56 56 57 57 58 58 59 60 60 61 61 61 61 61 60 60 59 58 57 58 59 60 60 60 59 59 60 60 58 59 59 59 59 57
41 42 43 44 45 45 46 46 46 46 47 48 47 48 50 50 50 50 50 51 51 51 52 53 53 54 54 54 55 56 56 57 57 58 59 59 60 60 60 61 61 61 61 61 60 60 60 60 59 59 60 60 60 60 60 60 60 59 59 59 59 59 57
42 43 44 45 45 45 46 46 47 47 47 48 48 49 50 50 49 49 49 49 50 50 51 52 53 54 55 55 56 56 57 57 58 58 59 59 60 60 60 60 60 61 61 61 60 60 61 62 61 60 60 61 61 60 59 59 60 60 59 59 59 60 58
43 44 44 45 45 46 46 47 48 48 48 48 48 48 48 47 46 46 46 47 48 49 50 51 52 54 55 56 57 58 58 59 59 59 59 60 60 61 61 61 60 60 60 60 60 60 61 63 63 61 60 61 61 61 59 59 60 60 60 59 60 60 60
44 44 44 44 46 46 47 48 48 49 49 48 47 46 45 44 44 45 46 48 49 50 50 51 52 53 54 56 57 59 60 61 61 61 61 60 61 61 61 61 61 61 60 59 59 59 60 62 64 62 60 61 62 61 59 60 60 60 60 60 59 60 60
43 43 44 45 46 47 47 49 49 49 48 46 45 44 44 45 46 48 49 50 51 51 51 51 52 53 54 56 57 59 61 62 62 62 62 62 62 62 62 62 62 62 61 60 59 59 59 61 63 63 62 61 62 61 59 60 61 59 59 59 59 59 60
42 43 44 46 47 47 48 49 49 47 46 45 45 45 46 48 49 49 49 49 49 50 50 50 51 51 52 54 56 58 60 61 62 62 63 64 63 63 64 64 64 63 62 62 61 59 60 61 62 64 63 61 60 59 59 60 60 58 58 58 58 59 60
42 43 45 46 47 48 48 48 47 45 44 45 45 46 48 48 47 46 45 45 46 46 47 48 49 50 51 53 54 56 57 57 58 59 60 61 61 62 62 63 64 64 63 63 62 61 60 61 62 63 62 59 58 58 59 60 59 57 57 57 56 58 60
42 44 45 46 47 47 46 46 45 44 43 44 45 46 46 45 44 43 43 44 45 46 47 48 49 50 52 53 54 55 56 56 56 56 57 57 58 58 59 60 61 62 62 62 62 60 60 60 62 62 60 57 57 58 59 59 58 57 56 55 55 56 59
43 44 45 45 45 45 44 44 43 42 43 44 45 44 43 42 42 42 43 44 46 47 48 49 50 51 51 50 49 50 51 52 52 52 52 53 53 54 55 56 57 58 59 60 59 58 58 59 61 60 58 57 58 59 60 59 57 56 55 53 52 52 56
43 44 44 44 43 43 42 41 41 42 43 44 43 42 41 41 42 42 44 45 46 47 48 48 46 44 42 40 40 41 42 44 45 45 46 47 47 49 50 51 52 54 56 57 57 57 58 59 60 59 59 59 59 59 60 58 56 54 53 51 49 49 53

ECMWFFLT1_500_spd_015.txt.gz
Wind_Speed
27 27 26 26 26 26 26 26 26 26 26 26 25 25 25 25 26 26 26 27 27 28 28 28 29 30 31 33 34 36 38 38 39 40 39 40 41 40 40 41 40 40 40 42 43 45 47 46 44 43 43 43 43 41 41 40 40 40 41 41 41 41 42
26 27 27 27 27 26 27 27 27 27 27 27 27 26 26 26 26 27 27 28 28 29 29 29 30 30 31 32 33 35 37 38 38 39 40 42 42 42 42 43 42 41 40 41 42 43 44 46 47 47 46 46 45 44 44 43 42 42 42 42 41 41 41
26 26 27 27 27 27 27 27 28 28 28 29 28 28 28 27 27 27 28 28 29 29 30 30 30 31 31 32 33 34 36 37 37 38 40 42 43 43 44 45 44 43 43 43 43 42 41 43 45 48 50 51 49 48 47 47 47 46 45 44 42 42 42
26 26 27 27 28 28 28 28 28 29 29 30 30 30 30 29 29 29 29 29 29 30 30 31 31 32 32 32 33 34 36 37 37 38 39 40 42 43 44 46 46 45 46 46 45 44 44 43 43 44 47 51 52 51 50 50 50 50 50 48 46 44 44
27 27 27 28 28 29 29 29 29 30 30 30 31 31 31 31 30 30 30 30 30 30 31 31 32 33 33 34 34 35 36 37 38 39 39 40 41 42 43 45 46 46 47 48 47 47 47 46 45 44 43 46 50 51 51 52 51 50 50 50 50 48 47
27 28 28 28 29 29 29 29 30 30 30 30 31 31 31 31 31 31 31 31 31 32 32 32 33 33 34 35 36 36 37 38 39 39 40 41 42 43 44 45 46 46 47 48 49 49 49 49 49 47 45 46 48 48 50 52 53 52 50 49 48 48 48
27 28 28 28 28 29 29 29 29 30 30 30 30 30 30 30 30 31 31 32 32 33 33 34 34 34 35 35 37 37 38 39 40 40 41 41 42 43 44 45 46 47 47 48 49 50 51 51 51 50 49 50 51 50 50 51 52 53 53 51 51 50 50
27 27 28 28 28 29 29 29 29 30 31 31 31 31 31 31 31 31 32 32 33 33 34 35 35 36 36 36 37 38 39 40 41 41 42 43 43 44 45 46 47 47 48 48 50 51 51 52 53 52 52 53 53 52 52 52 52 52 50 51 53 54 53
28 28 29 29 29 29 30 31 31 31 32 32 33 33 33 33 34 34 34 34 34 34 34 35 36 37 38 38 38 39 40 40 41 42 43 44 44 45 47 47 47 48 49 49 50 51 52 53 53 54 54 55 55 54 54 54 54 52 50 50 51 52 54
30 30 31 31 30 31 32 32 32 33 33 33 34 34 34 34 35 35 36 36 36 36 36 36 37 37 38 39 40 40 41 41 42 43 44 44 45 46 47 49 49 49 49 50 51 52 52 53 54 55 55 56 57 57 56 56 55 54 52 53 52 52 53
31 31 32 32 32 32 33 34 34 34 35 35 35 35 36 36 36 37 37 37 37 37 38 38 38 38 39 39 40 41 42 43 43 44 45 45 46 46 48 49 50 50 51 51 52 53 54 54 55 55 56 56 58 58 58 58 57 56 55 55 55 53 53
33 33 33 34 34 34 35 36 36 37 37 37 37 37 37 38 38 38 38 39 39 39 40 40 40 40 41 41 41 42 42 43 44 46 47 48 47 48 48 49 50 51 52 52 53 53 54 55 56 56 57 57 58 58 58 59 59 57 57 57 56 56 56
34 34 35 35 36 36 37 37 38 38 39 39 39 39 39 39 40 40 41 41 42 42 42 42 43 43 43 43 43 43 44 44 45 46 47 49 50 50 50 50 51 52 52 53 54 54 55 55 56 57 58 58 58 58 58 60 60 57 56 57 57 58 58
33 34 35 36 37 37 38 39 39 40 40 41 41 41 41 41 42 42 43 43 44 45 45 45 46 45 45 45 45 46 45 46 46 47 48 49 50 51 52 52 52 52 53 54 54 55 55 56 57 57 58 59 59 59 58 59 60 57 55 56 58 58 59
33 34 35 36 37 38 39 40 41 41 42 42 43 43 43 44 44 44 45 45 46 46 47 47 48 48 48 47 47 47 47 47 48 48 48 49 50 51 52 53 53 53 54 54 54 55 56 56 57 57 58 59 59 59 59 60 60 58 55 54 56 58 60
33 34 35 37 38 40 41 42 43 43 43 44 44 44 45 45 46 46 46 46 46 47 47 48 49 49 50 49 49 48 48 49 49 49 49 50 50 51 52 53 54 54 54 55 55 55 55 56 57 58 58 58 59 59 59 60 60 59 56 53 55 58 59
35 36 37 39 40 41 42 43 44 44 45 45 45 45 46 46 46 47 47 47 47 47 47 48 49 49 50 51 51 50 49 50 50 51 51 51 51 52 52 53 54 55 55 55 55 55 56 56 57 58 58 59 59 59 59 59 60 59 57 54 54 56 57
36 37 39 40 41 42 42 43 43 44 44 45 45 45 46 46 46 46 46 46 46 46 47 48 48 49 50 51 52 51 50 50 51 51 52 52 52 53 53 54 55 55 55 55 55 54 55 56 56 57 58 59 60 59 59 59 60 60 59 56 54 54 56
37 38 39 40 41 41 42 42 42 43 43 43 43 44 44 45 45 45 45 45 46 46 47 48 49 49 50 51 52 52 52 52 52 52 52 53 53 54 54 55 55 56 56 55 55 54 54 55 56 57 57 58 60 60 60 60 60 60 60 58 55 54 56
38 39 40 40 41 41 41 41 41 41 41 42 42 43 43 44 44 45 45 46 47 48 49 50 50 51 50 51 52 53 53 53 53 53 53 53 54 54 55 56 56 57 57 57 56 55 55 55 55 56 57 58 59 60 61 61 61 61 61 60 57 55 56
38 40 40 40 40 40 40 40 40 40 40 40 40 40 41 42 43 44 45 45 47 48 50 51 52 52 52 52 53 54 55 55 55 54 54 54 54 55 56 56 57 57 58 58 58 57 55 55 55 56 56 57 58 59 60 61 61 61 61 61 59 57 57
38 39 39 39 39 39 39 39 39 39 38 37 37 38 39 40 41 42 43 44 45 47 49 50 51 51 52 53 54 55 56 57 57 56 56 55 55 55 56 57 58 58 59 60 60 59 57 56 56 56 56 57 57 58 59 60 61 61 61 61 59 58 58
38 38 38 38 39 38 38 38 38 38 38 36 37 37 39 40 41 42 43 44 46 47 48 49 50 51 51 52 53 55 56 57 58 58 58 58 57 57 57 57 58 59 59 60 61 61 60 59 57 56 56 57 57 57 58 59 60 60 60 60 60 59 59
38 38 38 38 39 39 39 39 39 39 38 37 37 38 39 41 42 44 45 46 47 48 49 50 50 51 51 52 53 54 55 56 58 59 59 60 59 58 58 58 58 58 59 60 61 62 62 61 60 58 57 57 57 58 58 58 59 59 59 60 59 59 59
38 38 38 39 39 39 39 39 40 39 38 38 39 40 42 43 44 45 46 47 48 49 49 49 50 51 52 53 54 54 55 55 56 57 59 59 60 59 59 59 59 59 59 60 61 62 63 63 62 61 59 58 57 58 58 58 58 58 59 59 59 58 58
39 39 40 40 39 39 39 39 40 39 38 38 40 42 44 45 45 46 47 49 49 49 49 49 50 51 52 54 55 55 56 56 56 57 58 58 59 59 60 60 60 60 60 60 61 62 63 63 63 63 62 60 59 58 58 59 58 58 58 59 59 58 57
41 41 41 41 40 39 39 40 40 39 39 39 41 43 44 45 46 47 48 49 49 49 49 49 50 52 52 54 55 56 56 56 57 57 57 58 59 59 60 60 60 60 60 61 61 62 62 63 63 63 64 63 61 59 58 59 59 58 58 58 58 57 56
42 43 42 42 41 40 40 41 41 40 40 41 42 43 44 45 47 49 49 50 49 49 50 51 51 52 52 52 53 54 56 56 57 57 57 58 59 60 60 60 60 60 60 61 62 62 63 63 63 63 63 63 62 61 59 59 59 59 58 58 57 56 55
43 43 43 42 42 42 42 42 42 41 41 43 44 44 46 47 48 49 50 50 50 50 51 51 51 50 50 50 51 52 54 55 56 57 57 58 59 60 61 61 61 61 61 61 61 62 63 63 64 63 63 63 63 62 60 59 59 59 59 58 57 56 55
43 43 43 43 43 43 43 43 42 42 43 45 46 47 48 49 49 49 49 50 51 51 50 49 48 48 48 49 50 51 53 54 55 56 57 58 59 60 61 62 62 62 62 61 61 62 63 63 63 63 63 63 63 63 61 60 59 60 60 59 58 57 56
43 43 43 43 44 44 44 44 43 43 45 47 48 49 50 50 50 49 50 50 51 50 49 47 47 48 49 51 52 53 54 54 55 55 56 57 58 59 61 62 63 64 63 62 61 61 62 63 63 63 63 63 63 63 61 61 61 60 60 60 59 58 57
43 43 44 45 45 45 44 44 44 45 47 49 50 51 52 51 50 50 50 51 51 49 48 48 49 51 52 53 54 54 55 55 54 55 56 56 57 59 60 61 62 63 64 63 62 62 61 62 62 62 62 63 63 62 61 61 61 61 61 61 60 59 58
43 44 45 46 45 45 44 44 45 46 49 51 52 52 52 50 50 50 51 51 50 49 49 50 51 53 54 54 54 53 53 53 53 53 54 55 56 57 59 60 60 61 62 63 63 63 62 62 62 62 62 63 62 61 61 62 61 61 62 61 60 60 59
45 45 46 45 45 44 44 45 46 48 50 52 52 51 51 50 50 51 51 50 49 50 51 53 54 54 54 52 51 51 51 52 53 53 53 53 54 54 55 57 57 58 59 61 62 63 63 63 63 62 62 62 61 62 63 62 61 62 62 61 60 61 61
45 45 45 44 43 44 44 46 47 49 50 51 51 50 51 51 51 51 50 49 50 51 53 55 55 54 52 50 49 51 52 53 53 54 54 53 53 53 53 53 53 53 55 57 59 61 63 64 64 64 63 62 62 64 64 63 62 62 62 61 60 61 61
42 42 42 42 42 43 45 46 47 48 48 49 50 50 51 51 51 49 48 49 51 54 54 54 54 52 50 49 50 52 53 52 52 54 54 51 50 51 52 53 53 53 54 55 56 58 60 63 64 64 64 64 65 65 65 64 62 61 61 61 60 60 60
38 39 40 41 42 43 44 45 46 47 48 49 49 50 50 50 49 48 48 50 53 54 54 52 50 49 49 49 51 52 51 48 48 48 46 43 41 41 42 44 47 49 51 53 54 55 57 59 61 62 64 65 65 66 66 65 63 61 60 60 60 59 59

ECMWFFLT1_500_spd_018.txt.gz
Wind_Speed
25 25 25 25 25 26 26 26 25 25 24 24 24 25 25 25 25 25 26 26 26 26 25 26 26 26 27 27 28 29 31 32 32 33 34 36 36 36 36 36 36 35 34 35 37 39 40 41 41 42 41 41 42 41 41 41 41 41 41 41 41 41 41
25 25 25 25 25 26 26 26 26 26 26 25 25 25 25 26 26 26 26 26 27 27 27 27 27 27 27 27 27 28 29 30 31 32 34 35 36 37 37 38 38 38 37 38 38 38 39 40 41 42 44 45 44 44 44 44 43 43 42 42 41 41 41
25 26 26 26 25 25 26 26 27 27 27 27 26 26 26 26 26 27 27 27 27 27 27 28 28 28 28 28 28 28 29 30 30 31 32 34 35 36 36 37 38 39 39 40 41 40 41 41 40 40 44 47 47 46 46 47 46 45 44 43 42 41 41
25 25 26 26 26 26 26 26 27 27 27 28 28 27 27 27 27 27 27 27 28 28 28 28 29 29 29 29 29 30 30 30 31 31 32 32 34 35 35 36 37 38 39 39 41 42 43 43 41 40 41 45 46 46 47 49 50 49 47 45 44 43 42
25 25 25 26 27 27 27 27 27 27 27 28 28 28 28 28 28 27 28 28 28 28 29 29 29 30 30 30 31 31 31 32 32 32 32 33 33 34 35 35 36 37 38 38 40 42 43 43 42 41 41 43 45 44 44 48 51 52 51 49 47 46 46
25 24 24 25 27 27 27 28 28 28 28 28 28 28 28 28 29 29 29 29 29 29 29 30 30 30 31 31 32 32 32 33 33 33 33 33 34 35 35 36 36 36 37 38 39 40 42 43 43 43 42 45 47 45 44 46 47 48 51 52 51 51 50
25 24 24 25 26 27 27 28 28 28 28 28 28 28 28 28 28 29 29 29 30 30 30 30 31 31 32 32 32 33 33 34 34 35 35 35 35 36 36 37 37 37 38 38 38 39 41 43 44 44 44 46 48 47 47 48 47 46 46 48 51 52 53
25 24 24 24 25 26 27 27 28 28 28 28 28 28 28 28 28 29 29 30 30 30 31 31 31 32 32 33 33 33 34 34 35 36 36 36 37 37 38 38 39 39 39 39 39 40 41 43 44 44 44 46 47 47 48 49 49 48 46 46 48 50 50
25 25 24 24 25 26 27 27 28 28 29 29 29 29 29 29 30 30 30 31 31 31 32 32 33 33 34 34 34 35 35 35 36 37 37 38 38 39 39 39 40 41 41 42 42 42 42 43 44 45 45 46 47 47 48 49 50 49 48 49 50 50 50
26 26 25 25 26 27 28 28 29 29 30 31 31 31 31 31 31 32 32 33 34 34 34 34 35 35 35 36 36 37 37 37 38 38 39 39 40 40 40 41 41 42 43 43 44 44 45 45 46 46 46 47 48 48 48 49 49 49 50 51 52 52 52
27 27 27 27 27 28 29 30 30 30 31 32 32 33 33 33 33 34 34 35 36 36 37 37 37 37 37 38 38 39 40 40 40 40 40 41 41 42 42 42 43 43 44 45 45 46 46 47 47 48 48 48 49 50 50 50 50 49 50 51 52 53 54
29 29 29 29 29 30 31 31 31 31 31 32 33 34 34 34 35 36 36 37 37 38 38 39 39 39 39 39 40 41 41 42 42 42 42 42 43 43 44 44 44 45 45 46 46 47 47 48 49 49 50 50 51 51 52 52 51 49 49 50 51 53 55
29 30 30 31 31 31 32 33 33 33 33 33 34 34 35 36 36 37 37 38 39 39 40 40 40 41 41 41 41 42 42 43 43 44 44 44 44 45 45 46 46 46 47 47 47 48 49 49 50 51 51 52 52 53 53 54 54 51 49 51 52 53 54
29 30 31 32 32 33 33 33 34 34 34 34 34 34 35 36 36 37 38 39 40 40 41 42 42 43 43 43 44 44 44 44 44 45 46 46 46 47 47 47 48 48 49 48 48 49 49 51 51 52 53 53 53 54 55 55 56 54 51 52 53 53 53
27 29 30 31 31 32 32 33 33 33 33 33 33 34 35 36 37 38 39 40 41 41 42 43 44 45 45 46 46 46 46 47 46 46 47 47 48 49 49 49 49 50 50 50 50 51 51 52 52 53 54 54 55 55 56 57 57 57 54 53 54 55 54
29 29 30 30 31 31 32 33 33 33 33 33 34 35 36 37 38 39 40 41 41 42 43 44 45 46 47 48 48 48 49 49 49 48 48 49 49 50 51 51 51 51 52 52 53 53 53 53 54 54 55 56 56 56 57 58 59 59 57 55 55 56 56
33 32 32 33 33 33 33 34 34 35 35 35 36 37 38 39 39 40 40 41 41 42 43 45 46 47 48 49 49 50 50 51 51 51 51 50 51 51 52 53 53 53 53 53 54 55 56 56 55 56 56 57 57 57 58 59 60 60 59 57 57 58 58
36 36 35 35 35 35 35 36 36 37 37 37 38 40 40 40 40 40 40 40 41 42 43 45 46 48 49 50 50 51 51 52 53 54 53 53 53 53 54 54 54 54 55 55 55 56 57 58 58 58 57 58 58 59 59 59 60 61 61 60 58 57 59
40 40 38 38 37 37 38 38 38 38 38 38 40 40 40 39 39 39 39 39 39 40 42 43 45 47 48 50 50 51 52 53 54 55 56 56 55 55 55 55 55 56 56 57 57 57 57 58 59 60 60 59 59 60 60 60 61 61 61 61 59 57 59
43 43 42 41 40 40 40 40 40 39 39 39 40 39 39 38 38 38 38 37 36 37 39 42 44 45 47 48 49 50 51 52 53 55 57 57 58 57 57 57 57 57 58 58 59 59 59 59 59 60 61 61 61 61 61 61 61 62 62 62 60 59 59
43 45 45 44 43 42 42 41 40 40 40 40 40 39 38 38 37 37 36 35 34 36 38 40 42 43 44 46 47 48 49 50 52 54 56 57 59 59 60 60 59 58 58 59 60 60 60 61 61 61 61 62 63 62 62 62 62 62 62 62 61 59 59
44 44 46 46 46 44 43 42 42 41 41 40 40 40 39 38 37 36 36 35 35 37 38 40 41 42 43 45 46 47 48 49 51 52 54 55 57 59 60 61 61 61 60 60 61 61 61 61 62 62 62 62 63 63 63 63 62 63 63 63 62 60 59
47 46 47 49 49 47 45 44 43 42 41 41 41 40 39 39 38 37 36 36 37 39 40 42 43 44 45 46 47 48 49 50 51 52 53 54 56 57 59 60 61 62 62 62 62 62 62 62 62 62 62 63 63 64 64 64 63 63 64 63 62 60 59
50 50 50 51 52 50 47 45 44 42 41 41 41 41 40 40 38 38 38 38 39 40 42 44 45 47 48 49 50 50 51 52 53 53 54 54 55 56 58 59 60 61 61 62 62 63 63 63 63 63 63 63 64 64 64 64 64 64 64 64 63 61 60
52 52 53 54 54 52 48 46 44 43 42 42 42 41 41 40 39 39 40 40 41 42 43 45 46 47 48 50 51 53 54 55 55 55 56 56 56 57 58 58 59 60 60 61 61 62 63 64 64 64 64 64 64 64 65 65 65 64 65 64 64 62 61
53 53 55 55 52 51 49 46 44 43 42 42 42 42 42 42 41 41 41 42 42 43 44 45 46 47 48 50 52 54 56 57 58 58 58 58 58 58 59 59 59 60 60 61 61 61 62 63 64 64 65 65 65 64 65 65 66 65 65 65 64 63 62
55 55 56 55 52 50 48 46 44 43 43 42 43 43 43 43 43 43 43 43 44 44 46 47 49 50 51 53 54 56 58 59 60 61 60 60 60 60 60 60 60 60 60 60 61 61 62 62 63 64 65 65 65 65 65 65 66 66 66 66 65 64 62
55 56 57 56 53 49 46 45 44 44 43 44 44 45 45 45 45 44 45 45 46 46 48 50 51 53 55 56 58 60 61 62 63 63 62 62 62 62 61 61 61 60 60 60 60 61 62 63 63 64 64 65 65 65 65 65 66 67 67 66 66 65 63
55 57 56 56 53 47 44 44 44 44 44 45 46 47 47 46 46 46 47 47 48 49 50 52 54 56 58 60 62 64 65 65 64 63 62 62 62 61 61 61 60 60 59 58 59 61 62 63 64 64 64 64 65 65 65 65 66 67 67 67 66 65 63
56 58 59 58 53 45 41 42 44 44 46 47 47 47 47 47 47 48 48 49 50 50 52 54 56 59 61 63 65 66 66 65 63 61 60 59 59 58 57 58 58 58 58 57 58 59 61 63 64 64 64 64 65 65 64 65 66 66 67 67 66 65 64
57 57 58 58 51 42 39 42 43 45 46 47 47 47 47 48 48 48 49 50 51 52 53 56 59 62 64 65 66 66 64 62 60 58 56 55 54 53 54 55 56 57 57 57 58 59 60 62 64 65 65 65 65 64 64 65 66 65 66 67 67 66 65
57 56 57 54 46 39 39 42 43 44 45 46 46 47 48 48 48 49 50 50 51 53 56 59 62 64 65 66 65 63 61 59 56 54 53 52 52 53 54 55 56 57 58 59 60 60 61 62 63 64 65 65 65 64 64 65 65 65 66 66 67 67 66
56 55 54 48 41 37 40 41 42 44 44 45 47 48 48 49 48 49 50 51 53 56 58 61 63 64 64 63 61 60 58 56 54 52 51 52 53 54 55 56 56 57 57 58 58 60 60 61 62 62 62 64 64 63 65 65 65 65 66 66 66 67 67
55 54 52 47 44 43 41 40 41 43 44 46 47 47 48 48 47 48 50 52 55 59 61 63 63 62 61 59 58 57 55 54 53 53 53 53 54 54 53 53 52 53 55 56 58 60 61 61 60 60 59 60 61 62 64 65 66 67 67 66 66 67 67
55 55 52 49 47 44 41 40 41 43 44 45 45 45 46 46 46 48 51 55 58 60 61 61 60 59 58 56 55 54 54 55 56 56 55 53 51 49 48 49 51 53 56 59 62 63 62 61 59 57 56 57 58 60 62 63 65 67 67 67 66 66 66
48 48 46 44 42 40 39 39 40 40 40 41 42 43 44 45 47 50 53 56 58 58 58 58 57 56 54 53 53 55 56 58 59 58 55 50 47 46 48 50 53 55 57 61 63 64 62 60 59 57 56 56 56 57 60 61 63 66 68 67 67 65 64
38 37 37 36 36 36 36 35 35 36 37 38 40 42 44 46 49 51 53 54 55 55 56 55 54 52 52 53 55 57 59 60 60 57 52 47 46 48 50 51 50 51 54 56 56 56 55 54 54 54 55 55 55 55 57 59 61 64 67 67 66 64 61

ECMWFFLT1_500_spd_021.txt.gz
Wind_Speed
25 25 26 26 26 26 25 24 24 23 23 23 23 23 24 24 24 25 25 26 26 26 26 27 27 27 27 27 28 28 28 28 29 29 30 31 31 29 29 29 30 31 33 35 36 37 38 39 40 42 43 43 43 43 43 43 43 44 44 44 43 43 43
24 25 26 27 27 27 26 26 25 24 23 23 23 23 23 24 24 24 25 25 26 26 26 26 26 26 26 26 26 27 27 28 28 29 30 31 32 33 32 32 32 32 33 34 35 36 36 36 37 39 41 43 45 45 44 43 43 43 43 43 43 42 43
24 25 26 27 27 28 27 26 26 26 25 24 23 23 23 23 23 23 24 24 25 26 26 26 26 26 26 26 26 26 27 27 28 29 30 31 31 32 33 34 34 34 35 35 36 36 37 37 36 37 38 39 41 45 46 45 44 44 43 42 42 42 42
23 25 25 26 27 28 27 27 27 26 26 26 24 23 23 23 23 23 23 23 24 25 26 26 26 26 26 26 26 26 26 27 27 28 29 30 31 31 32 33 34 35 36 37 38 38 39 40 39 38 39 38 38 40 44 46 46 46 45 44 43 43 43
23 24 25 26 27 28 28 27 27 26 26 26 26 25 24 23 23 23 23 23 24 24 25 26 26 26 26 26 26 27 27 27 27 28 29 30 30 31 31 32 33 33 34 36 37 39 40 41 41 40 40 41 40 39 41 44 45 45 46 46 46 46 46
23 23 24 25 26 27 28 27 26 26 25 25 26 26 26 25 25 24 24 24 24 25 25 26 26 26 27 27 27 27 28 28 28 28 29 30 31 31 31 32 32 33 33 34 35 36 38 39 40 40 40 42 43 41 42 44 45 45 46 45 46 47 48
23 24 24 24 26 27 27 27 26 26 26 25 25 25 25 26 26 26 25 25 25 25 26 26 27 27 28 28 28 28 29 29 29 30 30 30 31 32 32 32 32 33 33 33 33 34 36 37 38 38 39 41 42 42 43 45 46 46 46 45 45 45 47
24 24 24 24 25 26 26 27 27 26 26 25 25 24 25 25 25 25 25 25 26 26 26 27 27 28 29 29 29 30 30 30 30 30 31 31 32 32 33 33 33 34 34 35 35 35 35 36 37 37 38 39 40 40 42 44 46 46 45 46 46 45 45
25 25 25 25 25 26 26 26 26 26 26 25 25 24 24 24 24 25 25 25 25 25 26 26 27 28 29 30 30 31 31 32 32 32 32 32 33 33 34 34 34 35 35 36 37 37 37 37 38 38 38 38 39 39 40 41 43 44 44 45 47 47 46
25 25 25 25 26 26 26 26 26 26 26 26 25 25 25 25 25 25 26 26 26 26 26 27 28 29 29 30 31 32 33 33 34 34 34 34 34 35 35 36 36 36 36 37 38 38 39 39 39 40 40 40 40 39 40 40 40 40 42 45 46 46 47
27 27 27 26 26 27 26 26 26 26 26 26 27 27 27 27 27 28 28 28 29 29 29 29 30 30 31 32 32 33 34 35 36 36 37 37 37 37 37 38 38 39 38 38 39 40 40 41 41 42 42 42 42 42 41 41 40 39 41 43 45 45 47
30 30 29 28 28 28 28 28 27 27 27 28 28 29 29 30 30 30 30 31 31 31 31 32 32 33 34 34 35 35 35 36 37 38 39 39 40 40 40 41 41 42 42 42 42 42 42 43 43 44 44 44 45 44 44 44 42 40 41 43 44 45 46
30 31 31 30 30 30 30 30 30 29 29 29 30 30 31 31 32 32 32 33 33 33 34 34 34 35 36 37 37 37 38 38 38 39 40 40 41 42 42 43 43 44 45 45 45 45 45 45 45 45 46 46 47 47 47 47 45 43 42 44 45 45 47
28 29 30 29 29 30 30 30 30 30 30 31 32 32 32 33 33 33 34 35 35 36 36 36 37 37 38 38 39 39 40 40 40 41 41 42 43 43 44 44 45 45 46 46 47 48 48 48 47 47 47 48 48 49 49 49 48 46 45 46 46 46 47
27 27 27 26 26 27 27 28 28 29 30 30 31 32 33 33 34 34 35 35 36 36 37 38 38 39 40 40 41 41 41 42 42 42 43 44 44 45 45 46 47 47 48 48 48 49 50 50 50 50 49 49 49 50 51 51 51 49 47 47 48 48 49
29 28 27 27 27 27 28 28 29 29 30 30 31 31 31 32 32 33 34 34 35 36 37 38 39 40 40 41 42 42 43 43 43 43 44 45 46 47 47 48 48 50 50 51 51 51 51 52 53 53 53 52 52 51 53 53 53 52 50 49 49 50 50
32 32 32 31 30 30 29 30 31 31 32 32 32 32 32 32 32 33 34 35 36 37 38 39 40 41 41 42 42 43 43 43 44 44 45 46 47 48 49 49 50 51 52 53 54 54 54 54 54 55 55 56 55 54 54 55 55 54 53 51 51 52 52
33 34 34 34 33 33 33 33 33 34 34 34 34 34 34 34 34 35 37 38 39 39 40 40 40 40 40 41 41 41 42 42 43 43 44 45 46 48 49 49 50 51 52 53 54 55 57 57 57 56 57 58 58 58 58 57 57 57 56 55 53 54 54
35 36 37 37 38 38 39 39 38 37 36 36 36 36 36 36 37 38 39 40 40 40 40 40 39 39 38 38 38 38 38 38 39 40 41 42 43 45 47 48 48 49 51 52 53 54 56 58 59 59 59 59 59 60 60 60 60 60 59 58 56 55 56
40 41 42 43 44 45 45 44 42 40 38 38 38 38 38 38 39 40 41 42 42 42 41 40 39 38 37 37 36 35 35 36 36 37 38 39 40 42 43 45 46 47 48 50 51 52 54 56 59 60 61 61 61 61 62 62 63 63 62 61 60 58 57
44 45 46 47 47 48 48 48 45 42 40 39 39 40 40 41 42 42 43 44 45 44 42 40 40 39 38 36 36 36 36 36 36 37 38 39 40 41 42 44 45 46 48 49 50 51 51 53 55 58 60 62 63 63 63 63 64 64 65 64 63 62 60
48 50 51 51 51 50 50 50 48 46 45 43 43 43 43 44 44 45 45 47 47 45 43 42 41 40 39 38 37 37 37 38 38 38 39 40 41 42 43 44 45 46 48 49 50 51 51 52 53 55 57 59 62 64 64 64 64 65 65 66 65 65 63
52 54 56 55 55 54 53 52 51 49 48 47 46 46 47 47 47 46 46 48 48 46 44 43 42 41 40 40 39 39 39 39 40 40 40 41 41 42 42 43 45 46 48 49 51 52 53 53 54 55 55 57 59 62 64 65 65 65 66 66 66 66 66
51 55 58 58 57 56 55 53 52 50 49 48 47 47 48 49 49 48 47 48 49 47 45 44 43 42 42 41 41 41 41 41 42 43 43 43 43 43 44 46 47 48 49 51 52 53 54 55 56 56 57 57 58 60 62 64 65 66 66 67 67 67 67
48 52 57 57 55 55 55 53 52 51 49 48 47 47 48 49 50 50 49 49 49 48 47 45 44 43 43 43 43 43 43 44 45 45 45 46 46 47 48 49 50 51 52 53 54 55 56 57 58 59 59 59 59 60 61 62 63 65 67 67 67 67 67
48 50 54 53 49 47 49 50 50 51 50 49 49 49 50 50 51 51 50 49 50 49 48 47 46 45 45 45 46 46 46 47 47 47 48 49 50 51 51 52 53 54 55 56 57 58 59 61 62 63 62 61 61 61 61 62 62 64 65 67 68 67 66
52 52 53 52 48 45 47 49 49 50 50 50 50 51 51 52 52 50 49 50 50 50 49 48 48 47 47 47 48 48 49 49 50 50 51 52 53 54 54 55 56 57 58 59 60 61 63 65 67 66 65 64 63 62 62 62 63 63 64 66 67 66 66
57 55 55 54 52 51 50 49 48 49 49 50 51 51 52 52 51 50 49 50 51 51 50 50 50 49 49 50 51 51 52 52 53 54 55 56 57 57 58 59 59 59 60 61 63 65 68 70 70 68 66 65 64 64 63 63 64 64 64 65 65 66 66
60 59 59 60 61 60 57 54 52 52 51 51 51 51 51 51 50 49 49 50 51 52 51 51 51 51 52 52 53 54 54 55 56 57 57 58 59 60 61 61 61 61 62 64 67 70 71 71 70 67 65 64 64 64 64 64 65 65 65 65 65 65 65
60 60 59 60 63 64 63 62 60 56 53 51 50 51 52 52 50 50 50 50 51 51 51 52 52 53 54 55 56 56 56 56 57 58 59 60 61 62 62 62 63 64 66 69 71 71 71 69 67 65 64 63 62 62 62 63 65 65 65 65 65 65 65
60 60 59 59 59 59 58 59 60 58 56 54 52 51 52 53 52 51 51 51 51 51 52 53 55 56 56 57 57 57 57 58 59 59 60 61 62 62 63 64 66 68 70 71 71 69 67 66 64 63 62 62 61 61 60 61 63 65 66 66 65 65 65
58 58 57 57 56 53 52 53 54 56 58 57 54 52 52 53 53 52 50 50 51 52 53 55 56 56 56 57 58 59 59 59 59 60 61 62 63 64 65 67 69 71 72 70 68 66 64 63 62 61 62 62 62 61 60 61 62 63 65 66 66 65 65
54 53 52 54 54 52 51 52 52 53 57 58 56 53 50 48 46 46 47 48 50 51 52 53 54 55 56 57 59 59 59 59 60 61 62 64 64 65 67 69 71 71 69 67 65 63 62 62 62 62 62 63 62 61 61 62 62 63 64 65 65 65 64
46 48 49 51 52 52 52 51 50 51 54 56 56 53 47 42 42 45 47 48 49 49 51 52 53 54 56 56 57 58 59 60 62 63 64 66 67 68 69 70 68 66 64 63 62 61 61 62 63 63 63 64 63 63 63 62 62 63 63 63 64 64 64
42 45 46 47 47 48 49 48 48 49 50 51 52 51 47 46 48 50 49 48 48 49 49 50 51 52 53 54 56 59 61 63 65 66 67 67 68 68 67 65 63 61 61 61 61 61 62 62 63 63 62 62 61 60 60 60 59 60 60 60 61 61 61
39 42 43 43 44 46 47 47 48 48 47 47 49 50 50 50 51 50 48 47 47 46 46 48 49 51 53 56 59 61 63 64 66 67 67 67 66 64 62 61 60 61 62 61 61 60 59 59 59 58 58 58 58 58 59 59 58 58 57 57 58 57 58
36 37 39 39 40 41 43 44 45 45 46 46 47 48 49 48 46 45 44 43 44 45 46 49 51 53 55 57 59 61 62 62 63 63 63 62 62 61 61 61 61 61 60 58 56 55 54 53 54 55 57 58 60 61 61 60 59 58 57 57 57 56 56

ECMWFFLT1_500_spd_024.txt.gz
Wind_Speed
26 25 25 25 25 25 25 25 25 24 24 24 24 23 23 23 23 23 24 24 24 24 23 24 24 24 25 26 27 28 29 30 30 30 30 29 28 27 26 25 24 23 24 28 32 35 36 37 38 39 40 40 39 40 40 41 42 43 45 46 46 47 46
26 26 25 25 25 24 24 24 24 24 24 24 23 23 23 23 23 23 24 24 24 24 23 23 23 24 24 24 25 26 27 28 29 30 30 30 30 29 28 28 27 26 25 25 27 31 34 36 36 38 40 40 40 39 40 41 42 42 43 44 45 46 46
26 26 26 25 25 25 24 24 24 24 24 23 23 23 22 22 23 23 24 24 24 24 24 23 23 23 24 24 24 24 25 26 27 28 28 29 29 29 29 30 30 30 29 29 28 29 30 32 34 35 36 38 39 40 41 42 43 43 44 44 44 44 44
26 26 25 25 25 25 25 24 24 24 24 24 23 23 22 22 23 23 23 24 24 24 24 23 23 23 24 24 24 24 25 25 26 27 27 27 27 28 28 29 30 31 31 32 32 31 31 31 31 32 33 35 36 37 38 40 42 43 43 44 44 44 44
24 24 24 24 24 24 24 24 24 24 24 24 24 23 23 23 23 23 23 24 24 24 24 24 23 23 23 24 24 24 24 25 25 26 27 27 27 27 27 27 28 29 30 31 32 33 34 33 33 33 34 35 36 36 37 38 39 39 40 41 43 45 45
23 23 23 23 23 23 24 24 24 25 25 25 25 24 24 24 24 23 23 23 24 24 24 24 24 24 23 23 24 24 24 24 25 25 26 26 27 27 27 27 27 28 28 29 30 32 33 35 35 35 36 38 38 38 38 39 40 40 40 40 40 43 45
23 23 23 23 23 23 23 23 24 24 25 25 25 25 25 25 24 24 24 24 24 24 24 24 24 24 25 24 24 24 24 24 25 25 26 26 27 27 27 27 27 27 28 28 29 30 31 33 34 35 36 38 39 39 41 42 42 42 42 42 41 41 42
24 24 24 23 23 23 23 23 23 24 25 25 25 25 25 25 25 25 25 24 24 24 24 25 25 25 25 25 25 25 25 25 25 25 26 27 27 28 28 28 29 29 29 29 29 30 30 32 33 34 34 35 37 38 39 41 43 44 44 44 44 43 42
25 26 25 24 24 24 23 23 23 24 24 25 25 25 24 24 23 24 24 24 24 24 25 25 25 25 26 26 26 26 26 26 26 25 25 26 27 28 28 29 29 30 30 30 30 31 31 32 33 34 34 35 35 35 36 38 40 42 43 44 45 46 44
25 26 26 26 25 25 25 24 23 23 24 25 25 25 25 24 23 22 22 23 23 24 24 25 25 26 26 26 26 27 27 27 27 27 27 27 27 28 29 29 30 30 30 31 31 32 32 33 33 34 35 35 35 35 35 36 37 38 40 42 44 45 45
25 25 25 25 25 25 25 25 24 24 24 24 25 26 26 25 24 23 22 23 23 24 25 25 26 27 27 27 28 28 28 29 29 29 29 30 30 30 30 31 31 31 32 32 32 33 33 34 34 35 36 36 36 36 36 36 35 36 38 40 41 43 43
24 24 25 25 25 25 26 26 25 25 24 24 25 26 26 26 26 25 24 24 25 26 26 27 28 28 29 29 30 30 30 31 32 32 32 32 33 33 33 34 34 35 35 35 35 35 35 36 36 37 38 38 38 38 38 37 36 35 37 39 40 41 42
23 23 24 24 24 25 26 26 26 26 25 25 25 26 26 26 26 26 26 27 27 28 29 29 30 30 31 31 32 32 33 33 34 34 35 35 35 36 36 37 37 38 38 38 39 39 39 39 39 39 40 40 41 41 41 41 39 37 37 39 40 41 42
24 24 23 23 23 23 24 25 26 26 26 25 25 25 25 25 26 26 27 28 29 30 31 31 32 32 33 33 34 34 35 36 36 36 37 37 38 38 39 39 40 40 41 41 41 42 42 42 42 43 43 43 43 44 44 44 43 41 40 40 41 40 41
26 25 23 22 23 23 23 23 23 23 22 23 22 22 22 23 23 25 26 28 29 30 31 32 33 33 33 34 35 35 35 36 37 38 39 39 40 40 41 41 42 43 43 43 43 43 44 44 44 45 45 46 46 46 47 46 46 45 43 43 44 43 43
27 25 24 23 24 25 26 26 25 24 23 24 24 24 24 24 24 25 26 27 28 29 30 31 31 32 33 34 34 35 35 36 37 38 39 40 41 42 42 43 44 44 44 45 45 46 46 46 47 47 47 48 48 48 49 49 49 48 46 45 46 47 46
29 28 28 28 28 27 27 28 28 29 29 29 29 28 27 26 26 27 28 28 28 29 30 30 30 31 32 33 34 35 36 37 38 39 40 41 42 43 43 44 45 45 45 45 46 47 47 48 48 49 49 50 50 50 51 52 52 52 50 48 48 48 49
31 32 32 32 30 29 29 29 30 31 31 32 32 31 30 28 28 29 30 30 31 31 31 30 31 31 32 33 34 35 35 36 37 39 40 41 41 42 43 43 43 44 45 45 45 46 47 47 48 49 49 50 51 52 53 53 54 55 54 52 51 50 51
34 34 35 35 33 33 32 32 32 33 34 34 35 35 34 34 34 33 33 33 33 33 32 32 32 32 33 33 34 35 36 36 37 38 39 40 40 40 40 39 40 40 41 41 42 42 43 45 46 47 47 48 50 51 52 53 55 56 57 56 54 53 53
36 36 36 37 37 36 36 37 39 39 39 39 40 40 40 39 39 38 37 35 35 35 36 36 36 36 36 36 37 37 38 38 38 39 39 40 40 39 38 37 36 36 37 37 37 37 38 40 41 43 44 46 47 49 51 52 54 56 57 58 57 56 55
39 38 39 40 40 40 41 44 46 47 48 47 46 45 43 43 43 42 40 39 38 38 38 38 39 39 40 40 39 40 40 40 40 40 40 41 40 39 38 37 37 36 36 35 35 36 36 37 38 39 41 43 45 46 48 50 52 54 56 57 58 57 57
41 42 43 43 43 43 42 44 47 49 50 50 50 49 47 46 45 44 43 42 41 41 41 41 41 42 42 42 42 42 42 42 42 42 42 42 42 42 41 40 39 38 38 37 37 37 38 38 39 39 40 42 44 45 47 49 51 52 55 56 57 57 57
44 45 45 45 45 45 45 45 46 48 50 51 51 50 50 49 49 48 47 44 43 44 44 44 44 44 44 44 44 44 44 44 44 44 44 44 44 44 43 42 41 41 40 40 40 40 40 40 41 41 42 43 44 46 47 48 50 52 54 55 56 57 57
47 47 48 47 47 47 48 48 48 49 52 53 53 51 49 46 46 49 51 47 43 43 45 45 46 46 46 46 46 45 45 44 45 45 45 46 46 46 45 44 44 43 43 43 43 43 43 43 44 44 45 46 46 48 49 50 51 52 54 55 56 57 58
50 50 51 50 49 48 50 51 51 51 52 54 55 55 52 47 44 46 48 47 43 42 43 45 47 48 48 49 48 47 47 46 45 46 46 47 48 47 46 46 45 45 45 45 46 46 46 47 47 47 48 48 49 50 51 52 53 53 55 56 56 57 58
51 52 53 53 51 50 50 52 53 53 52 52 54 54 52 51 48 43 39 40 41 41 43 45 47 48 49 50 50 49 48 47 46 46 47 48 49 48 47 47 47 47 47 48 48 49 50 50 50 51 51 51 52 52 54 55 56 57 57 57 57 57 58
52 53 53 53 53 52 52 53 55 55 53 52 53 52 51 54 53 45 39 39 40 41 42 45 47 49 50 50 50 49 49 48 47 47 47 48 49 49 49 48 48 48 49 50 51 52 53 53 53 53 53 54 55 56 57 58 59 60 60 60 60 59 59
54 54 54 54 55 54 54 55 55 55 54 53 53 52 51 53 54 50 44 41 40 42 46 48 50 51 51 50 49 49 49 48 48 48 48 48 48 49 49 50 50 51 52 53 54 55 56 56 56 56 57 57 58 59 60 61 61 62 63 63 63 62 62
55 55 56 56 56 57 57 57 57 57 56 55 54 52 50 52 53 51 47 46 49 53 55 55 54 53 52 52 51 50 50 50 49 48 47 48 48 49 51 52 52 53 53 54 56 58 59 59 60 60 60 61 62 62 63 63 64 64 65 66 67 67 66
56 56 57 58 58 58 58 58 58 58 57 55 55 54 54 55 57 58 57 58 60 61 59 57 56 55 55 54 53 52 52 51 49 48 47 48 49 51 52 53 53 54 55 57 59 61 62 63 63 63 64 65 65 65 65 66 67 68 69 70 71 71 70
56 57 57 58 58 59 59 59 59 58 56 55 54 54 54 56 58 60 61 61 60 58 57 57 58 58 57 56 55 54 52 50 48 48 49 49 50 51 52 53 55 56 58 60 62 63 65 66 66 67 67 67 67 66 67 69 70 71 73 74 74 75 73
55 56 56 57 58 58 58 56 55 54 53 51 50 50 50 51 53 55 55 55 54 53 53 55 56 57 57 56 55 53 50 49 48 49 50 50 50 51 53 56 58 60 61 63 64 66 67 69 69 69 69 69 68 68 70 72 74 75 76 76 76 75 72
55 56 56 57 57 56 55 51 49 49 50 49 49 48 47 47 48 49 49 50 50 52 53 53 54 55 55 53 51 47 45 44 46 48 50 51 53 56 59 61 62 63 64 65 67 68 69 70 71 71 72 72 72 72 74 75 75 76 75 74 72 70 68
57 57 57 57 55 55 54 52 49 49 49 48 47 45 45 44 44 46 47 49 51 53 54 54 53 53 53 51 49 47 47 48 49 50 51 54 57 60 62 63 64 65 67 68 69 69 70 71 72 73 74 75 74 74 74 73 72 71 70 68 67 66 65
57 55 54 52 49 47 47 46 45 45 47 49 48 48 47 47 47 48 49 50 51 51 52 51 50 50 50 49 48 49 51 52 53 53 54 56 59 61 62 63 64 66 67 68 69 70 71 73 74 74 73 72 70 69 69 68 66 65 65 65 65 65 64
51 48 45 44 41 40 40 40 38 38 42 45 47 47 47 47 48 49 50 50 51 51 50 50 49 48 48 48 49 50 52 52 54 55 56 57 59 60 61 63 65 66 68 70 71 72 73 73 71 69 67 66 66 67 67 66 65 65 64 64 64 65 65
41 39 37 36 35 36 37 37 36 37 39 40 41 42 44 45 46 48 48 49 49 49 48 48 48 47 47 48 49 50 51 52 54 56 57 58 59 61 62 64 66 68 70 71 72 72 70 68 66 65 65 65 66 66 65 64 63 62 62 61 61 61 62

ECMWFFLT1_500_spd_027.txt.gz
Wind_Speed
22 22 22 22 23 23 23 24 24 24 24 24 23 23 23 24 23 23 23 23 23 23 23 22 22 22 22 22 23 24 24 26 28 29 28 28 29 28 27 25 24 23 20 20 22 23 24 26 32 37 40 42 43 43 43 43 43 44 44 44 44 44 44
22 22 22 22 22 22 23 23 23 23 23 23 22 22 22 22 23 23 22 23 23 23 22 22 21 21 21 22 22 23 23 24 25 27 27 28 28 29 29 28 27 26 25 22 22 23 25 26 27 30 32 35 38 40 41 41 42 43 43 43 43 44 44
22 21 21 21 21 22 22 22 22 22 22 22 21 21 21 21 21 21 22 22 22 22 22 22 21 21 21 21 22 22 23 23 24 25 25 26 27 27 28 28 28 28 27 26 25 24 24 25 27 30 31 33 34 36 38 39 41 42 41 41 41 42 42
21 21 20 20 20 21 21 21 22 22 22 21 20 20 20 20 20 20 20 21 21 22 22 21 21 21 21 21 21 22 22 23 23 24 24 25 25 26 26 27 27 27 28 28 28 27 26 26 26 28 31 33 35 36 37 38 39 40 40 39 39 39 40
20 20 19 19 19 19 20 20 21 21 21 20 20 20 19 19 19 19 19 20 20 20 21 21 20 20 20 20 20 21 21 22 22 23 24 24 24 25 25 26 26 26 27 28 29 29 29 29 29 29 29 30 32 34 36 37 39 40 40 39 38 39 39
19 19 19 18 18 18 18 19 20 20 20 20 19 19 19 18 18 18 19 19 19 20 20 20 20 20 20 20 20 20 20 21 21 22 22 23 23 24 25 25 25 26 26 27 28 29 30 30 31 31 32 32 31 32 34 36 37 38 40 41 41 41 40
20 20 19 18 17 17 17 18 18 19 19 19 19 18 18 18 18 18 18 19 19 20 20 20 20 19 19 19 19 19 19 20 20 21 21 22 22 23 24 24 25 25 26 26 27 28 29 30 30 31 33 34 34 34 35 36 36 36 37 39 40 40 40
22 22 21 20 19 18 18 18 17 18 18 18 18 18 17 17 17 17 18 18 18 19 19 20 20 20 19 19 19 19 19 19 20 20 21 22 22 22 23 24 24 25 25 26 27 27 28 28 29 30 31 32 33 34 35 37 38 38 38 39 39 39 40
24 24 23 22 21 21 20 19 19 19 18 18 18 18 18 17 17 17 17 18 18 18 18 19 19 19 19 19 19 19 19 20 20 20 21 22 22 23 23 24 25 25 25 26 27 27 28 29 29 29 29 30 30 31 32 34 36 38 39 40 41 41 41
24 23 23 22 22 22 22 21 21 21 20 20 19 19 18 18 17 17 17 18 18 18 18 18 18 18 18 18 19 19 19 20 20 20 21 21 22 23 23 24 25 25 26 27 27 27 28 29 30 30 30 30 30 30 30 30 32 34 36 38 40 41 41
23 23 23 22 21 22 22 22 22 22 22 21 21 21 20 19 19 19 19 19 19 19 19 19 19 19 18 18 19 19 20 20 21 22 22 23 23 24 24 25 25 26 26 27 27 28 29 29 30 31 31 31 31 31 30 30 29 31 33 34 36 38 39
23 22 22 21 21 21 22 22 22 23 22 22 22 22 22 22 21 21 21 20 20 20 20 20 20 20 20 20 20 21 22 22 23 23 24 25 25 26 26 27 27 28 29 29 29 29 30 30 31 31 32 32 32 32 32 31 30 30 32 33 34 36 37
21 21 21 21 21 21 22 21 21 21 21 21 22 23 23 22 23 23 23 23 22 22 22 22 22 22 21 22 22 23 23 24 24 25 26 26 27 28 29 29 30 30 31 31 32 32 32 32 33 33 34 34 34 34 33 33 32 32 33 34 34 36 37
22 22 23 23 23 23 22 21 21 20 19 19 20 21 22 23 23 24 25 25 25 24 24 24 24 23 23 23 24 24 25 25 26 26 27 27 28 29 30 30 31 32 32 33 33 34 34 35 35 36 36 36 37 37 36 36 35 34 35 36 36 36 37
24 24 24 25 25 25 24 23 22 21 20 20 19 19 20 21 22 23 24 25 25 25 25 25 25 25 24 24 24 25 25 26 26 27 27 27 28 29 30 31 32 33 33 34 34 35 35 36 36 37 38 38 39 39 39 39 38 37 37 39 39 39 39
28 27 26 26 26 27 27 26 24 23 22 22 22 21 20 20 21 22 23 24 25 26 26 26 26 26 26 26 26 26 26 26 26 27 27 28 29 30 31 32 34 34 35 35 36 37 37 38 38 38 39 39 40 41 41 42 41 40 39 40 42 42 42
30 29 27 26 27 28 28 28 27 25 24 24 24 24 24 24 25 25 26 26 26 25 25 25 26 27 28 28 28 28 28 28 28 28 28 28 29 30 31 32 33 34 35 36 37 38 39 40 40 40 40 41 41 42 43 43 43 43 42 41 42 44 44
31 30 29 28 28 28 29 29 29 29 28 28 28 28 29 29 28 27 27 28 29 28 27 27 27 28 29 31 31 31 30 30 29 29 29 29 29 30 31 31 32 33 34 35 37 38 39 40 41 42 42 42 43 43 43 44 44 44 43 41 41 43 44
35 34 33 32 31 31 31 31 31 30 30 31 32 32 32 32 32 31 30 30 32 33 33 32 31 31 31 32 32 33 33 33 33 32 31 31 31 32 32 32 32 32 33 34 36 37 38 40 41 41 42 42 42 43 43 44 44 45 44 42 39 40 42
39 38 37 35 35 34 34 34 33 33 33 34 35 35 36 36 36 35 35 35 36 37 37 37 37 36 35 34 34 34 35 36 36 36 35 35 35 35 35 34 34 34 34 35 35 37 38 39 40 41 41 41 41 41 40 40 41 42 42 41 39 38 38
40 39 39 37 37 36 36 35 35 36 36 37 38 38 39 41 41 39 38 38 39 41 41 41 40 39 38 37 37 36 37 38 38 38 38 38 38 38 38 38 38 38 37 37 37 37 38 40 40 41 41 40 39 39 38 37 37 38 38 39 38 37 36
41 40 40 40 40 39 39 39 38 38 39 40 41 41 41 43 45 44 43 42 41 41 42 42 42 42 42 41 41 41 41 41 41 41 41 41 42 42 42 41 41 41 41 40 39 39 40 41 41 41 41 41 39 38 37 37 37 37 37 37 36 36 35
42 42 42 42 42 42 42 42 42 42 42 44 45 44 43 45 47 47 47 46 45 44 44 43 43 44 45 44 44 45 46 46 45 44 44 44 44 43 44 43 43 43 44 44 43 43 42 43 43 44 43 42 41 40 39 39 39 39 39 39 39 39 38
44 44 45 45 45 45 45 45 46 46 46 47 48 48 48 48 49 50 50 49 48 48 47 46 45 45 45 44 44 47 51 50 48 46 44 44 44 44 45 45 46 46 46 46 46 46 46 46 46 46 46 45 44 43 42 42 42 42 42 42 42 42 42
50 49 49 50 50 50 49 49 49 49 50 50 50 51 52 51 51 51 52 51 50 49 49 48 46 45 45 45 45 47 49 49 46 44 43 44 44 45 46 46 47 47 47 48 48 48 49 49 49 49 48 48 48 46 45 45 45 45 45 45 44 44 44
53 53 53 53 53 53 52 52 52 52 52 52 53 53 54 54 53 53 54 53 50 49 49 48 46 45 46 46 45 44 45 45 44 43 42 43 44 45 46 47 48 48 49 49 49 50 50 51 51 51 50 50 50 49 48 48 48 48 48 47 47 47 47
54 54 53 53 53 53 53 53 53 53 54 54 54 54 55 55 55 55 56 55 52 50 50 48 46 46 47 46 44 43 43 43 44 43 41 41 44 46 47 48 49 49 50 50 51 52 52 53 53 52 51 51 51 51 51 50 50 50 50 50 50 50 51
53 53 53 53 52 52 52 52 53 53 53 54 54 55 55 55 56 56 57 56 54 52 51 50 48 48 49 49 48 47 48 47 46 44 43 44 48 50 51 52 51 51 51 51 52 53 54 55 54 53 52 51 52 52 52 52 52 52 52 53 53 54 55
53 53 53 53 53 53 53 53 53 53 53 53 54 54 55 55 55 56 57 57 56 54 52 52 51 49 48 49 49 50 51 51 49 49 51 54 56 57 57 57 56 55 54 54 54 55 56 56 55 53 52 53 53 54 53 53 53 54 55 56 57 58 60
52 52 53 53 53 54 54 54 54 54 54 54 54 54 54 55 56 56 56 56 55 54 53 52 52 51 50 52 52 53 54 56 56 58 60 62 61 60 59 59 59 58 57 56 56 57 57 57 56 55 54 54 55 54 54 54 55 57 59 61 62 64 64
52 52 52 52 53 53 53 53 54 54 54 54 54 54 54 55 55 55 55 54 54 54 52 51 51 51 52 53 55 56 58 59 60 61 61 60 59 58 58 59 60 60 59 58 58 58 58 58 57 56 56 56 56 55 56 58 61 63 65 66 67 68 68
52 51 51 51 51 52 52 52 52 53 53 54 54 54 54 54 55 55 55 55 54 51 48 45 45 47 48 50 52 54 56 57 57 57 56 56 55 56 57 58 60 60 60 59 59 59 59 59 59 58 58 58 58 58 60 63 66 67 68 69 70 70 71
51 51 50 50 50 51 51 51 51 51 52 52 53 54 53 52 52 52 52 52 49 46 43 42 42 44 45 47 49 51 52 53 53 53 53 53 54 54 55 56 57 58 58 58 58 58 58 58 59 60 60 61 61 63 66 68 70 70 70 70 71 72 72
51 51 51 51 50 51 51 51 51 51 51 52 52 51 48 47 46 45 46 48 47 45 44 43 42 41 43 45 47 49 50 52 53 54 55 56 56 56 55 55 55 56 57 57 57 57 57 58 59 61 63 64 66 68 70 71 71 71 71 71 72 73 74
52 52 53 52 51 51 52 52 52 52 52 52 52 50 48 49 50 49 50 51 50 48 46 43 41 42 45 47 50 52 55 57 58 59 59 58 57 56 56 55 55 56 58 58 57 57 57 59 61 63 65 67 68 68 69 70 71 72 72 73 74 75 76
52 53 53 53 52 52 53 54 54 54 54 54 53 51 50 50 50 49 48 49 49 49 47 45 45 47 48 50 52 54 56 57 58 59 58 57 56 56 55 55 54 55 57 58 59 60 61 63 64 65 65 66 67 68 69 71 72 73 75 76 77 77 77
51 52 53 53 53 54 54 55 54 54 53 51 49 46 44 43 41 40 40 40 42 44 46 46 47 48 48 49 51 52 53 54 54 54 53 53 52 52 52 52 52 53 55 56 58 60 62 63 64 64 65 67 68 70 71 73 74 76 77 77 75 73 71

ECMWFFLT1_500_spd_030.txt.gz
Wind_Speed
22 22 21 21 20 20 20 20 21 21 22 22 23 23 23 23 22 22 21 21 21 22 22 22 23 23 23 24 24 24 24 25 25 26 26 28 29 30 30 29 27 26 24 23 21 18 16 17 22 32 39 40 42 43 43 44 44 45 45 44 43 42 42
21 21 20 20 19 19 20 20 20 21 21 22 22 22 22 22 21 21 21 20 20 21 21 22 22 23 23 23 23 23 23 24 24 25 25 26 28 29 30 31 29 29 28 26 25 23 20 17 18 25 33 37 40 43 44 43 41 41 43 44 44 44 44
20 20 20 20 20 20 20 20 20 20 21 21 21 21 21 21 21 20 20 19 19 19 20 21 21 22 22 22 22 23 23 23 23 24 24 24 26 27 28 29 29 29 29 29 27 27 26 24 21 22 27 31 34 37 39 40 40 39 40 43 44 45 45
19 20 20 20 20 20 20 20 20 20 20 20 21 21 21 21 20 20 19 19 19 19 19 20 20 21 21 21 21 22 22 22 22 23 23 23 23 24 25 26 27 27 28 28 28 28 28 28 26 24 24 27 30 32 34 37 40 41 41 42 42 42 44
20 19 20 20 20 20 20 20 20 19 19 19 20 20 20 20 20 19 19 18 18 19 19 19 19 20 20 20 20 20 21 21 21 22 22 22 22 23 23 24 24 25 25 26 27 27 27 27 28 27 25 24 27 29 32 35 40 43 44 43 41 41 41
20 20 19 20 20 20 19 19 19 19 19 19 19 19 19 19 19 19 19 18 18 18 18 19 19 19 19 19 20 19 19 20 20 21 21 21 22 22 22 22 22 23 23 24 24 25 26 26 27 27 27 26 26 26 27 30 35 38 41 43 44 43 41
20 20 20 19 19 20 19 19 19 19 18 18 18 18 18 18 19 19 18 18 18 18 18 18 18 18 18 18 19 19 19 19 19 20 20 21 21 21 21 21 21 21 22 22 22 23 23 24 25 26 26 26 27 28 28 28 29 31 33 36 40 44 45
20 20 20 20 20 20 20 19 19 19 19 18 18 18 18 18 18 18 18 18 17 17 17 18 18 18 18 18 18 18 18 18 18 19 19 20 20 20 21 21 21 21 21 21 21 21 22 22 22 23 24 25 25 27 28 29 29 30 31 31 32 36 40
20 20 20 20 20 20 20 20 20 20 20 19 19 18 18 18 18 18 18 17 17 17 17 17 17 17 17 17 17 18 18 18 18 18 18 19 19 20 20 20 20 21 21 21 21 21 21 21 21 21 22 23 23 24 25 27 28 29 30 32 32 32 34
22 21 20 19 19 19 19 19 19 19 20 20 20 19 19 18 18 18 18 18 17 17 17 17 17 16 17 17 17 17 18 18 18 17 18 18 18 19 19 19 19 20 20 21 21 21 21 21 21 21 21 22 22 23 24 25 26 27 28 30 31 32 33
23 22 21 19 18 19 19 19 19 19 19 20 20 20 19 19 19 18 18 18 18 18 17 17 17 16 17 17 17 18 18 18 18 18 18 18 18 19 19 19 19 19 20 20 21 21 21 21 21 21 22 22 22 22 23 24 25 27 27 28 30 30 31
23 22 21 20 19 19 20 20 19 19 19 19 20 20 20 20 19 19 19 19 19 18 18 18 18 18 18 18 18 18 19 19 19 19 20 20 20 20 20 20 21 21 21 21 22 22 22 23 23 23 23 23 23 23 24 24 25 27 28 27 29 30 30
24 23 22 21 20 20 21 21 20 20 19 19 19 19 19 19 20 20 20 20 20 20 20 20 20 20 20 20 20 20 20 20 21 21 21 22 22 22 22 22 23 23 23 23 24 24 24 25 25 25 26 26 26 25 25 25 26 28 29 29 29 30 31
25 25 24 23 22 22 22 22 22 21 20 20 20 20 20 20 19 20 20 21 22 22 22 22 22 22 22 22 23 23 23 23 23 23 23 23 24 24 25 25 25 25 25 25 25 26 26 26 27 27 28 28 28 28 28 28 28 29 30 31 31 32 33
27 27 26 25 24 24 25 24 24 23 23 22 22 22 21 20 20 20 20 21 21 22 22 22 22 22 23 24 24 25 25 26 26 26 26 26 26 27 27 27 27 27 27 27 27 27 28 28 29 29 29 30 30 30 30 30 30 30 32 33 34 34 35
30 29 28 27 27 27 27 27 26 26 26 25 24 24 23 21 20 20 20 21 21 21 21 21 21 22 22 23 24 25 26 26 27 28 28 29 29 30 30 30 30 30 30 30 29 30 30 30 31 31 31 32 32 32 32 32 32 32 33 35 36 36 37
32 32 31 30 29 29 29 29 28 28 28 27 27 26 25 23 22 21 22 23 23 23 23 23 22 22 22 23 23 23 24 25 26 28 30 31 31 31 32 32 32 32 32 32 32 32 32 32 32 32 33 34 34 34 35 35 35 35 35 36 37 38 39
33 32 32 31 31 31 31 31 30 30 29 28 28 28 28 27 26 25 24 25 26 26 26 26 25 24 24 25 25 25 25 25 26 28 30 31 32 33 33 33 33 33 33 33 33 33 32 32 32 32 32 33 34 35 35 36 36 37 37 37 38 39 40
34 33 33 32 32 32 33 33 32 32 31 30 29 29 29 29 30 30 29 28 28 28 27 28 28 28 28 29 30 30 30 29 29 29 30 32 33 34 35 35 35 34 34 33 33 33 33 32 32 32 32 32 33 34 34 35 36 36 37 38 39 40 40
38 37 35 34 34 35 36 36 36 36 35 34 33 32 32 32 33 34 33 32 33 31 30 30 31 31 32 33 34 34 35 35 35 34 33 33 33 34 35 36 37 37 37 36 36 36 36 35 34 34 34 34 33 34 34 34 35 36 36 37 38 39 40
39 39 38 37 38 39 39 40 40 38 37 37 37 36 36 36 36 37 37 37 37 35 34 34 34 34 34 35 35 36 36 37 38 38 38 38 37 37 37 37 38 39 40 40 40 40 39 39 38 38 38 37 37 36 36 36 36 37 37 37 37 39 40
40 41 41 41 41 43 43 42 41 40 40 40 39 39 39 40 40 40 40 40 40 40 40 39 39 38 37 37 37 37 38 38 38 39 40 41 42 42 42 41 41 42 42 43 44 43 43 43 42 41 40 40 40 40 40 40 40 40 40 39 39 39 40
45 44 45 45 44 44 44 44 43 42 42 42 41 41 42 42 43 43 42 43 44 44 44 44 44 43 42 42 42 42 41 41 41 41 41 42 43 45 45 45 45 45 46 47 47 47 47 46 45 44 43 43 43 43 43 43 44 44 43 43 42 41 41
49 49 49 49 48 47 46 46 46 45 44 43 43 44 44 44 44 44 45 46 45 45 46 46 46 45 45 45 45 45 45 44 44 43 44 44 44 45 45 44 45 46 48 49 50 49 48 47 47 46 46 46 46 46 46 45 46 46 46 46 46 46 44
51 51 51 51 51 50 50 49 49 48 47 46 45 45 47 47 46 46 48 49 48 47 48 49 48 48 49 49 48 48 47 47 47 46 45 45 45 45 45 45 45 46 48 49 50 49 48 47 47 47 47 47 48 48 48 48 47 47 48 48 48 49 49
52 52 52 52 52 52 52 52 52 51 50 50 49 49 50 51 51 51 52 52 52 53 54 54 54 54 54 53 52 51 50 49 48 47 47 46 46 46 47 48 48 47 48 48 49 49 48 46 45 45 45 46 47 47 48 49 49 49 50 50 50 50 52
54 54 54 54 54 54 54 54 55 54 54 54 54 54 54 54 55 55 55 55 55 56 57 57 58 57 57 56 55 54 52 51 50 48 48 47 47 47 49 50 50 48 47 47 49 50 50 47 45 44 45 46 47 48 50 51 52 52 52 52 52 51 53
55 55 55 54 54 55 56 56 56 56 56 56 56 56 56 56 56 57 57 57 57 57 57 58 58 58 58 57 56 55 54 53 51 50 49 49 49 49 50 52 52 50 49 49 50 52 52 50 48 48 49 51 52 53 54 54 55 55 55 55 55 54 55
53 53 53 53 53 54 54 55 55 55 55 55 55 55 55 55 55 56 56 56 56 56 56 57 57 57 57 56 56 55 54 53 52 51 50 51 51 50 51 53 53 53 52 53 54 54 54 55 55 56 56 57 58 59 58 58 58 58 58 58 57 57 57
52 52 51 52 52 52 52 53 54 54 54 54 54 54 54 54 54 54 54 55 55 55 55 55 56 56 55 55 55 54 53 52 51 50 50 51 51 51 52 54 55 55 55 56 57 58 59 60 62 63 63 62 62 62 61 60 60 60 60 60 60 60 60
50 50 51 51 51 51 52 52 53 53 53 53 54 54 54 54 54 54 54 54 54 54 54 54 54 55 54 53 52 52 51 51 50 49 48 49 51 53 54 56 57 58 59 59 60 61 62 64 65 65 64 63 61 60 60 62 63 63 63 62 62 62 62
49 49 49 50 51 51 51 51 52 53 53 53 54 54 54 55 55 55 54 54 53 53 53 53 53 52 52 51 50 50 50 50 49 47 47 47 48 50 53 54 56 58 59 60 61 62 63 64 64 63 61 59 58 58 59 61 62 63 64 64 64 64 64
49 49 49 49 50 50 50 51 51 52 52 52 53 53 53 54 54 54 54 53 52 52 52 51 50 49 49 48 48 47 47 47 46 46 46 46 47 49 51 53 54 56 57 58 59 60 60 61 61 62 62 62 62 62 62 62 62 63 64 64 65 66 65
49 49 49 49 49 49 50 50 50 50 51 51 51 51 51 51 52 52 52 51 51 50 49 49 48 49 48 47 46 45 44 44 45 46 48 49 50 50 50 51 52 54 55 57 58 60 61 63 65 66 66 66 65 64 63 63 63 63 64 64 65 66 67
49 49 49 49 49 49 50 50 50 50 50 50 50 50 49 49 49 49 49 49 48 47 47 46 47 48 47 46 46 47 48 49 49 51 52 52 51 51 51 52 54 56 58 60 62 63 64 65 66 66 65 64 63 63 62 62 62 63 64 65 66 66 67
49 49 49 49 50 50 50 50 50 50 50 50 50 49 49 49 49 48 48 48 47 46 46 46 46 47 48 49 50 52 52 52 52 53 54 53 52 52 54 56 57 59 59 60 60 60 61 61 61 61 61 61 62 62 62 62 62 63 64 66 67 68 68
47 48 48 48 49 49 49 49 50 50 50 50 49 49 49 49 50 49 49 49 48 48 48 47 46 47 48 48 49 48 48 48 48 49 49 50 50 52 53 53 53 53 53 53 54 54 55 56 56 57 58 59 60 60 61 61 62 63 63 65 67 68 69

ECMWFFLT1_500_spd_033.txt.gz
Wind_Speed
23 23 24 24 25 26 26 25 25 24 24 23 23 23 23 23 23 23 23 23 23 23 23 23 24 24 25 26 26 26 26 26 25 25 26 26 26 27 28 28 26 27 29 26 23 22 19 18 20 22 26 34 36 36 39 44 45 44 43 43 43 43 44
21 21 22 23 24 25 25 24 24 23 23 23 22 22 22 22 22 22 22 22 23 23 23 23 23 24 24 25 26 26 26 25 24 24 25 25 25 26 28 28 28 29 30 28 26 25 24 21 20 19 20 25 29 30 33 41 47 47 44 45 45 45 45
19 19 20 21 22 23 23 22 22 22 22 22 22 22 22 22 21 21 21 21 22 22 22 23 23 23 24 24 25 25 25 24 24 24 25 25 24 25 26 27 26 28 29 29 29 30 29 27 25 24 22 21 22 24 27 33 41 44 43 44 45 45 45
18 18 18 19 20 21 21 21 21 21 21 21 21 21 21 21 21 21 21 21 22 21 22 22 22 23 23 23 24 24 24 24 23 23 24 24 24 23 25 25 24 25 26 27 27 29 30 29 28 27 26 25 23 23 25 29 33 36 38 40 41 41 42
17 17 18 18 19 20 20 20 20 20 20 20 20 21 21 21 21 20 21 21 21 21 21 21 22 22 22 23 23 24 24 23 22 22 22 23 23 23 23 24 24 23 24 24 24 25 27 27 27 27 26 25 24 24 24 26 30 33 34 36 37 38 38
17 17 18 18 18 19 19 19 19 19 19 19 19 19 20 20 20 19 19 20 20 21 21 21 21 21 22 22 22 23 23 23 22 21 21 22 22 22 22 23 24 23 22 22 22 23 23 24 24 24 24 24 24 24 23 24 26 29 32 34 36 37 36
18 18 18 18 18 18 19 19 19 19 19 18 18 18 18 18 19 19 18 18 19 19 20 21 21 21 22 22 22 22 23 22 22 21 20 21 21 21 21 21 22 22 22 21 21 21 21 22 22 22 22 22 22 23 23 23 23 24 27 30 33 36 37
19 18 18 19 18 18 19 19 19 19 19 18 18 18 18 18 18 18 18 17 17 18 19 20 20 21 21 22 22 22 22 22 22 21 20 20 20 20 20 19 20 21 20 20 19 19 19 20 20 20 19 19 20 21 22 22 22 22 22 23 26 30 33
20 20 19 19 19 20 20 20 20 20 20 19 19 18 18 18 17 17 17 17 17 17 17 18 19 20 21 22 22 22 22 22 22 21 20 19 19 19 19 19 18 19 19 19 18 18 18 18 18 18 18 17 18 19 20 20 20 21 21 21 22 23 24
23 22 21 21 21 21 22 22 21 21 21 20 19 19 18 18 18 18 18 17 17 17 17 17 18 19 20 21 21 22 22 22 22 22 21 20 19 19 19 19 18 18 18 18 18 18 17 17 17 17 17 17 17 17 18 19 19 19 20 20 21 21 20
24 23 23 22 22 23 23 23 22 22 21 21 20 19 19 18 18 18 18 18 18 18 17 17 17 18 19 19 20 20 21 21 22 22 21 20 19 18 18 19 19 18 18 18 18 18 17 17 17 17 17 17 17 17 18 18 19 20 19 19 21 21 20
23 23 23 22 22 23 23 23 23 22 22 21 20 19 18 18 18 18 18 18 19 19 18 18 18 18 18 18 19 19 20 21 21 21 21 20 19 19 18 18 19 19 19 18 18 18 19 19 19 19 19 19 19 19 19 19 20 22 21 21 21 22 21
23 23 23 22 22 23 23 23 23 23 22 21 20 19 17 17 17 17 18 18 18 19 19 19 19 19 19 19 19 20 20 20 21 21 21 21 21 21 20 20 20 20 20 20 20 21 21 21 22 21 21 21 21 21 21 21 22 23 24 24 23 24 24
25 24 23 23 23 23 23 24 24 24 23 23 21 19 17 16 16 17 17 18 18 18 19 19 20 20 20 20 21 21 21 21 21 22 22 23 23 23 22 22 22 22 22 22 23 23 24 24 24 24 24 24 24 24 24 24 23 25 27 27 26 27 27
28 26 24 24 24 24 24 23 24 25 25 24 23 21 20 19 19 19 19 19 19 18 18 19 20 21 21 21 22 22 22 22 23 23 24 24 25 25 25 24 24 25 25 25 26 26 26 27 28 28 28 28 28 28 27 27 27 27 28 29 29 29 30
31 27 26 25 25 26 25 24 25 25 26 26 25 24 23 22 22 22 21 20 20 20 20 20 20 20 21 22 23 23 23 23 23 24 25 25 26 26 26 26 26 26 27 27 28 28 28 29 30 30 30 30 31 31 31 31 31 30 30 31 32 32 32
34 29 26 27 27 27 26 26 27 27 27 28 28 27 27 26 24 24 24 23 22 22 22 23 23 23 23 23 24 24 23 23 24 24 25 26 26 26 27 27 27 28 28 29 29 30 30 30 30 31 31 31 31 32 32 33 34 34 33 33 34 35 35
37 33 29 28 30 29 27 26 27 28 29 31 31 30 30 28 27 26 26 27 27 26 25 24 25 25 26 26 26 26 26 26 26 26 26 26 26 26 26 27 28 28 30 31 31 31 32 31 31 31 31 31 31 31 31 32 33 34 34 35 36 37 37
36 36 33 32 32 33 31 30 29 29 29 31 32 33 32 31 30 29 29 29 30 30 29 28 27 27 27 28 29 29 29 29 29 29 29 29 28 28 28 28 29 29 30 31 32 33 33 34 34 33 33 32 31 30 30 31 31 32 32 33 34 35 37
37 38 37 35 35 35 35 35 33 31 31 31 32 33 33 33 32 32 32 31 31 32 32 31 30 29 29 29 30 31 32 32 32 32 32 32 32 32 32 32 33 33 34 34 35 35 35 35 35 35 35 35 34 34 33 33 33 32 32 32 33 33 34
43 41 39 38 38 38 39 39 38 36 35 35 34 34 33 33 34 34 34 34 34 34 34 34 34 33 32 32 32 33 34 33 33 33 34 35 35 35 35 35 36 36 36 37 38 38 38 38 38 38 39 39 38 38 38 37 37 36 36 36 35 35 35
47 44 42 41 41 41 41 41 40 39 39 39 38 37 36 36 38 37 37 38 39 38 37 38 37 35 35 37 38 37 37 37 36 36 35 36 37 37 37 38 38 38 38 39 40 40 41 41 41 42 43 44 43 43 42 41 41 41 40 40 39 39 38
50 48 46 46 46 45 44 43 42 41 41 41 41 40 40 40 41 42 41 40 42 41 40 40 39 36 37 40 42 40 40 40 40 40 40 39 39 40 40 41 41 42 42 43 43 43 43 43 43 43 44 46 47 47 46 46 46 46 46 45 43 42 42
52 52 51 51 50 49 49 48 47 45 45 45 46 45 45 45 44 44 44 42 42 43 42 41 40 40 40 41 42 41 41 41 41 40 40 41 41 42 43 44 44 44 44 45 45 45 45 45 45 44 44 45 46 46 47 47 48 49 50 50 49 48 47
53 53 53 53 53 52 52 51 51 50 50 50 50 49 49 49 49 49 47 45 45 44 44 44 45 45 45 44 44 44 44 43 42 42 43 43 44 45 46 47 47 47 47 47 47 47 47 47 47 47 46 46 47 47 48 49 49 49 50 51 51 50 49
53 53 53 53 53 53 53 52 52 52 51 51 51 50 49 50 52 52 51 51 50 47 46 49 50 49 49 49 48 48 48 47 47 48 48 49 49 49 50 50 50 49 49 49 49 50 49 49 49 49 48 48 49 50 52 53 52 51 50 49 50 49 49
52 52 51 51 52 52 52 53 53 52 52 52 52 51 50 50 52 53 53 54 53 49 49 51 52 52 53 52 52 53 52 51 51 52 52 52 52 52 52 52 52 52 52 52 52 52 52 52 52 52 51 51 51 51 53 54 54 53 52 51 50 50 49
50 50 50 51 52 52 53 53 54 54 54 54 54 54 53 53 54 55 56 55 53 52 53 54 54 54 55 55 55 55 55 54 54 54 54 53 53 52 52 53 53 54 54 55 54 54 54 54 54 54 54 54 53 53 53 55 55 54 54 54 53 53 51
54 55 56 56 57 57 57 56 56 57 58 58 58 57 57 56 57 57 58 56 55 55 56 56 56 55 55 55 55 55 55 54 54 54 53 53 53 53 53 53 54 55 55 55 56 55 55 56 56 56 56 55 55 55 55 56 57 57 56 56 56 55 55
58 58 58 58 58 59 59 58 58 58 59 59 58 57 57 57 57 57 57 56 55 56 56 55 55 54 53 53 53 53 53 53 54 53 53 53 53 54 55 55 56 56 56 56 56 55 55 56 56 56 56 56 56 57 57 58 59 60 60 60 59 59 60
56 56 56 55 55 55 56 56 56 56 56 56 55 55 55 55 56 55 54 54 54 54 53 53 52 52 51 51 52 52 52 53 53 53 53 53 53 54 55 56 56 56 56 56 55 55 54 55 55 55 56 56 57 58 60 61 62 63 63 63 63 64 65
53 53 53 53 52 52 53 53 53 53 53 53 53 53 52 52 53 53 52 53 53 52 52 51 51 51 51 51 52 52 52 52 52 52 53 53 53 53 54 54 54 54 54 54 54 53 52 52 52 52 54 55 56 58 60 62 63 64 65 65 66 66 67
51 51 51 51 51 51 51 51 51 51 51 51 52 52 51 51 51 51 51 51 52 52 52 51 51 52 52 52 52 52 52 52 52 52 52 52 52 52 52 52 52 51 50 49 49 50 50 50 51 52 54 54 55 56 57 58 60 61 63 63 64 65 65
50 50 50 50 50 50 50 50 49 49 50 50 51 51 50 50 51 51 51 51 51 51 52 52 52 52 51 51 51 51 51 50 50 51 51 50 51 51 50 51 50 48 48 48 50 51 52 54 55 55 56 56 56 57 58 58 60 61 62 63 64 66 66
49 49 49 50 49 50 50 50 48 48 49 50 50 50 50 50 50 50 50 50 51 51 51 51 51 50 50 49 49 49 49 49 49 49 49 49 50 49 49 50 50 49 50 52 53 53 54 54 55 56 57 58 59 60 61 61 62 63 64 66 67 68 69
48 48 49 49 49 50 50 50 49 49 50 50 50 50 50 49 49 50 50 50 50 50 49 49 48 48 47 47 47 47 47 46 47 48 48 48 49 49 49 50 51 51 52 52 52 52 53 53 53 54 55 57 58 60 61 62 62 62 63 63 64 64 64
46 47 48 48 49 49 50 49 49 50 50 50 50 50 49 49 49 49 49 49 48 48 48 47 47 46 46 46 46 45 45 45 47 48 47 47 48 48 49 49 49 49 49 49 49 50 50 50 51 52 54 55 57 58 59 59 60 60 59 59 60 60 60

ECMWFFLT1_500_spd_036.txt.gz
Wind_Speed
21 21 21 22 22 22 22 22 22 23 23 24 24 24 23 23 24 24 24 24 24 24 24 24 23 23 23 23 23 23 23 24 25 24 23 23 23 22 23 25 25 26 26 24 23 23 22 20 20 19 19 19 21 26 28 29 31 34 36 37 39 41 41
21 21 21 21 21 21 21 21 21 22 22 22 22 22 22 22 22 22 23 23 23 23 23 23 23 23 22 22 23 23 23 24 25 25 23 22 22 22 23 24 25 26 27 27 26 26 25 24 22 22 22 20 18 20 23 25 28 32 36 38 38 39 38
21 21 20 20 19 19 19 20 20 20 21 21 21 21 21 21 21 21 21 22 22 22 22 22 22 22 22 22 22 22 23 23 24 25 24 22 21 21 22 23 24 25 25 26 26 27 28 28 27 26 26 25 22 19 18 20 23 27 32 35 36 39 40
21 20 20 19 19 19 19 18 19 19 19 19 19 19 19 19 20 20 20 20 21 21 21 21 21 22 22 22 22 22 22 23 23 24 25 23 21 20 21 22 23 23 23 23 24 25 26 26 27 27 27 26 24 22 21 20 20 21 25 28 30 32 37
20 19 18 19 19 19 19 18 18 18 18 18 18 18 18 18 19 19 19 19 20 20 20 20 20 21 21 21 22 22 22 22 23 23 24 23 22 20 20 21 21 22 22 21 22 22 23 23 24 24 25 25 24 23 23 22 22 21 22 24 26 27 30
19 18 18 18 18 19 19 18 18 18 18 18 17 17 17 17 18 18 18 19 19 19 19 20 20 20 20 20 21 21 22 22 22 22 22 22 21 20 19 20 20 21 21 20 20 20 21 21 21 21 21 22 22 21 22 22 22 22 22 22 24 27 28
19 18 17 17 18 18 18 19 19 18 18 17 17 17 16 16 16 17 17 17 18 18 18 19 19 19 19 19 19 20 21 21 21 21 21 21 20 19 19 19 19 19 19 19 18 18 19 19 19 19 19 19 19 19 19 21 21 21 22 22 22 24 27
20 18 17 18 18 17 18 19 18 18 18 18 17 17 16 16 16 16 16 16 17 17 17 18 18 18 18 18 18 19 19 20 20 20 20 20 19 19 18 18 18 17 17 18 17 16 16 17 17 17 17 16 17 17 17 18 19 20 20 21 21 21 22
20 19 18 19 19 18 19 19 19 18 19 19 18 18 17 17 17 17 16 16 16 16 17 17 17 18 18 18 18 18 18 19 19 19 19 19 19 18 18 18 17 17 16 16 16 15 14 15 15 15 15 15 14 14 15 16 16 17 17 18 20 20 18
20 19 19 20 21 21 20 20 20 20 19 19 19 19 18 18 17 17 17 17 17 17 17 17 17 17 17 18 18 18 18 18 18 19 19 19 19 18 18 17 17 17 16 16 16 15 14 14 14 15 15 15 15 14 14 15 15 15 15 16 18 17 15
20 20 20 20 21 22 22 22 22 21 21 20 20 19 18 18 17 17 16 16 16 17 17 17 17 17 17 17 18 18 18 18 18 18 18 19 19 18 18 17 17 17 16 16 16 16 15 14 14 14 15 15 16 16 15 16 16 16 15 16 18 16 15
22 21 20 20 21 22 22 22 22 22 21 21 20 19 19 18 18 17 16 16 16 16 17 17 18 18 18 18 18 18 18 18 18 18 18 19 18 18 18 17 17 17 17 16 16 16 17 16 16 15 16 16 16 17 17 18 18 18 17 17 18 18 17
22 21 21 20 20 21 22 22 22 22 22 22 21 20 20 19 18 18 17 16 16 16 17 18 19 19 20 20 20 20 20 19 19 19 19 19 19 19 19 19 18 18 18 18 18 18 18 18 18 18 18 18 18 18 19 20 20 21 20 20 20 20 19
23 23 23 22 21 22 22 22 22 22 22 22 22 22 21 20 20 19 18 17 17 17 18 19 19 20 20 21 22 22 22 21 21 21 20 20 20 20 20 20 20 20 20 20 20 20 20 20 20 20 21 20 20 20 20 20 21 22 23 23 23 23 23
27 26 25 24 24 24 24 24 24 23 22 22 22 23 23 22 21 20 19 18 18 19 19 20 20 20 21 22 22 22 23 23 23 23 23 22 22 22 22 22 22 22 22 22 22 22 22 22 22 22 23 23 23 23 22 22 22 23 24 25 25 26 27
31 29 26 26 27 27 27 27 27 26 24 23 22 23 23 23 23 22 21 20 20 21 22 22 22 22 22 22 22 22 22 23 23 24 24 24 24 24 24 23 23 23 24 23 24 24 24 24 25 24 25 25 25 26 26 25 25 24 25 25 26 27 28
35 32 30 30 30 30 30 30 31 28 25 23 23 24 24 24 24 24 23 23 23 23 23 24 24 24 24 23 23 23 22 22 23 23 23 24 24 24 24 24 24 24 25 25 25 25 25 25 26 26 26 27 27 27 28 28 28 28 27 27 28 27 28
36 34 34 34 34 33 32 32 32 29 26 24 24 24 24 24 25 26 27 27 27 26 26 26 26 26 27 26 25 24 24 24 23 23 24 24 25 25 25 25 25 25 25 26 25 25 26 25 26 26 27 27 28 28 29 30 30 30 30 29 29 29 29
34 33 34 35 35 33 31 31 31 30 28 27 26 25 24 23 23 26 29 30 29 28 28 28 28 28 28 28 28 26 25 26 26 27 26 26 27 27 28 28 28 27 27 27 27 27 27 27 27 27 28 28 28 28 29 30 31 32 32 31 31 31 31
36 35 34 35 35 33 31 30 29 29 29 29 30 30 29 27 26 26 28 27 26 27 28 29 30 31 31 30 29 28 27 28 29 29 29 29 30 31 31 31 31 30 30 30 30 30 30 30 30 30 31 31 30 31 31 31 32 33 33 33 33 33 33
41 40 39 39 39 37 35 35 33 32 30 29 29 31 31 32 32 31 29 27 26 27 28 30 31 31 31 31 30 29 30 32 33 32 31 31 32 32 33 34 34 34 33 33 33 33 33 33 33 33 33 33 33 33 33 33 34 35 35 35 36 37 37
45 45 44 43 43 42 41 41 42 42 39 36 35 35 36 36 35 36 35 34 32 30 31 32 32 32 32 32 31 31 32 34 35 35 34 34 34 34 34 35 35 35 35 35 36 36 36 36 36 36 37 37 36 36 36 36 36 36 37 37 37 39 40
49 49 49 48 47 46 45 45 46 46 45 43 42 41 41 40 38 37 38 38 37 35 35 35 36 36 36 36 35 35 36 37 37 37 37 37 36 36 36 36 37 38 38 39 40 40 40 40 40 40 41 41 41 41 40 40 40 40 40 40 40 39 40
52 52 52 52 51 51 50 49 48 48 48 47 46 45 45 45 44 43 42 41 41 41 41 40 40 41 41 40 40 40 40 40 39 39 39 39 38 37 37 37 38 39 39 40 40 41 42 42 43 43 44 45 45 45 44 43 43 43 43 43 43 42 42
55 55 54 54 54 53 53 52 51 51 50 49 49 48 48 48 48 48 48 48 47 47 47 46 45 45 45 44 44 45 45 44 43 43 43 42 42 42 42 42 41 41 42 42 42 43 44 45 46 47 47 48 48 49 49 48 47 47 47 46 45 45 45
54 55 55 55 55 54 54 54 54 53 52 52 51 51 51 52 51 50 51 51 51 50 49 48 46 46 48 48 47 48 48 48 48 47 47 47 47 47 48 47 47 47 47 47 47 48 49 50 50 50 51 51 51 52 52 53 52 52 51 51 50 50 49
52 53 54 54 54 54 53 53 53 54 54 54 54 53 53 53 53 52 53 54 53 51 50 48 46 47 49 50 49 49 48 48 49 49 49 50 51 51 51 51 51 51 51 51 51 52 53 53 53 53 53 53 53 53 54 54 55 55 54 54 54 53 53
51 52 53 53 53 53 52 52 53 54 54 55 55 55 54 54 53 53 54 54 51 50 49 48 48 49 50 51 51 50 49 49 49 49 50 51 52 52 53 53 53 53 53 53 53 53 54 54 54 53 53 53 52 53 53 54 54 55 55 55 54 54 54
50 51 52 52 53 53 52 52 53 54 55 55 55 55 55 54 52 52 52 51 49 49 50 50 50 51 52 52 52 52 52 52 52 52 52 52 52 53 53 53 53 52 53 53 53 53 53 53 53 53 52 52 52 52 53 54 54 54 54 55 54 54 55
51 51 51 52 53 54 55 56 56 55 55 54 54 54 54 54 53 52 52 53 53 53 53 53 53 53 54 54 54 53 53 53 53 53 52 52 51 51 51 51 51 51 52 52 51 51 52 53 53 53 53 53 53 53 53 53 53 53 54 54 54 55 55
51 51 52 52 52 54 55 56 57 57 56 56 56 56 55 56 55 55 56 56 56 56 55 55 54 54 54 54 53 53 53 52 52 52 51 50 50 49 50 50 50 51 51 50 50 51 52 53 53 53 53 53 53 53 53 53 52 52 52 53 54 54 55
52 52 52 53 53 53 54 54 55 55 55 56 56 56 55 55 56 57 57 57 56 55 54 53 53 52 52 52 52 52 52 51 51 50 49 49 49 49 49 50 50 50 50 50 50 51 52 52 53 53 53 53 52 52 52 52 51 51 50 51 52 53 55
51 52 52 53 53 53 54 54 54 54 54 54 54 52 52 52 54 55 55 54 54 53 52 51 51 51 51 51 51 51 50 50 49 49 48 48 48 49 50 50 49 50 50 50 51 51 51 51 52 52 52 52 51 51 51 51 51 51 51 52 52 54 55
48 48 49 50 52 53 54 54 54 54 54 53 51 50 50 51 52 52 52 51 51 51 51 51 51 50 50 50 49 49 49 49 49 48 48 48 49 49 50 50 49 49 50 50 50 50 50 50 50 50 50 50 50 50 51 52 53 54 55 55 56 56 57
46 46 46 47 48 49 51 52 52 53 53 52 50 49 50 51 51 50 50 50 50 50 50 50 50 50 49 49 49 48 48 49 49 48 49 49 49 49 49 50 49 49 49 49 49 49 49 49 49 49 50 50 51 52 53 54 55 56 57 57 58 58 59
47 46 46 46 46 47 48 49 49 50 51 51 50 49 50 50 49 49 49 49 49 49 49 49 49 48 48 48 48 48 48 48 48 48 48 49 49 49 49 49 49 48 48 47 47 47 48 48 49 49 50 51 52 53 54 55 55 56 57 57 58 58 58
47 47 47 46 46 47 47 47 47 47 47 48 49 50 50 49 49 48 48 48 48 48 47 47 47 47 47 48 48 48 48 48 48 48 47 47 47 47 47 47 46 45 45 45 45 46 47 47 48 48 49 49 50 51 51 52 53 53 54 54 55 56 56

ECMWFFLT1_500_spd_039.txt.gz
Wind_Speed
17 18 18 18 18 19 19 20 19 19 19 19 18 18 17 17 17 17 16 16 16 16 17 17 18 18 18 18 19 19 20 21 21 21 20 19 19 19 19 19 20 20 20 20 20 21 21 21 20 19 18 18 17 16 17 18 19 23 27 31 34 35 35
18 18 19 19 19 20 20 20 19 19 19 18 18 18 17 17 16 16 16 16 16 16 16 16 17 17 17 17 17 18 19 19 20 20 20 19 18 18 18 19 19 20 21 21 21 22 22 22 21 21 21 19 17 18 19 17 17 20 25 28 32 34 35
20 19 20 20 20 21 21 20 19 19 18 18 17 17 17 16 16 16 16 16 16 16 15 15 15 15 15 15 15 16 17 17 18 19 19 18 17 17 18 19 19 20 20 21 21 21 21 22 23 23 23 23 23 23 23 21 18 17 21 26 29 30 32
21 21 21 20 20 20 20 20 19 18 18 17 17 16 16 15 14 14 14 14 15 15 14 14 14 14 14 14 14 15 15 16 16 17 18 18 17 16 17 18 19 19 20 20 20 20 20 20 21 22 23 23 24 24 24 23 21 18 18 22 26 28 30
21 21 21 21 20 20 20 19 19 18 18 17 17 16 15 15 14 13 13 12 13 13 13 13 13 13 13 13 14 14 14 15 15 15 16 16 16 16 15 16 18 19 19 20 19 19 19 19 19 20 21 22 22 23 23 23 22 20 18 18 20 23 26
22 22 21 21 20 20 19 19 18 17 17 17 17 17 16 15 14 13 12 12 12 12 12 13 13 13 13 13 13 13 14 14 14 15 15 15 15 15 14 14 15 17 18 19 19 18 18 18 18 18 19 20 20 20 21 21 20 20 19 18 19 20 21
22 22 21 21 20 20 19 19 18 17 16 17 17 16 16 15 14 14 13 12 12 12 12 12 12 12 13 13 13 13 13 14 14 14 14 14 14 14 13 13 13 15 17 17 17 17 17 16 17 17 17 18 18 18 19 19 18 18 18 19 19 19 20
23 22 22 22 20 19 19 18 18 17 16 16 17 16 16 16 15 14 14 14 13 13 13 13 13 12 12 13 13 13 13 13 14 14 14 14 14 13 13 12 12 13 14 16 16 15 15 15 15 15 16 16 16 17 17 17 17 17 18 19 19 18 18
24 23 23 22 20 19 19 18 17 17 17 17 17 17 17 16 16 16 16 16 15 15 15 14 14 14 14 13 13 13 13 13 13 13 13 13 13 13 13 12 12 12 13 14 14 14 13 13 13 14 14 14 14 14 15 15 15 16 17 18 18 17 17
25 24 23 23 21 19 19 18 17 17 17 18 18 17 17 17 17 17 18 17 17 17 16 16 16 16 16 15 15 14 14 13 13 13 13 13 13 13 12 12 12 12 12 13 14 14 13 12 12 12 13 13 12 13 13 13 13 14 15 17 16 15 15
23 23 22 23 22 20 18 18 18 17 17 18 18 18 18 18 18 18 18 18 18 18 18 17 17 17 17 16 16 16 15 15 14 14 14 13 13 13 12 12 12 12 12 13 13 13 13 13 12 12 12 12 12 12 12 12 13 13 14 15 15 14 14
22 22 22 23 23 22 19 18 19 18 17 17 18 18 18 18 18 18 18 18 18 19 19 18 18 17 17 16 16 16 16 16 16 15 15 15 14 14 13 13 13 13 13 13 13 13 14 14 13 12 12 13 13 13 13 13 13 13 14 15 14 14 14
19 21 23 24 24 22 19 18 18 18 17 17 18 18 19 20 20 19 18 18 19 19 19 19 19 18 17 16 16 16 16 16 17 17 16 16 16 16 15 15 14 14 14 14 14 14 15 15 15 15 14 14 14 15 15 16 15 15 16 16 16 16 15
17 18 22 25 24 22 20 19 19 19 19 18 18 19 20 20 21 20 19 19 18 19 19 19 19 18 18 17 16 15 16 16 17 17 17 17 17 17 17 16 16 16 16 16 16 16 16 17 17 17 16 16 16 16 16 17 18 18 18 18 19 18 18
26 22 22 25 25 23 21 21 21 21 21 21 21 21 21 22 22 22 21 21 20 20 19 19 18 18 18 17 17 16 16 16 17 17 18 18 19 19 18 18 18 17 17 17 18 18 18 18 18 18 18 18 18 17 17 18 18 20 20 21 21 21 21
32 28 27 27 26 25 24 24 23 23 23 24 25 25 25 24 24 24 24 24 23 22 21 19 19 19 19 19 19 18 18 17 17 17 18 19 20 20 20 19 19 19 19 19 19 20 20 20 20 20 20 20 20 20 20 20 20 20 21 22 23 24 24
32 33 32 30 29 28 28 27 26 26 25 26 28 28 27 26 26 26 26 25 24 24 23 21 21 22 22 22 21 20 20 19 19 19 19 20 20 20 21 20 19 20 20 20 20 20 21 21 21 22 21 21 21 21 22 22 22 21 21 22 24 25 25
35 34 32 31 32 33 31 29 28 29 28 28 29 30 30 28 26 26 26 26 26 26 25 25 25 24 24 24 24 23 22 22 22 22 22 22 21 21 22 22 21 21 21 21 21 21 22 22 22 23 23 22 22 22 22 22 22 22 22 22 23 24 25
37 35 32 32 34 33 30 28 28 29 30 29 28 29 30 30 28 25 25 26 27 26 26 26 27 26 26 26 26 25 24 24 25 25 25 24 23 22 23 24 24 23 24 24 24 24 24 24 24 25 24 24 24 24 24 24 24 24 23 23 24 25 26
38 36 34 32 33 32 30 29 28 29 29 29 29 28 28 28 28 26 25 26 27 27 26 26 26 26 26 27 26 26 26 26 26 27 27 26 25 25 26 27 27 27 26 27 27 27 28 28 28 28 28 28 28 29 29 29 28 28 27 27 27 27 28
41 40 38 36 35 35 34 33 32 32 32 32 31 30 28 27 27 27 26 27 29 30 29 27 27 26 26 25 23 24 24 24 24 25 26 27 27 28 29 30 31 31 31 31 31 30 30 30 31 31 31 32 32 32 32 32 32 32 31 31 30 30 30
44 44 43 42 41 40 39 39 38 37 37 37 36 35 34 34 34 34 33 32 32 32 31 29 30 30 30 29 28 27 26 24 23 25 26 27 28 29 30 32 33 33 33 35 35 35 35 34 34 35 34 34 34 34 35 36 36 36 36 35 35 35 34
48 48 47 47 46 45 44 43 42 41 41 41 41 40 40 40 41 40 39 37 36 36 36 36 36 35 35 34 33 33 32 30 29 29 29 29 30 32 34 35 36 35 35 36 37 37 37 36 36 36 37 38 38 39 40 41 41 40 40 39 39 39 39
50 51 51 51 51 50 49 48 48 47 46 46 45 45 45 45 45 44 42 41 40 40 42 43 41 39 39 38 38 38 38 38 37 36 36 35 35 36 38 40 40 39 39 39 39 39 39 39 38 38 38 39 40 41 42 42 42 42 41 41 41 41 41
52 53 54 54 54 54 54 53 53 52 52 51 51 50 49 49 48 48 46 45 43 43 44 45 43 42 42 43 43 42 43 44 44 44 43 42 42 41 41 42 43 44 44 43 42 42 43 44 44 44 44 44 44 45 45 45 45 46 46 46 46 46 46
51 52 53 54 55 56 56 56 56 56 55 55 55 54 54 53 51 51 50 49 47 45 44 44 44 44 44 45 46 46 46 46 47 46 46 45 44 43 43 44 45 46 46 46 46 46 47 48 49 49 49 49 50 50 51 51 51 51 52 52 52 51 52
49 49 50 51 52 53 54 54 54 55 55 56 56 56 56 56 54 54 53 52 49 45 43 43 43 44 45 46 46 47 47 47 47 47 47 46 45 45 45 45 45 45 45 46 47 47 48 48 49 50 50 51 52 53 53 54 54 54 54 54 54 53 53
47 48 49 49 50 50 51 51 51 52 52 53 54 55 56 56 55 55 53 51 48 46 45 44 44 44 45 45 44 44 45 45 45 45 46 46 45 45 45 45 45 45 46 46 47 48 48 49 49 50 51 51 52 53 53 54 54 54 53 53 53 52 52
49 50 50 50 50 50 50 50 50 50 50 50 51 52 53 54 53 53 51 50 49 48 48 47 47 46 45 44 43 43 43 43 43 44 44 45 45 46 46 47 47 47 47 48 48 49 49 50 50 50 50 51 51 52 53 53 53 53 52 52 52 52 52
51 51 50 50 50 50 50 50 50 50 50 50 50 50 51 51 51 51 50 51 51 51 50 49 48 47 46 45 45 45 45 46 46 47 47 48 48 48 48 49 49 49 49 48 48 47 48 48 49 49 50 50 50 51 52 52 52 52 52 52 52 53 53
49 49 49 48 48 49 49 50 51 51 51 51 51 51 50 50 50 51 51 51 51 51 51 50 49 48 48 48 48 48 48 48 48 49 49 49 49 49 49 49 49 48 48 47 47 47 47 48 48 49 49 50 50 51 51 52 52 52 52 53 53 53 54
49 48 48 48 48 48 49 50 50 51 51 51 51 51 51 51 51 51 51 51 51 51 51 51 49 49 49 49 49 49 48 48 48 48 48 48 48 48 47 47 47 47 47 47 47 48 48 48 48 48 49 49 50 50 51 51 52 52 53 53 53 54 54
48 48 48 47 47 48 48 49 49 50 49 49 49 49 50 50 51 52 52 52 52 52 52 50 49 48 48 47 47 47 47 46 46 46 46 46 47 47 46 46 46 46 47 47 48 48 48 48 48 48 49 49 49 50 50 51 51 52 52 52 53 53 54
48 47 47 47 46 47 47 47 47 47 47 46 46 47 47 48 49 50 51 52 52 52 51 50 49 48 47 46 46 46 46 45 45 45 45 45 46 46 46 45 46 46 47 47 47 47 47 47 47 48 48 49 49 49 50 50 51 52 52 53 53 53 54
48 47 46 46 46 45 45 45 45 45 44 43 44 44 44 45 45 46 47 48 49 49 49 49 48 48 47 46 45 45 45 45 45 45 45 45 46 46 46 45 46 46 47 47 47 47 47 47 47 47 48 48 49 50 50 50 51 52 52 53 53 54 55
47 47 46 46 45 45 44 44 45 45 44 43 43 43 43 43 43 43 43 44 44 45 45 46 46 46 45 45 45 44 44 44 45 45 46 46 46 46 46 46 46 46 46 46 47 47 46 47 47 47 48 48 49 49 50 50 51 52 53 53 54 55 55
48 47 46 45 45 44 45 45 45 44 44 44 44 44 43 43 43 43 42 41 41 41 42 42 43 43 44 44 44 43 44 44 44 45 46 46 46 46 46 46 46 46 46 46 46 46 46 46 46 46 46 46 47 48 49 49 50 51 52 52 53 53 53

ECMWFFLT1_500_spd_042.txt.gz
Wind_Speed
12 13 13 12 12 12 13 13 13 13 12 13 13 14 14 14 14 15 14 14 15 15 15 15 16 16 17 18 18 19 20 20 20 20 20 20 20 19 19 19 19 19 20 21 22 22 22 22 21 21 20 19 17 16 16 17 19 19 19 22 25 26 29
12 13 14 14 14 14 15 15 15 14 13 13 13 13 14 14 14 15 15 15 15 15 15 15 16 16 17 17 18 19 19 19 20 20 20 19 19 19 19 19 18 19 20 21 22 22 22 22 22 22 22 21 19 19 18 16 16 16 16 19 21 21 23
13 14 15 16 16 16 17 17 16 15 14 13 13 13 13 13 14 14 14 15 15 15 15 15 15 16 17 17 18 18 19 19 19 19 19 19 19 18 18 18 18 18 19 20 21 22 23 23 23 23 23 23 22 22 21 20 19 18 18 18 19 19 22
15 16 16 16 17 18 18 18 17 16 15 14 13 13 13 13 13 14 14 14 14 15 15 15 15 16 16 17 17 17 18 18 18 18 18 18 17 17 17 17 17 18 19 19 20 21 22 22 22 22 22 23 24 24 23 23 23 23 22 21 20 21 23
17 17 17 17 18 18 19 19 18 17 16 15 14 13 12 12 13 13 14 14 14 15 15 15 16 16 16 16 17 17 17 17 17 17 17 16 16 16 16 16 16 17 18 19 19 20 21 21 21 21 22 23 24 24 24 23 23 23 23 22 22 22 22
18 18 18 18 19 19 19 19 18 18 17 16 15 13 13 12 12 13 13 13 14 14 14 15 15 15 15 16 16 16 16 16 16 16 16 15 15 14 14 14 15 16 16 17 18 19 19 20 20 20 21 22 22 23 23 23 22 22 22 22 22 22 23
20 20 20 20 20 20 19 19 19 19 18 17 16 14 13 12 12 13 13 13 13 13 13 14 14 14 14 14 15 15 15 15 15 15 15 15 14 14 13 13 14 14 15 16 17 18 18 18 18 19 20 20 21 21 22 21 20 20 20 20 20 22 23
22 21 22 22 22 21 20 19 19 19 18 18 17 15 14 13 13 13 13 13 13 13 13 13 13 13 13 13 13 13 13 13 14 14 14 14 13 13 13 12 13 13 14 15 16 16 16 16 17 17 18 18 19 19 19 19 18 18 18 18 19 20 21
22 22 22 23 23 21 20 19 19 19 18 17 17 16 16 15 14 14 14 14 14 14 14 14 14 14 14 14 13 12 12 12 12 12 12 13 13 12 12 12 12 12 13 14 15 15 14 14 14 15 16 16 16 16 17 17 16 16 16 16 16 18 19
22 21 21 23 22 20 18 18 19 19 18 17 16 16 17 16 16 16 15 15 15 15 15 15 15 15 15 15 15 14 13 12 12 11 11 11 11 12 11 11 11 12 12 13 13 14 13 13 13 13 14 15 15 14 14 15 15 14 14 14 15 15 17
20 20 20 21 21 19 18 17 18 20 19 17 16 16 16 17 17 17 17 16 16 16 15 15 15 15 15 15 15 15 14 13 12 11 11 11 11 11 11 11 11 11 11 12 13 13 13 13 13 13 14 14 14 14 13 13 14 13 13 13 13 14 15
20 21 21 20 18 17 18 17 17 18 20 20 18 17 16 17 17 17 17 17 17 17 16 15 15 14 14 14 15 15 15 14 14 13 12 11 11 11 11 11 11 11 11 11 12 13 13 13 13 13 13 14 14 14 14 13 13 14 14 13 13 14 14
21 22 21 20 18 18 19 18 18 18 19 21 21 19 18 17 17 17 17 17 17 17 17 17 16 15 15 14 14 15 15 14 14 14 14 13 13 13 13 13 12 12 12 12 12 13 13 14 14 14 14 14 15 15 15 15 15 15 15 15 15 15 15
20 20 20 18 18 19 19 19 20 20 20 21 22 22 21 18 17 17 17 17 17 17 18 18 17 16 16 16 15 15 15 15 15 15 15 15 15 15 15 15 15 15 14 14 14 14 14 15 15 15 16 16 16 16 17 17 17 17 17 17 17 17 17
20 20 20 20 19 19 18 19 21 23 22 23 23 23 22 21 20 19 19 19 19 19 19 18 18 18 17 17 18 17 17 16 16 16 16 16 16 16 16 16 16 16 16 16 16 16 16 16 17 17 18 18 18 18 19 19 20 20 20 21 21 20 20
20 18 20 23 22 23 25 26 26 24 24 25 24 23 24 23 23 23 23 22 23 23 22 20 19 19 19 19 20 20 19 18 18 18 18 18 18 18 17 17 16 16 17 17 18 18 18 18 18 18 19 19 20 20 21 21 21 22 23 23 24 24 23
21 19 21 23 24 27 30 29 27 25 24 25 25 24 24 25 26 26 26 26 26 26 25 23 21 21 21 20 21 21 21 20 20 20 20 20 20 20 19 18 18 17 17 17 17 18 19 19 19 19 20 20 21 22 22 23 23 23 24 25 25 26 26
25 24 24 26 28 30 31 28 26 25 23 23 25 25 26 27 28 27 25 24 26 27 27 25 23 24 24 23 23 23 24 23 23 22 22 22 22 22 22 21 20 19 18 18 18 18 19 19 19 20 20 21 21 22 22 23 23 23 24 24 25 26 26
28 28 29 30 30 31 31 30 28 27 25 24 27 28 26 25 26 26 24 23 25 27 28 25 23 24 25 24 24 24 24 25 26 26 25 24 23 23 23 23 22 22 21 20 20 20 20 20 21 21 22 22 23 23 24 24 25 25 25 25 25 26 27
32 32 32 33 33 32 33 33 31 30 29 28 29 29 26 25 24 24 24 24 24 25 26 24 24 26 26 24 24 24 23 24 25 26 26 25 25 24 24 24 24 24 24 24 23 23 23 23 23 24 24 24 25 26 26 27 27 28 28 28 29 29 29
34 34 34 34 35 35 35 35 35 34 33 32 31 30 29 28 27 27 27 27 26 25 25 24 25 27 27 26 26 26 26 24 24 25 25 25 24 24 24 24 24 25 25 25 26 26 26 26 26 26 27 27 28 28 29 30 30 31 31 32 32 33 33
37 37 37 36 37 37 38 38 38 38 37 35 34 34 33 32 33 32 32 32 31 31 31 30 30 31 30 29 28 29 28 27 26 28 29 29 28 27 26 26 26 26 26 26 27 27 27 27 28 29 30 31 32 32 33 33 34 34 34 34 35 35 35
38 38 39 40 40 40 41 41 41 41 40 39 39 38 37 37 37 37 37 36 36 36 36 37 37 37 35 33 32 32 32 32 33 35 36 35 33 31 30 30 31 32 32 32 31 31 31 31 32 33 33 35 36 36 36 37 37 37 36 36 37 37 38
37 38 39 41 42 43 43 44 44 44 43 43 42 42 42 41 42 41 41 41 40 40 39 40 39 39 39 38 37 36 37 38 39 40 39 39 38 36 35 36 37 38 38 38 38 38 38 37 37 37 37 39 40 40 40 40 41 40 40 39 39 39 40
38 38 38 39 40 41 42 42 43 44 44 44 44 43 43 43 44 44 44 43 43 42 42 42 42 42 42 41 40 40 40 41 42 42 42 42 42 42 41 41 41 41 42 42 43 43 42 42 41 41 41 43 44 44 44 44 45 45 45 44 44 45 45
40 40 39 39 39 39 40 41 42 43 43 44 44 44 43 43 43 43 43 44 43 43 43 43 44 44 44 44 43 43 43 43 43 43 44 44 44 45 45 44 44 44 45 46 46 45 45 44 43 43 44 46 47 46 47 48 48 48 49 49 49 50 50
42 42 42 42 42 42 42 42 43 43 44 44 44 44 44 43 43 42 43 43 43 43 43 44 44 45 45 46 46 46 45 44 43 44 44 45 45 45 46 46 47 47 48 48 48 47 46 45 45 45 45 46 48 48 49 50 50 50 50 51 51 51 52
44 44 44 44 44 44 44 44 45 45 45 45 45 45 45 44 44 43 43 43 43 44 44 45 44 45 45 45 46 46 45 44 44 43 44 44 44 45 45 46 47 47 47 47 45 45 44 44 44 44 44 45 47 48 49 50 50 51 51 52 52 53 53
47 46 45 45 45 45 46 47 48 48 47 48 48 48 48 48 47 45 44 44 43 43 44 44 45 45 45 45 45 45 45 44 44 44 43 43 43 44 44 45 45 45 45 44 43 43 43 43 44 44 45 47 48 49 49 50 51 51 52 52 53 53 53
49 48 47 47 47 48 50 51 50 50 50 50 51 50 50 49 48 47 46 45 45 44 44 45 45 45 45 45 45 45 45 45 45 44 44 43 43 43 43 44 44 44 44 44 44 44 44 45 46 47 49 49 49 49 50 50 51 51 51 52 52 52 52
51 50 50 49 50 51 52 52 51 51 51 51 51 50 49 48 48 47 47 47 46 46 46 46 46 46 45 45 45 45 45 45 45 45 45 44 43 43 44 44 44 45 46 46 46 46 47 47 48 49 50 49 49 49 50 50 50 51 51 51 52 52 53
52 52 52 52 52 52 52 51 50 50 51 50 49 49 48 48 48 48 48 48 47 47 47 47 47 47 46 46 46 46 45 45 45 45 44 44 43 44 44 45 45 46 46 47 47 48 48 49 49 49 49 48 49 49 50 50 50 51 51 52 52 53 53
53 53 54 54 54 53 52 51 50 50 49 49 49 48 48 47 47 48 48 48 48 47 46 46 46 46 46 46 46 46 45 45 45 45 45 44 44 44 44 45 45 46 46 47 48 48 49 49 48 48 48 48 49 49 50 50 51 51 52 53 53 53 54
53 53 53 52 52 51 50 49 48 48 48 48 48 47 46 46 46 46 46 46 46 45 45 45 44 44 44 43 43 43 44 44 44 44 44 43 43 43 44 45 46 46 47 47 47 47 47 47 47 47 47 48 49 49 50 50 51 52 52 53 53 54 54
52 52 51 51 50 49 48 47 46 46 46 47 47 46 46 45 45 45 44 44 44 44 44 43 43 43 42 42 41 41 40 41 41 42 42 42 43 43 44 45 46 46 46 46 46 45 45 46 46 47 48 48 49 50 50 50 51 51 52 52 53 53 53
52 52 51 50 49 48 47 47 46 46 46 46 46 46 45 45 45 44 44 44 44 43 43 42 42 42 42 41 40 39 38 38 39 39 40 41 42 43 43 44 44 45 45 45 45 45 46 46 47 47 48 49 49 49 50 50 50 50 50 50 51 51 52
53 52 51 50 49 48 47 47 46 46 46 46 46 45 45 45 45 45 45 45 44 44 43 43 43 42 42 41 40 39 38 38 38 39 39 40 40 41 42 42 43 44 44 45 45 45 46 46 46 47 47 48 48 48 48 48 48 48 48 48 49 49 50

ECMWFFLT1_500_spd_045.txt.gz
Wind_Speed
17 17 17 17 16 15 14 13 12 11 11 10 10 10 10 11 12 14 15 15 15 16 16 17 18 19 19 20 20 21 22 22 23 23 24 23 23 23 23 23 23 23 23 24 24 25 25 25 25 24 24 23 23 23 23 22 20 20 21 21 22 23 23
16 17 18 18 18 16 14 13 12 12 11 11 10 10 10 11 11 12 13 14 15 15 16 16 17 18 19 19 20 20 21 22 22 23 23 23 23 23 23 23 23 23 23 23 24 24 25 25 25 25 24 24 24 24 24 22 20 20 19 22 25 25 23
15 16 18 19 19 18 16 14 13 12 11 11 11 11 11 11 11 12 12 13 14 15 16 16 17 18 19 19 20 20 21 21 22 22 23 23 23 23 23 23 23 22 22 23 23 24 24 24 25 25 25 24 25 25 25 24 22 21 19 19 23 24 23
16 17 19 19 19 19 17 15 15 14 13 12 12 11 11 11 12 12 12 12 13 14 15 16 17 17 18 19 20 20 21 22 22 22 22 22 23 22 22 22 22 22 21 22 22 23 23 24 24 25 25 24 24 25 25 25 24 23 21 20 21 23 23
20 19 19 19 19 19 18 17 17 16 15 14 13 12 12 12 13 13 13 12 12 13 13 14 15 16 17 18 19 20 21 21 22 22 22 22 22 22 22 21 21 21 20 21 22 23 23 23 24 24 24 24 24 24 24 24 24 24 24 24 24 26 26
19 17 16 17 19 18 18 18 18 18 17 16 15 14 13 13 14 14 14 13 13 12 12 12 13 14 15 16 17 18 19 20 20 21 21 21 22 22 21 21 21 20 20 20 21 22 23 23 23 23 23 23 23 23 23 23 23 23 24 25 27 28 29
18 17 17 17 18 18 18 18 19 19 18 18 17 16 15 15 15 15 15 14 13 12 12 12 12 12 13 14 15 15 16 17 18 19 19 19 20 20 20 20 19 19 19 19 20 21 21 22 22 22 21 21 21 22 22 21 21 21 22 24 26 27 27
20 19 18 17 17 18 18 18 18 19 19 18 18 17 17 16 16 16 15 14 13 12 11 11 11 11 11 12 12 13 14 15 16 17 17 18 18 18 18 18 18 17 18 18 18 19 20 20 20 20 19 19 20 20 20 20 20 20 20 22 24 25 25
22 19 17 18 17 18 18 18 18 19 19 19 18 17 17 17 17 16 15 14 13 12 11 11 11 11 11 11 11 12 13 14 14 15 16 16 16 17 17 17 17 17 17 17 17 18 18 19 19 18 17 17 18 18 18 18 18 18 19 20 22 23 23
21 18 18 18 17 17 18 18 17 18 19 19 19 18 17 17 17 16 16 15 14 13 12 12 11 11 11 11 11 11 12 13 13 14 15 15 15 16 16 16 16 16 16 16 17 17 17 17 18 17 16 16 16 16 16 16 16 16 16 18 19 20 21
18 17 17 16 16 17 19 18 17 17 19 19 18 18 18 17 17 16 16 16 15 14 14 12 12 11 12 12 12 12 12 13 13 14 14 15 15 15 15 16 15 15 15 16 16 16 16 16 16 16 16 15 15 15 15 15 15 15 15 15 16 18 19
15 13 14 15 17 18 19 18 17 16 17 18 18 18 19 19 18 17 16 16 15 14 13 13 12 12 12 12 12 13 13 14 14 14 15 15 16 16 16 16 16 15 15 15 15 16 16 16 16 16 16 16 15 15 15 15 15 15 15 15 15 16 17
13 13 16 18 19 19 19 19 18 16 16 16 17 19 20 20 19 17 16 15 14 12 11 12 13 13 13 13 13 13 14 14 15 15 15 15 16 16 16 17 17 16 16 15 15 15 16 16 17 17 17 16 16 16 16 16 16 16 16 16 16 16 17
17 18 18 17 19 20 19 19 18 16 16 15 16 18 20 20 19 17 16 14 13 12 11 11 12 13 14 15 15 15 15 15 16 16 17 16 16 16 16 16 17 17 17 17 17 16 16 17 17 17 18 18 17 18 18 18 18 18 18 18 18 18 18
19 18 17 17 18 18 17 18 17 16 17 18 19 21 23 22 19 16 15 14 14 13 12 13 13 14 15 16 17 17 18 18 18 18 18 17 17 16 16 15 16 16 17 18 19 18 18 18 18 18 19 19 19 19 19 19 19 20 20 20 20 20 20
20 20 20 18 17 16 16 17 17 18 20 22 24 25 26 24 21 20 19 18 17 17 16 16 16 17 17 17 18 19 19 19 19 19 19 19 19 18 17 17 16 16 17 18 19 19 20 20 20 20 20 20 20 20 20 21 21 21 21 22 22 22 22
21 21 20 18 18 18 18 18 19 20 23 23 24 25 25 26 26 25 23 22 21 21 19 18 18 18 18 18 19 20 20 20 20 20 20 20 20 20 19 19 19 19 18 18 19 20 20 21 21 22 22 21 21 21 21 22 22 23 23 23 24 24 24
17 18 19 19 19 19 19 19 20 22 23 23 23 23 22 22 24 24 23 23 24 23 22 20 20 20 20 19 19 20 20 20 20 21 22 21 22 22 22 22 22 22 22 21 21 21 21 21 22 22 22 22 22 22 22 22 22 23 23 24 24 25 24
20 21 22 22 21 20 20 21 22 23 25 25 25 24 22 20 21 21 21 22 23 24 24 23 21 20 20 19 19 20 20 20 20 21 21 21 22 22 24 25 25 25 24 24 24 24 23 23 23 22 22 22 22 23 23 23 23 23 23 24 24 25 25
23 23 22 21 22 22 22 23 24 26 27 27 25 23 22 22 24 25 25 24 23 24 25 24 21 20 19 18 18 20 20 21 21 21 21 21 21 21 21 22 23 24 24 24 25 25 26 26 25 25 25 25 25 25 26 26 26 25 25 26 26 26 27
22 23 22 21 22 23 23 24 26 27 29 29 27 24 24 25 27 28 28 28 27 26 26 24 22 22 22 21 21 21 22 22 22 22 23 23 23 23 23 21 21 22 22 23 24 25 26 27 27 27 27 27 27 28 29 29 28 28 29 29 29 29 30
23 24 25 24 24 24 25 25 26 28 29 30 29 28 29 30 30 31 30 29 29 29 28 27 26 26 26 26 26 25 26 27 27 28 28 28 28 28 28 27 26 26 27 29 30 30 29 28 28 27 27 28 28 29 30 31 30 30 31 32 32 32 33
27 28 29 28 27 27 29 30 30 30 30 30 29 30 31 32 32 31 31 31 32 33 31 30 30 30 30 30 30 29 30 32 33 33 33 33 33 32 33 33 33 34 35 36 36 35 34 33 33 32 32 32 32 32 34 35 35 34 35 35 35 35 36
33 32 31 30 30 31 32 33 33 33 32 32 32 32 33 34 33 32 33 34 34 35 34 33 33 33 33 33 33 33 34 34 35 34 35 35 36 36 36 37 38 38 39 39 39 39 38 39 39 39 39 38 38 39 39 40 41 41 41 41 40 40 41
36 35 34 34 34 34 34 34 35 35 35 35 35 35 35 36 36 36 37 37 36 35 35 36 36 35 36 36 36 36 36 36 36 36 36 36 36 37 38 39 40 41 41 41 42 42 43 43 44 44 43 43 43 43 43 44 46 47 47 46 46 46 46
38 38 38 38 37 37 37 36 36 37 37 37 37 37 37 38 38 38 38 38 38 37 37 37 37 38 38 38 38 38 38 39 39 39 39 40 40 40 41 42 42 42 43 44 45 45 46 47 47 47 46 46 45 45 46 47 49 51 50 50 50 50 50
41 41 41 40 40 40 39 39 39 39 39 39 39 39 39 39 39 39 39 40 40 40 39 39 39 39 39 39 40 40 40 41 42 42 42 43 43 43 43 44 44 44 44 45 46 47 48 48 49 50 49 49 48 48 48 49 50 52 52 51 51 50 50
43 43 43 42 42 41 41 41 41 41 41 41 41 41 41 40 40 40 41 42 43 43 42 42 42 42 42 42 42 42 42 42 43 43 43 43 43 44 44 44 45 45 45 46 47 48 49 49 50 51 50 50 49 49 49 49 50 51 51 50 49 49 49
46 45 45 44 44 43 43 43 43 43 43 42 42 42 42 42 42 42 43 45 46 46 46 45 45 45 44 44 44 43 43 44 44 44 43 43 44 44 44 45 45 46 46 47 47 48 49 49 50 50 50 50 50 50 49 49 49 50 50 49 49 49 50
47 48 48 47 46 46 45 45 45 45 44 44 44 44 44 45 45 46 47 47 48 48 48 47 47 46 46 45 44 44 44 44 44 44 44 44 44 44 44 44 45 45 45 46 46 47 48 49 49 50 50 50 50 50 49 49 50 50 50 50 51 51 52
50 50 50 50 49 47 46 46 46 47 47 47 47 47 48 48 49 50 50 50 49 48 48 48 47 46 46 45 45 44 44 44 44 44 44 44 44 44 44 44 44 44 45 45 45 46 46 47 48 49 49 50 50 50 50 51 51 52 53 53 54 54 55
49 50 50 49 48 47 46 46 47 48 49 50 50 50 50 51 52 52 52 51 50 50 49 48 48 47 46 46 45 44 43 43 43 43 44 44 44 44 44 44 44 45 45 45 46 46 46 47 48 49 49 50 51 52 52 53 54 54 55 55 55 55 56
47 47 48 47 45 45 46 48 49 50 50 51 51 51 52 52 53 53 53 52 51 50 50 49 48 47 46 45 45 44 43 42 42 42 42 43 43 43 44 44 44 45 45 46 46 46 47 47 48 48 49 50 51 52 53 53 54 54 54 55 55 55 55
47 48 48 48 48 49 52 53 52 51 50 50 50 50 50 50 51 51 50 50 50 50 49 49 48 47 46 45 44 43 41 41 41 41 41 41 41 42 42 43 43 44 44 45 46 46 47 47 48 49 49 50 51 51 52 52 53 53 53 54 54 54 54
53 53 53 54 56 58 58 57 55 52 51 50 49 49 48 48 47 47 47 47 48 48 48 48 47 46 45 44 43 42 41 41 40 40 40 40 40 41 41 41 41 41 42 43 44 44 45 46 47 48 48 49 49 50 50 51 51 52 52 52 53 53 53
60 60 60 61 62 62 60 58 56 54 52 51 50 49 48 48 47 47 46 46 46 47 47 47 46 46 45 44 43 42 42 41 41 41 41 41 41 41 40 40 40 40 40 40 41 42 43 44 45 46 47 48 48 49 49 50 50 51 51 51 51 51 52
60 60 60 61 61 60 59 58 56 55 53 52 51 50 49 48 47 46 46 46 46 47 46 46 46 45 45 44 43 43 43 42 42 42 42 42 41 41 40 40 40 40 40 40 40 40 41 42 43 44 45 46 47 48 48 48 49 49 49 49 49 49 49

ECMWFFLT1_500_spd_048.txt.gz
Wind_Speed
14 12 9 9 10 10 10 11 13 15 16 16 17 17 18 18 18 19 19 19 19 19 19 19 20 20 20 20 20 21 21 22 22 22 22 23 23 24 24 24 23 24 23 22 22 22 23 23 23 24 25 25 26 26 26 25 23 22 22 22 22 23 24
13 11 9 10 11 12 11 11 12 14 16 17 18 18 18 18 18 18 18 18 18 18 18 18 18 18 19 19 19 20 20 20 21 21 21 21 22 22 23 23 23 23 23 22 21 20 21 22 23 23 24 24 25 25 25 25 24 23 23 23 23 24 25
13 11 11 12 13 14 14 13 13 14 16 18 18 19 19 18 18 17 18 18 18 17 17 16 16 16 16 17 17 18 18 19 19 19 20 20 21 21 21 22 22 22 22 22 22 20 20 22 22 23 24 24 24 24 24 25 24 23 23 23 24 25 26
12 12 13 14 15 16 16 15 14 14 16 18 19 18 18 18 18 17 17 17 17 17 17 16 15 14 15 16 16 17 17 18 18 18 19 19 20 20 20 21 21 21 21 22 22 22 23 23 24 24 24 23 23 23 23 24 24 24 24 24 25 26 27
13 13 14 14 15 15 16 15 16 16 17 18 19 18 18 17 17 17 17 17 17 17 16 15 14 14 14 15 16 16 17 17 17 17 18 18 19 19 19 20 20 21 21 21 22 23 23 23 24 25 24 24 23 23 23 23 24 24 25 25 26 28 29
14 13 12 13 14 14 15 17 18 18 18 19 20 19 18 17 17 17 17 17 17 17 16 15 14 13 14 14 15 15 16 16 16 16 17 17 18 18 19 19 20 20 20 21 21 22 23 23 24 24 25 24 24 23 22 23 23 24 25 26 27 28 29
16 13 11 12 14 15 17 18 19 19 19 20 20 20 19 17 16 16 17 17 16 16 16 15 14 13 13 14 14 14 14 14 14 15 15 16 16 16 17 18 18 19 19 20 20 21 22 23 23 24 24 24 24 23 22 22 22 23 24 25 26 27 28
17 15 14 14 14 15 16 18 19 19 20 20 20 20 19 17 16 16 16 16 16 16 15 15 14 14 14 14 14 14 14 14 13 13 13 14 14 14 15 15 16 17 18 18 19 20 21 22 22 23 23 23 23 22 22 21 21 22 22 23 24 25 25
15 16 19 18 15 14 15 17 19 19 20 20 19 18 17 16 15 15 15 15 15 14 14 14 14 14 14 14 14 14 14 14 13 13 13 12 12 12 12 13 14 15 16 17 18 19 20 20 21 21 21 21 21 20 20 20 20 20 21 22 22 23 23
16 18 19 16 14 14 15 17 19 19 19 19 19 18 15 14 13 13 13 13 13 14 14 14 14 14 15 15 15 15 14 14 14 13 13 13 12 12 12 12 12 13 14 15 16 17 18 20 20 20 20 20 20 19 18 18 18 18 19 19 20 20 21
17 18 18 16 14 14 15 16 18 18 18 17 17 17 14 12 12 12 12 12 13 14 14 15 15 15 16 16 16 16 15 15 14 13 13 13 13 13 12 12 12 12 13 13 14 15 16 18 19 19 19 19 19 18 18 17 17 17 17 17 17 18 19
15 16 16 15 14 14 14 16 18 19 18 17 17 15 13 12 12 12 11 12 12 14 15 16 17 17 17 17 17 17 16 15 14 14 13 13 13 14 13 13 13 12 12 13 13 14 15 16 17 18 18 18 18 18 17 17 16 16 16 16 16 16 17
13 13 13 12 12 13 14 16 18 18 18 17 17 16 13 12 12 12 11 12 13 14 14 15 16 17 17 17 17 17 16 16 15 14 14 13 14 14 14 15 15 14 14 14 13 13 14 14 15 16 17 18 18 18 18 17 16 16 16 16 16 15 15
12 12 12 13 14 15 15 16 17 17 16 16 16 15 13 12 12 12 13 13 13 13 14 14 15 15 16 16 16 16 16 16 16 16 15 15 15 15 15 16 16 16 16 16 15 15 15 15 15 16 16 17 18 18 18 18 17 17 16 16 17 16 16
14 14 14 15 15 15 15 16 15 15 15 15 15 14 13 12 13 15 16 15 13 12 13 14 14 14 14 14 15 15 16 17 17 17 18 17 17 17 16 16 16 17 17 17 17 17 16 16 16 16 17 17 18 18 18 18 18 18 17 17 18 18 18
15 15 15 15 16 16 16 16 15 14 14 14 14 14 15 15 16 17 17 16 16 15 15 15 16 16 16 16 17 17 17 17 17 18 19 19 19 19 19 18 18 18 17 17 17 17 17 17 17 18 18 18 18 19 19 20 20 20 19 19 19 19 20
14 14 14 16 17 16 15 15 15 15 15 14 16 17 18 18 17 17 17 16 17 19 19 19 19 19 19 18 18 19 19 18 18 18 20 20 20 20 20 20 20 20 20 19 19 18 18 18 18 19 19 19 19 20 21 22 22 22 22 22 22 22 22
15 14 14 14 15 15 14 15 16 16 16 17 18 19 20 19 18 18 18 17 16 18 18 19 19 20 21 20 19 20 20 20 20 19 20 21 21 21 21 22 22 22 22 22 22 21 21 21 20 20 20 20 21 21 22 23 24 24 25 25 24 24 24
16 15 14 15 17 18 17 16 16 16 17 18 19 21 21 21 20 19 19 19 18 18 18 18 19 20 20 20 20 20 20 21 22 22 21 20 21 22 22 23 23 23 24 25 25 25 25 25 24 23 22 22 22 23 24 24 25 25 25 26 26 26 26
17 17 16 17 18 19 18 16 15 16 17 19 20 22 23 22 20 18 19 20 21 20 21 23 22 22 21 21 21 21 19 20 22 23 21 21 20 21 22 23 23 23 24 25 26 27 28 27 26 24 22 21 22 24 25 27 28 28 28 27 28 28 28
21 21 20 19 19 19 19 17 15 16 18 20 20 21 22 23 21 20 20 22 23 23 24 25 26 26 25 23 23 22 20 21 23 22 21 21 22 22 23 23 23 23 24 24 25 26 26 26 25 23 21 21 22 24 26 27 29 30 30 30 30 30 30
26 26 25 23 21 21 21 21 20 21 21 21 22 22 22 23 23 23 24 25 25 26 27 27 28 28 27 27 27 27 25 25 25 24 24 24 24 25 25 26 26 26 27 26 26 26 26 25 25 24 25 26 27 27 28 28 29 30 31 31 32 32 32
31 30 29 27 26 26 25 26 26 25 24 23 24 24 24 24 25 25 26 27 28 29 29 30 30 30 30 30 29 29 29 29 29 29 29 29 29 29 29 30 30 31 31 32 32 32 31 30 30 31 32 33 33 32 31 32 33 33 34 35 36 37 37
35 34 33 32 31 29 28 27 27 27 26 26 25 26 26 27 27 28 29 30 30 30 30 30 31 31 32 32 31 30 32 33 34 33 33 33 33 33 34 35 35 36 36 36 37 37 37 36 35 36 36 37 38 37 37 37 37 38 39 39 41 43 44
37 37 36 35 35 33 31 30 29 30 30 29 28 28 29 29 30 30 31 31 31 31 31 31 33 33 33 33 33 34 34 35 35 35 34 35 35 36 37 38 38 38 38 38 38 39 39 39 40 40 40 41 41 42 42 42 42 42 42 42 43 47 49
40 39 38 37 36 35 34 34 33 33 33 32 32 31 31 32 32 33 33 33 33 33 33 33 35 35 35 34 33 34 34 34 35 35 35 35 36 37 38 39 39 40 40 41 42 42 42 43 44 45 45 45 46 46 46 46 45 45 45 44 46 49 51
42 41 40 38 36 36 37 37 37 37 36 35 34 34 34 34 34 34 34 35 35 35 35 36 36 37 37 36 35 35 35 35 35 36 37 37 37 38 39 40 41 42 43 44 44 45 46 46 46 47 47 48 48 48 48 49 48 48 47 47 48 50 51
43 43 42 40 40 41 42 42 42 41 40 39 38 37 36 36 36 36 36 37 38 38 38 39 39 39 40 40 39 39 38 37 37 38 38 39 39 40 40 41 42 43 44 45 46 46 47 48 48 48 48 48 49 49 49 50 50 50 50 50 51 51 52
45 45 44 44 44 44 43 43 43 42 41 41 40 39 39 39 39 39 39 40 40 41 41 41 41 42 42 42 42 42 41 41 40 40 40 40 40 41 41 42 43 44 45 46 46 47 47 48 48 49 49 49 50 50 51 51 51 52 52 52 53 54 54
41 40 41 42 42 42 42 42 42 42 42 42 42 42 42 42 42 42 42 42 42 43 43 43 43 43 43 43 43 43 43 43 43 42 42 41 41 41 41 41 42 43 44 45 46 47 47 48 49 49 50 50 51 51 51 52 52 52 53 54 54 55 56
37 37 38 39 40 41 41 42 42 43 44 44 44 45 44 44 44 44 44 44 44 44 45 45 45 45 45 45 45 45 45 45 45 44 44 43 43 42 42 42 42 43 43 44 45 46 47 47 48 49 49 50 50 51 51 51 52 52 53 53 54 55 56
35 37 39 41 42 43 44 45 46 47 47 46 46 46 46 46 45 45 44 44 44 45 46 47 47 47 47 47 47 47 47 47 46 46 45 45 45 44 44 43 43 43 43 43 44 44 45 46 46 47 47 48 48 49 50 50 51 51 52 53 54 54 55
34 35 36 37 39 42 45 48 48 49 48 48 47 46 45 46 45 45 44 44 45 46 47 47 47 47 48 48 48 48 47 47 46 46 46 45 45 45 45 44 44 43 43 43 43 43 44 44 44 45 45 46 47 47 48 48 49 50 51 52 54 55 56
37 38 38 38 39 41 44 47 47 46 46 46 46 46 46 46 46 46 46 47 49 49 49 48 48 48 48 48 48 48 47 46 46 45 45 45 45 45 45 44 44 44 43 43 42 41 42 42 43 43 44 44 44 44 45 46 47 48 49 51 52 54 55
46 45 45 45 45 46 47 48 49 49 48 49 49 49 49 49 49 50 51 53 54 53 50 49 49 49 49 49 48 48 47 46 45 45 45 45 45 45 44 44 44 44 43 42 41 41 41 41 41 42 42 41 42 42 43 43 44 45 46 47 49 51 52
58 56 54 53 53 53 53 54 55 56 56 57 57 56 56 56 56 56 56 57 56 53 50 49 49 49 49 49 49 49 48 47 46 45 45 45 45 45 44 44 44 43 43 42 41 41 41 41 41 41 41 41 42 42 42 42 43 43 44 45 46 46 47
62 62 62 60 59 59 60 61 61 61 60 60 59 59 59 58 58 57 56 55 53 51 50 49 49 49 49 49 49 48 48 47 47 46 46 45 45 44 44 44 44 43 43 42 42 41 41 41 41 41 41 42 42 42 43 43 43 43 42 42 42 42 42

ECMWFFLT1_500_spd_051.txt.gz
Wind_Speed
17 17 17 16 15 13 12 11 12 13 13 13 12 13 14 15 16 16 16 16 17 18 19 19 20 21 21 21 21 21 21 21 21 21 21 21 20 20 19 19 18 19 18 19 20 20 21 22 22 23 23 24 25 25 25 25 24 25 25 24 23 23 22
17 16 17 16 14 14 13 13 14 14 15 14 14 13 13 15 16 17 17 16 17 17 18 19 20 21 21 22 22 22 22 22 21 21 21 20 20 19 18 18 17 17 17 18 18 19 19 20 21 22 23 22 23 24 24 24 24 24 24 23 24 24 24
17 16 16 15 14 15 15 16 17 17 17 17 16 14 14 15 16 17 18 17 17 17 18 19 20 21 21 22 22 22 22 22 22 21 20 20 19 18 18 17 17 16 16 16 17 18 18 19 19 20 21 18 17 19 21 22 23 23 22 23 23 25 25
17 16 16 15 15 16 17 19 19 18 18 17 16 16 15 15 16 17 18 19 19 18 18 19 20 20 21 21 22 22 22 22 22 21 20 19 18 17 17 16 16 16 16 16 16 17 17 18 18 19 20 19 18 20 20 20 21 22 23 23 24 25 26
16 15 15 16 16 17 18 19 18 16 15 15 15 16 16 15 16 17 18 19 19 19 19 19 19 20 21 21 22 22 22 22 22 21 20 19 18 17 16 15 15 15 15 16 16 16 16 17 18 19 20 21 22 23 22 22 22 22 23 24 25 26 27
15 15 15 16 17 17 18 19 19 16 15 15 15 16 16 16 15 15 17 19 20 20 20 20 19 20 20 21 22 22 22 22 22 21 20 19 18 17 16 15 15 15 15 15 15 15 16 16 18 18 19 20 21 22 22 22 21 21 22 23 24 25 26
14 14 15 16 17 17 17 18 20 20 18 17 16 16 16 15 15 15 16 18 19 20 20 20 20 20 20 21 21 22 22 22 22 21 20 19 18 17 16 16 15 14 14 14 14 15 15 16 17 18 18 19 19 20 20 20 20 21 21 22 23 24 25
16 16 16 16 17 18 18 20 22 24 21 17 15 14 14 14 14 14 15 16 18 19 19 19 19 19 20 20 21 21 22 22 21 21 19 18 17 16 15 15 14 14 13 13 14 14 14 15 16 16 17 18 18 18 19 19 19 20 20 21 22 23 24
17 17 16 15 16 18 20 22 24 25 23 18 15 14 13 12 12 13 14 15 16 16 17 17 18 18 19 19 19 20 20 21 21 20 19 18 16 15 14 14 13 13 13 12 13 13 14 14 15 15 16 16 17 17 17 17 18 18 19 20 21 21 22
14 13 13 14 15 18 20 22 24 24 23 20 17 15 14 12 12 13 13 13 14 15 15 16 16 16 17 18 18 19 19 20 20 20 19 18 16 15 14 13 13 12 12 12 12 12 13 13 14 14 15 15 15 15 15 15 16 16 17 18 19 19 20
14 13 14 15 17 19 20 21 22 23 23 21 18 16 14 13 12 13 13 13 13 14 14 15 15 16 16 17 17 18 18 19 19 20 19 18 17 16 14 14 13 13 13 12 12 12 12 13 13 13 13 14 14 13 13 13 13 14 15 16 17 17 17
15 15 15 15 16 18 19 19 20 21 21 20 18 17 15 14 13 14 14 13 13 13 14 14 15 15 16 16 17 17 17 18 18 18 19 18 17 16 15 14 13 13 14 14 14 14 14 14 13 13 13 13 13 12 12 12 12 12 13 14 15 15 15
14 14 14 13 14 15 17 19 20 19 19 20 20 19 17 15 14 13 13 11 11 12 13 14 15 15 15 15 15 15 15 16 16 16 16 17 17 16 16 15 14 14 14 14 15 15 15 15 15 15 14 14 13 13 12 12 11 12 12 13 14 14 14
13 13 13 13 14 14 17 18 18 18 19 20 20 18 16 15 14 13 12 10 10 11 13 15 16 16 16 15 15 15 15 14 14 15 15 15 15 16 16 16 16 15 15 16 16 16 16 16 16 15 15 15 14 14 14 14 14 13 13 14 14 15 15
13 14 14 14 15 16 18 19 19 18 19 19 19 17 15 15 14 14 13 12 11 11 12 13 14 15 15 15 15 15 15 15 14 14 15 15 16 16 16 17 17 17 17 18 18 18 18 17 17 16 16 16 16 16 16 16 16 16 16 16 16 16 17
15 16 16 17 17 18 20 21 20 20 20 19 19 18 16 16 16 17 16 14 13 12 12 13 13 14 15 16 16 16 16 16 16 16 16 16 17 18 18 18 18 19 19 19 19 19 20 19 19 18 18 17 17 17 18 18 18 18 18 18 18 18 18
15 16 17 17 18 18 19 20 20 21 21 20 19 18 18 18 18 18 17 16 15 14 14 15 16 16 17 18 19 19 19 19 19 19 18 18 18 19 19 20 21 21 21 20 20 20 21 21 21 20 19 19 19 19 19 19 19 19 19 19 20 20 21
16 17 17 17 17 16 17 18 20 21 20 20 19 19 19 19 19 19 18 18 17 17 17 17 17 17 17 18 19 20 21 21 22 21 20 20 20 20 21 21 22 23 23 23 23 23 23 23 23 22 22 21 21 21 22 21 21 21 21 21 21 22 22
16 17 18 17 16 15 15 16 18 19 20 21 21 19 19 20 20 19 19 20 20 21 21 20 19 19 18 18 19 19 20 21 22 23 23 23 23 23 23 23 23 24 24 25 25 26 26 25 25 25 25 24 24 24 24 24 24 24 24 24 24 24 24
17 17 18 17 16 15 14 15 17 20 21 22 21 20 19 20 21 21 21 22 23 23 22 21 21 21 21 21 21 20 20 20 21 22 23 24 24 24 24 24 24 24 24 26 27 27 27 27 27 27 26 26 27 27 26 26 26 26 25 25 25 26 27
17 17 17 18 18 17 16 16 17 19 20 21 21 20 20 20 21 22 23 23 23 23 22 22 22 22 22 23 23 23 23 24 23 23 24 24 24 24 24 24 25 25 25 26 27 27 27 28 27 26 25 25 25 26 26 26 26 25 25 26 27 28 29
19 18 18 19 20 20 20 19 19 20 21 22 22 22 22 22 23 23 24 23 23 23 22 22 23 23 24 25 26 27 27 27 27 27 26 26 26 27 27 27 27 27 28 29 29 29 29 29 29 28 25 25 25 26 27 27 28 29 30 30 30 31 31
22 21 20 20 22 23 24 23 22 21 22 23 24 25 27 27 26 26 26 25 25 25 25 25 24 25 26 27 29 30 30 31 30 30 29 29 30 31 31 30 29 30 31 32 32 32 33 33 32 31 30 29 30 30 31 32 34 35 36 36 35 35 35
25 25 24 25 25 26 27 27 26 24 24 26 28 30 31 30 29 28 28 28 28 28 28 28 28 28 28 29 30 31 32 33 34 32 31 31 32 32 32 32 33 34 35 35 35 36 36 37 37 36 36 36 36 37 38 38 39 40 41 41 40 40 40
28 29 29 29 29 30 30 30 29 29 29 30 31 32 32 32 32 31 31 30 30 30 31 31 31 31 31 32 32 32 33 34 34 34 33 33 33 34 34 35 36 37 37 38 39 38 37 37 39 39 39 40 41 42 42 42 43 43 44 44 44 45 45
33 33 33 33 34 35 33 32 33 34 34 33 33 33 33 33 33 33 33 33 33 33 33 33 34 34 34 34 34 35 34 34 34 34 34 34 35 35 35 36 36 37 38 39 41 41 40 41 42 43 43 43 44 44 45 45 45 46 47 48 48 49 50
38 38 38 39 39 39 38 38 38 38 37 36 36 36 35 35 35 35 36 36 36 36 36 36 36 36 36 36 36 36 36 35 35 35 35 35 35 35 36 36 37 38 39 40 41 41 42 44 45 45 46 47 47 48 48 48 49 49 50 51 52 53 53
41 42 42 42 42 41 41 41 41 40 39 38 38 37 37 36 36 36 37 38 39 39 39 39 39 39 40 40 39 38 37 36 36 35 35 36 37 38 38 38 38 38 39 40 41 42 43 44 45 45 46 47 48 49 49 50 50 51 51 52 53 53 54
43 43 43 42 42 42 41 41 41 41 41 41 40 39 39 38 38 39 40 41 41 41 41 41 41 42 42 42 42 41 39 38 38 37 37 38 39 40 41 41 40 40 40 40 41 42 43 44 44 45 46 47 48 49 50 51 51 52 53 53 53 54 54
41 41 41 41 41 41 41 42 42 43 43 43 43 42 42 42 42 42 43 43 43 43 43 42 42 43 43 43 43 42 41 40 40 40 41 41 41 42 42 42 42 41 41 41 42 42 43 44 45 45 46 47 48 49 50 51 52 52 53 54 54 54 55
35 36 37 38 39 40 40 41 42 42 43 43 43 43 43 43 43 43 42 43 43 43 43 43 43 43 44 44 43 43 43 42 42 42 42 43 43 43 43 43 43 43 43 43 43 43 44 44 45 46 46 47 48 49 50 51 51 52 52 53 53 54 54
32 33 33 34 35 36 36 38 39 41 41 41 41 41 42 42 41 41 40 41 42 43 44 44 44 44 44 44 44 44 43 42 42 42 43 44 44 44 44 44 43 43 43 44 44 44 44 45 45 46 47 47 48 49 49 50 51 51 51 51 52 52 52
36 35 35 34 34 33 34 36 39 40 41 42 43 43 43 43 42 41 41 42 44 45 45 45 44 43 43 43 43 44 43 43 43 44 45 46 46 46 45 45 44 44 44 44 44 44 44 45 45 46 47 47 48 48 49 49 49 49 49 49 49 49 50
46 43 42 42 41 40 41 41 42 41 41 42 43 44 45 45 44 43 43 44 44 44 44 43 42 42 42 42 43 44 45 46 47 48 48 48 47 47 46 45 45 44 44 43 43 44 44 45 45 46 46 47 47 48 48 48 47 47 47 47 47 47 47
55 52 49 49 49 48 47 46 45 44 44 44 45 45 45 45 46 46 46 46 46 46 45 44 44 44 45 46 48 48 50 51 52 52 51 49 47 47 47 46 45 44 44 43 43 44 44 45 45 45 45 46 46 47 47 46 46 46 46 46 46 45 45
56 54 52 52 52 53 53 51 49 47 47 47 47 47 47 47 48 49 49 49 49 49 49 49 50 50 52 53 53 54 54 54 54 53 51 49 48 47 46 46 45 45 44 44 44 44 44 44 44 45 45 45 45 46 45 45 45 45 45 44 44 44 45
54 54 54 54 55 56 57 57 57 56 54 53 52 52 52 52 52 53 53 54 54 54 55 55 56 57 57 56 56 55 55 54 53 52 51 49 48 47 46 45 45 45 45 44 44 45 45 45 44 44 45 45 45 45 44 44 44 44 44 44 44 44 44

ECMWFFLT1_500_spd_054.txt.gz
Wind_Speed
17 16 15 15 15 15 14 13 11 12 13 13 13 13 14 14 14 14 14 14 14 15 16 16 17 17 17 18 18 18 18 18 18 18 18 18 19 19 19 18 18 19 20 20 21 22 22 22 21 22 22 23 24 24 23 23 22 22 22 23 23 24 24
17 15 15 15 16 16 15 13 12 11 13 13 13 14 14 14 15 15 15 15 14 15 16 16 17 17 17 17 18 19 19 19 19 19 19 18 19 19 19 19 19 19 19 20 21 22 22 23 22 22 22 22 23 23 23 23 23 23 23 24 24 25 25
18 16 16 16 16 17 16 14 13 13 14 15 15 15 15 15 15 16 16 16 15 15 16 16 17 17 17 17 18 18 19 20 20 19 19 19 19 19 19 19 19 19 19 20 21 21 22 23 23 22 21 21 20 19 19 19 19 19 20 21 23 24 24
18 16 16 16 17 17 17 16 15 15 15 14 15 15 16 16 16 16 17 17 16 16 15 16 16 17 17 17 17 17 18 19 19 19 19 19 19 19 19 19 19 19 19 19 20 20 21 21 22 21 21 22 21 19 18 15 13 15 17 19 21 23 23
18 17 16 16 18 18 18 17 16 15 14 13 13 13 14 14 15 17 18 18 18 17 16 16 16 16 17 17 16 16 17 17 18 18 19 19 18 18 18 18 18 19 19 19 19 19 20 20 20 21 21 21 22 22 22 20 19 20 21 22 23 24 24
19 18 17 16 18 19 19 18 17 16 14 13 12 13 13 14 16 18 19 20 20 19 18 17 17 17 17 17 17 16 16 16 17 17 17 18 18 18 18 17 17 17 17 17 18 19 19 18 19 19 20 21 21 22 23 23 24 24 25 24 24 24 25
19 19 18 17 18 19 20 19 18 17 15 14 13 14 15 17 19 20 21 21 21 20 19 19 18 18 17 17 17 17 16 16 16 16 17 17 17 18 18 17 17 16 16 16 16 17 17 17 17 17 18 18 19 20 21 22 23 24 24 24 23 23 24
19 19 18 18 18 19 20 19 19 18 16 16 15 16 17 18 19 20 20 21 21 21 21 20 20 19 18 17 17 16 16 16 16 16 16 16 17 17 17 17 17 16 16 15 15 15 16 16 16 16 16 16 16 16 17 18 19 20 21 21 21 21 22
20 20 19 19 19 20 20 19 19 18 18 18 18 17 16 16 18 19 20 21 21 22 22 21 21 20 20 18 17 16 15 15 15 15 15 15 16 16 17 17 16 16 16 15 15 15 15 15 14 14 14 14 13 13 14 15 16 16 17 18 18 18 19
21 21 21 21 22 22 22 21 21 21 21 21 20 17 15 15 17 19 20 21 21 22 22 22 21 21 20 19 18 16 15 14 14 14 14 15 15 16 16 16 16 16 16 15 15 15 14 14 13 13 13 12 12 12 12 12 13 13 14 15 15 16 16
21 21 22 23 24 24 24 24 24 23 23 23 20 16 14 15 16 18 19 21 21 21 21 21 20 20 19 19 18 17 17 16 15 14 14 14 14 15 15 15 15 15 15 15 15 14 14 13 13 13 12 12 12 12 12 12 12 12 13 13 14 14 15
21 21 21 22 22 23 24 24 24 24 24 23 19 16 14 14 15 17 18 20 21 21 20 20 19 18 18 18 18 18 18 17 17 17 16 16 15 14 14 14 14 14 15 15 14 14 13 13 13 13 12 12 12 12 12 12 12 12 13 13 13 14 14
22 22 21 22 22 23 24 24 24 25 25 23 20 17 15 14 15 17 18 20 21 20 20 19 19 18 17 17 18 18 18 18 18 18 18 18 17 16 15 14 14 14 14 14 14 14 14 14 14 13 13 13 13 13 13 14 13 13 13 13 14 14 15
24 23 23 24 24 24 25 24 24 24 24 23 21 18 15 14 16 17 19 20 20 20 20 20 18 18 17 17 18 18 17 17 17 17 17 18 18 17 16 16 15 15 15 15 14 15 15 15 15 15 15 15 15 15 15 15 15 15 15 15 15 15 15
24 23 24 24 24 23 23 23 23 24 23 23 21 18 16 15 16 17 18 19 20 21 21 18 17 17 17 18 18 17 16 16 16 16 16 16 17 17 17 17 17 17 16 16 16 15 15 15 16 16 16 16 16 17 17 16 16 16 16 16 16 16 17
24 25 25 24 23 22 22 22 23 23 23 23 21 19 17 17 17 17 17 18 21 22 20 17 16 16 16 17 17 16 16 16 16 16 16 17 17 17 18 18 18 18 18 18 17 17 17 17 17 17 17 17 17 18 18 18 18 18 18 18 18 18 19
26 26 25 24 23 22 22 22 23 23 23 23 22 20 19 19 18 18 18 18 20 22 21 18 17 17 16 16 17 17 17 18 18 19 19 19 19 19 20 20 20 20 20 20 20 20 19 20 20 20 20 19 19 19 20 20 19 20 20 20 20 21 21
27 26 25 24 23 23 22 22 23 24 24 23 22 21 21 22 21 20 19 19 20 22 23 22 21 19 18 17 18 19 20 21 21 22 22 22 22 22 22 22 22 22 22 22 22 22 23 23 23 23 22 22 22 22 22 22 22 22 22 23 23 23 23
25 24 24 24 24 23 22 21 22 23 23 23 24 24 24 23 22 21 20 21 22 23 24 23 22 21 20 20 20 21 22 22 22 22 23 23 24 24 24 24 25 25 25 24 24 24 24 24 25 25 25 25 25 25 26 26 26 26 26 26 26 26 27
24 24 25 25 25 25 23 22 22 22 23 24 25 26 26 24 22 22 22 22 24 24 24 23 23 23 23 23 24 24 24 24 23 23 22 23 23 24 24 25 26 27 27 27 26 26 25 25 25 26 27 27 27 28 28 29 29 29 29 29 29 30 30
25 26 26 27 27 26 26 25 25 24 24 24 25 26 25 24 24 24 24 24 24 24 24 24 24 25 25 25 25 25 25 26 26 25 24 24 24 24 25 25 26 27 27 27 26 26 26 27 26 26 27 27 28 29 29 29 30 30 30 30 31 32 31
27 28 28 28 29 28 28 27 27 27 25 24 25 25 25 24 24 24 24 24 23 23 23 24 24 25 25 26 26 26 27 27 27 27 27 27 27 28 28 27 28 28 28 28 27 27 28 29 29 30 29 29 30 31 31 32 32 32 32 32 32 33 33
28 30 31 32 32 31 31 30 30 30 29 26 25 25 23 23 24 24 24 24 23 24 24 25 26 26 27 27 27 28 28 28 29 29 30 30 30 30 30 30 31 31 31 31 31 31 32 32 32 32 31 32 32 32 33 35 36 36 36 36 36 35 36
27 30 33 35 35 35 34 32 30 30 29 27 25 25 23 24 25 27 27 27 27 27 28 29 30 30 30 30 30 30 31 31 31 32 32 33 33 33 33 33 33 33 33 34 34 35 36 35 34 34 35 35 36 35 36 38 39 40 40 40 40 40 41
29 29 31 35 37 37 36 34 32 31 30 29 29 28 27 27 29 30 31 31 31 31 32 32 33 34 34 34 34 34 34 35 35 35 35 35 36 36 37 37 37 36 35 35 36 36 37 37 37 38 38 38 39 40 41 42 43 43 43 42 43 43 45
32 31 31 33 36 37 38 37 36 35 33 33 33 32 31 32 33 33 33 33 34 35 35 36 37 38 38 38 38 38 38 38 38 38 37 37 37 38 38 39 40 40 39 38 38 39 40 40 41 41 41 41 42 43 44 45 46 46 46 46 46 47 48
36 36 35 35 36 37 38 38 38 38 37 35 34 34 34 35 34 34 35 36 37 38 38 39 40 41 41 41 41 40 40 40 40 40 39 39 39 39 39 40 41 41 41 41 41 41 41 42 42 42 42 43 44 45 46 47 48 49 50 51 51 52 52
41 41 41 41 41 41 41 41 41 41 41 39 38 37 37 37 37 38 39 40 41 42 42 42 43 44 44 43 42 42 41 41 41 41 41 41 41 41 41 42 42 43 43 43 43 43 43 43 43 43 44 44 45 45 46 47 49 50 51 51 52 53 53
42 43 44 44 45 45 45 45 44 44 44 44 44 44 44 44 44 45 44 43 43 43 44 44 45 45 45 44 43 43 43 43 42 42 42 42 43 43 43 44 44 45 45 45 45 45 44 44 44 45 45 46 46 46 47 47 48 49 50 50 51 51 52
36 37 39 41 43 44 45 46 46 45 45 46 47 47 47 47 47 47 46 44 43 43 43 43 44 45 44 44 44 45 45 44 43 43 43 43 43 44 45 46 46 46 46 46 46 45 45 45 45 45 46 46 47 47 47 48 48 48 49 50 50 50 51
33 34 35 36 38 40 41 43 44 45 45 46 46 46 46 46 46 46 46 45 45 44 44 44 45 46 46 46 46 46 45 44 43 42 41 42 43 44 45 46 47 47 46 45 44 44 44 45 45 46 46 47 47 47 47 48 48 48 49 49 49 49 50
37 37 37 37 38 38 39 40 40 41 42 43 44 44 44 44 45 46 46 46 46 46 46 46 46 47 48 48 46 43 42 41 41 42 43 44 44 44 45 45 46 46 45 44 43 43 44 45 46 47 47 48 48 48 48 48 48 48 48 48 49 49 49
42 42 41 39 39 39 41 41 40 39 40 41 41 41 42 44 45 46 46 46 45 45 45 44 44 45 45 44 41 39 39 41 42 43 45 46 44 43 43 43 43 44 45 45 45 47 48 48 48 48 48 49 48 48 48 48 49 49 49 49 49 49 50
45 45 44 41 40 41 42 43 41 39 39 40 40 39 39 41 43 44 43 43 42 42 42 42 43 43 43 42 41 40 41 42 43 45 46 46 46 45 44 43 44 45 47 48 50 51 51 51 50 50 49 50 49 49 49 49 49 49 49 49 49 49 49
50 50 49 49 48 48 48 49 47 45 44 43 41 40 40 42 43 44 42 42 42 43 44 45 46 46 46 47 46 44 43 44 46 47 48 49 49 49 49 49 49 50 51 51 52 52 53 52 51 51 50 50 50 49 49 49 49 49 49 49 49 49 49
55 54 53 53 53 53 52 53 54 54 53 50 48 48 47 47 48 49 48 48 48 48 49 49 49 50 50 50 49 48 48 49 50 50 51 53 53 53 54 54 55 54 53 53 53 53 53 52 52 51 51 50 50 49 49 48 48 48 48 48 48 48 48
58 57 55 54 53 52 51 51 52 53 54 54 53 52 52 52 52 52 52 52 51 51 52 52 51 51 51 51 51 51 52 53 53 54 56 58 58 57 57 57 56 55 54 53 53 53 52 52 51 50 50 49 49 48 48 47 47 47 47 47 47 48 48

ECMWFFLT1_500_spd_057.txt.gz
Wind_Speed
18 20 20 20 21 21 21 21 20 18 16 15 13 13 13 13 13 13 13 13 13 14 15 15 14 14 13 13 12 12 12 13 13 13 14 14 15 17 17 16 17 18 19 21 20 20 20 20 20 20 19 19 19 19 20 21 22 22 22 23 24 26 26
20 20 20 21 22 22 22 21 20 18 16 14 13 12 12 13 13 13 13 13 13 14 14 15 15 15 15 14 13 13 13 13 13 13 14 14 15 16 16 17 17 17 19 20 21 21 20 21 20 18 17 18 19 20 21 21 22 23 23 24 26 27 28
20 20 20 21 22 22 22 20 19 17 15 13 12 11 11 13 14 14 15 15 15 15 16 16 17 17 17 16 15 15 14 14 14 14 14 14 14 15 16 16 16 16 17 19 20 19 19 19 18 17 17 19 21 22 23 23 22 22 22 24 26 27 26
19 19 20 20 21 22 21 19 18 16 14 12 10 10 11 12 14 14 15 16 16 17 17 17 18 18 18 18 17 17 16 15 15 15 15 14 14 14 15 16 16 16 16 18 19 19 18 18 19 20 20 20 21 22 23 24 24 23 23 23 23 21 21
19 19 19 20 20 20 20 19 17 16 14 12 10 9 10 11 12 12 13 14 15 16 17 17 18 19 19 20 19 18 17 16 16 16 16 16 15 15 15 15 16 16 16 17 18 19 20 20 21 22 22 21 21 22 22 23 24 23 24 24 23 23 24
19 19 20 20 21 20 19 18 17 16 15 13 11 9 10 12 12 12 13 14 16 17 18 19 20 20 21 21 20 20 19 18 17 17 17 17 16 16 15 15 16 16 16 16 17 18 19 20 21 21 21 21 21 21 22 23 23 23 24 24 25 26 27
21 21 21 21 21 20 19 17 16 16 16 14 12 11 12 13 13 14 16 17 18 19 20 20 20 21 21 21 21 21 20 19 18 18 17 17 17 16 16 15 15 15 15 16 16 18 18 19 20 20 20 20 20 21 21 22 22 22 23 23 24 25 25
24 23 23 22 22 20 18 17 16 16 17 16 15 14 14 15 15 16 17 18 19 19 19 19 19 20 20 21 21 21 21 21 20 19 18 17 17 16 15 15 15 14 14 14 15 17 18 18 18 18 19 19 20 20 20 21 22 22 22 23 23 23 23
27 25 24 23 22 21 19 18 17 17 18 18 17 17 17 17 17 17 18 18 19 19 19 19 20 20 21 21 22 22 22 21 20 20 19 18 17 17 16 15 14 13 13 13 14 15 16 17 17 17 18 18 19 19 19 20 21 21 22 22 23 23 23
28 26 25 24 23 22 20 19 18 19 20 20 20 20 19 18 18 18 19 19 19 19 19 20 20 21 21 22 22 22 22 21 20 20 19 19 18 17 16 15 14 13 12 12 13 14 15 15 16 17 17 17 18 18 18 19 19 20 20 21 21 22 22
29 27 25 25 24 23 22 21 21 21 22 22 23 23 22 20 20 20 20 20 20 20 20 20 20 20 21 21 22 22 22 21 20 19 19 18 17 17 17 16 15 14 13 13 13 13 14 14 15 15 16 16 17 17 17 17 18 18 18 19 19 19 20
29 27 25 25 26 26 24 23 23 24 25 25 25 25 24 23 22 21 20 20 21 21 21 20 20 20 21 21 21 21 21 20 20 19 18 18 17 17 16 16 16 16 15 15 14 14 14 14 15 15 16 16 17 17 17 17 17 17 17 17 17 17 18
31 27 25 26 27 27 27 26 26 26 26 26 25 25 25 24 24 23 21 21 21 21 21 21 20 20 21 21 21 21 20 20 19 19 19 18 18 17 17 16 16 16 16 16 16 16 15 15 15 15 16 16 17 17 17 17 17 17 17 17 16 16 16
32 29 26 27 28 29 29 28 27 26 25 24 24 25 25 26 25 24 23 22 22 22 21 21 21 20 21 20 20 19 19 19 19 19 19 19 19 18 18 17 16 16 16 17 17 17 17 16 16 16 16 16 16 17 17 17 18 18 18 18 18 17 17
34 31 28 27 28 29 29 28 26 25 24 25 25 25 25 25 25 24 23 22 21 21 21 21 21 20 20 19 19 18 18 18 19 19 19 19 19 18 18 18 17 16 16 17 17 18 18 18 18 17 17 17 17 17 17 18 18 18 19 19 19 19 19
35 32 30 29 30 30 30 28 27 26 26 26 26 25 24 24 24 24 23 22 22 21 21 21 20 20 20 19 18 17 16 16 17 17 18 17 17 18 17 17 17 17 16 16 17 18 18 19 19 19 19 19 19 19 19 19 19 20 20 21 21 21 21
35 34 33 32 31 31 30 29 28 27 27 27 26 25 24 24 24 24 24 24 23 22 22 21 21 21 21 20 18 17 17 17 17 17 18 18 18 19 18 18 18 18 18 18 18 18 19 19 20 20 20 20 20 21 21 21 21 21 22 22 23 23 22
33 33 32 31 30 30 30 29 29 28 27 28 27 26 26 26 26 27 27 26 25 25 24 23 23 23 23 21 19 19 19 19 19 19 20 20 20 21 21 21 21 21 21 20 20 20 20 21 21 21 21 21 21 22 23 23 23 23 24 24 25 25 25
29 29 28 28 28 29 30 30 30 29 29 29 29 28 28 28 29 29 30 29 29 28 27 26 25 25 25 24 23 22 21 21 21 22 22 22 22 22 22 22 22 23 23 23 23 23 23 24 24 24 24 24 24 23 23 24 24 25 26 26 26 27 27
29 29 29 28 29 29 30 30 31 31 31 31 30 30 30 31 31 32 31 30 29 29 28 27 26 25 26 26 25 24 24 24 25 25 25 25 25 25 24 23 23 23 23 23 23 24 24 25 25 26 26 27 26 25 25 26 26 27 27 28 29 30 29
26 27 27 28 28 29 30 30 31 31 32 32 31 31 31 32 33 32 31 29 29 29 28 26 25 26 26 26 25 25 25 25 25 26 26 27 27 27 27 26 25 24 24 24 24 24 24 25 26 26 27 27 27 27 27 28 28 28 29 30 32 34 33
23 25 26 26 26 27 29 30 31 31 31 31 30 30 30 31 32 32 32 31 31 31 29 27 27 27 26 26 26 25 25 26 25 24 25 26 27 28 28 29 28 27 27 27 26 27 27 28 28 28 29 29 29 29 29 29 29 29 28 30 32 34 34
24 24 24 24 25 27 28 29 30 30 30 30 29 29 31 30 27 27 31 33 33 33 32 31 30 29 27 27 26 24 22 24 25 25 26 27 27 27 28 28 29 28 29 29 30 30 31 31 31 31 32 32 32 33 33 33 33 32 31 32 34 35 36
23 22 22 24 26 28 29 30 31 32 31 31 31 30 32 33 30 26 27 30 33 34 34 33 32 31 29 29 28 27 25 24 26 28 28 28 29 28 28 29 30 30 31 32 32 33 33 34 33 34 34 35 36 37 37 37 37 37 37 38 40 40 41
26 26 26 27 29 31 32 33 34 34 33 33 33 33 34 36 35 33 30 29 32 34 33 32 32 32 32 31 31 31 30 29 29 30 30 30 32 33 33 34 33 33 34 34 35 36 36 36 36 36 37 37 38 39 39 40 41 41 42 43 44 45 45
31 31 31 32 33 33 34 34 34 34 33 34 35 36 36 36 37 38 37 35 35 36 34 33 33 34 35 34 34 34 34 33 33 34 34 35 37 37 37 38 37 37 37 37 37 38 38 38 39 39 39 40 40 41 41 42 43 44 45 46 46 47 47
34 35 35 36 36 36 36 36 35 35 36 36 36 37 38 38 38 39 39 38 38 38 37 36 36 37 37 37 37 37 37 37 38 39 39 40 40 40 41 41 41 41 41 40 40 40 40 41 41 41 42 42 42 42 43 43 44 46 47 48 48 48 48
38 38 38 38 39 40 40 40 39 39 38 39 39 39 39 39 40 40 40 41 41 40 39 38 38 39 40 39 39 39 39 40 41 42 43 43 43 44 44 43 43 44 44 43 44 44 44 45 45 44 44 44 44 44 44 45 46 46 48 49 49 50 50
41 41 41 42 42 43 44 44 43 43 43 43 43 42 42 42 43 44 44 45 45 45 43 41 40 40 41 42 42 43 44 44 45 45 46 46 46 46 46 46 45 45 45 45 46 47 47 47 46 45 45 45 45 46 46 46 47 47 48 48 49 50 50
41 42 43 43 44 45 46 46 46 47 47 47 46 46 45 45 45 46 46 47 47 47 46 45 44 44 45 46 48 49 48 46 46 47 47 47 48 49 49 48 46 46 46 47 47 46 45 45 44 44 45 46 47 47 48 48 48 47 47 48 48 48 49
40 41 42 43 44 45 46 47 48 49 48 49 49 49 49 49 49 48 48 48 49 49 49 49 49 49 50 50 50 50 49 47 46 47 47 46 46 48 49 48 47 47 47 45 44 43 43 44 44 44 45 46 46 47 47 48 48 48 47 48 48 49 49
35 37 39 40 41 43 44 45 46 45 44 44 44 45 46 47 47 47 47 48 48 49 49 50 50 51 51 51 50 50 49 49 49 48 48 47 47 48 49 49 48 46 44 41 41 41 42 43 44 44 44 45 45 46 46 47 49 50 50 51 51 51 51
35 35 36 37 38 40 41 41 40 39 38 38 38 40 41 42 42 43 44 45 46 46 48 49 50 50 50 50 50 50 50 50 50 50 50 49 48 47 47 48 46 43 41 39 39 41 42 43 44 46 47 47 48 48 48 48 50 51 52 53 53 52 52
37 36 36 38 40 41 41 41 40 39 39 40 41 42 43 43 43 43 44 45 46 48 49 50 50 50 50 50 50 50 50 49 49 49 48 46 46 44 41 42 43 43 41 41 41 42 44 46 47 49 50 51 52 52 52 52 52 52 53 53 53 53 53
41 41 41 43 44 45 45 45 45 45 46 47 46 45 44 45 45 45 45 46 47 49 50 51 52 52 52 52 52 51 49 48 46 45 45 45 48 47 44 43 46 46 46 46 45 46 48 50 51 52 53 54 54 54 54 54 53 53 53 53 53 53 53
47 46 46 47 48 49 49 50 50 51 51 50 48 47 47 48 49 50 50 50 52 52 51 50 51 52 52 51 51 49 47 46 46 47 49 51 54 53 50 49 51 51 51 51 51 52 54 54 55 55 56 56 55 54 54 54 53 53 53 53 52 52 51
52 51 49 49 49 50 51 51 52 52 51 51 50 50 51 52 53 54 54 54 55 56 56 54 52 52 52 53 52 51 51 52 53 55 56 57 58 56 54 54 54 54 55 55 55 56 57 57 58 59 58 57 56 55 54 54 53 53 53 52 52 51 51

ECMWFFLT1_500_spd_060.txt.gz
Wind_Speed
23 22 16 14 15 16 17 18 18 18 19 19 18 17 16 15 13 12 11 10 10 10 10 9 9 9 9 9 10 10 11 11 11 11 11 11 11 11 11 11 11 11 12 12 13 13 14 15 16 17 17 17 18 18 17 17 16 15 15 17 17 18 18
23 24 19 18 19 18 18 18 19 18 18 19 19 18 16 14 13 11 11 10 10 10 10 10 10 10 10 10 11 11 12 13 12 12 12 12 12 12 11 11 11 11 12 13 14 14 15 15 16 17 16 16 16 16 16 17 17 17 16 17 17 17 17
22 25 25 23 21 20 20 20 20 19 18 18 19 18 15 14 13 12 11 11 11 11 11 11 12 12 12 12 12 13 13 14 14 14 14 13 13 13 12 12 11 11 12 13 14 15 15 15 16 16 15 15 16 16 17 18 18 17 17 17 17 17 16
21 25 26 23 21 20 21 22 21 19 18 18 19 17 14 13 13 12 12 12 12 12 12 13 12 12 12 12 13 13 14 15 16 16 16 16 15 15 14 14 13 13 13 14 15 15 16 16 16 16 15 15 17 18 18 19 18 18 18 17 17 17 17
20 23 23 20 19 20 22 22 21 19 18 18 18 17 14 13 13 12 12 11 11 11 11 11 11 11 12 13 14 14 15 16 17 17 18 18 18 17 17 16 15 15 14 15 16 16 17 17 16 16 16 17 18 18 19 20 19 19 19 18 18 18 17
18 20 23 22 22 23 22 21 20 19 19 18 18 17 15 14 13 13 12 11 11 11 11 12 12 13 14 15 15 15 15 16 16 17 17 18 19 19 19 18 18 17 16 16 17 17 17 17 17 17 17 17 17 18 19 20 20 20 19 19 19 19 19
18 20 24 26 27 24 21 20 20 20 19 18 18 18 17 15 14 14 13 13 13 12 13 14 15 15 15 15 15 15 15 15 15 16 17 18 19 19 19 19 19 18 18 17 17 18 18 17 18 18 17 16 16 18 19 19 20 20 20 20 19 19 19
18 21 24 26 26 24 21 20 20 21 20 18 18 19 19 17 15 15 15 14 14 14 14 15 16 16 15 15 14 14 14 15 15 16 17 18 18 19 19 19 19 19 19 18 18 18 18 18 18 18 17 16 15 16 17 18 18 19 19 20 19 19 19
19 21 23 24 24 23 22 21 21 21 20 19 19 20 20 19 17 16 16 16 16 16 16 17 17 17 17 16 15 15 15 15 15 16 17 18 18 19 19 19 19 19 19 19 18 17 17 17 18 18 17 16 15 15 15 16 16 17 17 18 18 18 18
24 23 24 24 23 23 23 22 22 22 21 20 20 21 21 20 19 18 18 18 18 18 18 18 18 18 18 18 17 16 16 16 17 17 17 18 18 19 19 19 18 18 18 18 18 18 17 17 17 18 17 16 16 15 15 15 15 15 15 16 16 17 17
26 25 25 26 25 25 24 23 23 23 22 21 21 22 21 21 20 20 19 19 19 19 19 19 19 19 19 19 18 18 18 18 18 18 18 18 18 18 18 18 18 18 17 17 17 17 17 17 17 17 17 16 15 15 16 16 16 15 15 15 15 15 15
27 27 27 27 27 26 25 25 25 24 23 22 23 23 22 22 22 21 20 21 21 20 20 20 19 20 20 19 19 19 19 19 18 18 18 18 17 18 18 18 18 18 17 17 17 16 17 17 17 18 18 17 16 15 15 16 16 15 15 16 16 16 15
27 28 29 29 28 26 26 26 26 26 25 24 24 25 24 24 23 23 23 22 22 21 20 20 20 20 20 20 20 19 19 19 19 18 18 18 17 17 18 18 18 18 18 18 17 17 17 17 17 18 18 18 18 17 17 17 17 16 16 16 16 16 16
28 29 30 30 28 26 27 28 27 27 27 25 26 26 26 24 23 23 23 22 21 21 21 21 21 21 21 20 20 19 19 19 19 19 18 18 18 17 18 18 18 18 18 18 18 18 17 17 17 17 17 18 18 18 18 18 18 18 17 17 17 17 16
26 30 32 31 28 27 27 28 28 27 27 27 26 26 26 24 23 22 21 21 21 21 21 21 21 21 21 21 20 20 20 19 19 18 18 18 17 17 17 17 17 18 18 18 18 18 18 17 17 17 17 17 17 17 18 18 18 19 19 18 18 18 18
23 28 34 33 29 27 28 30 29 28 28 27 27 26 26 24 23 22 22 22 21 21 21 21 21 22 22 22 22 21 20 19 18 18 17 17 16 16 15 15 15 16 16 17 17 18 18 17 17 17 16 17 17 18 18 18 19 19 20 20 19 19 20
23 26 32 32 29 29 30 32 31 29 29 29 28 28 27 26 26 25 24 23 22 21 22 21 22 22 22 22 22 22 21 20 19 18 17 16 15 15 15 15 16 16 17 18 18 18 18 18 18 18 17 18 18 19 19 19 20 20 21 22 21 21 21
24 25 28 27 28 32 33 34 33 31 31 31 30 30 28 27 27 26 26 24 22 22 22 23 23 23 23 22 22 22 21 21 21 21 19 18 18 18 18 18 18 19 19 19 19 20 21 20 20 20 20 20 20 21 21 22 22 23 23 23 23 23 22
19 21 23 24 28 33 34 33 32 32 32 32 31 30 29 28 27 27 26 24 23 23 24 25 24 24 23 23 23 23 22 21 22 22 21 20 20 20 21 21 21 21 20 20 20 21 22 22 23 23 22 22 22 23 23 23 24 24 24 25 25 25 24
14 18 21 22 25 29 31 31 31 31 31 31 30 29 29 28 28 28 26 25 24 24 25 26 25 24 25 25 24 24 23 23 24 24 24 22 21 20 19 19 21 22 22 21 20 20 21 21 22 23 23 22 22 23 23 24 24 25 26 26 27 27 27
13 18 22 23 23 25 27 29 30 30 30 30 29 30 29 28 28 27 26 26 25 24 25 25 26 27 26 25 24 24 25 25 25 26 25 23 23 21 18 17 18 20 22 21 20 20 21 22 22 23 23 23 24 24 25 26 26 27 27 28 29 29 30
14 17 19 21 23 24 24 25 26 25 26 28 28 28 28 27 27 27 28 28 26 26 24 22 24 28 28 27 26 25 26 27 27 27 26 25 25 25 24 23 21 18 18 19 20 21 22 23 23 24 25 26 26 27 28 28 29 29 30 31 32 33 34
15 15 16 18 22 24 24 23 22 21 22 24 25 27 27 27 27 28 29 29 28 27 25 22 25 28 29 30 29 26 27 28 28 28 28 28 28 27 27 27 24 20 18 19 20 21 22 23 24 25 27 28 29 30 30 31 32 32 33 33 34 35 36
15 15 16 18 20 22 22 22 22 22 22 22 23 25 26 26 27 27 28 29 29 27 25 25 27 28 27 28 29 29 30 31 31 30 30 30 29 27 25 24 24 24 24 23 22 23 25 26 27 28 29 30 31 32 32 33 34 34 35 35 36 37 38
18 18 19 21 22 24 24 24 24 25 24 24 24 24 25 25 26 28 29 30 31 30 28 28 30 31 29 27 27 29 30 32 32 31 30 31 30 29 28 28 29 31 30 29 29 30 31 31 32 32 33 33 34 34 34 35 35 36 37 37 38 39 40
20 21 21 22 23 24 24 25 26 27 26 27 26 26 26 26 26 28 29 31 33 33 33 32 34 35 34 31 29 30 31 32 32 32 32 32 32 33 34 34 34 34 35 35 35 35 35 36 36 36 36 36 37 37 37 37 38 38 39 40 41 42 43
22 23 24 24 25 26 27 28 29 30 30 29 29 29 29 29 28 29 30 32 34 36 36 35 35 35 35 35 34 33 33 33 33 33 34 34 36 37 38 37 36 36 38 38 38 39 40 40 40 41 41 41 41 40 40 40 41 42 42 43 43 43 44
28 29 30 31 32 33 33 32 33 34 34 34 33 33 32 31 31 32 33 35 36 38 38 38 37 35 34 34 34 33 33 34 35 36 37 38 40 40 41 40 39 40 42 42 42 43 44 44 44 45 46 46 45 45 44 44 44 44 44 44 44 44 44
35 35 36 37 38 38 37 36 36 37 37 38 37 36 35 34 34 35 37 38 39 41 41 41 40 39 38 39 38 38 37 37 38 39 40 42 44 44 44 43 43 45 47 47 46 46 46 46 46 46 47 47 47 46 46 46 45 44 44 43 43 44 44
40 39 40 41 41 41 40 40 39 39 40 41 40 40 39 39 38 38 39 40 42 43 44 44 44 43 42 43 43 43 43 42 41 42 42 44 45 46 46 46 48 50 50 49 49 49 48 47 47 47 47 46 46 46 45 44 43 42 42 42 43 44 45
38 38 40 41 41 42 42 42 42 42 42 43 43 43 44 44 43 41 42 43 44 44 45 46 46 46 46 46 46 46 46 45 45 45 44 45 47 48 49 50 51 51 50 50 49 49 49 48 48 47 47 47 47 46 43 41 40 40 41 42 43 45 46
37 38 38 38 39 41 42 43 43 44 44 44 44 45 45 45 45 44 44 44 45 46 46 47 48 48 48 47 46 46 45 44 45 45 44 44 46 48 49 49 49 48 48 48 48 48 48 47 47 47 46 47 47 45 41 39 39 40 42 44 46 47 48
35 36 37 37 38 40 41 42 43 43 43 43 43 43 43 43 42 42 43 44 46 47 47 46 45 45 44 44 44 44 43 43 43 45 45 44 44 45 46 46 46 47 48 48 48 47 45 43 42 42 43 44 44 44 43 42 43 44 46 47 49 50 51
35 37 38 38 37 38 39 40 41 42 42 42 41 41 41 40 39 40 42 44 45 46 46 44 43 43 43 43 44 44 45 45 45 46 48 48 47 47 46 46 46 47 47 48 47 45 42 41 41 42 43 44 45 46 48 50 51 51 52 52 53 54 53
36 38 39 40 40 41 42 42 43 42 42 42 41 40 40 39 40 41 43 44 45 45 45 44 44 45 45 45 46 47 47 48 48 49 50 52 51 50 50 49 49 49 48 46 45 43 43 44 47 48 48 49 49 51 52 54 56 56 56 57 57 57 55
43 45 47 50 51 51 49 47 47 46 45 44 44 44 44 44 44 45 46 48 49 48 49 50 50 50 51 50 51 52 52 52 53 53 53 54 53 52 52 51 51 51 49 46 45 46 48 51 53 54 53 53 53 53 54 56 57 58 58 59 59 58 58
55 56 58 59 58 55 51 49 50 50 50 50 50 50 50 50 50 50 51 52 52 51 51 53 54 54 54 54 54 54 54 54 55 56 56 56 56 55 54 54 53 53 52 51 51 53 56 57 57 57 56 56 56 56 56 56 57 58 59 60 61 61 61

ECMWFFLT1_500_spd_063.txt.gz
Wind_Speed
13 13 13 14 13 10 9 10 13 15 15 16 16 15 14 13 12 11 10 10 9 8 7 7 7 6 6 6 5 5 5 5 6 7 8 9 10 10 11 11 12 12 13 12 12 12 11 10 10 10 11 11 11 11 9 8 8 8 8 9 10 10 9
11 11 11 12 15 14 13 13 15 15 16 17 18 18 17 15 13 11 10 10 9 8 7 7 7 7 6 6 6 6 6 6 7 8 9 10 10 10 11 11 12 13 13 13 13 13 12 11 10 10 10 10 9 8 8 8 9 9 10 10 11 11 11
9 9 9 11 15 18 19 19 18 16 16 18 18 19 19 17 16 13 11 10 9 9 8 8 8 8 7 7 7 7 7 7 8 8 9 10 10 10 11 12 12 13 13 13 13 13 13 12 11 10 9 9 8 7 7 9 10 11 12 11 11 12 12
9 11 11 13 16 19 22 21 18 16 17 18 19 19 19 18 17 15 12 10 9 8 8 8 8 8 8 8 7 7 7 8 8 9 9 10 11 11 11 12 12 13 13 13 13 13 13 13 13 11 9 8 8 8 9 9 11 12 13 13 13 12 13
12 13 14 15 17 19 20 18 15 15 17 19 19 19 19 19 18 16 14 11 9 8 8 7 7 7 7 8 8 8 8 9 9 9 9 9 10 10 11 12 12 13 13 13 13 13 13 14 13 12 10 9 9 10 10 10 10 11 12 13 14 14 14
13 14 14 15 16 17 17 16 16 17 18 18 19 19 19 18 17 17 15 12 10 9 8 8 8 8 9 9 9 9 8 8 8 8 8 8 9 9 10 11 12 12 13 13 13 14 14 14 13 12 10 9 10 10 11 11 11 11 12 13 13 14 14
14 14 14 15 14 14 16 18 19 20 19 18 18 18 18 18 17 18 17 14 12 11 10 9 9 10 10 10 9 9 8 8 7 7 7 7 8 9 9 11 12 12 13 13 14 14 14 14 12 11 11 11 10 10 10 11 11 11 12 12 13 13 14
13 14 14 14 13 14 17 19 22 22 20 18 18 18 18 17 18 19 18 16 14 13 12 12 12 11 11 11 10 9 9 8 8 7 7 8 8 9 9 10 11 11 12 13 14 14 14 13 12 11 11 12 12 11 10 10 10 11 11 12 12 12 12
13 14 14 14 13 14 16 19 21 22 20 19 19 19 18 17 18 20 19 17 15 15 15 15 14 13 13 12 11 10 9 8 8 8 8 8 8 8 9 9 10 11 11 12 12 12 12 12 11 10 11 12 13 13 11 10 10 10 11 11 12 12 12
14 15 17 17 16 16 17 18 20 22 22 22 21 21 19 18 18 19 20 18 17 17 17 17 17 16 14 13 12 10 10 9 8 8 8 8 8 8 8 9 9 10 11 11 11 11 11 11 10 8 9 10 11 11 11 11 11 10 11 11 11 11 11
14 16 18 20 21 21 20 20 21 22 23 24 23 22 20 19 18 19 19 19 18 19 19 19 18 17 15 14 12 11 11 10 9 9 8 8 8 8 8 8 9 9 10 11 11 11 11 11 10 9 9 9 10 10 10 11 11 11 11 11 11 11 11
16 17 19 20 22 23 23 22 22 23 25 26 25 23 22 20 19 19 19 19 20 20 20 20 19 18 17 15 14 13 12 11 11 10 9 9 8 8 8 8 8 9 10 11 11 11 11 11 11 10 10 10 10 10 10 10 11 11 11 11 11 11 12
16 18 20 21 22 22 23 23 23 24 26 27 27 25 23 21 20 20 20 20 21 21 21 21 20 18 17 16 15 14 13 13 13 12 11 11 10 9 9 9 9 10 10 11 11 11 12 12 11 11 11 11 11 11 11 11 11 11 10 10 11 11 12
16 17 20 21 21 22 23 24 25 25 26 28 29 27 25 23 22 21 21 21 21 21 21 20 19 18 17 16 15 14 14 15 15 14 13 12 11 10 10 10 10 11 11 11 12 12 12 12 12 12 12 12 11 11 12 12 11 10 10 9 10 11 12
18 18 18 18 18 21 23 25 26 26 27 29 30 29 26 24 24 22 21 20 21 21 20 19 18 18 17 16 15 15 15 16 15 15 13 12 11 11 11 11 11 12 12 12 12 12 13 13 12 12 12 13 12 12 12 12 11 11 10 10 10 11 12
20 21 20 18 17 18 21 24 26 27 28 30 30 30 28 25 25 24 21 20 20 20 19 18 18 18 16 15 14 14 15 15 14 14 13 12 11 11 10 11 12 13 14 13 13 13 13 13 13 13 13 13 12 12 12 12 12 12 12 12 13 13 14
20 21 22 21 20 20 20 23 27 29 30 30 30 29 28 26 25 24 22 20 20 20 19 18 17 16 15 14 14 15 15 15 15 15 14 13 13 12 12 12 12 13 14 15 16 16 16 15 14 15 15 15 14 14 14 14 14 15 15 15 16 16 16
20 23 24 23 22 22 21 22 26 29 30 31 31 29 29 28 26 25 23 20 20 19 17 16 15 15 15 16 17 17 17 17 17 15 14 14 14 14 14 15 15 16 17 18 18 19 19 18 16 16 18 18 18 17 16 17 17 17 17 17 17 17 17
21 23 24 22 20 21 22 23 26 30 32 32 32 30 30 29 26 25 23 20 19 19 18 17 17 16 16 17 18 17 18 18 18 17 16 16 17 17 16 17 18 18 20 21 21 20 20 20 18 17 18 19 19 19 18 18 18 18 17 17 18 18 18
19 21 21 19 18 19 22 23 25 30 33 34 33 32 30 28 27 25 23 21 22 21 20 19 18 16 17 18 18 18 19 19 19 19 19 18 18 18 18 18 19 19 19 19 19 19 20 20 19 18 17 18 18 19 19 19 19 20 20 20 20 21 20
17 17 16 15 15 15 17 20 24 29 32 32 32 29 27 25 24 24 23 23 24 23 20 18 17 16 16 18 19 19 18 18 18 19 20 20 20 19 19 18 18 18 18 16 16 16 17 18 19 19 19 19 19 20 21 22 22 23 24 24 24 24 24
14 14 14 14 14 13 14 17 20 24 26 25 24 23 22 22 22 22 23 24 23 23 22 20 19 19 18 18 19 20 18 17 19 21 22 22 21 20 20 20 19 19 19 19 19 18 17 17 18 19 20 20 20 21 23 24 24 25 26 27 28 28 28
15 17 17 15 14 14 15 15 16 19 20 19 18 17 17 18 19 21 22 23 23 23 24 23 22 22 21 19 19 21 22 20 19 21 23 23 22 21 21 21 21 21 21 21 22 21 19 18 19 20 20 21 23 25 26 26 27 28 29 29 30 31 32
16 17 17 15 14 14 13 12 13 15 16 15 14 14 14 16 17 19 20 21 22 22 23 23 23 22 21 20 20 22 23 23 22 23 23 22 23 23 23 22 22 22 21 20 21 22 22 22 22 23 25 26 28 29 30 30 31 31 31 32 33 34 35
17 17 17 17 16 16 15 14 13 14 15 16 16 16 16 17 18 19 19 19 19 20 22 22 23 22 22 22 22 24 25 26 28 28 26 23 23 23 24 24 24 23 23 23 25 26 26 26 26 26 28 29 30 31 33 34 34 34 35 35 36 37 38
20 20 21 21 20 19 19 19 18 18 18 18 18 18 19 21 22 21 21 20 20 21 22 22 23 23 23 24 25 26 27 29 30 30 29 28 27 26 26 25 25 26 27 28 30 30 30 29 29 29 30 31 32 33 34 36 37 37 38 38 39 40 41
23 23 25 25 23 20 20 20 20 21 21 20 20 21 23 24 23 22 23 23 23 23 24 25 25 25 26 27 28 28 29 30 31 31 31 30 29 28 28 28 28 29 30 31 32 33 33 33 33 33 34 35 36 36 37 37 38 39 40 41 41 42 43
26 27 28 28 27 25 25 26 25 25 25 25 24 24 25 24 24 24 25 26 26 27 28 28 29 29 30 31 31 31 31 31 33 34 33 32 30 29 29 30 31 32 33 34 35 36 37 38 38 38 39 40 41 41 41 40 40 40 41 42 42 43 44
28 28 30 31 32 32 33 33 31 30 30 29 28 28 29 29 29 30 31 31 30 31 31 31 32 33 33 34 34 34 34 34 35 36 37 37 36 35 35 36 36 37 38 38 39 39 39 40 41 42 43 44 44 44 43 42 42 42 42 42 43 44 44
29 29 30 32 34 35 35 35 34 34 35 34 34 34 34 34 35 35 35 35 34 34 34 35 36 36 37 37 38 38 37 38 39 40 40 41 41 41 42 43 43 43 43 43 43 43 43 43 44 44 44 44 44 44 43 43 43 42 42 42 43 43 43
31 31 30 31 34 36 36 36 37 38 38 38 38 38 38 37 37 37 37 38 38 39 39 39 39 40 41 41 40 39 40 41 43 43 43 44 44 45 45 45 45 46 46 46 46 45 45 44 44 44 43 43 43 43 43 43 43 43 41 41 40 40 40
33 32 31 30 32 34 35 37 38 38 38 38 37 37 37 38 39 39 40 40 41 42 42 42 43 43 43 43 43 41 41 42 43 43 43 44 45 46 45 44 43 43 43 44 44 43 43 43 42 42 42 42 42 42 43 43 42 41 40 39 39 40 41
34 33 33 33 34 36 37 37 38 38 37 37 36 35 35 36 38 40 41 41 42 43 44 44 45 44 44 44 44 42 41 40 40 41 41 42 43 44 44 43 43 43 43 43 43 43 43 42 42 43 43 42 42 42 42 42 41 40 39 41 42 43 45
36 36 37 37 38 39 39 38 37 38 37 36 36 36 36 36 36 37 37 38 39 40 41 42 43 42 42 42 42 41 41 40 40 41 42 41 41 41 42 43 43 44 45 45 45 46 46 46 46 45 45 44 43 43 42 41 41 42 43 45 47 49 50
39 40 41 41 42 43 42 40 40 39 38 38 38 39 39 39 38 36 36 37 38 40 40 41 41 41 40 40 40 41 41 41 41 43 44 44 44 44 44 45 46 46 46 47 48 48 49 50 50 49 49 49 48 46 45 44 44 46 48 51 53 55 55
45 45 45 46 46 46 46 46 46 44 42 41 42 42 43 43 43 41 40 41 43 44 44 43 42 42 42 43 43 44 44 44 45 47 49 49 49 49 50 50 50 50 50 51 51 51 52 52 52 52 53 53 53 52 52 51 52 53 55 56 57 58 59
50 50 50 50 50 49 49 49 49 49 47 46 46 47 47 48 50 50 50 51 51 49 48 48 46 46 47 47 49 49 49 49 49 50 52 52 52 53 53 53 54 55 55 55 55 55 54 54 53 54 54 54 55 55 56 57 58 59 59 60 60 60 60

ECMWFFLT1_500_spd_066.txt.gz
Wind_Speed
9 8 7 6 7 9 10 8 5 2 2 4 4 5 5 6 6 7 8 9 10 12 13 13 14 14 14 14 13 13 12 11 11 11 11 11 10 10 11 11 11 11 11 11 11 11 11 11 10 9 8 8 8 8 9 10 11 11 10 10 10 10 10
10 9 7 6 7 10 11 11 9 6 5 6 6 7 7 7 7 7 8 9 11 12 13 14 14 14 14 14 13 13 12 11 11 11 11 11 11 11 11 11 11 11 11 11 11 11 11 11 10 9 8 9 9 9 9 10 10 10 10 10 11 11 11
10 8 7 6 6 9 12 12 12 11 10 9 8 8 9 9 9 8 7 9 10 12 13 14 14 14 14 13 13 12 12 11 12 12 12 13 13 13 12 12 11 11 11 11 11 11 11 10 10 9 9 9 10 9 10 11 11 11 11 11 11 12 12
10 9 8 7 7 9 12 13 15 15 14 12 9 9 9 10 10 9 8 9 11 13 14 15 15 15 14 14 13 12 12 12 13 13 14 14 14 14 13 13 12 11 11 11 11 11 10 10 10 10 10 10 11 11 11 11 11 12 12 12 12 12 12
12 12 10 9 9 10 12 14 16 16 15 13 10 10 10 10 11 10 10 10 11 13 14 15 15 15 14 14 13 13 13 13 14 14 14 15 15 15 14 13 12 12 11 11 11 10 10 10 10 11 11 12 12 11 11 12 12 13 13 13 13 12 12
14 14 13 12 12 12 12 14 15 15 14 13 11 11 11 11 11 11 11 11 12 12 14 14 14 13 13 13 13 13 13 14 15 15 15 15 15 15 14 12 12 12 11 11 10 9 9 10 11 12 13 13 12 11 12 12 13 13 13 13 13 13 13
15 15 15 14 14 13 13 13 13 14 14 13 14 13 12 11 11 11 12 13 13 13 14 14 13 13 12 12 12 12 13 14 14 14 13 14 14 14 13 13 12 12 11 10 9 9 10 11 12 12 12 12 11 11 11 11 12 13 13 13 13 13 13
15 14 14 15 14 13 13 12 12 13 14 16 17 15 13 13 12 12 13 14 15 15 14 14 14 13 13 12 12 12 13 13 13 13 12 12 13 12 12 12 12 11 11 10 10 10 11 11 12 12 12 11 10 10 10 10 11 12 12 12 12 12 12
12 12 13 14 14 14 13 13 13 15 16 18 18 16 15 15 14 14 14 15 16 16 15 14 14 14 13 13 12 12 13 13 12 12 12 12 12 12 12 12 12 12 11 11 11 11 10 10 11 12 11 10 10 9 9 10 10 10 11 11 11 11 11
12 12 13 14 14 14 15 15 15 16 17 18 18 17 17 17 16 15 15 15 17 18 17 16 15 15 14 14 13 12 12 11 11 11 11 12 12 12 12 12 12 11 11 10 10 9 9 10 12 12 11 11 11 10 10 10 10 10 10 10 11 11 11
14 13 13 13 14 15 17 17 17 18 19 19 19 19 19 18 18 16 16 16 17 18 18 18 17 17 16 15 14 13 12 11 11 11 12 12 12 12 12 11 11 10 10 9 9 8 9 10 12 12 12 12 12 12 11 11 10 10 10 11 11 11 11
16 15 15 14 15 16 18 20 21 22 22 22 21 21 20 19 19 18 17 17 18 18 19 19 19 18 18 16 15 14 12 12 12 12 12 11 11 11 11 10 10 9 9 9 9 9 10 11 12 12 12 12 12 11 11 11 10 11 11 12 12 11 11
19 17 17 17 17 18 20 21 22 24 24 24 23 22 21 20 20 19 19 19 19 19 19 18 19 19 19 18 16 14 13 12 12 11 11 11 11 11 11 10 9 8 8 8 8 9 10 11 12 11 11 11 11 11 12 12 12 11 11 11 11 11 11
20 18 17 18 19 21 22 22 23 23 23 23 23 23 22 22 21 20 20 20 20 20 19 18 18 18 18 18 17 16 15 14 12 12 11 11 11 11 11 10 9 8 7 7 7 9 10 10 10 10 11 10 11 12 12 12 11 11 10 10 10 10 10
19 19 19 19 20 22 23 24 24 24 23 22 21 21 23 24 23 22 21 20 20 20 19 18 17 16 17 18 19 18 16 14 13 12 12 11 11 10 10 9 9 8 7 7 7 8 9 9 8 9 9 9 10 10 10 10 10 10 11 11 11 11 11
20 20 19 19 20 21 23 23 24 25 25 23 20 20 22 25 26 24 22 21 20 19 18 17 15 15 17 19 18 17 15 13 12 11 11 10 10 10 9 9 8 7 8 8 9 9 9 9 9 9 9 9 9 10 10 10 10 11 12 12 12 13 12
21 20 19 19 20 21 22 23 24 24 23 21 19 21 25 27 28 27 24 21 19 18 17 15 15 16 18 19 18 15 13 12 11 10 10 9 9 9 9 9 9 9 9 10 11 12 12 12 12 13 12 11 11 12 12 12 12 12 13 13 14 14 15
19 19 19 19 19 20 22 24 24 24 22 20 20 24 28 29 29 28 27 23 19 18 17 16 16 17 18 19 18 17 15 13 12 11 10 10 9 9 10 10 11 11 11 12 13 14 14 15 16 17 16 14 13 14 14 14 14 14 15 16 16 16 16
15 15 17 19 18 19 22 23 22 22 22 21 22 25 28 29 29 29 28 24 20 19 18 17 16 17 17 17 17 17 15 13 12 11 10 10 10 11 11 12 12 13 13 14 15 15 15 15 16 18 18 16 14 14 14 14 14 15 16 16 17 17 16
14 15 18 18 17 19 21 21 20 21 22 23 23 24 26 28 29 29 29 25 21 20 18 16 16 16 16 16 15 15 14 13 13 11 9 9 10 11 12 12 13 14 15 15 15 15 14 13 14 15 18 17 15 14 14 14 15 15 16 17 18 18 18
15 17 17 15 15 17 18 18 18 20 22 26 25 23 25 28 30 30 28 23 21 20 18 16 15 15 15 15 14 14 14 13 12 9 7 8 10 12 13 13 14 15 16 16 15 15 14 14 14 14 16 17 17 16 16 16 16 16 17 18 19 20 20
16 16 15 13 15 16 16 17 17 18 19 22 23 21 22 24 25 24 21 18 16 15 15 14 15 15 16 15 15 14 13 13 12 10 9 9 10 11 13 14 15 16 17 17 17 17 17 17 17 17 17 18 18 18 17 17 17 17 18 19 21 22 23
14 14 14 14 15 16 17 17 17 15 14 14 16 16 17 17 17 15 13 12 11 12 13 14 14 15 15 15 15 14 14 15 15 14 14 14 13 12 13 14 15 17 18 19 20 20 21 20 20 21 21 21 20 20 20 19 20 20 21 22 23 24 25
15 15 14 13 13 14 14 15 14 12 11 11 12 13 13 13 12 11 10 10 10 11 12 12 13 14 14 15 16 15 15 16 16 15 16 17 18 17 17 16 17 18 20 22 23 24 24 23 22 22 23 23 23 23 23 23 24 24 25 26 26 27 29
17 16 15 14 14 13 14 14 13 12 12 12 13 14 14 15 15 14 13 12 12 13 13 13 14 14 15 15 16 16 16 16 16 17 18 19 20 20 20 19 19 20 22 23 24 25 25 25 25 25 25 26 27 27 27 27 28 28 29 30 31 32 33
18 19 18 18 17 16 15 15 15 16 17 18 18 18 17 18 19 19 17 15 15 15 16 16 16 17 17 17 17 17 17 17 18 19 20 21 21 21 21 21 22 23 24 24 25 26 26 27 27 28 29 29 30 31 31 31 32 33 34 35 36 36 37
21 22 22 21 20 19 19 19 19 20 21 22 22 21 20 21 22 22 21 20 19 18 19 20 20 20 20 20 20 20 20 21 22 22 23 24 24 24 23 24 24 24 24 25 25 26 27 28 29 29 30 31 32 33 33 34 35 36 37 38 39 40 40
24 24 24 24 23 22 22 22 23 23 24 24 24 25 25 26 26 25 26 26 24 21 20 21 23 25 25 25 25 24 24 25 26 26 27 27 27 27 27 27 27 26 26 27 28 28 30 31 32 33 34 34 35 35 36 37 38 38 39 40 40 41 41
27 27 27 27 25 25 25 25 26 27 27 28 29 29 29 30 30 30 30 30 29 27 26 27 29 30 29 29 29 29 29 29 30 30 31 31 31 31 31 31 31 30 31 31 32 33 34 35 36 37 38 38 38 38 39 39 39 39 39 39 39 39 40
29 29 28 28 27 27 28 28 29 29 28 29 30 30 32 33 33 33 33 33 32 32 33 34 33 32 30 30 32 33 32 32 33 33 34 34 34 34 35 35 35 35 35 35 36 37 38 39 39 40 40 41 41 40 40 40 39 39 38 38 38 38 39
32 30 30 30 30 31 31 31 30 30 28 27 25 26 28 32 33 35 37 36 34 34 37 38 36 35 33 32 34 35 36 36 35 35 37 38 37 38 38 38 39 39 39 39 39 39 39 40 40 40 41 41 41 41 40 40 39 39 39 39 40 40 41
34 34 34 34 34 34 33 33 33 32 33 33 33 33 34 35 36 38 42 42 40 40 41 41 40 39 36 35 36 38 39 39 39 39 40 40 41 41 41 41 41 42 42 42 41 40 40 39 39 40 40 40 41 41 41 40 40 40 40 41 41 42 42
36 36 37 37 37 37 36 35 35 35 37 39 41 43 43 43 43 44 45 44 43 43 43 43 42 40 39 38 38 40 41 42 43 43 43 43 44 45 44 44 44 44 43 43 42 40 39 39 39 40 40 40 41 41 42 42 43 43 43 44 44 44 44
40 41 41 42 42 42 41 39 38 38 39 40 41 43 44 45 45 45 44 43 43 44 44 43 41 39 38 38 39 40 41 41 42 42 42 43 43 44 45 46 46 45 44 44 43 42 41 41 42 42 43 43 43 44 45 45 46 46 47 47 47 46 46
46 45 46 46 46 45 44 42 41 40 40 39 39 40 41 41 42 42 42 43 44 44 43 41 39 39 39 39 40 40 39 39 39 39 40 41 43 45 47 48 47 46 46 45 45 45 45 46 47 48 48 48 49 49 50 50 50 50 50 49 48 46 46
48 47 46 46 46 46 46 45 43 43 43 43 42 42 42 42 41 42 42 41 42 43 42 41 41 41 41 41 40 39 39 39 40 41 42 44 45 47 48 48 48 48 48 48 48 49 49 50 51 52 53 53 53 53 53 53 53 51 50 48 46 45 44
48 48 48 48 48 48 49 49 50 50 50 51 50 50 49 48 47 47 46 46 46 47 46 46 45 44 43 42 42 42 42 43 44 45 46 47 48 48 49 49 50 50 50 51 51 52 52 53 53 54 55 55 56 55 55 53 51 48 46 44 43 42 42

ECMWFFLT1_500_spd_069.txt.gz
Wind_Speed
18 15 13 13 13 14 14 13 13 13 12 11 10 10 9 8 8 8 9 10 10 10 11 11 12 13 14 14 15 15 15 15 14 13 12 12 12 12 12 12 11 11 12 12 12 12 12 12 11 12 12 12 12 13 13 13 13 15 15 15 15 14 13
16 14 13 13 13 15 15 15 15 14 11 10 9 8 8 8 8 8 9 10 10 10 11 12 13 14 15 15 15 16 16 15 15 14 13 12 12 12 12 12 12 11 12 12 12 13 13 13 13 12 12 12 12 13 13 14 14 15 15 15 15 14 14
15 15 14 13 14 15 16 17 16 14 11 9 8 8 8 7 7 8 9 10 10 11 11 12 13 14 15 16 16 16 16 16 15 15 14 13 13 12 12 12 12 12 12 13 13 14 14 14 14 13 13 13 13 13 13 14 14 15 15 15 15 15 15
17 17 16 16 15 16 18 18 17 16 13 11 10 10 9 8 8 7 8 8 9 10 11 12 13 15 15 15 16 16 16 16 16 15 14 14 14 14 14 13 13 13 13 14 14 14 15 15 15 15 14 14 14 14 13 14 14 15 15 15 15 15 16
18 18 18 18 17 18 19 20 19 18 16 14 14 13 12 10 9 7 7 8 9 10 11 12 13 14 15 15 16 16 16 16 16 16 16 16 16 16 16 15 15 15 15 15 15 15 16 16 16 16 15 15 15 14 14 14 15 15 16 16 16 16 16
18 18 18 18 18 18 19 19 19 18 18 17 16 15 13 12 9 7 7 8 9 10 11 12 13 14 16 16 17 17 17 17 17 18 18 18 18 18 17 17 16 16 16 16 16 16 17 17 17 17 16 16 15 14 14 15 16 16 16 16 16 16 17
17 18 19 18 18 18 18 18 18 18 18 18 18 17 15 13 11 9 8 9 9 10 11 12 13 14 15 16 17 18 18 18 18 19 19 19 19 19 18 17 17 17 17 17 17 17 17 18 17 17 17 15 14 14 15 16 16 17 17 17 17 17 17
17 18 18 18 18 17 17 18 18 17 17 17 17 17 15 13 12 12 11 10 10 10 11 12 13 14 14 15 16 16 17 17 18 18 18 18 18 18 17 17 17 17 17 17 17 17 18 18 18 17 16 15 15 15 16 16 16 17 17 17 17 18 18
17 18 18 19 19 19 19 19 18 17 16 16 16 16 15 14 13 13 12 11 10 11 12 13 14 14 15 15 15 15 15 16 16 17 17 16 16 16 16 16 17 17 17 17 18 18 19 19 19 17 16 15 16 16 16 16 16 16 17 17 18 18 18
18 19 19 20 20 20 20 20 19 18 16 16 16 15 14 13 13 13 13 13 12 11 12 14 15 16 16 15 15 15 15 15 15 15 15 15 15 15 16 16 17 17 17 17 18 18 19 19 19 17 16 16 16 16 16 16 16 16 17 17 18 18 18
19 19 19 19 19 20 20 20 20 18 17 17 16 14 13 12 13 13 13 14 13 13 13 15 17 18 18 17 15 15 15 15 15 15 15 15 15 15 16 16 17 17 17 17 18 19 19 19 18 17 17 16 16 17 16 16 16 16 17 17 17 16 17
18 18 18 18 18 19 19 20 20 19 18 18 17 16 15 15 15 14 13 14 15 15 15 15 17 18 19 19 18 17 16 16 16 16 15 15 15 16 16 16 16 16 16 16 17 18 18 18 17 16 17 17 17 17 17 16 16 16 17 16 15 15 16
18 18 18 18 18 18 18 19 20 20 20 20 20 19 19 18 17 16 15 15 15 16 16 16 17 18 19 20 19 19 18 18 17 16 16 16 16 16 15 15 15 14 15 15 16 18 18 17 16 17 18 18 18 18 18 18 18 17 16 15 14 15 16
20 19 18 18 19 18 18 19 19 20 20 21 21 21 20 19 18 18 17 15 15 16 17 17 18 19 20 20 20 20 20 19 18 17 17 17 16 15 14 13 13 13 14 14 15 17 17 17 16 17 18 19 18 18 18 18 19 18 17 16 16 17 17
19 17 17 18 19 19 19 19 18 17 17 18 20 20 20 19 19 18 15 14 14 15 17 19 19 20 21 21 21 21 20 19 18 17 18 17 16 14 13 12 12 12 13 14 15 15 16 16 16 17 18 18 18 18 17 17 17 17 18 18 18 18 17
17 17 17 18 19 19 18 18 17 17 17 17 19 20 21 21 20 18 15 15 18 18 18 20 21 21 22 22 22 21 21 20 19 18 18 17 16 15 13 12 11 12 13 14 14 14 14 14 15 16 17 18 18 18 17 16 17 17 18 18 17 17 17
20 21 21 20 20 19 18 18 18 18 18 18 19 20 21 21 20 18 16 18 20 21 21 21 22 23 23 22 22 21 20 20 19 19 18 18 16 15 13 12 12 13 14 14 14 14 13 14 14 15 16 17 18 18 18 18 18 18 18 18 17 17 17
22 22 23 22 21 21 20 19 19 18 17 18 20 20 20 19 18 17 16 18 19 21 22 22 23 23 22 21 20 19 18 18 18 18 18 17 17 15 14 13 13 13 14 15 15 14 14 15 16 16 17 18 19 20 20 20 19 19 19 19 19 18 19
22 21 20 20 19 20 20 18 17 17 17 18 20 20 19 18 18 18 18 19 19 19 22 23 23 23 22 20 18 18 17 17 17 17 17 17 17 16 15 14 14 14 15 15 15 15 16 16 17 17 18 19 20 21 21 21 20 19 19 19 20 20 20
22 22 18 16 16 16 16 16 17 17 18 18 18 19 19 19 19 19 19 18 18 18 21 23 23 23 21 20 18 18 18 18 17 17 16 16 16 16 16 15 15 15 15 15 15 15 16 17 17 17 16 17 17 19 20 21 20 20 20 20 20 20 21
23 23 18 15 14 14 15 17 17 16 15 16 17 17 18 19 21 22 20 18 16 17 20 21 21 22 22 21 20 19 18 17 17 17 16 16 15 15 15 15 15 15 14 14 14 15 16 17 17 17 17 16 16 17 18 19 20 21 21 21 21 22 23
20 19 17 15 14 14 15 16 15 14 13 15 16 16 15 16 19 21 20 17 15 16 17 17 17 18 19 19 19 18 18 17 17 17 16 15 14 14 15 15 15 15 14 13 13 14 15 17 18 19 19 19 19 19 20 20 20 20 20 21 21 21 22
15 15 15 16 15 13 13 14 13 13 13 13 12 11 11 11 12 15 15 13 12 12 11 10 11 13 14 15 16 17 17 18 17 17 17 16 15 16 16 16 16 16 15 15 15 15 16 17 19 20 21 22 22 22 22 22 22 21 21 21 22 22 23
16 15 14 15 14 13 13 13 12 12 11 11 9 8 8 9 9 9 10 9 9 9 8 8 9 9 10 11 12 13 15 16 16 16 16 17 17 17 17 17 18 18 18 18 18 18 19 19 20 21 22 23 24 24 24 24 24 24 23 23 24 25 26
15 15 14 15 15 14 14 14 13 13 13 12 11 10 9 10 11 11 11 10 10 11 12 11 11 10 10 11 11 12 13 14 14 15 16 17 17 17 17 18 18 19 19 19 19 20 21 22 23 23 24 24 25 25 26 26 27 27 28 28 29 30 31
16 16 16 17 18 17 17 17 17 16 16 15 15 15 15 16 17 18 16 14 14 15 16 15 13 13 13 13 13 13 14 14 15 15 16 17 18 18 18 19 20 21 21 21 21 22 22 23 24 25 25 25 26 26 27 28 29 30 31 32 33 34 34
20 20 20 20 20 21 21 22 21 20 20 19 19 19 19 19 20 20 18 15 15 17 18 18 18 17 16 16 16 16 16 17 18 18 19 20 20 21 22 23 24 23 23 23 24 24 25 26 26 27 27 27 28 28 29 30 31 32 33 33 34 36 37
24 24 24 23 23 24 24 25 24 24 23 22 21 21 22 22 23 22 21 18 18 19 21 22 22 22 21 20 19 19 20 21 22 23 24 24 24 25 26 27 26 26 26 26 26 27 27 28 29 30 30 31 31 32 33 33 34 34 35 36 37 38 39
27 27 26 26 27 27 27 27 27 27 26 24 23 23 23 23 23 23 22 23 23 25 26 27 26 26 25 25 24 23 24 25 27 28 29 29 29 29 30 30 30 30 30 29 29 30 30 31 32 32 33 34 34 35 36 36 37 37 38 38 39 39 40
30 30 30 30 30 30 30 29 29 29 29 27 25 25 23 22 25 25 24 26 27 28 28 28 28 29 28 28 28 28 29 31 31 31 32 32 33 33 33 33 33 32 32 31 32 33 33 34 34 35 36 37 37 38 38 39 39 39 39 39 39 39 39
32 33 33 33 33 32 31 31 31 31 31 29 28 28 26 27 30 30 27 26 26 25 25 27 30 31 30 29 30 31 33 34 34 34 35 35 36 36 36 36 35 35 35 35 35 36 36 37 37 38 38 39 39 40 40 40 40 40 39 39 39 39 40
34 34 34 33 33 32 32 33 33 33 33 32 31 31 30 31 34 33 30 27 26 26 28 32 34 35 35 35 35 36 36 37 37 38 39 39 38 37 37 37 38 38 38 38 38 39 39 39 40 40 40 40 40 40 41 41 41 41 40 40 41 41 42
34 34 34 34 34 34 34 34 34 34 35 35 34 34 35 35 36 36 33 31 32 33 35 37 37 37 38 39 40 41 42 43 44 44 44 44 41 38 38 39 40 41 41 40 40 40 41 41 41 41 40 40 40 40 41 41 41 41 42 42 43 44 44
34 35 35 35 35 36 36 36 37 37 37 37 37 37 37 37 39 40 39 38 39 39 40 40 41 42 42 43 43 44 45 47 48 48 47 46 44 42 42 42 41 41 42 41 40 40 40 41 41 40 40 40 40 41 41 42 43 43 44 45 46 47 47
40 41 41 41 40 40 40 40 40 40 40 41 40 40 40 40 41 42 42 43 45 47 47 47 48 49 48 48 48 49 48 48 48 48 47 46 45 43 43 43 42 42 41 41 41 41 42 42 42 42 42 42 42 43 44 45 46 47 47 48 49 50 50
43 43 44 45 46 46 46 46 46 45 45 45 45 44 43 43 43 43 43 44 46 48 49 49 49 49 48 47 47 47 47 47 47 47 47 46 45 44 44 43 43 42 42 42 43 44 44 44 44 44 44 45 45 46 47 48 48 49 50 51 52 52 53
45 44 44 45 46 47 48 49 48 48 47 47 46 45 45 44 44 44 45 45 46 47 48 48 48 49 48 48 47 47 48 48 48 47 47 47 47 47 46 45 45 45 45 46 46 46 46 46 46 47 48 49 49 49 50 50 51 52 53 54 55 55 55

ECMWFFLT1_500_spd_072.txt.gz
Wind_Speed
20 20 20 20 18 17 19 19 19 19 19 19 19 18 17 17 16 16 15 15 14 14 14 14 14 14 14 13 13 12 12 13 13 13 13 13 13 13 13 13 13 12 11 11 11 12 12 12 11 12 12 12 13 13 14 15 15 16 16 17 17 17 16
22 22 22 20 18 18 19 19 20 20 20 20 19 18 17 16 15 15 14 14 14 14 14 15 15 15 15 14 13 13 13 13 14 14 14 14 13 13 13 13 12 12 12 12 12 12 12 11 11 11 12 12 13 14 14 15 16 16 17 17 18 18 17
25 24 24 22 20 20 20 20 20 21 21 20 19 18 16 14 13 12 12 12 13 13 14 14 15 15 14 14 13 13 13 14 15 15 15 15 14 14 13 12 12 12 12 13 13 12 12 12 11 11 12 12 13 14 14 15 16 17 17 18 18 18 17
28 29 26 23 22 21 21 21 22 22 21 20 18 16 14 12 11 10 10 11 12 13 13 14 14 14 14 14 14 14 14 15 15 16 16 15 15 14 13 13 13 13 13 13 14 13 13 12 12 12 12 13 13 14 14 15 16 17 18 19 19 19 18
25 27 24 23 22 22 22 23 23 22 21 20 18 16 13 11 11 10 10 11 11 12 13 14 15 15 15 15 15 15 15 15 15 15 15 15 15 15 14 14 14 15 15 15 15 15 14 13 13 14 14 14 14 14 15 16 17 18 19 19 20 19 19
19 20 20 21 22 23 23 22 22 21 21 21 19 17 15 13 13 12 12 11 12 12 13 14 15 16 16 16 15 15 15 15 15 15 15 15 15 15 16 16 16 16 16 16 16 16 16 15 15 15 15 15 15 15 15 16 17 18 19 20 20 20 21
17 19 21 22 22 22 21 21 21 21 21 21 20 19 18 16 15 14 13 12 12 12 12 13 14 15 16 16 15 15 15 15 15 15 15 15 16 16 17 17 17 17 18 18 18 18 17 16 16 16 16 16 16 15 16 17 17 18 19 20 20 21 21
16 19 20 20 20 20 19 20 20 19 19 19 20 19 17 16 15 15 14 13 12 11 11 12 13 14 15 15 15 14 13 14 14 14 15 15 16 16 17 17 17 18 18 19 19 18 18 17 17 17 17 17 16 16 16 16 17 18 19 20 21 21 22
15 17 19 19 20 20 19 19 18 17 18 19 18 17 16 16 15 15 14 13 12 12 12 12 13 14 15 15 14 13 12 12 12 12 13 14 14 15 16 16 17 17 18 19 19 19 18 18 18 18 18 17 16 16 16 16 17 18 19 20 21 22 22
17 18 19 19 20 20 19 19 18 18 18 18 17 16 15 15 15 14 14 13 12 12 13 13 13 14 15 15 14 14 13 12 12 12 12 12 13 13 14 15 16 17 18 19 19 19 19 19 19 19 19 18 17 17 17 17 17 19 20 20 21 22 22
18 18 19 19 20 20 20 19 19 18 18 17 16 14 14 15 15 14 12 11 11 12 13 14 14 14 15 15 15 15 14 13 12 12 12 12 12 13 14 15 16 17 18 20 20 20 19 19 20 20 20 19 18 18 17 18 18 19 20 20 22 22 23
17 16 17 19 20 20 20 19 19 18 17 16 15 14 15 16 15 14 12 12 12 12 13 14 15 15 15 16 16 16 16 15 14 14 13 13 13 14 14 15 16 18 19 20 21 21 20 20 20 21 20 20 19 19 19 19 19 20 20 21 23 23 23
16 15 16 18 19 18 18 18 17 16 16 16 16 16 17 17 17 16 15 15 14 14 14 15 16 16 16 16 17 18 18 17 17 16 15 15 15 15 15 16 17 18 20 21 21 21 20 20 20 20 20 20 19 19 19 20 20 21 21 22 24 24 24
17 17 17 18 18 17 17 16 16 15 15 15 16 17 18 18 18 18 18 18 16 15 14 15 15 17 17 18 18 19 19 19 19 18 17 16 16 16 16 16 17 19 20 20 21 20 20 19 20 20 20 19 20 20 20 21 21 22 22 24 25 25 24
18 18 18 18 18 18 17 17 16 15 13 12 12 13 14 15 16 16 17 17 15 15 14 13 13 15 18 19 19 19 20 20 20 19 18 17 17 17 18 18 18 18 19 20 20 20 19 19 19 19 19 20 20 21 21 21 22 23 24 25 26 25 25
21 20 19 19 19 18 17 16 16 14 13 11 10 10 11 12 13 14 15 15 14 15 16 15 14 14 15 17 19 20 20 21 21 20 19 19 19 19 19 19 20 20 20 20 20 20 20 19 19 19 20 20 21 21 21 22 22 23 24 25 26 26 25
24 22 21 20 19 18 17 16 15 14 13 11 10 11 12 13 14 15 15 15 14 16 17 17 16 15 14 15 17 20 21 21 21 21 20 20 20 20 20 21 21 21 21 21 21 20 20 20 20 20 20 21 21 21 21 21 22 23 24 24 25 25 26
25 24 23 21 19 18 17 17 16 15 14 12 12 13 13 14 15 16 16 15 16 18 18 17 18 17 14 13 15 19 21 21 22 23 23 21 20 19 20 21 21 21 21 21 21 21 21 21 21 22 21 21 21 21 21 22 22 23 24 24 24 25 25
24 25 25 22 20 18 18 18 18 16 15 14 13 13 14 15 16 16 16 16 18 20 20 19 19 16 14 12 14 18 21 22 22 23 24 22 19 18 19 20 21 22 22 22 22 21 21 22 22 22 22 22 22 22 22 23 23 24 24 25 25 25 25
25 26 25 23 20 18 17 17 17 16 15 14 13 14 15 16 15 15 16 17 19 21 21 20 19 16 13 12 14 17 20 21 22 23 24 23 20 19 19 19 20 22 22 22 22 23 23 23 23 23 23 23 23 23 23 23 24 24 25 25 25 25 25
28 28 25 23 21 18 17 17 15 14 14 13 14 15 15 14 14 15 16 17 19 19 19 18 18 16 14 12 14 17 19 20 22 23 23 23 21 20 19 19 20 21 22 23 23 23 23 24 24 24 24 24 24 24 23 23 23 23 23 24 24 24 25
28 30 26 23 21 19 17 16 15 14 14 14 14 14 14 15 15 15 15 15 16 17 18 18 18 17 15 14 15 17 18 20 21 22 23 22 21 20 20 20 20 20 21 22 23 23 23 23 23 23 23 22 22 22 22 22 23 23 23 23 24 24 26
22 27 27 24 23 21 18 16 15 15 14 14 13 14 14 14 14 14 13 12 12 14 17 18 18 16 15 14 14 14 15 17 18 20 21 21 21 21 21 21 21 21 21 21 21 21 21 21 21 21 21 21 21 21 22 23 23 24 24 24 25 26 27
15 20 24 24 24 23 20 17 15 14 14 14 13 12 12 11 11 11 11 9 9 10 12 14 13 12 12 11 11 12 13 15 17 18 19 19 20 21 21 22 22 21 21 20 20 21 21 21 21 20 21 21 22 22 22 23 23 24 25 25 26 27 28
14 16 20 21 22 22 21 19 17 15 15 15 14 13 13 13 12 12 10 10 9 10 11 11 11 11 11 11 11 12 13 16 17 18 18 18 19 20 20 20 21 21 21 21 21 21 22 22 22 21 21 21 22 23 23 23 24 25 25 26 27 28 28
17 17 18 19 20 20 20 19 18 17 16 16 16 16 16 16 16 15 14 13 13 13 14 14 14 14 14 13 13 13 15 17 18 18 19 19 18 18 19 19 20 21 22 22 22 23 23 23 23 23 23 23 24 24 25 25 25 26 27 27 28 28 29
20 20 19 19 20 21 20 20 19 19 18 18 18 18 19 19 18 17 17 17 17 17 17 17 17 16 15 15 15 15 16 17 19 19 20 21 21 21 20 21 21 22 23 24 25 25 25 25 25 25 25 25 27 27 27 27 28 28 29 29 30 31 32
21 21 21 21 21 22 23 23 22 21 21 21 21 21 22 22 21 20 20 20 20 20 19 19 19 19 19 20 20 19 19 20 22 23 24 24 24 25 24 24 25 25 26 27 27 28 28 28 28 27 25 26 29 31 31 31 31 31 31 32 32 33 35
23 23 23 23 23 24 25 24 23 23 23 23 24 24 25 26 25 23 23 23 23 23 21 21 22 22 23 25 25 24 23 24 25 26 27 27 27 27 28 28 28 29 30 31 31 31 31 31 31 31 29 29 32 35 36 35 34 34 35 35 36 37 38
26 26 26 26 26 26 26 26 24 24 25 26 26 27 28 28 28 27 26 26 25 24 23 23 24 25 26 28 29 28 28 28 29 30 31 31 31 31 31 32 33 33 34 34 34 35 35 35 35 36 35 34 36 37 37 37 37 37 38 38 39 40 41
30 30 30 30 30 30 30 29 29 29 29 30 30 30 30 30 30 30 30 29 27 26 26 27 27 26 27 29 30 30 30 30 30 31 33 34 35 35 36 36 36 37 37 36 36 36 37 38 39 40 40 39 39 39 38 39 39 40 41 41 42 43 44
34 34 34 34 33 33 33 33 33 33 33 33 33 32 32 32 33 33 33 33 30 29 29 31 30 29 29 29 30 31 32 33 33 33 33 36 37 38 38 38 38 39 39 39 39 40 41 42 43 43 43 43 42 41 41 42 42 42 43 43 44 46 47
38 37 37 37 36 36 36 37 37 37 37 37 36 35 34 35 35 35 35 35 34 32 32 32 32 32 32 33 33 34 36 37 36 35 35 36 38 39 40 41 41 42 42 44 46 47 47 47 46 46 46 46 45 45 45 45 45 44 44 44 46 48 49
39 39 39 39 39 39 38 38 37 37 37 37 37 36 36 36 36 37 37 37 37 37 35 34 34 34 35 35 37 39 41 39 37 37 38 38 39 41 44 46 47 47 46 46 47 49 49 49 49 49 49 49 49 49 48 47 47 46 46 46 47 49 50
37 37 37 37 37 37 36 36 36 37 37 37 37 37 37 36 36 38 40 40 40 40 39 38 37 37 38 39 40 42 44 44 44 44 44 43 43 44 46 48 48 46 45 45 46 47 48 48 49 50 51 52 52 51 50 48 48 48 48 48 49 50 50
35 35 35 36 37 38 39 40 42 42 42 42 42 42 42 41 41 43 44 44 44 44 44 42 42 42 42 43 43 45 47 50 51 52 51 50 49 46 46 49 51 49 47 47 47 47 47 48 49 50 50 51 51 51 50 50 50 50 49 49 50 50 50
38 39 40 41 43 45 46 46 47 46 46 46 46 46 46 46 47 48 48 48 48 47 46 46 46 46 46 47 47 48 49 51 53 55 55 55 54 49 44 46 50 50 48 48 48 47 48 49 49 50 50 51 51 51 51 51 51 50 50 50 51 52 53

ECMWFFLT1_500_spd_075.txt.gz
Wind_Speed
20 19 20 20 19 20 20 20 21 21 21 20 20 19 19 19 18 18 17 17 17 16 16 15 15 14 14 13 13 12 11 11 11 11 12 12 13 13 13 13 13 13 12 12 12 12 12 12 12 12 12 11 12 12 12 12 12 12 12 12 12 12 13
19 19 20 19 19 20 21 21 22 23 22 21 21 20 20 19 19 18 17 17 16 16 16 15 15 15 15 14 14 13 13 13 13 12 12 12 12 13 13 13 13 13 13 13 12 12 13 13 13 13 13 12 12 13 12 12 12 12 12 12 12 12 13
19 20 20 19 20 21 22 22 23 23 22 21 21 20 20 19 19 18 17 16 16 15 15 15 15 15 15 15 15 14 14 14 14 13 13 12 12 13 13 14 14 14 14 14 14 13 14 14 14 14 13 13 12 12 12 12 12 12 12 12 13 13 13
20 22 21 21 22 23 22 23 23 22 22 21 21 20 20 19 18 17 16 15 14 14 14 14 14 14 14 15 15 15 15 15 14 14 14 13 12 13 14 14 14 14 15 15 14 14 14 14 14 14 13 13 12 12 12 12 12 12 13 13 13 13 14
22 24 24 23 23 24 23 23 23 22 21 21 20 20 19 18 18 16 14 13 12 11 11 12 12 13 14 15 16 16 16 16 15 15 14 14 13 13 14 14 14 14 15 14 14 14 14 14 14 14 14 13 13 13 14 14 14 14 14 14 14 14 14
22 24 27 27 26 26 24 23 23 22 21 20 19 20 20 19 18 16 13 11 10 10 10 11 13 14 15 16 17 17 17 16 15 15 14 14 14 14 14 14 14 14 14 14 14 14 14 15 15 16 16 16 16 16 16 16 16 16 16 15 15 15 16
17 19 23 27 27 26 23 23 23 22 21 20 20 21 21 20 18 16 14 12 12 11 11 12 13 14 15 16 17 17 17 17 16 16 15 15 15 15 15 15 15 15 15 15 14 14 14 14 15 16 17 17 17 17 17 17 17 17 17 16 16 16 16
10 11 14 19 22 22 21 22 23 22 21 20 21 22 22 20 19 17 16 15 13 12 12 12 12 14 15 16 17 17 17 17 17 17 16 16 16 16 16 16 16 16 15 15 14 14 14 14 15 16 17 17 18 18 18 18 18 18 17 16 16 16 16
7 8 11 16 18 19 20 21 22 21 21 20 21 21 21 20 19 18 17 16 14 13 13 13 14 15 15 16 17 18 18 17 17 16 16 16 16 16 16 17 16 16 15 15 14 14 14 14 15 16 17 17 17 17 17 17 17 17 17 17 16 16 16
9 9 11 14 16 18 19 19 20 20 19 19 20 20 20 19 18 18 17 16 15 14 14 14 15 15 16 16 17 17 17 17 16 15 15 15 15 15 15 15 15 15 15 14 14 14 14 15 16 16 17 17 17 17 18 17 18 18 17 17 17 17 17
11 11 10 11 14 16 17 18 18 18 17 18 18 19 18 18 17 18 17 16 15 15 14 14 15 15 15 16 16 17 17 17 16 15 14 14 14 14 14 15 15 15 15 15 15 15 15 16 17 17 17 17 18 18 18 18 18 19 18 18 18 18 17
14 13 12 11 13 15 16 16 16 16 16 17 18 18 17 17 17 17 16 16 15 14 14 14 14 15 15 15 15 16 17 17 17 16 15 15 15 15 15 15 16 16 16 16 15 16 16 17 18 18 18 18 19 19 19 19 19 19 18 18 18 18 18
15 15 14 13 14 15 15 15 15 16 17 18 18 18 18 17 17 17 17 16 16 15 14 15 15 15 15 15 16 16 17 17 17 17 17 17 16 16 17 17 17 17 16 16 16 17 17 18 18 19 19 19 19 19 19 19 19 19 18 18 18 19 19
15 16 17 16 16 15 15 14 15 16 17 18 18 17 17 17 17 17 17 18 18 18 18 17 17 16 16 16 17 18 17 17 17 18 18 18 19 19 19 19 19 18 18 18 18 18 18 19 19 19 19 19 19 19 18 18 18 18 18 19 19 20 20
16 17 18 18 17 16 15 14 15 16 17 17 16 16 16 17 18 18 19 20 21 21 20 19 19 19 18 19 19 19 18 18 18 18 18 19 20 20 20 21 20 20 20 20 19 19 20 20 20 19 19 19 19 18 18 18 18 19 19 20 20 21 21
17 17 18 18 18 17 16 15 16 16 16 16 16 16 17 18 18 18 19 20 21 20 19 18 19 20 20 20 20 20 20 19 18 18 19 19 20 20 21 22 22 22 22 21 21 21 21 21 21 20 20 20 19 19 18 19 19 20 21 21 21 22 22
19 20 20 20 19 18 17 18 18 17 17 17 17 17 16 17 17 17 18 18 18 18 17 18 19 20 21 20 20 20 20 20 20 19 19 19 20 21 22 22 23 23 23 23 22 22 22 23 22 22 21 21 21 20 20 20 21 21 22 22 22 23 23
20 22 22 22 21 20 19 19 19 18 18 18 18 18 17 17 17 17 17 17 18 18 18 19 20 21 22 22 21 21 21 21 21 20 20 20 21 22 22 23 23 23 23 23 23 23 23 24 23 23 22 22 22 22 22 22 22 23 23 24 24 24 25
21 23 23 23 23 22 20 20 20 19 19 19 19 19 19 20 19 17 17 17 18 19 19 20 20 20 21 22 22 23 23 22 21 21 21 21 22 23 23 23 23 23 23 23 23 23 24 24 24 23 23 23 23 23 23 23 23 23 24 24 25 25 25
21 22 22 22 23 23 22 21 20 20 21 21 21 21 21 20 19 18 17 18 18 19 19 19 19 20 21 22 22 22 23 23 22 21 21 21 22 23 23 24 24 23 23 23 23 24 24 24 24 24 24 24 24 24 24 23 23 24 24 25 25 25 25
19 21 22 21 21 23 23 22 22 22 22 22 22 23 22 21 19 18 18 19 18 18 18 19 19 20 22 22 22 22 23 24 22 20 20 20 22 23 23 24 24 24 24 24 24 24 24 24 25 25 25 24 24 24 24 24 24 24 24 24 24 24 24
19 20 21 21 22 23 23 23 23 23 23 23 23 23 22 21 20 19 19 18 18 18 19 19 20 20 21 21 21 22 22 23 22 20 19 20 21 22 23 24 24 25 25 25 25 25 24 25 25 26 26 26 26 25 25 24 23 23 22 22 22 23 23
19 19 19 22 24 24 25 25 25 24 23 23 23 22 21 20 19 19 19 18 18 18 19 19 19 18 19 20 20 21 22 22 21 20 19 20 20 21 22 23 24 25 25 26 26 26 26 25 26 26 26 27 26 26 24 24 23 23 22 22 23 23 24
20 19 20 21 23 26 28 28 27 25 24 23 21 20 20 20 19 19 18 17 16 17 17 17 16 15 17 18 20 20 20 19 19 18 18 19 19 20 22 23 24 25 26 26 27 27 27 27 26 26 26 26 26 25 25 25 25 25 24 24 24 25 25
20 20 20 21 25 30 31 29 28 26 23 22 21 20 20 20 19 18 17 16 15 15 14 13 12 12 13 15 16 16 15 15 15 16 16 16 17 19 21 22 24 25 26 26 27 28 28 27 27 27 27 27 27 26 27 27 27 27 27 27 27 27 27
18 19 19 20 25 30 29 27 27 26 22 21 21 21 21 20 19 19 18 18 17 16 15 13 12 11 12 13 14 14 13 14 14 15 15 15 16 17 20 22 23 25 26 26 27 28 28 29 29 29 29 29 29 29 29 29 29 29 29 29 29 29 29
19 19 20 20 21 23 24 22 23 23 22 21 21 22 22 21 20 20 20 20 20 19 18 16 15 15 15 15 15 15 15 16 16 16 16 17 17 19 20 21 23 24 26 26 27 28 29 30 30 31 31 32 32 32 32 32 31 32 32 32 32 32 31
21 20 20 20 19 19 20 20 20 22 23 23 23 23 23 23 22 21 21 22 22 22 20 19 18 18 18 18 17 17 18 18 19 19 19 20 20 22 22 23 24 25 26 27 28 29 30 32 33 33 34 35 35 35 35 35 34 34 34 34 35 35 34
21 21 21 21 21 20 20 20 21 22 23 24 25 24 24 24 24 24 24 24 24 24 23 22 21 20 20 20 19 19 20 21 21 22 23 24 25 26 26 26 27 28 28 28 29 30 31 33 34 35 36 37 37 38 37 37 37 36 36 36 37 37 37
21 21 21 22 22 22 22 22 22 23 24 26 26 26 26 26 27 27 27 27 27 27 26 25 24 22 22 22 23 23 23 23 24 25 27 28 30 31 31 31 31 31 32 32 32 32 33 34 36 37 38 39 40 40 39 39 39 38 37 38 40 41 42
22 22 23 23 23 23 23 23 24 25 26 27 28 28 29 29 30 30 30 29 30 30 29 29 28 26 25 25 25 26 26 27 27 28 29 31 32 34 35 35 35 35 35 36 36 36 37 37 39 40 41 42 42 42 41 41 41 40 39 41 44 45 46
24 24 24 25 25 25 26 26 27 27 28 29 30 31 31 31 32 33 33 33 33 33 32 32 31 31 30 29 29 29 30 31 31 31 31 32 33 34 36 37 38 38 38 38 39 40 40 42 43 44 44 43 43 43 43 43 44 44 44 45 46 47 48
26 26 26 26 27 28 28 29 30 30 31 32 33 33 34 35 35 36 36 36 36 36 36 36 36 35 35 34 34 34 35 35 35 35 35 34 34 35 37 38 40 40 40 39 40 41 43 44 46 47 46 45 45 46 47 48 49 49 49 48 48 48 49
30 31 31 31 32 32 33 34 34 35 35 36 37 37 38 39 39 40 40 39 38 38 39 39 39 39 39 39 39 39 40 40 39 39 39 38 37 38 39 41 42 42 41 41 41 43 45 46 48 49 50 50 50 50 51 52 52 50 49 49 50 49 50
34 35 36 37 37 37 37 37 38 39 39 40 40 41 41 42 42 42 41 40 39 39 40 40 41 41 42 42 42 42 44 44 43 42 42 42 42 42 42 43 45 45 45 45 44 45 48 49 50 52 51 50 49 49 49 50 50 49 48 48 49 50 51
36 37 38 38 38 38 38 39 39 40 41 41 42 42 42 43 42 42 41 41 40 41 41 42 42 43 43 43 43 43 45 46 46 46 45 45 45 45 45 46 46 47 48 49 49 49 50 50 51 52 51 49 50 51 50 50 50 50 50 49 49 50 51
35 36 36 37 37 38 38 38 38 39 39 40 41 41 42 43 43 43 43 44 44 45 46 47 47 48 48 48 48 48 48 48 49 50 49 49 48 47 47 48 49 49 51 51 51 52 53 51 52 54 54 52 53 54 53 52 52 52 51 50 50 51 52

ECMWFFLT1_500_spd_078.txt.gz
Wind_Speed
25 23 21 20 18 16 15 15 16 17 19 19 20 20 20 21 21 21 20 19 17 16 15 14 15 15 14 13 13 12 12 12 12 12 12 13 13 14 14 14 14 14 14 13 14 14 14 15 15 15 14 13 12 11 11 10 10 10 10 10 10 10 10
25 23 22 20 18 17 17 16 17 19 20 21 21 21 21 21 21 20 19 17 16 15 14 15 15 15 15 14 14 14 14 13 13 13 13 13 13 13 14 14 14 14 14 14 15 15 15 15 16 16 15 14 13 12 11 11 11 11 10 10 10 11 11
23 22 21 20 18 18 18 17 19 21 21 21 21 22 22 21 20 19 17 16 15 14 15 15 15 16 15 15 15 15 15 14 14 14 14 14 14 13 13 14 14 14 14 14 15 15 15 16 16 16 16 15 14 13 13 12 12 11 11 11 11 11 11
21 20 19 19 18 18 19 20 21 22 22 22 22 23 22 20 19 18 17 16 15 15 15 15 15 15 15 15 15 15 14 14 14 14 15 14 14 14 14 14 15 15 15 14 15 15 15 15 15 15 16 16 15 14 14 14 13 13 12 12 11 12 12
21 19 18 18 18 19 19 21 22 23 23 22 22 22 21 19 18 17 16 16 16 15 15 15 14 14 14 15 15 14 14 14 14 14 15 15 15 15 15 15 15 15 15 14 14 15 15 14 14 15 16 16 15 15 15 15 14 14 14 13 13 13 14
20 19 18 19 20 22 23 23 24 25 24 23 23 22 20 19 18 17 17 16 15 15 14 13 13 12 13 13 14 14 14 15 15 15 16 16 16 16 15 15 15 15 15 14 14 14 14 14 14 15 15 16 16 16 15 15 15 15 15 14 15 15 15
20 20 19 21 23 25 27 27 27 27 25 23 22 21 19 19 18 17 17 16 15 14 13 12 12 12 13 13 14 15 15 16 16 16 17 17 17 16 15 15 15 15 14 14 14 14 15 15 15 15 15 16 16 15 15 15 15 15 15 15 15 16 16
18 18 20 22 23 24 29 33 32 28 25 22 21 20 20 19 19 18 17 16 15 14 14 14 14 14 14 14 15 16 16 17 18 18 18 18 17 16 16 15 15 15 14 14 15 15 16 16 16 16 16 16 16 16 16 16 16 16 16 16 16 16 16
12 13 16 20 22 24 29 34 32 25 22 21 20 20 20 19 19 18 18 17 16 17 17 18 18 17 16 16 16 17 18 18 19 19 19 18 18 17 16 15 15 14 14 15 15 16 16 16 16 16 16 16 16 16 16 16 16 16 16 16 16 16 17
13 12 12 14 17 19 24 28 27 22 19 20 20 19 19 19 20 20 20 19 19 20 20 20 20 19 18 17 17 17 18 18 18 18 18 18 17 17 16 15 14 14 14 14 14 15 15 16 16 16 16 17 17 16 16 16 16 16 16 16 17 17 17
14 13 12 12 13 15 19 23 22 19 17 18 19 19 19 20 21 22 21 21 21 21 20 20 19 19 18 18 18 18 18 18 18 18 17 17 17 17 16 15 14 13 13 13 14 14 15 16 16 16 17 17 17 17 17 17 17 16 17 17 18 18 18
15 14 14 13 12 12 15 17 17 16 17 18 18 19 20 21 21 21 21 21 21 20 20 20 18 17 17 18 18 18 18 18 18 18 18 18 18 17 17 16 15 14 14 14 14 14 15 16 16 16 17 17 17 18 18 17 17 17 18 18 18 18 18
16 15 15 14 13 13 13 14 15 15 17 18 18 18 19 19 19 20 20 20 20 21 20 19 17 15 15 16 18 18 19 19 19 19 19 19 19 18 18 17 16 16 15 15 15 15 16 17 17 17 18 18 18 18 18 18 18 18 19 19 19 18 18
17 16 15 15 15 15 15 15 15 16 16 16 16 17 18 18 18 19 20 21 20 20 20 19 17 16 16 17 17 18 19 20 20 20 20 20 20 20 19 19 18 17 17 16 16 17 17 18 19 19 19 19 19 20 19 19 18 19 19 19 19 19 18
17 17 17 17 17 17 17 17 17 17 16 16 17 18 18 19 19 20 20 20 20 20 20 19 19 19 19 19 19 20 20 21 21 21 21 21 22 21 21 20 19 18 18 18 18 19 19 20 20 20 20 20 21 21 21 20 20 20 19 19 19 19 18
16 17 17 18 19 19 20 20 19 19 18 18 19 19 19 20 20 20 20 20 20 20 20 21 22 22 22 21 20 21 21 21 21 22 22 23 23 23 22 21 20 19 19 19 19 20 20 20 20 20 21 21 22 23 23 22 22 21 20 20 20 20 19
17 17 17 18 20 21 22 22 20 20 20 20 20 19 19 20 20 20 20 20 20 20 21 22 22 22 22 21 21 20 21 21 22 22 23 24 24 24 23 22 21 20 20 20 20 20 20 21 21 21 21 21 22 23 23 23 23 23 22 21 21 20 21
20 19 19 19 20 21 22 22 21 21 21 21 20 20 20 20 21 21 20 20 21 21 21 22 22 22 22 22 22 22 22 22 23 23 24 24 25 25 25 24 22 22 21 21 21 21 21 21 21 21 21 22 22 23 23 24 24 24 23 23 22 22 22
21 20 19 19 20 21 22 22 22 22 22 22 21 21 21 21 22 21 21 21 21 21 21 22 22 23 23 23 23 24 24 25 26 26 25 25 25 26 26 25 24 23 22 21 21 21 21 22 22 21 21 22 23 23 23 24 24 24 24 24 23 23 23
19 19 19 19 21 22 23 23 23 22 22 22 23 22 22 23 23 22 22 23 23 22 23 23 23 23 23 23 23 24 25 26 27 28 27 27 27 27 27 27 26 24 23 22 21 21 21 21 22 22 22 22 23 23 23 24 24 24 25 25 25 25 25
19 18 19 19 21 21 22 23 24 24 23 23 24 24 24 24 24 24 24 25 24 24 24 24 23 23 23 23 23 23 25 27 28 28 28 28 28 28 28 28 27 26 24 23 22 21 21 21 22 22 22 23 23 23 23 24 24 25 25 26 26 26 26
19 18 18 19 20 20 20 22 24 25 24 23 24 25 25 25 25 25 26 26 25 25 24 24 23 23 23 22 22 23 25 26 27 28 27 27 28 29 29 29 28 27 25 24 23 22 22 22 22 23 23 23 23 23 24 24 24 25 26 26 27 27 27
18 17 17 19 21 20 20 21 23 24 25 25 25 26 26 26 26 27 28 27 26 26 25 23 23 22 22 22 23 24 25 26 27 27 27 26 27 29 30 30 29 28 26 24 23 23 23 23 24 24 24 24 24 25 25 25 25 26 27 27 27 27 27
18 18 17 19 20 18 19 21 23 24 26 27 27 27 27 28 28 28 29 28 27 26 25 23 23 23 22 22 22 23 23 24 24 24 25 26 27 29 30 30 29 28 27 26 24 24 24 24 25 25 26 26 26 26 27 27 27 27 28 28 28 28 28
21 21 20 19 19 18 20 22 24 26 28 29 28 28 28 28 28 29 29 28 27 26 24 23 22 22 21 20 20 21 22 22 22 24 26 28 28 28 28 29 29 28 28 27 26 25 25 26 26 26 27 27 27 28 28 29 29 29 29 29 29 30 30
22 22 21 20 20 21 24 26 27 27 28 29 29 29 29 28 28 29 28 27 27 26 24 22 21 20 19 18 18 19 19 20 21 22 25 26 26 25 25 26 26 27 27 27 27 27 27 27 27 28 28 28 28 29 29 30 31 31 32 32 32 33 33
21 21 20 20 21 21 24 26 27 27 27 28 30 30 30 29 28 27 27 27 27 25 23 23 22 21 20 18 18 19 19 19 19 19 20 21 21 22 22 23 23 24 26 27 28 28 28 28 29 29 29 29 30 30 31 32 33 34 34 35 36 36 36
20 20 20 19 20 20 22 24 24 23 23 25 28 29 28 26 26 26 27 27 27 25 25 24 24 23 22 21 21 21 22 22 21 21 20 21 21 21 22 23 23 23 24 25 26 28 29 30 30 30 31 31 31 32 33 34 35 36 37 38 39 40 40
19 20 20 20 20 21 22 23 23 22 20 20 23 26 25 23 24 26 27 28 28 27 27 26 26 26 25 24 23 23 24 25 25 25 24 24 24 25 26 26 26 26 26 26 26 27 29 30 31 32 32 33 34 35 36 37 38 39 40 41 42 43 43
20 20 20 21 21 21 21 22 22 21 19 18 20 23 24 24 25 27 28 29 29 29 29 28 28 27 27 26 26 26 26 27 27 28 28 28 29 30 30 31 31 30 29 28 29 30 30 31 32 33 34 35 37 37 38 39 41 42 43 44 45 45 46
21 21 22 22 22 21 21 21 21 20 19 19 20 22 23 24 25 26 27 28 29 29 30 30 30 29 29 30 29 29 29 30 30 31 32 32 33 34 35 35 35 33 32 30 31 32 33 34 35 36 36 37 39 40 41 42 43 44 45 46 47 47 47
22 23 24 24 24 23 23 23 23 22 21 21 21 22 23 24 25 26 28 30 31 31 31 32 33 33 33 33 33 33 33 33 33 33 34 35 37 38 39 38 38 37 36 34 34 35 35 35 36 37 38 39 40 41 43 44 44 44 45 47 46 46 47
23 24 25 25 26 25 25 25 25 25 25 24 24 24 25 26 27 28 30 32 32 33 34 35 36 37 37 37 37 37 37 38 38 37 38 39 40 41 42 42 42 41 39 38 37 38 37 37 38 38 40 42 43 44 45 47 47 46 47 49 49 48 49
23 24 25 26 26 27 27 27 26 27 27 27 27 28 29 30 31 32 33 34 34 35 36 37 38 39 40 41 40 39 39 40 41 41 41 42 42 43 44 44 45 45 44 43 42 41 40 41 41 41 42 43 43 42 43 46 49 49 51 54 55 55 55
24 24 25 26 27 28 28 29 29 30 30 31 32 32 33 34 35 37 38 38 39 40 40 41 42 43 44 44 44 44 43 43 43 44 44 44 44 45 45 46 47 48 48 48 48 46 46 46 45 45 45 46 45 42 40 43 46 49 51 53 54 54 55
25 26 27 28 29 31 32 33 33 34 35 36 36 37 38 38 39 40 41 41 42 43 44 45 45 46 47 47 47 47 47 45 44 44 45 46 46 47 48 48 49 50 51 51 51 50 50 50 50 49 49 51 51 50 47 46 45 47 51 53 52 52 54
27 27 29 30 31 32 34 35 36 37 38 38 39 39 39 39 40 40 41 42 43 44 45 45 45 46 46 47 47 47 48 48 47 47 48 49 49 50 51 51 52 53 53 54 54 54 54 54 54 54 54 54 55 55 55 53 52 53 56 57 56 55 55

ECMWFFLT1_500_spd_081.txt.gz
Wind_Speed
24 23 22 22 21 21 22 22 21 19 18 17 16 15 15 16 16 16 16 17 18 18 18 17 15 13 13 12 12 11 11 12 12 12 12 12 12 12 12 12 12 12 12 13 13 13 13 13 13 12 13 13 13 13 13 13 13 12 12 14 14 14 14
23 22 21 22 23 23 22 21 20 19 19 18 17 16 16 16 16 16 16 16 17 17 17 15 13 12 12 11 12 11 12 13 13 12 11 12 12 11 11 11 12 12 12 13 14 14 14 13 13 13 14 14 13 13 13 13 13 13 14 14 15 15 15
23 23 23 23 24 23 22 21 21 20 19 19 18 17 16 15 15 16 16 16 16 16 14 13 12 12 11 11 12 12 13 13 14 13 13 13 13 12 12 12 12 13 13 13 14 14 14 14 14 14 14 14 13 14 14 14 13 13 14 14 15 15 15
23 23 24 24 23 22 20 19 20 20 20 19 18 17 16 15 15 15 15 15 14 13 12 11 10 11 11 12 12 13 13 14 15 15 14 15 14 13 13 13 13 13 14 14 14 14 15 15 15 15 14 13 13 13 14 13 13 13 13 14 14 14 14
23 23 24 23 23 22 20 20 21 21 20 20 19 17 16 15 14 14 14 14 13 12 10 10 10 11 12 12 12 13 13 14 15 15 14 15 14 14 14 14 14 14 15 15 15 15 15 16 16 15 14 13 13 13 13 13 13 14 14 14 14 15 15
24 24 23 23 23 23 22 22 22 21 21 21 19 17 16 14 14 14 14 14 13 12 11 11 11 11 11 11 11 11 12 12 13 13 13 13 14 14 14 14 15 16 16 15 15 15 16 16 15 15 14 14 14 14 14 14 15 15 15 15 15 15 15
24 24 23 23 22 22 22 21 21 22 22 21 19 18 16 15 15 14 14 14 13 12 12 12 12 11 11 10 10 10 10 11 11 12 12 13 14 15 15 15 16 16 15 15 15 15 16 16 16 15 15 14 15 15 15 16 16 16 16 16 16 16 16
22 22 22 21 20 20 20 21 22 22 23 21 19 18 17 16 16 15 14 14 13 12 12 12 12 12 11 11 10 11 12 12 13 13 14 14 16 16 15 15 16 16 15 15 16 17 16 16 16 16 15 15 15 16 16 17 16 16 17 17 17 17 17
20 19 20 20 19 19 20 22 23 24 25 24 21 19 18 18 17 16 15 14 13 13 12 13 13 13 13 13 14 15 15 15 16 16 16 16 16 16 15 16 16 16 16 16 17 17 16 16 16 16 16 15 16 16 17 16 16 16 17 18 18 18 18
20 18 17 18 19 21 23 23 24 24 24 26 26 23 19 19 18 17 16 15 14 14 14 15 15 15 16 16 17 18 18 18 18 17 17 17 16 16 15 16 17 17 16 17 18 17 17 17 16 15 15 15 15 17 16 16 16 16 17 18 18 18 18
20 18 17 16 16 18 21 22 23 22 22 25 27 25 20 18 18 18 17 16 15 15 16 17 17 18 18 18 18 18 18 18 18 18 18 18 18 17 16 16 17 16 17 17 18 18 17 17 16 15 15 14 15 17 16 15 16 16 17 18 18 18 18
21 20 19 17 16 17 18 19 19 19 20 21 23 21 18 17 17 17 17 16 16 17 18 19 19 19 18 18 18 18 17 18 18 18 19 18 18 18 17 17 17 17 17 18 18 18 17 17 16 15 15 15 16 17 17 16 16 17 18 18 18 18 18
21 22 20 19 19 19 18 18 18 17 16 17 19 17 16 16 16 17 17 17 17 18 19 19 19 18 18 17 17 16 16 16 17 18 18 18 18 18 18 18 18 18 18 18 18 18 18 17 16 16 16 16 17 17 17 17 17 18 18 19 18 18 18
22 23 22 21 20 19 18 19 19 15 13 14 16 15 15 16 17 17 18 18 18 18 18 18 18 18 17 17 16 15 15 16 17 17 18 18 18 18 19 19 19 20 20 20 19 19 19 18 18 18 18 18 18 18 18 18 18 18 18 19 19 18 18
23 23 23 22 21 20 20 20 19 16 14 14 15 14 15 16 17 17 18 18 18 18 18 18 18 18 17 17 17 17 17 17 18 18 19 19 19 19 20 21 21 21 22 22 22 21 21 20 19 19 19 19 19 19 19 18 19 19 19 19 19 19 19
21 21 21 21 20 20 21 21 20 18 17 17 17 15 15 15 16 17 18 18 18 19 18 18 18 17 18 19 20 20 19 19 20 20 21 21 20 20 21 22 22 22 23 24 24 24 24 22 21 21 20 20 20 20 20 19 19 20 20 20 20 20 20
19 19 19 19 20 20 21 21 21 21 20 20 20 19 19 18 19 20 20 20 19 19 19 18 18 19 19 20 22 22 22 21 21 21 21 21 21 22 22 23 23 23 24 25 26 26 25 24 23 22 21 20 20 21 21 20 20 20 21 21 21 21 20
19 18 18 18 19 20 20 20 20 21 21 21 22 22 22 22 23 23 22 21 20 20 20 19 19 20 21 22 23 23 22 21 21 21 21 21 22 23 23 23 24 24 25 26 27 27 26 25 24 23 22 21 21 21 21 20 20 20 21 21 21 21 21
19 19 19 18 18 18 18 19 19 20 22 22 22 23 24 24 24 24 23 22 21 21 21 20 21 21 21 21 21 21 21 21 22 22 23 23 24 24 24 24 24 24 25 27 27 28 27 27 26 24 23 22 22 21 20 20 21 21 21 21 21 21 21
20 20 20 19 18 18 18 19 20 21 22 22 23 24 25 25 25 25 24 23 23 22 21 21 21 21 21 20 20 21 21 22 23 23 23 24 25 26 26 26 25 25 26 26 28 28 28 28 27 26 24 23 22 21 21 21 21 22 22 22 21 21 21
22 21 20 19 17 17 18 19 20 21 22 23 24 24 25 25 25 25 25 24 24 23 22 22 22 21 20 20 21 22 22 23 23 23 24 24 25 26 26 26 26 26 26 26 27 28 29 29 28 27 25 24 22 22 22 22 22 22 23 23 23 22 22
23 23 22 20 17 17 18 20 21 23 24 24 25 26 25 25 25 25 25 26 25 24 23 23 23 22 21 22 22 23 23 23 23 23 24 24 25 25 25 25 25 26 26 26 26 28 29 30 30 29 27 25 24 23 22 22 23 23 24 24 24 24 24
24 24 23 20 18 17 18 19 22 24 24 25 26 27 27 26 26 26 26 27 26 26 25 25 24 23 22 23 23 23 23 23 23 24 25 25 25 25 24 24 24 25 26 26 27 28 30 31 31 30 29 28 26 24 23 23 23 24 24 25 25 26 26
21 23 23 20 18 17 17 18 20 22 23 24 25 27 28 28 28 27 27 27 28 27 26 26 26 24 23 23 23 22 23 23 23 24 25 24 24 23 23 22 23 24 25 26 28 29 30 31 32 31 31 30 28 26 25 24 24 25 24 25 26 27 27
18 19 21 20 18 16 16 17 18 20 22 23 24 26 28 29 29 29 28 28 28 27 27 27 27 25 24 23 23 22 22 22 23 22 22 23 22 22 21 21 21 24 27 28 29 30 31 31 32 32 32 31 29 28 26 26 26 26 24 24 26 27 27
18 19 20 21 20 19 19 18 19 20 22 23 24 25 28 29 30 30 29 29 29 29 28 28 27 26 25 24 22 21 20 20 20 19 20 21 21 21 20 20 20 24 27 29 30 31 31 31 31 32 32 31 30 29 28 27 27 27 26 26 27 28 28
20 21 22 22 23 23 22 21 20 21 23 25 24 26 28 30 30 31 31 31 31 30 29 28 27 26 25 23 22 20 19 18 19 19 19 19 19 19 21 22 22 22 23 25 28 30 30 31 31 31 31 30 30 30 29 29 29 29 29 29 29 30 31
19 21 22 23 23 23 22 21 20 21 23 24 22 21 24 27 30 32 32 31 30 30 30 28 27 26 25 23 23 22 20 20 21 21 20 19 19 20 22 24 25 25 23 23 26 30 30 30 31 31 31 31 31 31 31 31 31 31 31 31 32 32 33
19 20 21 21 21 21 21 20 20 20 21 21 20 18 20 23 26 30 31 30 30 30 29 27 26 26 26 26 25 24 23 23 24 23 22 22 22 23 25 26 27 29 29 28 29 31 32 31 32 32 33 33 32 32 32 33 34 34 34 35 35 35 36
19 20 20 20 20 21 21 21 21 21 21 21 20 20 21 21 22 25 28 28 28 27 25 24 25 27 27 28 28 28 27 26 26 25 24 24 25 25 27 28 29 31 33 32 32 33 34 34 34 34 34 35 35 35 35 36 37 38 38 38 39 39 39
21 22 21 21 21 21 21 21 21 21 21 21 20 19 19 19 19 20 22 24 23 22 23 25 26 28 28 29 30 30 30 30 29 28 27 27 27 28 29 29 31 33 34 35 35 36 37 37 38 38 38 38 38 37 37 38 39 41 41 42 42 42 42
23 23 23 23 22 22 21 21 21 21 20 19 18 17 17 17 17 18 20 22 22 23 24 25 27 28 29 31 31 32 32 32 31 31 31 31 30 31 32 32 33 36 38 39 40 41 41 41 42 42 43 42 41 41 41 40 41 42 44 44 44 44 44
25 25 25 25 24 23 22 21 19 18 17 16 15 16 16 16 16 17 20 21 22 23 24 24 27 29 30 31 33 33 34 34 34 35 36 36 35 36 36 36 35 37 39 41 42 43 43 44 44 45 46 46 46 46 47 47 45 44 44 45 47 47 47
27 27 27 27 26 25 24 23 21 21 21 21 21 21 22 21 20 21 23 24 25 26 27 27 29 31 32 33 34 34 35 36 37 37 38 38 39 39 40 40 40 40 41 41 43 45 45 46 47 47 48 49 49 50 51 51 51 49 48 47 48 48 48
27 27 27 27 27 26 26 26 26 26 27 27 27 27 27 27 27 27 28 28 30 31 31 31 33 35 36 36 37 38 39 39 39 40 41 42 43 43 44 45 46 47 47 47 48 49 50 51 51 51 51 51 52 53 54 54 55 55 54 53 53 51 49
26 27 27 27 27 26 26 26 27 28 28 29 29 29 29 29 30 31 31 32 33 33 34 35 36 37 39 40 42 43 43 44 44 45 46 47 48 49 50 51 51 52 53 54 53 53 54 54 54 55 55 54 55 56 56 56 56 57 58 58 57 57 56
25 26 26 27 27 27 27 28 29 29 30 30 31 31 32 33 34 35 36 36 37 37 38 38 38 39 40 41 42 43 44 45 46 47 47 48 49 50 51 52 53 54 54 55 56 56 56 56 56 57 57 58 58 59 59 59 59 59 60 60 60 60 61

ECMWFFLT1_500_spd_084.txt.gz
Wind_Speed
22 23 24 23 21 19 19 21 19 18 16 16 16 14 12 12 12 12 11 10 10 10 11 11 12 12 12 12 12 11 10 9 9 9 9 9 9 9 9 9 10 10 10 10 10 10 11 11 10 10 9 9 9 10 9 9 10 10 9 9 8 7 8
23 22 22 21 20 19 19 19 19 17 14 14 15 14 13 12 13 12 11 10 10 10 11 10 11 11 12 12 11 9 9 8 9 9 8 8 9 9 9 9 9 10 11 11 11 11 11 11 10 10 9 9 9 9 9 9 9 9 9 9 9 9 10
22 21 21 22 21 21 21 20 18 16 14 14 14 13 12 13 13 13 12 10 11 11 11 9 10 11 11 11 10 8 9 8 8 9 8 8 9 9 9 10 10 10 11 11 11 12 11 11 10 10 9 10 10 9 9 9 9 9 9 9 9 10 11
21 21 22 23 23 22 22 20 19 18 16 16 15 14 14 15 14 13 12 11 11 11 10 9 9 10 10 10 9 9 9 8 9 9 9 9 10 10 11 11 12 12 12 11 12 12 12 11 11 10 11 11 10 9 9 9 9 9 9 9 9 11 11
18 20 21 22 23 22 22 21 21 20 18 17 17 16 16 17 15 13 11 11 10 10 9 8 8 9 9 9 9 10 10 9 9 10 10 10 11 11 12 12 13 13 13 13 13 13 13 13 12 12 12 12 11 10 11 11 11 10 9 10 11 11 12
15 18 20 21 22 23 22 22 23 21 19 18 17 17 17 17 14 13 11 11 10 9 8 8 8 9 9 9 9 10 10 10 10 10 10 10 11 11 12 12 13 13 14 14 13 13 14 14 14 13 13 13 12 12 12 13 12 11 11 12 12 13 13
16 18 19 20 22 23 22 22 23 22 20 19 19 18 18 16 14 12 11 11 10 9 9 9 9 9 9 9 9 9 9 9 9 8 9 9 9 10 11 11 12 12 13 14 14 14 15 14 14 14 13 13 13 13 13 14 13 12 12 13 14 14 14
18 18 19 19 21 22 22 23 23 21 19 19 20 19 17 15 13 12 12 11 10 10 10 10 9 9 8 9 9 9 8 8 8 8 9 9 10 10 11 11 11 12 14 14 14 15 14 14 14 14 14 14 14 14 14 14 14 14 13 13 14 15 15
19 20 20 19 20 20 21 23 22 20 19 20 20 19 16 14 13 13 13 13 12 12 11 11 10 9 9 9 10 10 9 9 10 11 12 12 12 13 13 13 12 13 15 15 14 15 15 15 15 15 15 15 15 15 15 14 14 14 14 13 14 15 15
20 22 22 20 19 19 20 21 21 19 19 20 20 19 16 15 15 15 14 14 14 13 13 12 11 11 11 11 11 11 12 12 13 14 14 14 15 15 15 14 14 14 15 15 15 15 15 16 15 15 15 16 16 16 14 14 14 14 14 14 15 15 15
20 22 22 20 18 18 18 18 18 19 20 20 21 19 17 17 18 18 17 16 15 15 14 14 13 13 13 12 12 13 14 14 15 15 15 15 15 15 15 15 14 15 16 16 16 15 15 15 15 15 15 15 16 16 14 13 14 15 14 14 15 15 15
19 19 19 18 18 18 17 16 16 19 21 21 21 19 17 17 19 21 20 18 17 17 16 16 15 15 14 14 13 13 14 14 14 15 15 15 15 15 15 15 15 15 16 16 16 15 15 15 15 15 15 15 16 16 15 14 14 15 16 15 15 16 16
19 18 17 17 16 16 17 16 15 16 17 19 19 18 18 19 20 21 21 19 17 17 17 17 16 16 15 14 14 13 13 14 14 14 14 13 13 14 14 14 15 15 16 16 16 16 16 16 16 15 16 16 17 17 17 15 15 17 17 15 15 16 16
20 18 17 16 15 15 15 16 15 15 15 15 16 16 18 18 18 19 19 18 17 17 17 17 16 16 15 14 14 14 14 14 14 13 13 13 13 14 15 15 15 16 16 16 16 17 17 18 18 17 17 18 20 20 19 17 17 18 18 17 17 17 17
20 18 17 16 16 16 16 16 16 16 15 15 15 16 16 16 16 17 18 17 17 17 17 17 17 16 15 15 15 16 16 15 15 14 13 14 14 15 16 16 16 17 18 18 18 18 19 20 20 19 20 21 22 23 22 20 19 19 20 19 18 18 18
19 18 18 18 18 18 17 17 17 16 16 15 15 16 16 15 16 17 17 16 16 16 17 17 17 16 16 17 17 18 17 17 16 16 15 15 15 16 17 17 18 18 18 18 19 19 20 21 21 21 22 23 24 25 24 22 22 21 21 21 20 20 20
19 20 20 20 19 18 16 16 16 17 16 15 15 16 16 16 16 16 16 16 17 17 17 17 17 17 17 18 18 18 18 18 18 18 17 17 17 17 17 18 18 19 19 19 19 19 20 21 21 22 23 25 26 26 25 25 24 23 23 22 21 21 21
19 20 20 19 18 16 15 15 16 17 17 16 17 17 17 17 18 18 18 18 17 17 17 17 17 18 19 19 19 18 18 19 19 19 19 18 18 17 17 18 19 19 19 19 19 19 20 21 21 21 23 25 26 27 27 26 25 24 24 23 22 21 21
17 18 18 17 16 15 14 15 16 17 17 17 18 19 19 20 20 20 20 19 19 19 19 19 19 20 19 19 18 18 19 19 19 20 19 19 18 19 19 19 20 20 20 20 20 20 21 21 21 22 22 23 26 27 28 27 26 25 25 24 23 22 22
20 20 19 18 16 15 14 14 15 16 16 18 19 20 21 21 21 21 20 20 20 20 20 20 20 20 20 19 19 19 19 19 19 19 18 19 20 20 20 20 21 21 21 21 21 21 21 22 22 22 22 22 23 26 28 29 28 26 25 25 24 23 22
22 21 20 19 17 16 15 14 14 15 17 18 20 21 21 22 21 21 21 20 20 20 20 20 20 20 20 20 20 19 19 18 19 18 19 20 20 21 21 21 21 22 22 22 22 22 22 22 22 22 22 22 22 24 27 29 29 28 27 27 26 25 24
22 21 20 20 17 16 16 15 15 16 17 19 20 20 21 21 21 22 22 21 21 21 20 19 20 20 20 20 20 19 19 19 19 19 20 20 21 21 21 21 22 22 22 22 22 23 23 23 23 22 22 22 22 23 25 27 29 29 29 29 28 27 27
22 21 20 20 18 18 17 15 15 16 17 18 20 20 21 22 22 23 23 23 23 22 21 21 21 20 20 20 20 20 19 20 20 20 20 21 21 20 19 19 20 19 19 20 21 21 22 22 23 23 22 22 22 23 24 26 29 30 30 30 29 29 28
21 20 21 20 20 20 19 18 16 16 17 18 19 20 22 23 23 24 24 25 24 23 23 23 22 20 20 20 20 20 20 21 21 21 20 20 19 18 17 18 18 18 19 20 20 19 20 21 23 24 24 23 23 23 24 25 27 29 30 31 31 31 29
19 19 20 21 21 21 21 19 17 17 16 16 17 20 22 23 23 23 24 24 24 24 24 24 23 21 20 20 20 21 21 22 22 21 20 18 17 16 17 18 19 21 23 22 20 19 19 20 21 22 23 23 23 23 24 25 26 28 29 30 31 32 32
17 18 17 17 17 19 21 20 17 15 15 15 16 19 20 22 23 23 22 22 23 25 26 25 23 23 22 22 21 21 22 22 22 21 20 18 15 13 15 17 18 20 22 23 23 22 21 21 21 21 21 21 22 23 24 24 25 26 28 29 30 31 32
17 17 17 15 14 16 19 21 19 16 16 16 17 18 20 21 23 24 22 21 22 25 25 25 25 25 25 24 22 22 22 21 21 21 20 19 17 14 15 17 18 19 21 23 24 23 23 23 23 22 21 21 23 25 25 25 25 26 28 29 30 30 31
17 17 17 17 17 17 19 23 22 19 19 19 19 20 20 20 22 23 22 22 22 24 25 25 26 27 27 26 24 24 22 20 21 22 22 21 20 19 19 20 20 20 21 23 24 24 24 24 24 24 23 24 26 28 28 27 27 28 29 30 31 31 32
18 18 18 18 19 19 20 21 21 20 19 19 19 20 20 19 19 19 19 20 21 22 25 27 27 26 27 27 26 25 23 22 22 23 23 23 23 22 22 23 24 24 25 26 27 28 28 27 27 27 26 27 28 28 28 29 30 32 33 33 33 34 34
17 18 19 19 20 21 20 19 19 21 21 20 19 20 20 20 19 18 18 19 20 22 24 26 26 26 27 28 26 24 24 24 24 24 25 25 25 25 25 25 26 28 29 29 29 30 31 30 30 30 30 30 31 31 31 32 33 35 37 38 38 39 39
18 19 19 20 22 22 21 21 21 21 22 22 21 21 21 20 19 19 19 20 22 23 23 24 26 27 26 25 24 24 25 25 25 25 26 27 28 29 29 28 29 30 31 32 32 33 33 32 32 32 31 32 34 36 36 36 37 38 40 42 43 43 44
17 18 19 20 21 20 20 20 21 21 22 22 22 22 21 21 20 19 19 20 21 22 21 22 23 23 22 23 23 25 26 26 26 26 27 28 30 30 31 31 31 32 33 34 35 36 36 35 34 33 33 35 37 38 38 39 40 41 42 44 45 46 46
19 19 20 21 21 21 21 21 21 22 22 22 23 22 21 20 20 19 19 19 20 19 19 20 21 21 22 24 24 25 25 26 26 27 27 29 30 31 32 34 34 34 36 36 37 37 37 37 37 37 37 39 41 41 41 42 43 43 43 45 46 48 49
26 25 25 25 24 24 24 24 24 24 24 22 22 22 21 20 19 18 18 18 18 18 19 21 21 22 22 23 23 23 24 25 26 27 29 31 32 32 34 36 37 37 37 38 38 39 39 40 41 42 43 44 45 46 47 48 48 49 48 48 48 49 51
27 28 28 27 26 25 25 25 25 25 25 24 22 20 20 19 18 17 17 18 18 19 21 21 22 22 23 25 26 26 27 28 29 31 32 34 35 36 37 39 40 40 41 42 43 45 46 46 47 49 50 51 51 52 53 53 53 53 53 52 52 52 52
28 28 28 28 27 26 26 25 25 25 26 25 25 24 23 23 24 23 23 24 24 25 25 25 26 26 27 29 31 32 33 34 35 36 37 38 39 40 41 42 43 44 45 47 47 48 49 49 50 51 52 53 54 55 55 56 56 56 57 57 57 57 56
28 28 28 27 27 27 27 27 26 26 25 26 27 27 28 29 30 30 30 29 29 29 30 30 30 31 33 33 35 36 37 38 38 39 39 40 41 42 43 43 44 45 46 46 47 48 49 50 51 52 53 54 56 57 58 59 59 59 60 60 61 61 62

ECMWFFLT1_500_spd_087.txt.gz
Wind_Speed
18 18 18 18 20 20 19 16 14 13 12 11 10 10 12 14 14 14 14 15 14 12 10 10 10 9 9 9 8 9 9 8 7 7 8 9 9 9 9 8 8 8 8 8 9 8 8 8 8 7 7 7 6 6 6 6 5 5 4 5 6 6 5
18 17 17 18 19 19 18 16 14 12 12 11 10 10 11 14 15 16 15 15 14 12 11 11 10 9 9 9 8 9 10 9 7 7 8 9 8 8 8 7 7 8 8 8 9 9 9 9 8 8 8 8 7 7 7 7 6 5 5 6 6 5 5
19 18 18 18 18 18 17 15 14 13 12 11 10 10 10 12 15 16 15 15 13 12 12 11 10 9 9 9 8 9 10 9 8 8 8 8 8 8 7 7 7 7 8 8 8 8 8 8 8 8 8 8 8 8 8 7 5 5 7 7 5 4 5
18 20 20 19 18 17 16 15 14 13 12 12 12 11 11 11 12 13 14 13 12 11 11 10 10 9 8 8 9 9 10 10 9 8 8 8 8 8 8 8 7 7 8 8 8 8 8 8 7 8 8 8 8 7 7 6 5 6 8 7 5 5 6
16 18 19 19 17 16 16 16 15 13 13 13 13 13 13 13 13 13 12 12 10 10 10 10 9 8 8 8 8 9 10 10 9 8 8 8 8 9 8 8 8 9 9 9 9 9 9 9 8 9 9 8 8 7 7 6 5 7 8 7 7 7 7
17 16 17 16 15 15 16 16 15 14 14 14 15 15 14 15 16 14 13 13 11 10 10 10 9 8 8 8 9 9 9 9 9 8 8 9 9 8 8 8 9 10 10 9 9 9 9 9 9 10 9 9 8 7 6 5 6 7 8 9 9 8 7
20 17 16 15 13 13 15 16 15 15 15 16 16 16 15 16 17 15 14 14 12 10 9 9 9 9 9 9 9 9 8 8 8 8 8 8 7 7 7 8 8 9 9 9 9 9 10 10 10 10 9 9 8 7 6 6 7 8 10 10 9 9 9
21 19 16 15 12 12 14 15 15 15 16 16 16 16 16 17 17 16 16 15 12 10 9 10 10 11 10 10 9 8 7 8 7 6 6 5 5 6 6 7 8 9 9 9 9 10 10 11 10 10 10 9 9 7 7 7 8 10 11 10 9 10 10
19 18 17 15 13 12 13 14 15 15 16 17 16 17 17 17 17 17 16 14 11 10 9 10 12 12 11 11 9 9 8 8 7 6 5 5 5 6 7 7 8 9 10 10 10 10 11 11 10 10 10 10 9 8 8 8 10 11 11 11 10 10 11
17 17 17 15 13 12 13 13 13 14 15 17 18 18 18 17 16 16 15 13 11 11 10 11 13 12 12 12 10 10 9 8 7 7 7 6 6 6 8 8 9 9 9 10 10 10 11 10 10 11 11 10 9 8 8 9 10 11 12 11 10 10 11
14 15 15 13 12 12 12 12 12 13 15 17 19 19 17 16 16 15 14 13 12 12 11 12 13 13 12 12 11 10 10 9 8 8 8 8 8 7 8 9 9 8 9 10 10 10 9 9 10 10 10 10 9 9 8 9 10 11 12 11 10 11 11
15 13 13 11 9 10 11 12 12 13 15 16 17 17 16 16 16 16 16 15 15 14 13 13 14 13 13 13 12 11 10 10 10 9 9 10 9 8 8 8 9 9 9 9 9 9 9 10 10 10 10 10 9 8 9 9 10 11 12 12 11 11 12
16 14 12 9 7 7 10 11 13 13 13 13 14 16 17 17 17 18 18 18 18 16 14 14 15 14 15 14 13 12 11 11 11 10 11 11 10 8 8 8 9 9 10 9 9 9 9 10 10 11 11 11 10 9 10 11 10 11 14 14 12 12 13
15 14 13 10 7 7 8 10 12 13 11 10 12 15 18 18 18 20 20 19 19 17 16 15 16 15 16 16 15 13 12 12 12 12 12 12 11 9 8 9 9 10 10 10 10 10 10 10 10 12 13 13 12 11 12 13 12 13 15 16 15 14 14
16 13 13 11 9 7 8 9 11 11 11 11 13 15 17 18 19 22 22 21 19 17 16 16 16 16 16 16 16 15 14 14 13 13 13 13 12 10 9 10 11 11 12 12 12 11 11 11 11 12 13 14 13 12 13 15 15 15 16 16 17 16 15
15 14 13 12 10 9 9 10 12 12 12 13 14 15 16 17 19 20 20 19 18 17 16 16 17 17 17 17 16 16 15 15 15 14 14 14 14 12 11 12 13 13 14 15 14 14 13 12 13 15 16 15 13 12 14 15 16 16 16 16 17 17 16
13 13 13 13 12 11 11 12 13 13 13 13 15 16 16 16 17 17 17 16 16 16 16 16 16 16 17 17 17 16 16 16 15 15 16 16 16 15 14 14 14 15 16 16 16 16 15 14 14 16 18 18 16 14 14 15 15 16 16 16 17 18 17
14 14 15 14 13 13 13 13 13 13 14 14 16 16 15 16 17 17 16 15 15 16 16 16 16 16 17 17 17 17 17 16 16 16 16 17 17 17 17 16 16 16 17 18 18 17 17 16 16 17 19 19 18 17 15 15 15 17 17 16 17 19 18
15 15 15 15 15 15 14 13 14 13 14 15 16 16 16 16 17 17 16 16 16 16 16 16 16 15 16 16 17 17 17 17 17 17 17 17 17 17 18 17 17 17 19 19 19 19 19 19 19 20 20 21 21 19 17 16 17 18 18 18 17 18 19
16 15 15 15 15 15 14 13 14 13 14 16 16 16 17 18 17 17 17 16 16 16 15 15 15 16 16 17 17 18 18 18 17 17 18 17 17 17 17 18 18 18 19 20 20 20 20 20 20 20 20 22 23 23 21 19 19 20 21 20 18 18 19
17 16 16 15 14 14 13 13 13 15 16 17 17 17 17 18 17 17 17 17 17 16 16 16 17 17 18 18 18 18 18 18 18 18 18 17 16 16 17 19 20 20 20 21 22 22 21 20 20 19 19 19 21 24 25 23 21 20 21 21 19 18 19
16 16 17 17 16 15 14 14 15 16 18 18 18 18 18 18 17 17 18 17 17 17 17 17 17 18 18 18 18 18 18 18 18 18 17 16 16 16 18 20 20 21 21 21 22 22 21 21 20 21 20 18 18 21 23 24 22 20 20 21 21 21 20
17 17 18 18 18 16 16 16 16 18 19 18 18 18 18 19 19 19 19 18 18 17 17 18 18 18 17 17 17 17 18 19 18 18 17 17 17 18 20 21 21 21 21 20 19 18 18 19 19 19 20 18 17 18 20 22 23 21 20 21 21 22 21
19 19 20 20 19 16 16 17 18 18 19 18 17 17 18 19 19 19 19 18 17 17 18 18 19 19 18 17 17 18 19 19 18 18 19 20 20 20 21 21 21 20 20 19 18 17 18 18 17 16 16 17 18 18 19 20 21 21 21 21 21 21 21
17 19 20 20 19 17 17 19 19 20 19 18 16 17 17 18 18 17 17 18 18 18 19 19 19 20 19 18 19 19 20 20 19 20 21 21 21 21 21 22 21 21 21 19 18 18 18 18 17 16 16 17 19 19 19 18 18 20 21 22 22 22 21
16 18 18 18 19 18 19 20 21 21 21 19 17 17 17 16 16 16 17 18 19 19 19 20 20 20 19 20 21 20 20 21 20 21 22 22 22 22 22 22 22 21 21 19 18 18 19 19 19 19 20 21 21 20 20 19 19 19 20 21 22 23 23
16 18 17 17 17 18 19 21 22 23 23 20 18 17 16 14 13 14 15 16 18 19 19 19 19 20 21 22 23 22 22 22 22 22 23 23 23 23 22 22 22 22 22 21 19 18 18 19 21 21 22 22 22 22 21 21 21 21 22 23 23 23 24
14 15 15 16 17 17 17 18 20 22 23 21 18 16 15 13 12 13 13 14 16 18 19 19 19 20 21 22 23 23 22 23 23 23 23 23 23 23 23 23 23 23 24 23 22 21 21 21 22 23 23 23 23 23 23 23 24 25 26 26 25 25 26
11 12 14 16 18 18 18 18 18 19 21 21 20 18 16 16 17 17 17 17 19 21 22 22 21 21 21 23 24 23 22 24 24 24 24 24 25 25 25 25 25 24 25 25 25 25 24 24 24 25 25 25 25 25 25 25 26 27 29 29 29 29 30
14 14 15 15 15 16 17 18 18 18 19 20 20 20 19 19 20 20 20 19 20 21 22 23 23 23 23 24 26 26 26 27 27 25 24 25 26 26 26 25 25 26 27 28 28 27 27 27 28 28 28 28 28 28 28 28 28 30 30 31 32 33 34
15 16 17 17 15 16 18 20 19 18 18 18 19 20 20 21 21 21 20 20 20 21 22 22 23 24 25 26 27 29 29 28 28 29 28 27 26 26 25 25 26 28 29 30 30 29 30 30 30 31 31 31 32 33 33 32 32 33 33 34 35 36 38
16 18 19 19 19 19 20 22 21 20 19 18 19 20 21 21 21 22 22 22 21 22 23 23 24 25 27 27 27 28 29 29 30 30 29 26 25 24 25 27 28 29 30 30 31 31 32 32 32 33 33 34 35 35 36 35 35 35 36 38 39 40 42
14 16 18 19 20 21 21 21 21 21 21 21 20 20 21 21 22 22 23 23 22 23 23 24 25 26 26 25 24 24 25 27 27 27 26 25 25 25 26 26 27 28 29 30 31 32 33 33 34 34 35 36 36 37 38 39 40 41 42 43 44 45 46
15 15 17 17 18 19 20 19 19 19 20 20 20 20 19 20 20 22 23 23 23 24 24 24 24 23 22 21 21 21 23 24 24 25 25 25 24 24 25 26 27 29 30 31 33 33 34 35 37 38 39 40 40 42 43 44 45 46 46 47 47 48 49
23 22 22 22 22 22 21 20 19 19 19 19 19 19 19 20 21 22 22 22 23 23 24 23 21 19 19 19 20 22 23 24 25 25 24 24 25 26 27 29 30 32 33 35 36 37 38 39 40 41 41 42 43 43 44 45 46 47 48 49 50 51 52
24 23 24 25 25 26 25 25 24 25 24 24 23 22 22 23 23 23 23 23 22 22 23 22 21 20 20 21 23 24 25 25 26 27 27 28 29 31 32 34 35 36 36 37 38 39 40 41 41 42 43 44 45 46 47 47 49 49 51 52 53 54 55
25 25 25 26 26 26 27 27 28 28 28 28 27 26 26 26 26 26 26 25 25 25 24 24 24 25 26 26 27 27 28 29 30 31 33 34 35 35 36 37 37 37 38 39 40 40 41 42 43 44 45 47 48 49 50 51 52 53 54 55 56 57 58

ECMWFFLT1_500_spd_090.txt.gz
Wind_Speed
19 16 14 13 12 12 12 14 16 17 16 15 15 15 16 17 17 18 19 20 19 18 17 17 16 14 13 13 13 12 13 13 13 13 11 11 11 10 10 10 10 9 10 10 10 11 11 10 10 9 9 9 9 9 8 9 10 10 10 9 9 8 9
21 20 18 15 13 12 13 13 14 15 15 15 14 15 16 16 17 19 20 20 19 18 17 16 16 14 13 13 13 13 13 14 14 13 12 12 11 10 10 9 9 9 9 10 11 11 11 11 11 11 10 10 10 9 8 9 10 11 11 10 10 9 9
23 24 23 20 17 15 15 14 14 14 14 15 15 15 15 15 15 17 19 19 18 19 18 17 16 14 13 14 14 14 14 14 15 14 12 12 11 10 9 9 9 9 10 10 11 11 12 11 11 11 11 10 9 8 9 10 11 12 11 10 10 10 10
21 24 25 23 21 19 18 16 14 15 15 15 15 15 15 15 14 14 16 18 18 19 19 17 16 15 14 15 15 15 15 15 14 13 12 12 11 10 10 9 9 9 10 10 11 11 11 10 10 10 9 9 8 8 9 11 12 11 10 10 10 11 12
19 21 24 25 23 21 20 18 15 15 16 16 15 15 16 16 14 13 14 17 17 18 18 17 15 15 15 16 16 15 15 15 14 13 13 13 12 11 11 10 10 9 9 10 10 11 10 10 9 9 8 8 8 9 11 13 13 12 11 12 12 12 12
19 18 19 22 23 21 20 19 17 16 16 16 16 16 16 16 15 13 14 15 15 16 16 16 14 15 16 17 16 16 15 15 14 14 14 14 13 12 11 11 10 9 9 10 10 10 9 9 9 9 9 8 9 10 12 14 13 12 12 12 12 12 12
16 17 17 18 20 19 18 18 17 16 16 16 17 17 17 17 16 15 15 15 14 15 15 14 13 14 16 16 16 16 16 15 15 15 15 14 13 12 11 10 9 8 9 9 9 9 9 9 9 9 9 9 9 11 13 14 14 12 11 11 12 12 13
16 15 16 16 16 16 15 16 17 16 16 16 17 17 18 18 16 16 17 16 15 15 15 14 14 15 16 16 17 17 16 16 16 15 14 13 12 11 9 9 8 8 8 9 9 9 9 9 10 10 9 8 9 11 13 14 14 13 11 12 13 13 13
16 14 14 15 15 15 13 14 15 15 16 16 16 17 18 18 18 18 18 17 16 16 15 15 16 17 18 18 18 17 16 16 15 14 12 11 10 9 8 8 8 8 8 9 9 9 10 10 10 10 9 9 10 12 13 15 14 13 12 13 13 12 12
14 14 13 14 15 15 15 15 15 14 14 15 16 17 18 19 19 19 18 17 16 16 16 16 17 18 19 18 18 17 16 15 14 13 12 11 10 10 10 10 10 9 10 11 11 11 11 11 10 10 10 10 11 12 14 14 14 13 12 12 12 12 12
14 13 12 14 16 16 16 17 16 14 13 14 16 17 19 19 19 19 19 18 17 17 17 17 17 18 18 18 18 17 17 16 14 13 12 12 11 11 12 12 12 11 11 12 12 12 12 12 11 11 10 10 11 12 13 14 14 13 11 12 12 12 12
15 15 15 15 15 17 17 18 17 15 14 14 16 18 19 20 20 19 19 17 17 18 18 18 18 18 18 18 18 18 17 17 15 14 13 12 12 12 13 13 13 13 13 14 14 13 13 12 12 11 11 10 11 11 13 14 15 12 11 12 13 13 13
15 16 16 15 14 16 17 17 17 16 15 16 16 18 19 20 20 19 19 18 17 19 19 18 18 18 19 19 19 19 19 17 16 14 14 14 14 14 14 14 14 14 14 15 14 14 14 13 13 12 11 10 11 12 13 15 15 13 11 13 14 13 13
16 15 14 13 14 16 16 15 15 16 16 16 14 14 16 18 19 19 19 18 18 19 20 20 20 20 20 20 20 20 20 18 16 15 15 15 15 15 15 15 14 14 14 15 14 14 14 14 14 14 12 12 13 13 14 16 17 15 13 13 14 14 15
19 17 13 12 15 17 16 14 14 17 17 15 13 12 13 15 17 17 18 18 18 18 19 20 21 22 22 21 22 22 21 19 18 17 16 16 16 16 15 15 15 15 14 13 14 14 15 14 15 15 14 13 14 15 15 16 17 16 15 14 15 16 16
19 17 15 14 16 17 16 15 16 18 19 18 15 12 13 14 16 16 17 17 18 19 19 20 22 23 23 23 22 22 21 20 19 18 17 16 16 16 16 16 16 15 14 13 13 15 15 15 16 16 15 15 15 16 16 17 17 17 17 16 16 17 18
17 16 15 15 16 17 16 16 16 17 18 19 16 14 14 15 15 16 17 17 18 20 21 22 24 25 25 24 22 22 21 20 20 19 17 16 16 17 17 17 17 16 15 14 14 15 15 16 16 16 15 15 16 16 17 18 18 18 19 19 19 18 18
19 18 16 15 16 17 17 18 18 17 18 19 18 16 15 15 15 16 19 20 22 23 25 25 25 25 23 22 21 21 21 21 20 18 16 16 17 17 17 17 18 18 17 16 15 16 16 16 17 17 16 16 17 18 18 19 19 19 20 21 21 19 19
20 19 17 15 15 17 19 21 20 19 19 20 19 17 16 15 15 17 19 22 24 25 24 23 23 21 20 20 20 20 20 20 18 16 15 16 17 17 17 18 20 20 19 18 18 17 17 18 19 19 19 19 19 19 19 19 19 19 19 20 21 20 18
21 20 19 18 17 20 23 23 22 21 22 21 20 18 17 16 15 16 18 21 21 21 19 19 19 19 19 19 19 19 19 18 16 15 16 17 18 18 18 19 21 21 20 19 19 18 18 19 20 20 21 20 20 20 19 19 19 19 18 18 19 20 19
20 20 20 19 19 21 23 23 22 23 23 22 20 19 18 16 15 16 18 19 19 18 17 18 19 19 19 19 19 18 17 16 16 17 18 19 19 19 19 19 21 21 21 20 20 19 19 18 18 19 20 21 21 20 20 19 19 19 18 18 18 19 19
19 19 19 19 19 20 21 22 22 23 23 22 21 21 19 16 15 16 18 19 19 18 18 19 19 20 20 19 19 18 17 18 19 19 19 20 20 20 19 19 19 21 22 21 21 20 19 18 18 18 18 19 19 19 18 17 18 19 19 18 18 19 19
18 19 19 18 18 19 20 20 22 22 22 22 22 21 20 16 15 17 18 19 19 18 19 20 20 21 20 20 20 19 19 19 19 19 19 20 20 20 19 19 19 21 22 22 22 20 19 18 18 18 17 17 17 17 16 15 15 17 18 19 20 20 21
17 18 19 19 20 21 21 20 21 22 21 22 22 22 20 17 17 17 17 18 19 19 20 21 21 20 20 20 20 19 19 19 19 19 19 19 20 21 21 21 21 21 22 22 22 20 19 18 18 18 18 17 17 17 17 16 15 14 15 17 19 21 22
16 17 19 21 23 23 22 22 22 22 21 22 22 21 20 19 19 19 19 20 20 21 21 21 21 20 19 19 19 18 19 19 19 19 19 20 21 22 22 22 22 22 22 23 22 22 21 20 20 20 19 18 17 17 18 19 19 17 16 16 17 19 20
17 19 20 22 23 23 23 23 22 22 21 22 22 22 21 20 21 21 21 21 22 23 23 23 22 20 19 19 19 19 19 19 20 20 20 20 21 22 23 23 23 24 24 23 23 22 21 21 21 20 20 19 18 18 19 20 21 22 21 20 20 20 21
18 19 19 21 23 22 21 22 22 21 21 22 23 23 23 22 22 22 22 23 24 25 25 24 23 21 20 20 20 21 21 21 21 20 20 21 22 23 24 25 25 25 24 24 23 22 21 20 20 20 20 19 20 20 20 21 22 22 23 23 24 24 24
16 17 17 20 21 19 18 19 20 21 21 22 23 24 23 23 21 21 21 22 23 25 25 24 23 22 21 21 21 21 21 20 21 21 20 21 22 23 24 25 25 25 25 25 24 23 22 21 20 21 21 21 21 21 22 23 23 23 24 25 26 27 27
12 15 17 18 18 17 18 20 20 20 21 22 22 23 24 23 20 18 17 18 19 21 21 21 21 21 20 21 21 20 20 20 22 22 21 20 21 22 23 25 26 27 27 26 26 25 24 23 23 23 23 23 23 23 24 25 25 26 26 27 28 29 30
11 13 14 15 17 18 21 23 23 22 21 21 22 23 24 23 20 17 16 16 17 19 21 22 23 23 23 23 23 22 21 23 24 24 23 22 22 24 27 28 27 27 28 28 28 27 26 26 26 26 26 26 26 26 27 27 28 29 29 30 31 31 32
10 12 14 17 21 23 21 23 26 26 23 21 20 20 21 22 21 19 18 19 21 23 25 24 24 24 24 25 26 27 27 27 28 29 29 28 27 29 31 30 27 27 29 30 30 29 28 28 28 28 29 29 29 29 29 30 30 31 31 32 33 34 34
10 12 14 18 21 23 22 24 29 29 24 21 20 20 20 21 21 20 20 22 26 27 27 25 23 23 23 24 26 27 28 30 32 32 33 33 33 33 34 32 29 29 32 32 30 29 29 29 29 29 30 30 31 31 31 32 32 33 34 35 37 38 39
13 15 17 17 17 20 22 25 26 25 22 21 20 20 20 20 21 21 21 23 26 26 25 24 23 23 24 25 25 26 27 29 31 33 33 34 33 34 36 35 32 32 32 31 30 29 29 29 29 30 30 31 32 32 33 34 35 37 38 39 40 41 42
15 16 19 20 20 22 24 23 20 18 18 18 18 18 20 20 21 21 21 22 23 23 22 23 24 24 25 26 26 27 28 29 30 30 30 31 31 33 35 34 31 29 29 28 28 28 28 28 29 30 31 33 34 35 37 38 39 39 40 40 41 42 43
16 14 14 18 20 20 20 19 18 18 18 18 17 16 17 18 19 20 20 21 22 23 23 24 26 26 26 27 27 27 26 26 26 25 25 26 28 30 30 30 28 28 28 27 28 28 29 30 31 33 34 36 37 38 38 39 40 40 41 42 42 43 44
20 18 15 16 18 17 17 19 20 21 20 19 18 17 16 17 18 18 19 20 21 22 24 25 26 27 27 27 27 26 24 24 24 24 25 26 28 28 29 29 29 29 29 30 30 31 32 34 35 36 37 38 38 39 39 40 41 42 43 43 44 45 47
23 23 22 22 22 21 19 19 21 22 23 23 23 22 20 20 20 20 21 22 23 24 26 27 27 27 27 27 27 26 25 25 25 25 26 27 28 29 30 31 31 32 32 33 34 35 36 37 38 38 39 40 40 41 42 42 43 43 44 45 46 48 49

ECMWFFLT1_500_spd_093.txt.gz
Wind_Speed
18 19 19 21 22 20 19 19 19 18 16 15 13 13 14 15 16 17 18 17 17 17 18 18 18 17 17 17 17 17 16 16 15 15 15 15 14 14 14 14 13 13 13 14 14 15 14 14 15 15 14 13 13 13 14 14 13 13 13 13 13 12 12
18 20 20 20 20 19 19 19 20 19 18 17 15 14 15 15 17 18 19 19 19 19 20 19 18 18 18 18 19 18 17 16 17 17 16 16 15 16 15 14 13 13 14 15 15 16 15 15 16 15 14 14 14 14 15 15 14 14 14 14 14 13 14
19 20 21 21 19 19 20 20 20 19 18 18 17 16 16 17 18 19 20 20 20 21 21 21 20 20 20 20 19 19 18 18 18 18 18 17 17 17 16 15 14 15 15 15 15 15 15 15 15 14 14 14 14 15 15 15 15 15 15 15 15 15 15
20 20 21 21 20 20 20 21 20 20 19 19 18 18 18 18 19 20 20 21 21 22 23 22 21 21 22 21 20 20 20 19 19 19 19 19 19 18 17 16 15 16 16 15 15 15 15 15 15 14 14 14 15 15 16 16 15 15 16 16 16 15 15
21 21 22 22 21 20 21 21 21 21 21 20 19 19 19 20 21 21 21 21 22 23 23 22 22 22 22 21 21 21 20 20 20 20 20 20 19 17 16 16 16 15 14 14 13 14 14 14 14 14 14 14 14 15 16 16 15 16 16 16 16 16 16
21 20 21 22 21 21 22 22 23 23 23 22 21 21 20 21 21 21 21 21 21 22 23 23 23 23 21 21 21 21 20 20 21 21 20 20 18 17 16 16 15 14 13 13 13 14 14 14 14 14 14 15 15 16 16 16 16 16 17 16 16 16 17
21 19 19 20 21 21 21 22 24 24 23 22 21 21 21 21 21 22 22 22 21 21 22 23 23 22 21 21 21 21 21 21 21 20 19 18 17 16 16 16 15 14 14 14 14 15 15 15 15 15 16 17 17 17 17 17 16 17 17 17 17 17 18
18 17 17 18 19 20 20 21 24 24 23 22 22 22 22 22 22 22 23 24 23 21 22 23 22 22 21 20 21 21 21 21 20 19 18 17 16 16 16 15 15 15 15 16 16 16 16 16 17 17 17 17 17 17 18 18 17 17 17 17 18 19 19
16 16 17 17 17 17 18 20 22 23 22 23 23 23 23 23 23 24 25 25 23 22 22 22 22 22 20 20 21 22 21 20 19 18 17 17 16 15 15 15 15 16 16 16 16 16 17 17 17 17 17 17 18 18 19 18 17 17 18 19 19 19 20
15 14 15 16 15 14 15 18 20 21 21 23 24 24 24 24 24 25 25 24 23 23 23 23 22 21 20 22 23 22 20 19 18 17 17 16 16 16 16 16 16 16 16 16 16 17 17 17 17 17 17 18 19 20 20 18 18 18 19 20 20 20 20
16 14 14 16 15 14 15 17 19 20 20 23 25 25 25 25 25 25 24 24 24 24 24 23 21 21 21 22 22 20 19 18 17 17 17 16 16 16 16 16 17 17 17 17 17 18 18 18 17 17 18 19 20 21 21 19 18 18 19 20 20 20 20
18 15 15 16 16 15 16 18 21 23 23 24 25 26 26 26 25 24 23 23 24 25 24 22 21 21 22 21 20 19 18 17 17 18 18 17 17 18 18 18 18 18 18 18 18 19 19 19 19 18 19 20 21 22 21 20 19 19 20 21 20 19 19
17 15 16 18 18 17 19 21 24 25 25 24 24 25 25 24 24 23 23 23 24 25 24 23 22 22 21 20 18 18 18 18 19 19 20 20 20 20 20 19 19 20 20 20 20 20 20 20 20 19 19 20 21 22 21 20 19 19 20 21 20 19 19
16 16 17 18 18 19 22 24 24 24 23 23 22 23 23 22 22 22 23 23 24 25 24 24 24 23 21 19 19 19 20 21 22 22 22 22 22 22 21 21 21 21 21 21 20 20 20 20 20 19 19 20 21 22 22 20 19 19 20 20 20 19 19
18 17 17 18 18 20 23 23 23 24 24 23 22 22 22 21 21 22 23 23 24 25 24 23 23 22 20 20 20 21 22 23 24 24 24 24 23 23 22 21 21 21 20 19 19 19 19 19 18 18 19 20 21 22 21 21 20 19 20 20 21 21 21
20 19 19 21 22 23 23 23 23 24 23 22 21 22 22 21 21 22 22 22 24 24 22 22 22 21 21 22 23 24 25 25 26 26 26 24 23 22 22 21 21 20 19 18 18 18 18 18 17 17 17 19 20 21 21 21 20 20 21 21 22 23 23
21 21 22 24 25 25 24 23 22 22 21 21 21 21 21 19 19 21 22 23 23 22 22 23 23 23 23 24 25 26 26 27 27 27 26 25 23 22 22 21 20 19 18 18 18 18 18 17 16 16 17 18 20 21 21 21 21 22 23 23 23 24 24
22 22 23 25 25 25 24 22 21 22 21 20 21 22 21 18 18 20 23 24 23 21 22 24 25 25 24 23 24 26 28 28 28 27 26 24 23 22 22 21 20 19 19 19 19 19 19 17 16 16 17 18 19 21 22 22 22 23 24 24 24 24 24
22 22 23 24 25 25 23 22 21 21 20 18 19 21 21 20 19 20 22 23 22 21 22 23 24 25 24 23 23 26 28 29 28 27 26 24 24 24 23 22 21 19 19 20 20 20 20 19 18 18 18 18 20 21 22 23 23 24 24 25 25 24 25
21 22 22 22 24 24 22 21 21 20 20 19 19 21 23 22 20 20 21 22 21 21 21 22 22 23 23 23 24 26 27 28 27 26 25 25 25 25 24 23 21 20 20 19 19 20 21 21 20 19 19 20 21 22 23 23 24 24 25 25 25 25 25
20 22 21 22 24 23 21 20 19 18 20 21 21 22 23 22 21 21 22 22 22 22 22 23 23 24 23 24 24 25 25 25 25 25 25 25 25 24 23 22 20 19 19 19 19 20 21 21 21 20 20 21 21 22 23 23 24 24 24 24 25 24 24
19 21 22 23 23 22 20 19 19 21 22 23 22 22 23 22 21 22 22 22 21 21 22 23 23 23 23 23 23 23 23 24 24 24 24 24 23 22 21 20 19 18 18 19 19 20 21 21 21 21 21 22 22 23 23 23 24 23 22 22 22 22 22
17 19 21 22 22 22 21 20 22 23 24 25 24 23 22 22 22 22 21 21 21 21 21 21 21 21 21 22 22 23 24 24 23 23 23 23 21 21 21 21 20 20 20 20 20 21 21 21 21 21 21 22 23 23 22 21 21 21 21 21 21 21 21
14 17 19 21 22 23 22 21 23 24 25 26 25 23 23 23 23 22 21 21 21 21 21 21 21 21 21 22 23 23 23 23 23 23 22 22 21 22 22 22 22 22 22 21 22 22 21 21 21 21 21 22 22 22 21 20 20 20 20 21 21 21 21
13 15 17 20 22 22 21 21 22 24 25 26 25 24 24 24 24 23 23 22 22 21 22 23 23 23 23 23 23 23 24 24 23 23 23 22 22 22 22 23 23 24 23 23 23 22 21 21 21 21 21 21 22 22 22 22 21 21 21 21 21 21 21
14 15 17 20 22 21 21 22 22 22 23 23 23 24 24 24 25 25 24 24 23 23 24 25 24 24 24 23 22 22 23 23 23 23 23 23 22 22 22 23 24 25 25 25 24 23 22 22 22 22 22 22 22 23 23 23 23 23 22 22 21 22 22
14 15 17 19 20 21 22 23 23 21 21 21 22 23 24 24 25 25 26 25 25 25 25 25 24 23 23 23 22 22 23 23 24 23 23 23 23 22 23 24 25 26 26 26 25 24 23 23 22 22 22 23 23 23 23 23 23 22 22 22 22 22 22
12 15 18 19 19 20 22 24 24 23 21 21 23 23 23 24 25 26 26 26 26 26 25 24 24 24 25 25 24 22 23 23 22 21 22 23 23 23 23 23 24 25 26 26 26 26 25 24 24 23 24 24 24 24 24 24 24 24 23 23 23 23 23
10 13 18 20 20 22 23 23 24 23 22 23 23 23 23 24 26 27 27 27 27 26 25 24 24 25 26 27 26 23 21 20 20 19 20 21 22 23 23 23 24 24 24 25 26 26 26 26 26 25 25 26 27 27 27 27 27 27 27 26 26 27 27
9 10 13 16 18 22 24 23 22 23 23 23 22 22 22 24 26 26 26 26 25 25 24 24 25 25 26 27 25 22 19 20 22 23 23 22 22 22 23 24 26 25 24 25 27 27 27 27 27 27 27 28 29 29 29 29 30 30 30 30 30 30 31
8 9 9 11 15 19 21 21 21 23 25 24 22 21 21 21 22 24 25 25 24 22 21 21 22 23 24 25 24 21 20 22 24 26 25 24 24 24 26 28 29 29 28 28 31 31 29 28 29 28 29 30 31 31 31 31 31 32 33 33 32 32 32
10 10 9 10 15 19 21 22 24 25 26 26 26 25 23 20 19 21 23 26 26 23 21 20 21 21 21 23 24 24 24 26 27 28 27 27 29 30 32 33 33 33 33 33 35 36 34 32 31 31 31 33 33 33 33 32 33 33 33 33 33 33 33
12 12 11 11 14 17 19 22 25 27 29 29 29 27 24 22 20 20 21 24 24 22 22 22 22 22 23 26 27 26 27 28 29 30 31 32 34 36 37 38 37 35 34 34 35 36 34 33 33 33 33 33 33 32 33 33 33 33 33 33 34 35 36
15 15 14 14 16 18 18 20 24 27 29 29 27 24 21 22 22 21 21 22 21 22 23 24 25 27 28 29 28 27 28 28 28 30 31 32 34 34 35 37 38 36 35 35 34 34 35 35 35 33 32 32 32 33 33 33 33 33 34 36 37 38 39
18 17 16 17 18 18 20 21 24 26 26 25 23 20 19 20 22 22 22 21 21 23 25 25 26 27 27 26 26 27 28 29 29 30 31 31 32 32 32 33 34 34 35 34 34 35 35 35 34 32 32 32 33 33 33 33 35 36 37 38 39 39 39
21 20 18 18 17 17 20 21 20 19 19 19 18 18 18 18 19 20 19 19 20 22 24 24 25 25 26 27 28 28 29 30 30 30 31 31 32 32 31 31 30 30 31 32 33 34 34 33 33 33 33 33 34 34 35 37 38 39 39 39 39 40 40
21 22 22 21 20 20 22 22 18 15 15 16 17 18 19 19 19 19 19 20 21 23 24 24 25 27 29 30 30 29 29 30 30 30 30 30 30 30 30 29 29 29 30 31 33 33 33 34 34 34 35 36 37 38 39 39 39 40 40 40 40 41 42

ECMWFFLT1_500_spd_096.txt.gz
Wind_Speed
21 20 18 17 16 16 16 16 16 15 16 16 16 17 17 18 18 18 17 18 18 18 18 18 19 19 19 19 17 16 15 15 14 13 13 14 14 14 15 15 16 16 16 17 17 17 16 16 15 15 15 14 14 15 15 14 14 14 14 15 15 15 14
23 24 22 20 18 17 18 18 18 16 16 17 17 17 17 18 18 17 17 18 18 19 18 18 19 20 21 20 18 17 16 15 15 14 15 15 14 15 15 16 16 16 17 17 17 17 16 16 16 16 15 15 15 16 16 15 15 15 16 16 16 16 16
22 23 24 22 20 18 18 18 18 18 18 18 18 18 18 19 18 18 18 18 19 19 19 19 19 20 21 20 19 18 17 17 16 16 15 15 16 16 17 17 17 17 18 18 17 17 17 16 17 17 17 17 17 17 16 16 16 17 17 17 17 17 16
21 23 25 25 23 20 18 17 17 18 19 19 19 20 21 21 20 20 19 20 21 21 20 20 20 21 20 19 19 19 19 18 17 17 16 17 17 18 18 18 18 18 18 19 18 17 17 17 18 18 18 18 18 18 17 17 18 18 18 18 18 17 16
23 23 25 26 25 22 20 17 17 18 20 20 20 21 22 22 22 22 22 22 22 22 22 22 22 22 21 21 20 20 19 18 18 18 18 18 18 19 18 18 18 19 19 19 18 17 17 18 18 18 17 17 18 18 18 18 19 19 18 18 18 17 17
25 25 25 26 26 24 22 20 18 19 20 21 21 22 23 23 23 24 24 23 24 23 23 22 23 23 23 22 22 21 19 19 18 18 18 19 19 19 19 18 19 19 19 19 18 18 18 18 18 17 17 18 19 19 18 18 18 18 18 18 18 18 19
26 26 25 26 26 24 23 23 23 21 21 22 23 24 24 24 25 26 25 24 24 24 24 23 23 23 23 23 23 22 20 19 19 19 19 19 19 19 19 19 19 19 19 19 19 19 18 17 17 17 17 18 19 19 18 18 18 18 18 18 18 19 20
27 26 25 25 24 23 23 24 24 24 24 24 25 25 25 26 27 27 26 25 25 25 25 24 23 23 23 24 24 22 21 21 20 19 20 20 20 19 19 19 19 19 19 19 19 19 19 18 18 18 18 19 20 20 19 19 18 18 19 19 20 20 21
27 26 24 23 22 22 22 23 23 24 25 24 25 26 27 27 27 27 26 25 25 26 25 24 23 22 23 24 24 23 22 21 20 20 20 20 20 19 18 19 19 19 19 20 20 20 19 19 19 19 19 19 20 20 20 19 18 19 20 20 21 21 21
28 26 24 23 21 21 22 22 22 23 23 23 23 25 28 28 28 27 26 26 26 26 25 24 23 22 23 24 23 22 22 21 21 21 21 20 19 18 18 18 19 19 20 20 20 20 19 19 19 20 20 20 20 21 20 19 19 20 21 22 22 22 22
32 28 25 23 21 20 21 22 21 21 23 24 23 24 27 28 28 28 28 27 27 27 26 24 23 23 23 23 23 22 22 22 21 21 21 20 19 17 17 18 19 20 20 20 19 19 19 19 19 20 20 20 21 20 19 20 20 21 22 23 24 23 23
33 29 26 23 21 21 21 22 23 22 22 24 23 23 26 28 28 28 28 28 28 27 26 24 23 23 23 23 23 23 22 22 21 21 21 20 19 18 18 18 19 20 19 18 18 18 18 18 19 19 20 21 21 21 20 21 22 22 23 23 24 24 24
32 29 25 22 22 24 23 23 23 21 21 23 23 23 24 26 27 28 28 28 27 27 25 24 24 23 24 24 24 24 23 21 21 22 21 20 19 18 18 18 18 18 18 17 18 18 18 18 19 21 22 23 22 22 22 22 22 23 23 23 23 24 24
31 29 26 24 25 27 24 23 23 21 21 24 25 24 23 25 26 27 27 27 27 27 26 25 24 24 25 26 26 25 23 22 22 23 22 21 20 19 18 18 18 18 18 18 18 19 19 19 21 22 23 24 23 22 22 21 21 22 22 22 22 23 23
29 28 27 26 26 25 23 24 24 23 22 24 25 25 24 24 25 26 26 27 27 26 26 25 25 25 27 27 27 25 23 23 23 23 22 21 20 19 18 18 18 19 20 20 20 20 20 20 21 22 23 23 22 22 21 20 20 20 21 21 22 22 22
27 28 29 27 25 24 24 26 25 24 24 25 26 26 25 25 25 25 26 26 27 27 26 26 26 26 27 28 27 25 24 24 23 23 22 21 20 19 19 19 20 21 21 21 21 21 21 21 21 22 22 22 21 21 20 20 20 20 21 21 22 22 22
27 28 28 27 26 25 26 26 25 25 26 26 26 25 24 25 25 26 26 26 26 27 27 26 25 26 27 27 27 26 25 24 24 24 23 23 22 21 21 21 22 22 22 22 22 22 21 21 21 21 21 21 21 21 20 20 21 21 21 22 23 23 24
26 26 26 27 27 25 24 24 24 25 26 25 24 23 23 24 25 25 26 25 25 26 26 25 25 26 27 27 27 27 26 25 25 25 25 24 24 23 23 24 24 23 23 23 23 22 22 21 21 21 21 21 21 20 20 21 21 22 22 23 24 24 25
24 25 26 27 27 26 25 23 24 26 25 24 22 21 22 23 24 24 25 25 25 25 25 24 25 26 27 27 27 27 27 26 26 26 26 26 26 26 26 26 25 25 24 24 23 23 22 22 21 22 22 21 21 21 21 21 21 22 22 23 24 25 25
21 24 26 27 28 27 25 24 25 25 25 23 21 21 21 22 23 23 24 24 25 24 23 23 25 26 27 28 27 27 27 26 25 25 26 27 27 27 27 27 26 26 25 24 24 23 22 22 21 22 22 23 23 23 23 23 23 23 24 24 25 25 26
18 20 23 26 27 27 25 24 25 25 24 23 22 21 21 21 21 22 23 23 24 23 24 25 26 26 26 27 27 28 28 27 26 25 26 27 28 28 28 28 27 26 25 24 23 23 22 22 21 22 23 23 24 24 24 24 25 25 25 26 26 27 27
16 18 19 21 23 24 24 24 24 25 24 23 22 22 22 21 21 22 23 23 22 22 24 25 26 25 25 26 28 28 28 27 27 26 26 27 27 27 28 28 26 25 24 24 24 23 23 23 23 23 23 24 24 24 25 25 26 26 27 28 28 28 28
14 16 17 18 19 21 22 21 23 24 23 22 22 23 23 22 21 23 23 21 20 22 23 25 25 26 27 28 29 28 28 28 27 26 26 25 25 25 25 25 25 24 24 24 25 25 24 24 23 23 23 24 24 25 26 26 27 27 28 28 28 28 28
12 13 14 15 17 20 20 20 21 22 21 21 21 21 23 22 21 21 22 21 21 22 24 25 27 28 30 30 29 28 27 26 26 24 23 22 22 22 23 24 24 24 25 25 25 25 24 24 24 24 24 24 24 25 26 27 27 28 27 27 27 27 26
11 11 12 13 14 18 20 20 20 20 20 21 21 21 23 22 20 20 22 23 23 23 24 26 28 30 30 29 27 25 24 23 22 21 20 21 22 23 24 25 26 25 25 25 25 25 25 24 24 24 24 24 24 25 26 26 27 27 27 27 26 26 25
10 11 12 12 12 16 19 20 20 20 21 22 22 23 24 23 22 22 23 24 24 24 26 27 29 30 29 27 25 24 23 22 21 21 21 23 24 26 27 27 27 26 26 25 25 24 24 24 24 24 24 24 24 24 25 26 27 27 27 27 27 27 26
9 10 12 12 12 15 18 18 19 21 22 22 22 23 24 24 24 23 23 24 24 25 27 28 29 30 29 26 25 24 24 23 23 23 24 25 27 28 28 27 26 25 25 25 25 24 24 24 24 24 24 25 25 25 25 25 26 26 26 26 26 26 26
9 8 8 11 12 14 17 19 21 22 21 21 23 24 23 23 23 22 22 23 23 25 27 28 29 29 28 27 25 25 25 25 25 25 25 26 27 26 26 25 26 26 26 26 26 26 26 26 26 25 25 25 25 25 25 25 25 25 26 26 26 26 26
9 8 7 10 14 16 18 20 21 21 21 24 27 25 21 20 21 21 22 22 24 26 28 28 29 28 27 26 26 26 26 26 26 25 25 24 24 24 23 24 24 25 26 27 27 27 27 27 27 27 26 25 25 25 26 26 26 26 26 26 27 28 28
10 9 8 10 13 17 18 18 18 18 23 29 29 24 20 19 21 22 22 23 24 26 28 29 29 27 27 26 27 27 26 25 26 25 24 24 23 23 23 23 23 24 25 26 25 26 27 28 29 29 27 25 25 26 27 27 28 28 27 27 28 30 31
12 11 9 8 9 12 14 17 19 20 23 28 27 22 21 21 21 22 22 22 23 26 28 29 28 28 28 27 28 27 26 25 26 25 24 24 25 25 25 25 26 27 27 25 26 28 30 31 32 32 30 28 28 28 29 30 30 30 30 29 30 31 32
13 13 12 10 9 9 10 16 21 22 23 26 26 24 23 22 22 23 22 21 21 23 27 28 28 28 29 29 29 28 26 26 26 26 26 26 26 27 28 28 29 31 31 30 30 32 32 33 33 33 33 33 33 33 33 32 31 30 30 31 32 32 33
14 14 14 13 12 10 10 13 17 20 23 26 26 25 25 24 23 23 22 20 19 21 25 28 28 29 29 28 28 26 24 24 24 24 25 24 24 27 29 30 32 34 34 34 34 34 35 35 36 36 36 37 37 35 34 33 32 31 32 34 34 34 34
16 16 15 14 14 14 13 13 15 17 21 24 27 29 29 27 26 25 23 22 21 21 23 24 26 27 27 27 27 27 25 26 26 26 24 23 24 28 30 32 34 35 35 36 36 37 38 38 38 38 39 40 40 38 36 35 35 35 36 35 35 35 36
18 18 17 16 15 16 17 16 16 17 20 23 26 29 28 27 27 26 25 25 25 25 24 24 25 26 26 26 28 30 29 29 30 31 30 30 31 33 35 36 36 36 35 36 36 37 38 38 37 38 40 41 41 38 36 36 37 38 37 36 36 37 37
21 20 20 19 18 17 18 18 18 18 19 22 24 27 28 29 27 25 24 24 24 24 23 22 23 25 26 27 28 30 31 31 33 34 35 36 36 37 37 37 36 36 36 36 36 36 36 36 36 36 36 36 35 35 36 38 39 39 38 37 38 38 39
24 23 22 21 21 19 19 19 20 19 17 16 15 17 20 22 22 22 21 20 20 20 19 20 21 24 26 27 29 30 31 32 33 35 36 37 37 37 36 36 36 35 35 35 36 35 34 33 32 32 32 33 34 36 38 39 39 39 39 39 40 42 43

ECMWFFLT1_500_spd_099.txt.gz
Wind_Speed
26 22 18 16 16 16 16 16 16 13 10 12 15 17 20 21 21 21 20 19 17 16 16 17 17 15 15 16 16 16 16 16 15 14 15 14 13 13 13 13 14 15 15 15 15 16 17 17 17 17 17 16 16 16 16 15 13 13 14 14 14 14 14
26 24 19 17 16 16 15 15 15 15 12 11 12 14 17 20 21 21 21 19 18 18 18 18 18 16 17 18 17 17 17 17 15 15 15 14 13 13 14 14 15 15 15 15 15 16 16 18 18 18 17 17 17 17 17 16 15 15 15 14 14 14 14
24 24 21 19 18 16 15 14 13 13 13 12 13 14 15 17 18 20 20 20 19 19 19 19 19 18 18 19 18 18 18 17 17 16 15 15 14 15 15 15 15 15 15 15 15 16 17 18 18 18 18 18 18 18 18 18 17 17 16 15 15 15 15
22 24 24 22 20 17 16 15 13 13 13 14 15 17 17 17 17 19 20 20 19 19 19 20 20 19 19 19 19 19 19 19 19 17 16 15 15 15 15 16 16 16 16 16 16 16 17 18 18 18 18 18 18 19 19 19 18 17 17 16 16 16 16
24 24 25 25 22 19 17 16 14 14 14 15 17 19 20 19 19 20 20 20 20 21 20 21 22 22 22 22 22 22 21 20 19 17 16 15 15 15 16 17 17 17 16 16 16 16 16 17 18 18 18 18 19 19 19 20 19 18 18 17 17 17 17
27 25 26 28 25 22 19 17 17 16 16 17 18 20 21 21 21 22 23 22 22 22 22 23 24 24 25 25 25 24 23 21 19 17 16 15 16 16 17 18 18 17 16 16 16 16 17 17 18 18 18 19 19 19 19 20 19 19 18 18 18 17 17
30 27 28 29 27 25 22 20 19 19 19 19 20 22 22 22 23 23 24 24 24 23 24 25 25 26 26 26 26 25 23 21 20 18 17 17 17 17 17 17 17 17 16 16 16 16 17 17 18 18 19 19 19 18 19 19 19 19 18 18 18 18 18
32 30 29 29 28 28 26 23 22 22 22 22 23 23 24 24 25 25 25 25 25 25 26 26 27 26 26 26 25 24 23 21 20 19 18 18 18 17 17 17 17 17 17 16 16 16 17 17 17 18 18 18 18 18 19 19 19 18 18 18 18 18 19
33 31 30 30 30 30 28 25 23 23 23 24 25 25 26 27 27 27 26 26 26 26 27 27 27 26 25 25 25 24 23 22 21 20 19 19 18 17 17 17 17 17 17 17 17 17 17 17 17 18 19 19 19 19 19 19 19 19 19 19 19 19 19
33 32 33 33 33 32 30 27 25 25 24 24 24 25 26 27 28 28 27 27 27 27 27 27 27 26 25 24 24 23 22 22 21 20 19 19 18 17 17 17 17 17 18 17 17 17 17 17 18 19 20 20 20 20 20 19 19 19 19 19 19 19 19
34 34 36 38 37 34 31 29 27 25 24 24 24 25 25 26 27 28 29 28 28 28 28 27 26 26 25 24 23 23 22 21 21 20 20 20 18 17 17 17 17 18 18 18 17 17 17 18 19 20 20 21 20 20 19 19 18 18 19 19 20 20 20
37 38 39 39 37 32 30 29 27 25 25 24 24 24 24 25 26 28 29 28 28 28 28 26 24 23 23 23 23 23 22 21 21 20 20 19 18 17 17 17 17 18 18 18 18 18 18 19 19 19 19 19 19 18 18 18 18 19 19 20 21 21 21
38 39 39 38 36 32 30 30 28 26 25 23 22 22 22 24 25 26 28 28 28 29 29 27 24 22 22 21 22 22 21 21 21 20 20 19 19 18 18 18 18 18 18 18 18 18 19 18 18 18 18 18 18 18 18 19 20 20 21 21 21 21 21
38 39 37 36 36 33 31 31 30 27 25 23 22 21 21 23 24 25 26 27 27 28 29 28 26 23 21 21 21 21 21 22 21 21 21 20 19 18 18 19 19 19 18 18 18 18 18 17 17 18 18 18 18 19 19 20 21 21 21 21 21 20 20
34 36 35 34 35 33 31 31 31 29 27 24 22 21 21 22 23 23 25 25 24 25 28 28 26 24 22 22 23 23 23 23 22 22 22 21 20 19 20 20 20 19 19 18 18 18 18 18 18 19 19 19 19 20 21 21 21 21 21 20 20 20 20
27 31 33 33 33 31 29 29 30 29 27 25 23 21 20 21 22 23 24 25 24 24 26 27 27 26 25 25 25 25 25 24 24 23 22 21 20 20 21 21 20 20 20 19 19 18 19 19 20 20 20 19 19 20 21 21 20 20 20 20 20 20 21
22 24 29 31 30 30 29 29 29 27 26 25 25 23 21 20 22 24 24 25 25 25 25 26 28 28 27 27 27 26 26 25 25 24 22 21 21 21 21 22 22 21 21 21 20 19 20 21 21 20 19 19 19 20 20 20 20 20 20 20 20 21 22
18 18 21 26 27 28 29 29 28 26 24 24 24 24 22 21 22 24 25 26 26 25 25 26 28 28 27 27 27 26 26 26 25 24 23 23 22 22 22 22 23 23 23 22 21 20 21 21 21 20 19 19 19 19 20 20 20 20 20 21 21 21 22
13 13 16 21 24 27 28 28 27 24 22 22 23 23 23 23 23 24 26 27 26 25 24 25 26 27 27 26 26 26 27 27 26 25 24 24 23 23 23 23 23 24 23 23 22 22 22 21 21 20 20 20 20 20 21 21 21 21 21 22 22 23 23
9 11 14 18 22 25 27 26 25 24 23 22 23 24 24 23 23 23 24 25 25 25 25 25 25 26 26 26 26 26 27 27 27 26 25 24 24 23 23 24 24 24 24 24 24 24 23 22 22 21 21 21 21 22 23 23 23 23 24 24 24 24 25
8 10 13 16 20 23 25 26 26 26 25 24 24 24 24 23 22 21 22 23 24 25 25 25 25 25 26 26 26 26 26 27 27 26 25 24 24 24 24 24 24 24 25 25 26 25 25 24 23 23 23 23 23 24 24 25 25 25 26 26 26 26 27
10 11 13 16 19 22 24 27 28 28 27 25 25 24 23 23 23 23 22 23 24 25 25 25 25 25 25 25 25 25 26 27 26 26 26 26 25 24 24 24 24 24 25 26 27 26 26 25 25 25 25 25 25 25 26 26 26 27 27 27 27 28 28
11 12 14 16 18 20 22 24 26 27 26 26 26 25 23 24 25 24 24 24 24 24 24 25 26 26 25 24 25 26 27 27 27 28 27 26 25 24 24 24 25 26 27 28 28 27 26 25 25 26 26 25 26 26 26 27 27 27 27 28 28 28 29
12 13 14 15 16 17 19 20 22 24 26 26 26 25 24 25 26 25 24 24 24 24 24 24 25 26 26 26 27 29 29 28 28 27 26 25 24 24 24 25 26 27 28 28 27 26 25 25 25 26 26 26 26 26 26 27 27 28 28 28 28 28 28
12 12 13 13 13 14 16 19 21 23 25 25 24 24 23 25 25 25 25 25 24 24 25 25 25 26 27 28 29 30 30 29 28 27 26 26 26 27 27 27 27 27 26 26 25 25 25 25 25 26 26 27 27 27 27 27 28 28 28 28 28 28 28
11 10 11 11 12 11 13 17 21 22 22 22 22 22 23 24 25 25 25 26 26 25 25 25 25 25 27 29 30 31 30 30 29 28 27 27 27 27 27 27 26 26 25 24 24 24 25 26 26 27 27 27 27 28 28 28 28 28 27 27 28 28 28
11 10 10 10 11 11 10 13 17 19 20 20 21 22 24 25 25 25 26 27 26 26 25 25 24 25 26 28 29 29 29 29 28 28 27 26 25 25 25 25 25 24 24 24 25 25 26 27 28 28 28 29 29 29 29 28 28 28 28 28 28 28 28
11 11 10 10 9 9 9 11 14 17 19 20 21 24 26 26 25 26 27 27 26 25 25 25 25 25 27 28 28 28 28 28 28 27 26 25 25 25 24 24 23 23 24 25 26 27 27 28 28 29 29 29 29 29 29 29 29 29 29 29 28 28 28
12 11 11 11 10 10 11 13 14 16 19 22 22 23 25 25 25 27 28 27 25 25 25 25 25 26 27 28 28 29 29 29 28 27 27 26 26 25 24 23 23 23 24 25 26 27 28 29 29 29 29 28 29 30 30 30 31 31 30 29 28 28 28
12 11 11 13 13 12 13 15 18 18 19 21 22 24 25 26 27 28 28 27 26 26 25 25 25 25 26 27 29 29 29 29 29 28 28 27 26 25 25 25 24 24 24 25 25 26 27 29 30 30 30 30 31 32 31 30 30 30 29 29 29 30 30
14 13 13 13 14 14 14 12 16 20 20 20 23 25 26 27 30 30 28 27 26 25 25 24 24 24 25 27 29 29 29 29 29 29 29 28 27 26 26 26 26 25 25 26 26 26 27 29 31 31 32 33 34 33 32 30 30 30 30 31 31 32 33
15 15 14 14 14 15 15 13 11 14 17 21 24 25 26 29 32 30 26 25 25 24 23 23 23 23 24 26 28 29 29 29 29 29 28 27 26 25 25 26 26 27 28 29 29 29 31 32 33 33 33 34 34 34 34 34 34 34 34 34 34 33 33
17 16 16 16 16 15 15 16 15 14 13 18 26 28 28 30 31 29 25 25 24 23 23 23 23 24 25 27 28 28 29 29 30 29 29 28 27 27 27 27 27 29 31 31 32 33 34 35 34 34 34 35 36 37 38 39 39 39 39 39 37 36 35
19 18 17 17 17 17 16 16 17 16 13 13 20 27 29 29 29 29 27 25 24 24 24 25 26 25 25 26 27 29 29 30 29 29 29 28 28 28 27 26 26 28 29 29 31 33 34 35 35 35 36 37 38 39 40 41 41 41 40 40 40 40 39
20 19 19 18 18 18 17 17 17 18 16 14 15 18 23 25 26 27 27 25 26 26 27 27 27 25 23 24 26 29 30 29 27 26 26 27 27 28 27 27 27 29 30 31 33 34 36 37 38 39 39 39 39 39 40 40 41 40 39 38 38 37 37
21 20 20 19 19 19 19 19 18 18 18 17 16 16 18 20 23 25 26 27 27 28 28 29 29 28 26 26 28 30 31 30 29 29 30 32 33 33 32 32 31 32 34 35 37 39 40 42 42 42 42 41 39 39 39 40 40 39 37 35 33 33 33
23 22 22 21 20 20 21 21 21 20 20 19 18 18 18 17 19 22 26 27 27 26 26 26 26 27 27 27 28 28 28 29 31 32 33 34 36 37 39 39 39 39 39 40 42 44 45 45 44 44 42 40 38 38 38 37 36 35 33 33 33 33 35

ECMWFFLT1_500_spd_102.txt.gz
Wind_Speed
29 30 30 30 30 29 27 25 23 21 18 16 14 15 18 20 20 22 22 20 19 18 17 19 20 20 19 18 18 17 16 18 18 17 16 15 13 13 12 13 14 14 14 14 13 14 14 14 15 15 15 15 15 14 13 15 16 15 14 14 14 14 13
28 30 31 31 30 28 27 26 25 23 20 18 15 13 16 19 21 22 23 22 22 20 17 17 19 20 20 18 18 17 17 18 17 17 16 14 13 14 13 13 13 13 14 14 14 15 15 15 15 15 16 16 16 16 16 17 17 16 15 15 14 14 14
29 30 30 30 29 28 26 25 24 25 22 19 17 15 14 17 20 22 23 23 23 22 20 19 20 20 20 19 18 18 18 18 17 17 17 14 14 15 14 13 14 15 14 14 15 16 16 15 15 15 16 16 16 17 17 17 17 16 16 15 15 15 15
30 30 30 30 29 28 27 25 23 24 24 20 18 17 16 16 18 21 23 24 24 23 22 22 22 22 21 20 19 18 19 18 18 18 17 15 15 15 14 13 15 16 15 15 16 17 16 15 15 15 16 15 16 16 16 17 17 16 16 16 16 16 15
31 32 32 32 31 29 28 27 24 24 24 23 20 19 18 17 18 19 20 22 24 24 24 23 22 22 22 20 19 19 19 18 18 17 17 16 15 15 14 14 16 17 16 16 17 17 16 15 15 15 15 15 15 16 16 17 17 16 16 16 17 16 16
33 33 34 34 33 31 30 29 27 25 25 24 23 22 19 18 19 18 18 20 21 22 23 23 21 21 21 20 19 19 18 18 17 17 17 16 16 16 16 16 17 17 17 16 17 17 17 16 16 15 15 14 14 16 16 17 17 16 16 16 17 17 17
33 34 35 36 36 33 31 31 29 27 27 26 26 24 20 18 19 19 19 19 20 21 22 22 20 19 20 20 20 19 18 18 18 17 18 17 18 18 18 17 17 17 18 17 18 19 18 17 17 16 15 14 14 15 16 16 16 15 15 16 17 17 17
33 33 35 37 37 34 31 32 31 29 28 28 28 26 23 20 20 20 19 20 21 22 23 23 20 18 19 20 20 20 20 19 18 18 19 19 20 20 19 18 18 19 19 19 19 19 18 18 17 16 15 14 14 15 16 15 15 15 15 15 16 16 17
34 34 34 37 37 34 32 34 33 30 29 29 28 27 25 22 21 21 21 21 22 23 23 23 21 19 19 20 20 20 19 19 19 19 21 22 22 21 19 18 19 20 20 19 19 19 18 18 17 16 14 13 14 15 16 16 15 15 15 15 16 16 17
37 35 35 37 36 33 32 34 34 31 29 29 28 27 26 24 24 24 23 23 24 24 25 25 24 22 21 21 21 21 21 21 21 22 23 24 22 20 19 18 19 20 20 20 19 18 18 18 17 16 14 13 14 15 17 17 16 16 15 16 16 16 16
38 37 37 37 35 32 32 34 34 31 29 29 30 27 26 26 26 26 26 25 26 26 27 27 27 26 25 24 22 22 22 22 22 23 24 24 22 19 18 18 19 20 20 19 19 18 18 18 17 16 15 14 15 16 18 17 17 16 16 15 15 16 16
38 38 38 38 35 33 33 33 32 30 28 29 30 28 26 26 27 27 26 26 26 27 28 28 28 28 26 25 24 23 23 24 23 24 24 23 21 19 18 18 19 20 20 19 18 18 18 18 17 17 16 15 16 17 18 17 17 17 15 15 15 16 17
37 36 36 35 33 31 32 31 31 30 29 29 31 30 27 26 26 27 27 27 27 28 30 29 28 28 26 25 24 24 24 25 25 24 23 23 22 20 19 19 19 20 19 18 18 18 18 18 18 17 16 16 17 18 18 17 17 17 16 16 16 17 18
35 33 33 32 30 29 30 29 30 30 28 29 30 30 28 26 26 26 27 27 28 28 29 29 28 28 28 27 26 26 25 26 26 25 24 24 23 21 20 20 19 19 19 18 18 18 18 19 19 18 17 16 17 18 18 17 17 17 17 18 19 20 21
32 29 29 28 27 26 27 28 30 31 30 30 31 30 28 26 26 27 27 27 26 26 27 28 28 28 28 27 27 26 26 25 25 25 25 24 23 21 20 20 19 19 19 18 18 18 19 19 19 18 17 17 17 18 18 18 18 19 20 20 21 21 21
25 24 22 21 22 24 25 27 30 31 31 30 31 30 27 25 25 26 26 25 24 24 25 26 28 27 26 26 25 25 25 24 23 24 24 23 23 21 20 19 18 18 18 18 18 19 20 20 19 18 17 17 18 19 19 19 20 20 21 21 21 20 20
16 18 18 17 19 22 25 27 29 30 29 28 29 29 27 26 25 25 25 24 24 23 23 24 26 26 26 26 25 24 24 23 23 23 24 24 23 21 20 19 18 18 18 18 19 20 20 20 19 18 18 19 19 20 20 20 21 21 21 20 20 19 20
11 11 13 14 16 18 22 24 26 25 25 25 25 25 25 26 26 25 24 23 23 23 22 23 24 24 25 24 23 23 24 22 21 23 25 25 23 21 20 19 19 18 18 18 20 21 21 20 20 20 20 20 20 20 20 20 21 21 21 20 20 20 21
13 8 8 10 11 12 15 19 21 22 23 24 24 23 24 25 26 25 24 23 22 21 22 23 24 23 23 23 23 23 22 20 20 23 26 25 23 21 20 20 19 19 19 19 20 21 21 21 21 21 20 20 20 21 21 21 22 23 22 22 21 22 22
16 12 8 7 8 8 10 13 17 21 23 24 24 23 23 24 25 25 24 23 21 22 23 25 24 23 22 22 23 23 22 22 24 26 26 24 22 22 21 21 20 20 20 21 21 22 21 21 22 22 22 22 22 22 23 23 24 24 24 23 23 23 24
16 14 12 9 8 9 10 13 16 20 22 24 24 23 23 24 24 24 24 24 24 24 26 27 26 24 22 20 21 23 23 24 26 26 25 23 22 22 22 22 22 22 22 22 22 22 22 22 23 23 23 23 23 24 24 25 25 25 25 24 25 25 26
16 15 13 12 11 11 11 13 16 19 21 22 22 24 25 24 24 24 24 24 25 25 25 26 26 24 23 23 24 26 25 25 24 24 24 23 23 23 23 23 24 23 23 22 23 23 23 23 23 24 24 24 24 25 25 25 25 25 26 26 26 27 27
15 15 14 13 13 12 13 14 16 19 20 21 23 26 27 26 25 25 24 23 24 24 24 25 26 26 27 26 27 28 26 24 24 24 24 24 23 24 24 24 25 25 25 25 25 26 26 25 25 25 26 26 26 26 26 26 26 26 26 26 26 27 27
15 14 14 14 13 13 13 14 16 18 20 22 25 28 28 27 27 27 25 23 24 24 24 25 25 26 26 26 26 27 26 25 24 24 24 24 24 24 25 26 26 26 26 26 27 27 27 28 28 28 27 26 26 26 26 26 26 26 26 27 27 27 27
15 14 14 14 14 14 14 14 15 17 19 21 24 26 27 27 27 27 25 24 24 25 25 25 25 26 26 25 25 26 26 26 24 24 24 24 25 26 26 26 26 26 26 26 27 28 28 29 29 28 27 26 25 25 26 26 27 27 28 28 28 29 28
15 14 14 14 15 14 14 14 15 16 17 19 22 23 24 25 26 25 25 25 25 24 24 25 25 26 26 25 25 26 26 26 25 24 25 26 27 27 27 27 27 27 27 28 29 29 29 29 28 26 25 25 25 26 26 27 28 29 29 29 29 29 29
14 14 14 15 16 16 15 14 14 15 16 18 20 22 22 24 24 24 24 24 24 22 23 25 26 25 26 26 26 26 25 25 26 26 27 28 28 28 28 29 29 29 30 30 30 29 28 27 26 25 25 26 26 27 28 29 30 30 30 30 30 30 30
14 14 14 15 16 17 18 15 12 12 13 15 17 20 21 22 22 23 24 24 24 25 25 26 26 27 27 27 28 27 25 25 26 27 28 29 29 29 29 30 29 29 29 28 28 27 26 25 26 26 27 27 28 29 30 30 31 30 30 30 30 31 31
14 14 14 16 16 17 19 18 14 12 12 14 15 17 19 20 21 22 24 25 25 24 25 27 28 28 29 29 29 28 27 27 27 27 28 28 29 29 29 28 27 26 26 26 26 26 26 26 27 28 28 29 30 30 31 31 31 32 32 32 32 31 30
14 14 14 16 17 17 18 18 17 16 14 14 16 17 18 20 22 23 24 25 25 23 24 29 30 29 30 30 30 29 28 28 28 28 28 28 28 27 27 26 26 25 26 26 25 26 27 27 28 29 30 30 30 31 31 31 32 32 33 33 32 31 30
15 16 15 15 16 18 18 18 19 19 17 14 15 20 21 21 24 27 27 28 27 26 29 33 32 31 30 30 30 30 29 28 28 28 28 27 27 27 26 26 26 27 26 26 27 28 29 29 29 30 29 30 30 30 31 31 32 32 33 33 33 33 32
17 17 17 16 16 17 18 18 18 20 19 16 14 18 23 24 25 27 28 29 29 29 33 35 34 32 31 30 30 30 29 28 26 25 26 27 27 27 28 27 28 28 28 28 28 29 30 30 30 29 29 31 31 31 32 33 33 32 33 34 35 35 35
20 19 19 18 18 17 17 17 17 18 19 19 17 16 19 24 26 27 27 28 30 31 34 36 35 33 31 30 31 30 30 28 24 22 26 29 28 29 29 29 29 29 30 30 30 30 32 32 31 31 31 32 33 34 35 36 35 35 35 35 36 37 38
23 23 22 21 20 20 19 18 17 17 17 19 19 18 17 19 23 27 28 29 31 33 35 35 34 32 31 30 31 31 30 27 22 21 25 28 28 27 28 28 29 29 31 32 32 32 34 33 32 32 33 34 35 37 38 37 37 36 36 36 38 40 41
24 25 24 23 23 22 21 20 19 17 16 17 18 19 18 17 18 20 23 25 27 31 33 31 29 29 29 29 30 30 29 27 24 24 27 29 31 31 30 29 28 29 31 32 33 33 34 33 32 32 32 33 35 37 38 37 37 37 38 40 42 43 42
24 25 25 25 24 24 24 23 22 19 18 17 18 18 18 18 17 17 18 18 20 22 26 27 26 26 27 28 29 30 30 28 27 28 29 30 32 33 31 29 30 31 31 33 34 35 35 33 32 32 33 34 37 39 40 39 39 40 42 43 44 43 42
23 24 24 25 25 25 25 25 25 23 20 19 20 19 19 19 18 18 18 18 18 19 22 25 26 26 27 28 29 30 31 30 30 32 33 33 32 32 31 31 32 34 34 35 35 35 35 35 35 35 36 38 39 41 43 44 45 45 45 44 43 43 42

ECMWFFLT1_500_spd_105.txt.gz
Wind_Speed
31 31 31 31 30 29 29 31 31 32 33 33 30 28 28 27 25 25 23 23 22 22 21 21 21 23 24 24 23 22 19 18 19 18 18 17 16 15 15 15 15 15 15 15 13 13 12 12 12 12 13 13 13 14 14 13 13 11 10 11 11 11 10
32 32 31 31 31 30 30 31 31 30 31 32 30 28 28 26 25 24 22 22 24 23 22 20 19 21 23 24 23 21 19 19 19 19 18 18 17 16 15 15 16 15 16 15 15 15 14 14 14 13 14 14 14 15 15 14 14 12 12 12 12 12 11
34 33 32 33 33 32 31 32 31 29 29 29 28 28 29 26 24 24 23 22 23 23 23 20 18 20 22 23 23 22 20 20 20 19 19 18 17 16 15 16 16 16 15 14 15 16 15 14 14 14 14 14 15 16 15 15 14 13 13 13 13 13 12
34 34 34 34 35 34 33 32 31 29 29 29 27 27 29 28 25 24 24 22 21 21 22 21 20 21 22 23 23 22 20 19 18 18 18 18 17 17 16 16 17 17 15 14 16 17 16 15 14 14 15 15 15 16 16 15 14 13 13 13 13 13 13
34 35 36 37 37 36 34 33 31 31 30 28 26 26 28 29 27 25 25 23 21 20 22 22 21 22 22 22 22 21 19 18 18 18 18 18 18 18 17 16 17 17 16 15 16 17 16 15 15 15 15 15 15 15 16 15 14 13 13 13 14 14 14
33 35 37 38 38 37 34 33 32 31 30 28 26 27 28 28 27 27 26 24 22 21 22 23 23 24 23 22 21 20 19 19 19 19 19 18 18 18 17 17 18 17 17 16 16 16 16 15 15 15 15 15 15 15 15 15 14 14 13 13 14 14 14
34 35 37 39 39 38 35 34 34 33 31 28 26 26 28 28 27 28 27 24 22 23 22 22 22 24 24 21 21 20 20 20 19 19 19 19 19 19 19 19 19 18 17 16 16 16 16 15 15 15 16 16 15 15 15 15 14 14 13 13 13 14 14
36 37 39 40 41 40 38 37 36 34 32 29 25 24 26 27 27 29 29 26 24 23 23 20 20 23 22 20 20 21 21 21 20 20 20 20 20 20 20 21 21 18 16 17 17 16 16 16 15 15 16 16 15 15 15 15 15 14 13 13 13 13 14
38 40 42 43 43 43 41 39 37 35 32 29 25 24 25 25 26 28 29 29 26 23 23 21 20 22 23 20 20 21 23 24 23 21 21 22 22 22 21 21 20 17 17 18 18 17 17 16 15 15 16 16 16 16 16 16 15 15 14 13 13 14 14
42 43 44 44 43 41 40 38 36 34 31 29 26 23 23 24 25 27 29 29 27 24 23 23 22 22 22 21 20 22 24 24 23 23 22 22 23 22 21 21 20 18 17 18 18 18 17 16 15 15 16 17 17 17 16 15 16 16 15 14 14 15 15
43 43 42 41 39 37 36 35 33 32 31 29 27 23 22 23 24 27 28 28 28 26 25 24 24 22 21 21 23 24 23 22 22 23 22 21 21 21 20 21 20 18 18 19 19 18 18 16 15 16 16 17 18 18 17 16 16 16 15 15 15 16 15
39 38 37 37 37 36 35 33 31 31 29 27 25 22 22 22 24 26 28 28 27 27 26 26 25 24 22 21 23 24 23 22 21 21 21 22 22 21 20 20 19 18 19 20 19 19 18 16 16 16 16 18 19 18 17 16 16 17 16 15 15 16 16
33 34 35 37 38 36 35 34 32 30 27 24 24 21 20 22 24 26 28 28 26 26 26 26 26 26 24 23 24 24 24 22 20 21 22 23 22 20 19 19 20 19 20 20 20 19 17 16 16 16 17 17 18 18 17 17 17 18 17 16 16 16 16
30 32 34 37 38 34 31 31 28 26 24 21 19 18 18 21 23 25 27 28 27 26 26 26 26 26 25 25 26 25 25 23 22 23 23 22 21 20 19 20 21 20 19 20 20 19 17 16 16 17 17 17 18 19 18 18 18 18 18 17 17 17 17
29 31 33 35 35 30 26 24 22 22 24 21 18 16 18 20 22 24 26 27 27 27 27 27 27 27 27 27 27 27 27 25 24 24 24 23 21 20 21 22 21 20 20 21 21 19 18 17 17 17 17 18 19 20 19 19 19 18 18 18 18 19 19
28 29 31 32 30 26 22 19 17 19 21 21 19 17 18 20 22 24 25 26 27 28 28 28 27 26 26 27 28 28 27 26 26 25 24 23 21 20 23 22 21 20 20 21 21 20 19 18 18 18 17 18 18 19 19 19 19 19 19 20 20 21 22
27 27 28 27 23 22 19 16 16 17 18 19 20 18 19 21 23 24 25 27 28 29 30 29 27 25 25 26 26 25 25 25 26 25 24 23 21 21 23 21 20 20 20 20 20 19 19 19 18 17 17 17 18 19 20 20 20 20 21 22 22 23 23
25 25 25 24 20 18 17 16 16 16 17 19 21 21 22 23 25 26 27 27 29 29 28 26 25 24 23 23 23 24 24 25 25 25 25 23 22 22 22 21 19 19 19 19 19 19 19 19 19 18 17 18 19 20 20 21 22 23 23 23 23 23 24
24 23 23 23 21 16 12 12 13 13 15 18 20 22 24 25 27 29 28 27 28 28 27 25 23 23 23 23 23 23 24 25 25 26 25 24 23 23 22 20 18 18 19 19 19 20 20 19 20 20 19 20 21 21 21 22 23 24 24 24 24 24 24
22 22 21 22 21 18 13 10 9 9 11 15 18 20 23 25 26 28 27 25 25 26 26 26 25 24 25 25 23 22 23 24 25 26 26 25 24 24 23 20 17 18 20 20 20 21 21 20 20 19 20 22 22 22 22 22 24 25 25 25 25 25 25
20 20 20 21 21 19 15 12 10 10 11 14 16 19 23 24 25 26 26 25 24 25 25 26 25 23 23 24 24 24 25 24 25 25 25 25 23 22 21 18 17 19 21 21 21 22 21 19 18 19 20 20 19 20 22 22 24 25 25 25 26 26 26
19 19 19 20 20 19 17 15 13 12 13 15 16 17 20 23 24 25 26 26 25 24 24 24 24 24 23 23 23 24 24 24 25 25 24 23 21 19 19 19 19 21 21 20 21 21 20 20 19 18 18 17 17 19 20 21 22 22 23 25 26 26 26
19 18 18 18 19 19 18 16 15 14 14 14 16 18 20 23 24 26 27 26 24 23 23 22 22 24 24 23 22 23 23 23 24 23 22 21 19 19 22 23 22 23 22 21 21 21 21 21 20 20 20 21 21 21 19 19 21 22 24 26 25 25 25
19 19 18 18 18 19 18 17 16 16 15 15 16 19 21 23 24 26 27 26 24 23 21 20 21 23 23 22 22 22 21 19 20 21 20 19 20 22 25 24 23 23 22 22 23 22 22 23 23 23 24 26 27 27 25 24 25 24 24 25 25 25 25
19 19 19 18 18 18 19 19 18 17 17 16 16 18 21 22 23 25 26 26 26 25 23 21 21 23 22 22 22 22 20 18 19 20 19 19 23 25 25 25 25 24 23 23 23 23 24 25 25 26 27 28 29 30 29 29 29 27 25 23 22 23 23
19 19 19 18 19 19 20 20 20 19 18 16 14 16 19 20 21 23 25 26 27 27 25 23 23 23 23 22 22 23 23 21 20 20 21 23 26 26 26 25 25 24 24 24 25 25 25 26 26 27 28 29 30 31 31 30 30 28 27 24 22 22 23
19 19 19 18 18 19 20 22 22 21 19 16 12 14 17 18 19 21 22 24 25 26 25 24 24 24 23 22 22 23 24 24 24 23 24 25 26 26 26 26 25 25 26 25 26 26 26 26 27 28 29 30 31 32 31 30 29 28 27 27 26 26 27
19 19 18 18 18 19 20 22 23 22 20 18 15 13 14 15 16 17 19 21 22 24 25 25 25 24 23 22 22 23 25 26 26 26 26 26 25 25 25 24 24 25 25 26 27 28 28 28 27 28 30 31 30 30 29 28 28 28 28 28 29 29 29
19 19 19 18 19 19 20 21 22 22 21 20 19 16 13 14 14 14 16 19 21 22 24 23 22 22 23 22 22 23 24 25 26 26 26 27 26 25 25 25 25 26 27 29 31 30 30 29 29 29 29 29 28 28 28 28 28 29 30 30 30 30 30
19 20 19 19 19 19 20 21 21 21 21 20 20 19 16 14 14 14 15 16 18 20 21 21 21 23 24 24 24 24 23 23 25 27 28 29 28 28 29 28 26 27 30 32 32 30 30 30 29 28 28 28 28 28 28 29 30 31 31 31 31 31 30
19 19 19 19 19 19 20 21 21 21 21 20 20 20 18 15 14 15 16 15 15 18 21 23 24 25 25 25 25 25 24 26 29 31 31 32 31 29 29 30 29 30 32 32 31 30 30 29 27 27 28 29 29 29 29 30 31 32 32 32 32 31 30
20 19 19 19 20 20 20 21 21 21 21 21 20 19 19 17 15 14 16 17 18 20 23 25 26 26 25 25 26 27 27 29 30 29 29 29 28 26 27 29 31 32 32 31 30 30 30 27 25 27 29 29 29 29 30 31 32 33 33 33 33 33 32
21 21 21 21 21 21 21 21 22 21 20 21 20 19 19 18 16 15 15 16 19 22 24 26 28 29 29 28 30 30 28 27 27 27 28 28 27 27 28 29 30 30 30 30 30 30 29 28 27 28 29 30 31 31 32 32 33 33 33 34 34 35 34
23 24 24 23 23 23 22 22 22 22 20 19 19 19 18 18 17 16 16 16 17 19 21 22 25 31 33 33 34 35 33 32 31 29 27 26 27 29 30 29 28 28 29 30 30 29 30 31 32 32 32 33 34 34 34 34 34 35 35 35 37 37 36
26 26 26 25 25 24 23 22 22 23 22 20 19 18 18 18 18 18 17 16 16 17 17 16 17 21 26 31 37 38 35 33 31 29 26 24 26 28 29 28 28 30 32 33 32 31 32 33 34 34 35 35 35 35 35 35 36 36 37 38 38 38 37
27 26 26 26 25 24 24 22 22 22 23 22 20 19 18 18 18 18 18 17 17 17 16 16 16 17 20 26 31 32 29 28 28 29 30 30 31 32 31 31 32 34 33 33 32 32 32 32 32 32 33 34 34 34 34 35 36 36 37 38 38 37 37
26 25 24 24 25 24 23 22 21 21 22 23 23 21 19 18 19 20 19 18 18 17 16 16 16 17 18 21 23 24 24 25 26 26 28 31 33 34 35 35 35 34 31 31 32 33 33 34 33 33 34 35 35 36 36 37 37 37 38 39 39 38 39

ECMWFFLT1_500_spd_108.txt.gz
Wind_Speed
28 30 31 32 32 32 32 32 31 31 31 30 31 31 31 31 30 28 28 30 31 28 28 27 25 23 21 20 20 19 20 20 19 20 20 20 20 20 19 19 19 18 17 17 15 15 14 13 12 12 11 11 10 11 11 11 10 10 8 8 8 9 9
31 32 33 34 33 33 33 33 32 32 31 31 31 31 31 32 31 29 27 28 29 27 26 26 26 24 21 20 20 21 22 22 22 21 21 20 20 21 20 18 18 18 18 17 15 16 15 14 14 13 13 13 12 12 12 11 11 11 10 10 10 10 9
32 34 35 34 33 33 33 33 32 32 32 32 31 30 31 31 31 30 27 26 28 27 25 25 25 24 23 22 22 24 25 23 22 22 21 21 21 21 20 19 19 18 18 17 16 16 16 15 15 14 14 14 13 12 12 12 12 11 11 11 10 10 10
33 35 35 35 33 32 32 33 32 31 32 33 33 32 31 31 30 28 27 26 26 26 25 24 23 22 23 23 21 24 26 24 22 22 21 21 21 21 20 20 20 19 18 17 16 16 16 15 15 15 14 14 14 13 13 12 12 12 11 11 11 11 11
34 35 35 35 34 32 32 33 33 33 33 34 36 35 34 32 30 27 26 25 24 24 25 24 23 22 22 22 19 20 24 24 23 22 21 20 21 21 21 20 20 19 18 17 17 17 16 15 16 16 14 14 14 14 13 13 12 12 12 12 12 12 12
34 36 35 35 34 33 33 35 36 36 35 36 38 39 37 33 31 28 24 23 23 23 24 24 23 22 21 22 20 19 22 24 24 23 22 21 21 22 21 21 21 20 18 18 18 17 16 16 16 15 15 15 14 14 14 13 13 12 12 13 13 13 12
34 35 35 34 35 35 36 37 38 39 38 38 39 41 40 35 32 30 26 22 22 22 23 23 22 21 20 22 22 22 22 23 23 22 22 21 21 21 22 21 21 21 19 18 18 17 17 16 15 15 15 15 14 15 15 15 14 14 13 13 13 13 12
33 34 35 35 35 37 38 38 39 39 38 37 39 41 41 37 33 31 28 23 22 20 20 22 21 20 20 20 22 23 23 24 23 22 22 21 21 22 22 22 22 22 20 18 17 17 17 16 15 15 15 15 15 16 17 16 15 14 13 12 13 13 11
32 33 35 35 35 37 38 38 37 36 34 34 36 39 40 39 35 32 28 24 22 20 19 20 21 20 20 19 20 20 22 24 23 23 22 22 22 22 22 22 23 23 21 19 18 18 18 17 16 15 16 17 17 17 17 16 15 14 14 13 12 12 11
31 32 34 35 36 36 37 37 36 36 35 32 33 36 37 38 37 33 28 24 22 21 19 19 20 20 20 19 18 19 21 23 23 22 22 22 22 22 22 23 23 22 21 19 19 19 18 18 17 17 18 18 17 17 17 17 16 15 15 14 13 13 12
30 32 34 35 36 36 36 37 38 38 37 32 32 33 33 34 34 31 27 25 23 19 18 18 20 20 20 20 20 20 21 22 24 23 21 21 21 21 22 24 23 23 21 21 21 21 19 18 17 18 18 18 18 17 17 17 16 16 16 15 14 13 12
30 32 33 34 34 35 36 38 39 40 37 32 30 30 29 29 30 29 26 23 20 18 17 18 19 20 20 20 21 21 21 21 23 23 22 21 21 22 23 23 23 22 21 22 22 22 20 19 18 18 18 18 17 17 16 16 16 16 17 16 14 13 12
30 31 31 32 34 35 36 37 39 39 35 30 28 27 26 26 27 28 25 20 18 18 18 18 19 20 20 21 21 22 22 21 22 23 23 21 21 22 22 22 22 21 21 22 23 23 21 19 18 19 19 18 17 18 16 14 17 18 18 18 16 14 13
30 30 30 32 34 34 35 37 38 38 32 27 26 24 24 24 26 27 24 22 19 18 19 19 20 20 20 21 22 22 23 22 22 22 22 22 21 21 21 22 23 22 22 22 23 23 21 18 18 18 19 18 17 18 16 16 20 21 20 20 18 14 13
29 29 29 31 33 33 34 35 37 35 29 25 23 20 21 23 26 26 24 22 20 20 21 20 20 21 22 22 22 23 24 23 23 23 22 23 23 23 22 22 23 23 23 23 23 22 20 18 18 18 17 16 16 17 18 19 21 21 20 20 18 15 14
28 29 29 30 31 32 32 33 34 32 27 23 20 18 19 23 26 27 25 22 21 22 21 21 21 22 22 22 22 23 24 23 24 25 24 24 25 25 24 24 23 23 23 23 22 20 18 18 18 17 16 16 17 17 18 19 20 20 20 19 17 16 15
28 29 28 29 30 30 30 31 31 30 26 23 20 18 19 22 26 27 26 24 23 22 21 20 21 21 21 21 21 21 22 23 25 26 25 26 26 25 25 24 23 23 23 23 22 20 18 18 18 16 15 15 17 17 18 20 20 19 19 18 17 17 17
27 27 27 27 28 28 28 29 29 28 26 22 20 19 20 22 24 26 25 25 23 22 21 19 19 20 20 20 20 21 22 23 24 25 25 26 26 25 24 23 22 22 23 23 22 19 17 17 17 15 13 15 18 18 19 20 19 19 19 19 18 18 18
26 26 25 25 26 27 28 28 28 27 26 23 20 19 20 22 25 26 26 26 24 22 21 19 19 20 20 19 20 20 22 23 23 24 24 23 24 24 23 23 23 23 22 23 22 19 17 17 17 16 16 18 20 19 19 20 20 21 21 19 19 20 20
25 24 24 24 25 26 27 27 27 26 25 24 21 18 18 20 22 24 25 25 23 22 23 22 20 21 21 19 19 19 21 22 22 22 21 21 22 23 23 24 23 22 21 22 22 21 19 19 20 20 20 21 22 20 20 22 22 22 21 20 20 21 21
24 24 23 24 24 25 27 27 26 26 25 24 22 19 17 18 19 20 22 23 23 23 24 23 21 22 22 19 18 19 19 20 21 21 20 20 22 23 23 23 23 22 23 23 23 23 21 19 20 21 20 21 22 21 23 24 23 22 23 21 21 22 21
24 24 24 24 25 25 26 26 26 25 24 24 23 21 19 18 19 19 20 21 22 22 23 22 22 23 22 20 19 19 19 20 20 21 21 21 21 22 22 23 23 23 24 23 21 22 21 18 18 19 19 21 22 22 24 24 23 22 22 20 20 20 19
24 24 24 25 25 25 25 25 25 25 25 24 24 23 21 19 18 18 18 19 21 22 22 22 22 23 22 20 19 19 19 19 20 22 22 20 20 22 22 23 23 23 24 23 21 21 21 20 19 20 20 21 21 22 23 23 22 20 18 18 19 19 18
24 24 24 24 25 24 24 25 25 24 24 24 24 24 23 21 18 17 17 19 21 23 24 23 23 23 22 21 19 19 19 19 19 21 22 21 22 22 22 22 22 22 23 22 21 20 21 21 21 21 21 21 21 22 22 21 21 21 19 20 22 21 21
24 24 24 24 24 24 24 24 24 24 24 24 24 24 24 21 18 16 17 19 21 23 24 24 23 22 21 21 20 19 19 19 19 21 23 23 23 23 22 21 22 23 22 20 21 21 22 22 23 23 22 22 23 23 24 23 24 25 25 25 25 25 24
24 24 24 24 23 23 23 23 23 23 23 24 24 23 23 22 18 16 17 18 20 21 22 22 23 22 21 21 21 20 20 20 21 22 22 22 22 23 24 23 23 24 22 20 23 25 24 24 24 23 23 23 24 25 25 25 26 26 26 26 25 25 26
24 24 24 24 23 23 23 22 23 23 23 23 23 23 22 22 21 18 16 17 19 20 20 21 22 23 23 23 22 21 20 20 21 22 21 20 20 22 23 23 24 25 23 23 26 27 26 24 23 23 24 25 25 26 25 25 26 27 26 25 23 24 26
25 25 25 24 23 23 23 22 22 22 22 23 23 22 22 22 22 21 17 15 16 17 17 19 21 21 21 22 22 20 20 20 20 20 21 21 21 21 22 22 24 24 23 24 27 25 24 24 25 25 26 25 25 26 26 27 28 28 28 26 25 26 27
25 25 25 24 23 22 23 22 22 22 22 22 22 22 22 22 22 22 20 15 13 14 15 17 18 19 19 21 21 20 20 20 19 19 21 22 21 20 20 21 22 22 21 21 23 22 23 25 26 26 25 25 26 27 28 28 29 28 27 27 27 28 28
25 25 25 24 23 22 22 22 21 22 21 21 21 21 22 22 21 22 21 17 13 12 14 15 16 17 18 19 20 20 20 19 18 19 21 21 21 20 21 21 21 21 19 19 22 24 25 26 26 25 25 26 27 28 28 27 27 27 26 26 26 26 27
26 25 25 24 23 21 21 21 21 21 21 21 21 20 21 21 21 20 20 19 17 14 13 14 15 16 17 17 17 19 20 19 18 19 21 22 23 22 22 24 24 23 22 23 26 28 27 26 26 25 27 29 28 28 28 27 27 27 27 26 26 27 28
26 25 25 24 23 22 21 22 22 22 23 22 21 20 19 20 20 19 18 18 17 16 15 14 14 17 19 19 18 19 20 20 21 22 24 24 24 22 21 23 24 24 24 23 26 29 29 29 29 28 28 28 28 28 29 29 29 28 27 26 27 28 29
26 26 25 25 24 24 24 24 24 24 24 23 22 20 19 19 19 18 17 17 17 16 16 15 14 15 16 18 20 21 22 23 24 24 25 26 27 26 25 23 22 22 24 24 25 27 28 29 29 28 28 29 29 28 28 28 28 28 28 28 29 30 31
26 26 26 26 26 27 27 27 26 26 25 24 22 21 19 18 18 17 16 16 16 16 16 15 15 16 15 14 16 18 21 23 24 25 26 28 31 32 32 30 26 24 26 26 25 25 26 27 28 28 29 31 31 30 29 30 30 30 31 31 32 33 33
26 26 26 26 27 29 30 29 28 26 24 23 22 21 19 18 17 16 15 15 15 15 15 15 16 16 15 14 14 15 16 17 21 25 27 29 32 36 38 36 32 28 27 28 29 29 27 26 28 30 30 30 30 31 32 33 34 35 35 35 35 35 36
27 26 27 27 28 29 30 29 27 25 23 22 22 21 20 18 17 16 16 15 15 15 15 16 16 16 16 15 15 16 16 16 17 20 21 23 30 36 34 29 28 29 31 32 32 30 26 23 26 30 31 32 33 35 35 35 35 35 36 36 36 36 36
27 27 27 27 28 28 28 27 25 24 23 22 21 21 21 19 18 18 17 17 17 17 17 17 18 18 18 17 17 17 18 18 18 18 18 18 22 28 28 26 27 31 33 32 30 29 29 30 31 33 34 35 35 34 33 33 33 33 33 34 35 35 36

ECMWFFLT1_500_spd_111.txt.gz
Wind_Speed
23 23 23 24 25 25 27 29 31 33 35 38 39 38 35 33 31 29 27 27 27 26 25 25 23 21 20 20 21 22 21 20 20 21 22 23 25 26 27 26 24 23 22 20 19 18 18 18 17 17 17 16 15 13 13 12 11 11 11 10 9 10 10
23 24 24 25 26 27 28 30 32 34 35 37 37 36 34 33 32 30 29 29 29 27 26 25 23 20 19 20 21 21 20 20 19 19 20 20 22 24 25 26 25 24 23 22 20 19 19 20 19 18 17 16 15 14 13 12 11 11 11 11 10 10 11
24 25 25 26 27 28 29 31 32 34 35 37 37 35 35 35 36 35 33 32 31 29 28 26 23 20 19 20 21 21 20 19 19 19 19 19 20 21 22 24 24 23 23 22 21 19 19 20 19 18 18 17 17 16 15 13 11 11 12 12 11 11 12
25 26 27 27 28 29 30 31 32 33 34 36 38 38 38 39 39 38 36 35 34 32 31 27 24 21 20 20 21 21 18 18 20 20 21 21 20 21 22 23 23 22 22 21 21 20 20 20 19 18 18 18 18 17 16 14 12 12 13 12 11 11 13
26 27 27 28 29 29 30 31 32 32 33 35 38 39 39 40 38 36 35 35 35 35 33 28 25 22 21 20 20 20 17 16 18 19 22 22 21 22 23 23 23 22 22 22 21 20 20 20 19 19 19 20 19 18 17 14 13 13 13 12 11 12 14
27 28 28 28 29 30 30 31 32 33 34 36 38 39 39 39 38 36 34 34 34 35 33 31 29 25 22 19 18 19 17 16 16 17 23 24 23 24 24 24 23 23 23 22 21 21 21 20 20 20 20 20 20 19 17 15 14 13 13 12 12 13 15
27 28 29 29 29 30 30 31 32 33 34 36 38 39 39 39 38 36 35 34 34 32 31 32 31 27 23 19 17 18 17 17 16 18 24 25 25 25 24 24 23 23 23 22 21 21 21 21 21 20 20 20 20 19 18 16 14 14 13 13 13 13 14
28 29 30 29 29 29 30 31 32 33 35 36 37 39 40 39 38 36 35 35 34 31 29 28 27 26 23 19 16 16 16 17 17 17 21 24 25 25 24 23 23 22 22 22 22 22 21 22 21 21 20 20 20 19 18 16 15 14 13 13 14 13 14
28 29 30 29 29 29 30 31 32 33 35 36 37 39 40 38 37 34 34 35 33 31 29 26 24 23 22 18 17 16 16 16 18 18 19 22 24 25 23 23 22 22 23 22 22 23 22 22 21 21 21 20 20 19 18 17 16 15 13 14 14 13 13
28 29 30 29 29 29 30 31 32 34 35 37 38 40 39 36 33 31 32 32 31 29 27 25 24 23 23 21 19 17 16 17 17 18 19 21 23 24 23 23 23 23 22 22 23 23 23 21 22 22 21 20 21 20 19 18 17 16 14 14 14 13 14
29 29 29 28 29 29 31 32 33 34 35 37 39 40 39 35 30 29 28 27 26 26 26 25 24 24 23 22 20 17 16 17 16 16 18 20 22 23 23 23 23 23 22 23 24 24 23 22 23 23 21 21 22 21 19 18 18 16 15 15 15 14 15
29 29 29 28 28 29 30 32 33 35 36 37 38 40 39 34 30 28 26 24 22 23 24 23 24 23 22 22 20 17 16 18 17 16 17 19 21 22 23 23 24 23 22 23 24 24 22 22 24 23 22 21 22 20 19 19 18 17 15 15 16 15 16
29 29 29 29 29 29 30 31 33 34 35 36 37 39 37 33 29 27 24 22 20 21 21 22 24 24 23 22 21 19 19 20 19 17 18 19 20 21 21 22 23 23 22 23 24 24 23 23 24 24 22 21 21 20 19 19 18 17 17 18 17 16 16
29 29 29 29 29 29 30 31 32 33 34 34 36 37 35 31 27 25 21 18 18 19 20 21 23 23 22 21 21 21 21 21 20 18 18 18 19 20 21 22 23 23 23 23 24 24 23 23 24 24 22 21 21 21 20 19 18 18 19 20 18 16 15
30 30 29 29 28 28 29 30 31 31 32 33 34 35 35 31 26 23 19 16 16 17 19 20 21 20 20 20 21 22 22 20 19 18 18 18 19 20 22 23 23 23 24 24 24 23 22 22 23 24 23 22 21 20 20 19 20 20 21 21 19 17 16
30 29 29 28 27 27 28 29 30 30 31 31 32 33 33 31 26 22 19 15 15 16 17 17 17 18 19 20 20 20 20 19 18 18 18 19 20 21 22 23 24 24 23 23 23 23 22 22 24 25 24 22 21 21 21 20 21 23 23 21 20 19 17
30 29 28 28 26 26 27 28 29 30 30 30 30 31 31 30 27 22 18 16 14 15 16 16 17 19 20 20 19 19 19 19 19 19 19 19 21 22 22 23 24 23 23 22 21 21 22 24 25 25 23 22 22 22 22 22 23 23 22 19 20 20 18
29 29 28 27 26 26 27 27 28 29 29 30 29 29 30 28 26 22 18 16 14 14 16 18 20 21 19 18 19 19 19 19 19 19 19 19 21 23 24 24 23 23 23 22 22 22 24 26 26 25 23 23 23 23 23 24 23 21 20 19 21 21 19
29 29 28 26 25 25 26 27 27 28 28 29 29 29 29 27 25 22 19 16 15 16 18 21 23 22 19 18 18 18 17 17 18 19 19 20 21 24 25 23 22 24 26 25 25 26 27 26 26 26 25 23 23 24 25 25 24 22 20 20 22 22 19
29 28 27 26 25 25 26 26 27 28 28 28 28 28 28 27 24 22 19 17 16 17 19 21 22 21 20 18 17 17 17 17 18 19 20 20 21 23 25 23 24 27 27 26 26 27 27 27 28 28 27 25 25 25 25 24 24 23 21 21 24 23 18
29 28 27 25 25 25 26 26 26 27 28 27 28 28 27 27 25 22 20 18 17 17 18 19 20 19 19 19 18 18 18 18 17 18 19 20 21 23 24 23 24 26 26 26 26 27 27 28 29 28 27 27 26 24 23 22 23 23 21 21 25 24 18
28 27 26 25 25 25 26 27 26 26 27 27 27 27 27 26 26 24 21 19 18 18 18 18 19 18 18 19 19 18 18 18 18 18 18 18 20 23 23 23 24 25 26 26 26 26 25 26 27 27 27 27 25 23 23 22 22 24 23 23 26 25 22
28 27 26 25 25 25 26 27 26 26 26 26 26 26 26 25 25 24 23 21 18 18 17 17 17 18 17 18 18 18 18 19 19 20 19 18 19 22 23 23 24 24 24 25 25 25 24 24 26 27 26 25 24 23 23 22 23 24 24 24 26 27 26
28 27 26 25 24 25 26 27 27 26 25 26 26 25 25 24 24 23 22 21 19 18 18 18 17 18 18 19 19 18 18 19 20 20 20 18 19 21 22 22 22 21 22 24 25 26 25 24 25 26 25 24 23 22 22 22 24 26 25 25 26 27 26
27 27 26 25 24 24 25 27 26 25 25 25 25 24 24 23 22 22 21 21 21 19 18 18 18 18 19 20 20 19 18 18 18 18 18 18 19 20 20 20 21 21 23 24 25 26 26 25 25 25 24 23 21 22 22 23 25 26 24 24 25 25 25
27 26 26 25 24 24 25 26 26 24 24 24 24 24 23 22 21 21 21 21 21 21 19 18 17 18 18 18 18 18 18 18 17 17 17 18 19 20 20 21 23 24 25 24 24 25 26 27 26 25 23 21 20 22 23 23 25 26 25 25 25 25 26
27 27 26 25 25 24 25 26 25 24 23 23 23 23 22 21 19 19 20 20 20 22 21 17 16 17 17 17 17 17 18 18 18 18 18 18 19 20 20 21 22 23 23 23 23 24 26 28 27 26 24 23 21 21 22 23 24 25 26 25 24 25 26
28 28 27 26 25 24 24 25 24 23 22 22 22 22 21 20 19 18 18 19 19 20 21 19 16 15 16 15 15 16 17 18 19 19 19 19 19 20 20 19 19 19 20 22 23 24 26 27 27 27 25 25 25 25 25 24 23 24 24 22 22 24 23
29 29 28 27 26 25 24 25 24 22 21 21 21 21 21 21 20 19 17 17 17 18 19 18 17 15 14 13 14 15 16 16 17 18 19 19 19 18 18 18 18 17 18 20 23 24 24 25 26 26 25 25 26 27 28 27 27 28 27 25 25 25 25
30 30 29 28 26 25 24 24 24 22 20 20 21 22 23 22 21 20 18 16 16 16 16 17 16 16 15 15 16 17 16 15 15 16 17 18 18 18 17 18 18 18 17 19 21 22 23 24 25 25 25 25 26 26 27 28 29 30 30 28 27 28 29
31 31 30 28 26 25 25 25 24 23 21 21 21 22 23 23 22 20 18 16 15 14 14 13 13 14 15 15 15 16 16 15 14 15 16 16 16 17 18 19 20 20 20 21 22 22 23 24 22 19 20 23 24 25 26 27 28 29 28 28 29 29 31
30 30 30 28 27 26 25 25 25 24 22 22 22 23 24 24 23 20 18 16 14 13 13 12 12 13 14 15 14 13 14 14 15 16 17 17 17 17 18 19 20 21 21 23 24 24 25 25 24 23 23 25 26 25 26 27 27 28 28 29 29 29 30
29 29 29 28 27 26 25 25 25 24 24 24 24 24 24 24 22 19 17 16 14 13 13 13 13 13 13 14 13 12 12 12 13 15 17 19 20 19 19 20 21 22 21 21 22 24 25 26 27 26 26 26 27 27 27 27 27 27 27 27 27 27 29
26 27 27 27 27 27 26 25 24 24 25 26 26 25 24 23 21 18 16 15 14 13 13 14 14 14 13 13 13 12 12 11 11 12 14 17 20 19 19 20 22 22 20 18 19 21 24 25 26 24 22 24 26 27 27 27 27 27 27 26 26 27 28
27 27 27 27 27 27 26 25 24 24 26 26 26 24 23 21 20 18 16 15 14 14 13 14 14 14 14 13 13 13 13 12 12 12 13 15 18 18 17 18 21 22 22 22 22 23 23 24 24 23 22 24 25 26 26 26 27 28 28 27 27 28 29
28 28 27 27 27 27 26 25 24 24 25 26 25 24 22 21 20 19 18 17 16 15 15 15 15 15 15 14 14 14 13 13 13 13 14 15 16 17 17 17 19 21 24 27 28 28 27 27 26 25 24 25 25 25 25 26 28 30 30 29 29 32 34
30 29 28 27 27 26 26 25 25 25 25 25 25 23 22 22 21 20 19 19 18 17 16 16 16 17 17 16 16 15 15 15 14 14 15 15 16 17 18 19 19 20 23 26 27 28 28 29 30 30 30 28 27 27 27 29 31 32 31 31 34 35 34

ECMWFFLT1_500_spd_114.txt.gz
Wind_Speed
23 21 20 19 18 18 19 22 24 26 29 28 28 31 33 32 31 31 32 32 32 33 32 30 31 31 29 27 24 23 23 22 18 18 19 20 20 22 24 26 26 28 28 27 28 27 26 25 24 22 21 20 18 18 18 17 17 17 17 16 16 16 16
24 22 21 20 19 19 20 23 25 26 29 31 32 33 33 33 33 33 33 34 34 34 33 30 30 30 30 29 27 24 23 22 19 18 19 21 21 22 24 25 27 28 28 28 27 26 26 25 24 23 22 20 19 19 19 18 18 18 17 17 17 17 17
25 23 21 21 20 20 21 24 26 27 29 32 35 35 33 33 34 34 35 37 38 37 35 32 30 29 29 29 28 25 24 23 21 19 19 21 22 23 24 26 27 28 28 28 27 26 26 25 24 23 21 20 21 20 19 19 18 18 17 18 18 18 18
25 24 22 21 21 21 23 25 27 28 29 31 34 35 34 34 34 34 35 36 38 39 38 36 33 30 29 29 28 26 24 23 22 20 20 21 21 22 23 25 27 29 30 29 28 27 27 26 24 23 22 22 22 20 19 19 19 18 18 18 19 19 18
25 24 23 23 22 23 24 26 27 29 30 31 33 34 34 33 34 34 35 36 37 38 38 38 36 31 29 29 28 26 24 24 23 21 20 19 19 21 22 22 25 29 31 31 29 28 28 27 25 23 23 23 22 21 21 20 20 19 19 19 19 19 19
25 25 24 24 24 24 25 26 28 29 30 31 32 33 33 33 34 34 35 36 36 37 37 38 37 32 29 28 27 27 25 24 24 23 21 19 19 23 25 22 23 26 29 30 30 29 28 27 25 23 23 23 23 23 22 21 20 20 19 19 19 20 20
26 25 25 25 25 25 26 28 29 29 30 31 31 33 33 34 34 34 36 36 36 35 34 35 35 31 29 28 27 27 26 24 25 24 22 20 21 24 27 25 24 26 27 29 29 28 28 27 26 24 24 24 25 24 23 22 21 20 20 20 20 20 21
26 26 26 26 26 26 27 28 29 30 30 31 31 32 33 34 34 35 36 37 36 33 31 32 32 28 27 27 26 27 27 26 25 24 22 21 22 25 28 26 26 27 27 28 28 29 28 27 27 26 26 25 25 25 24 23 21 21 21 20 20 21 21
27 27 27 27 27 27 27 28 29 29 30 30 30 31 32 33 34 35 37 38 35 31 30 30 28 25 24 25 25 25 26 26 25 22 21 20 21 25 28 28 29 29 29 28 29 29 28 27 28 27 26 27 27 26 25 23 22 22 21 21 22 22 21
27 27 27 27 27 27 28 28 29 29 29 29 30 30 31 33 34 35 36 36 34 30 28 27 24 22 22 23 24 24 25 25 23 21 21 20 20 23 26 29 30 31 30 28 27 27 26 28 29 28 28 28 28 26 25 23 23 23 23 23 23 23 22
27 27 27 27 28 28 28 28 29 29 29 29 29 30 31 32 33 34 35 35 32 28 26 23 21 20 21 21 22 23 24 23 22 21 21 20 21 22 24 25 26 27 26 26 26 26 27 29 30 29 29 29 27 26 26 25 24 23 23 23 23 24 23
27 27 27 28 28 28 28 28 28 28 28 28 28 29 30 31 33 33 34 35 31 26 23 20 18 18 19 18 18 20 22 22 22 22 21 20 20 22 23 23 23 24 24 25 25 26 27 29 29 29 29 29 27 26 27 26 24 23 23 24 24 25 24
28 28 28 28 28 28 28 28 28 27 27 27 27 28 30 31 32 33 34 34 30 24 20 18 17 16 16 15 15 17 20 22 23 23 21 20 19 20 22 22 22 23 24 24 25 25 27 28 29 29 29 28 27 27 27 26 24 23 24 25 26 26 24
29 28 28 28 28 28 28 27 27 26 26 26 27 27 29 30 32 33 33 33 29 22 18 16 14 13 13 12 13 16 19 22 23 22 21 20 19 19 20 21 22 23 24 24 25 25 26 28 28 29 29 27 26 27 27 26 25 24 25 27 28 26 24
29 29 28 28 28 27 27 27 26 25 25 26 27 27 28 29 31 31 31 31 29 22 17 15 13 11 10 10 11 13 17 20 21 21 21 21 20 19 20 21 22 23 23 24 25 25 26 27 27 28 27 26 26 27 27 26 26 25 26 29 29 26 24
30 29 28 28 27 27 27 26 25 24 25 26 27 27 27 28 29 30 30 29 28 21 16 13 12 9 7 7 8 10 14 18 20 21 21 21 20 20 20 21 22 22 23 23 24 25 25 26 26 27 27 27 28 30 29 28 27 25 26 29 29 26 25
30 29 28 28 27 27 27 25 24 24 25 26 27 26 26 26 27 29 29 28 26 21 15 12 11 8 7 7 9 11 14 17 19 20 20 20 20 20 20 20 20 21 21 22 23 24 25 26 27 28 28 28 29 30 30 28 27 27 28 29 28 26 25
30 29 28 27 27 27 27 25 23 23 24 25 26 26 26 26 26 27 28 27 26 22 17 13 12 11 11 12 13 13 14 16 19 20 21 21 20 19 19 19 20 21 21 21 23 24 25 26 28 28 29 28 29 30 30 29 28 28 28 28 27 25 23
30 29 28 27 27 27 26 24 22 23 24 25 26 26 26 25 25 25 27 26 25 23 19 15 13 14 15 16 16 15 15 15 18 20 21 21 20 19 20 21 21 22 22 23 24 25 26 27 27 28 28 29 30 30 30 30 29 29 28 27 26 25 25
30 28 27 26 26 26 25 23 22 22 23 24 25 25 25 25 23 23 25 25 24 23 20 16 15 15 16 17 17 16 17 17 18 19 19 19 19 20 20 21 21 22 24 25 26 27 28 29 29 29 29 30 30 30 31 31 30 30 30 28 27 28 29
29 28 27 26 26 25 24 23 22 21 22 23 24 24 25 24 23 22 23 24 24 23 22 19 16 15 15 16 16 16 17 18 18 18 18 19 19 19 19 20 20 22 24 26 28 29 29 29 30 30 30 30 30 30 32 32 32 32 31 29 29 30 30
29 28 27 26 25 24 23 23 22 22 22 23 23 23 24 24 22 21 22 23 23 22 22 21 18 16 15 15 16 16 17 18 18 18 18 18 17 17 18 19 20 22 24 25 27 28 28 28 29 29 29 30 30 30 30 31 32 32 31 30 29 30 31
28 28 27 26 25 24 23 23 23 22 22 22 23 23 23 23 22 21 21 21 22 21 21 21 19 16 15 14 15 16 17 18 17 18 18 18 17 17 18 19 20 21 22 23 24 26 26 27 27 27 27 28 29 30 31 32 31 31 31 29 29 30 29
28 27 26 25 24 23 22 22 22 23 23 23 23 22 22 22 21 20 19 20 21 21 20 20 19 16 14 14 14 15 17 18 18 18 19 19 18 19 19 20 20 21 21 22 24 25 26 26 26 26 26 27 28 29 31 33 32 31 30 29 29 28 27
27 26 26 25 23 22 22 22 23 23 23 23 23 22 21 21 20 18 18 19 20 20 20 20 19 16 14 14 15 16 17 18 19 19 19 19 18 18 19 20 20 20 21 22 23 24 25 25 25 26 25 26 27 28 30 31 31 30 29 28 28 27 25
25 25 25 24 23 23 22 23 23 23 23 22 22 21 20 20 19 18 17 18 19 20 20 20 17 14 14 15 15 15 16 17 19 19 19 19 18 18 18 18 19 20 21 22 23 23 24 24 24 24 24 26 27 28 30 30 29 30 29 28 28 27 27
25 24 24 24 23 23 23 23 23 23 23 22 21 21 19 19 19 18 17 18 18 19 20 19 17 15 15 14 14 14 14 14 16 18 19 19 19 18 18 18 19 20 21 22 23 24 24 24 23 24 25 27 27 28 29 29 29 29 27 27 28 28 29
25 25 24 24 24 24 24 24 24 23 23 22 22 21 19 19 19 19 19 18 19 19 20 20 19 17 14 13 14 15 14 13 12 14 16 18 18 18 19 19 20 20 21 22 23 24 24 23 24 26 27 27 27 27 27 27 28 27 26 27 28 27 29
25 25 25 25 25 25 25 25 24 23 22 21 21 21 20 19 20 20 20 20 20 20 20 20 19 15 12 13 15 17 16 13 13 13 14 15 16 16 17 18 19 20 20 21 21 23 23 22 22 23 24 26 27 26 26 26 27 26 26 28 27 26 27
26 26 26 26 26 26 26 25 24 23 22 21 21 21 21 20 20 21 21 21 21 21 21 20 18 15 14 15 16 16 16 14 15 15 14 14 14 15 16 16 17 17 19 20 21 22 22 22 23 23 22 23 25 26 27 27 26 25 25 26 25 26 28
26 26 26 26 26 26 25 25 24 22 21 21 21 22 22 21 21 21 22 22 22 21 21 20 18 16 15 15 16 16 15 14 14 14 15 15 15 14 15 15 15 16 18 18 18 18 18 20 22 24 23 22 23 25 26 25 25 24 24 25 27 27 27
25 25 25 25 24 24 24 23 23 22 22 21 22 22 22 21 21 21 21 22 22 21 20 19 18 17 17 16 15 15 14 13 13 12 13 15 15 15 16 16 16 16 16 16 17 18 18 19 21 23 23 22 24 26 25 24 25 26 25 25 27 27 27
24 24 24 24 24 24 23 23 22 22 22 22 22 22 21 20 20 20 20 20 21 21 20 18 17 17 17 17 15 14 13 13 12 12 12 13 15 17 18 18 16 16 15 16 17 19 20 21 21 23 25 26 26 27 28 26 26 28 28 30 31 30 32
23 24 25 25 26 25 25 25 24 23 23 22 22 21 20 20 20 20 19 19 19 19 19 18 17 17 18 17 17 15 14 13 13 12 12 13 14 16 17 16 15 14 14 14 16 18 21 23 23 24 26 28 28 28 28 27 27 27 29 32 33 32 33
24 25 26 27 27 27 27 27 26 25 24 23 22 21 21 21 21 20 20 19 19 19 19 18 17 17 18 18 18 18 17 16 15 14 13 13 13 14 15 15 14 14 14 15 17 19 21 23 25 26 26 28 30 30 29 28 28 28 29 30 31 30 30
25 25 26 27 27 28 28 28 28 27 26 24 23 23 23 23 23 22 22 21 20 20 19 19 19 18 18 19 19 19 19 18 17 17 16 16 15 14 15 15 14 15 16 18 19 21 21 22 22 23 24 26 29 31 32 32 30 29 29 30 30 30 31
26 27 28 28 29 29 28 27 26 25 24 24 23 23 24 24 24 24 23 22 22 21 20 20 20 20 19 19 19 20 20 20 19 19 19 19 18 18 18 17 17 17 18 19 21 22 24 25 25 25 25 25 27 29 31 32 32 32 32 32 33 34 35

ECMWFFLT1_500_spd_117.txt.gz
Wind_Speed
23 24 24 24 24 25 25 24 23 23 23 23 24 25 26 27 29 30 31 32 31 31 31 31 30 30 31 31 30 29 29 29 29 28 26 26 25 25 25 25 27 27 26 26 27 29 31 32 32 31 29 27 26 25 26 24 22 20 20 21 20 20 19
23 24 24 24 24 25 25 24 24 23 24 24 25 25 26 27 29 30 31 31 32 33 34 35 35 35 34 34 32 31 30 29 28 28 28 27 26 25 25 25 27 28 27 27 29 30 29 30 31 30 30 29 27 27 27 25 23 21 21 21 21 20 20
24 24 24 24 24 25 25 25 24 23 24 25 26 26 27 28 29 30 31 31 32 33 35 37 38 38 38 36 34 32 31 29 29 28 28 28 26 25 26 26 27 28 27 28 29 30 29 29 31 32 31 29 29 29 28 26 23 22 22 21 21 21 20
25 25 25 24 24 25 25 25 24 23 24 25 26 27 28 29 30 31 31 31 32 33 34 36 38 39 39 38 35 33 31 30 29 29 28 28 26 25 26 27 27 28 29 30 30 30 31 31 32 33 32 31 30 29 27 26 24 22 22 22 21 21 21
27 26 26 25 25 25 25 25 24 24 24 24 26 27 28 30 31 32 32 31 31 32 33 35 37 38 38 37 35 33 31 30 29 28 28 27 26 26 26 28 29 29 30 32 33 32 32 32 33 33 34 32 30 29 28 26 24 23 23 23 22 22 21
27 27 26 26 26 26 25 26 25 25 24 24 26 27 29 30 32 32 32 32 32 32 34 36 37 37 36 35 34 33 31 29 28 27 27 27 27 26 27 30 30 28 28 31 32 33 34 33 32 32 32 31 28 28 28 26 25 24 23 23 23 22 22
27 27 27 27 27 26 26 26 26 25 25 25 26 27 29 30 31 32 32 31 32 33 34 36 37 36 34 33 33 32 30 28 27 27 27 28 27 26 27 30 29 25 25 28 30 32 35 34 33 32 31 30 28 28 28 27 26 25 24 25 24 23 23
28 27 27 27 27 27 27 26 26 26 25 26 27 28 29 30 31 31 31 31 32 33 34 36 35 34 32 32 32 30 28 26 25 25 26 27 27 26 26 27 29 27 26 28 27 30 34 35 34 33 32 31 29 29 28 28 27 26 26 26 25 24 23
28 27 27 27 28 27 27 26 26 26 25 25 26 27 28 29 30 30 30 31 32 32 34 35 34 32 31 30 28 26 25 24 23 23 23 25 26 25 24 25 28 28 27 28 28 29 33 36 36 34 32 32 30 30 29 28 28 27 27 27 26 26 25
29 28 28 28 28 27 27 26 26 26 25 25 26 26 27 28 29 30 30 30 32 32 33 34 32 30 28 27 24 23 22 21 20 21 21 22 23 23 23 23 25 26 28 30 29 30 32 34 35 34 33 32 31 31 30 29 29 29 28 27 27 28 27
29 29 29 29 28 27 27 26 26 26 25 25 25 26 26 27 28 29 29 30 31 32 32 33 31 27 26 25 22 20 19 18 18 19 19 18 19 21 21 22 22 21 27 31 29 29 30 31 33 33 33 32 31 31 30 30 32 31 28 27 28 29 29
30 30 30 29 28 27 27 27 26 26 25 25 25 25 25 26 27 28 28 29 30 31 32 32 30 26 24 23 21 18 16 15 15 16 16 15 17 19 19 20 20 19 22 28 29 28 29 30 31 32 32 32 32 32 31 32 33 31 28 27 29 31 29
31 31 31 30 29 28 27 27 26 25 25 25 25 25 25 25 26 26 27 28 29 30 31 31 28 24 23 22 19 15 13 13 13 13 14 14 15 18 18 18 19 18 19 23 27 29 30 31 31 31 31 32 33 32 31 31 31 30 28 28 31 32 29
32 32 31 30 29 28 27 27 26 25 24 24 24 24 24 24 25 25 27 27 27 29 30 29 27 23 22 21 18 13 11 11 12 12 13 14 15 17 18 17 17 18 19 20 23 27 30 31 30 30 31 32 32 32 31 31 30 29 29 30 32 32 29
33 32 31 30 30 29 28 27 26 25 24 23 23 23 23 23 24 25 26 26 26 27 28 28 26 22 20 20 17 12 9 9 11 12 13 14 15 16 17 17 17 18 20 21 22 24 27 29 29 30 30 31 32 32 31 31 31 30 30 30 31 32 29
33 32 31 30 30 29 28 26 26 24 23 22 22 22 22 23 24 24 25 25 25 25 26 26 25 22 19 17 15 10 8 9 11 12 13 14 15 16 16 17 18 19 20 21 22 23 25 27 28 29 30 31 32 31 31 32 31 30 30 30 31 31 30
33 32 30 30 30 28 27 26 25 23 22 21 21 21 22 22 23 24 24 25 24 24 24 25 25 22 19 16 14 12 12 14 15 14 14 16 17 17 17 18 18 19 21 22 23 23 24 26 27 28 29 31 32 32 32 32 31 30 30 31 32 32 30
32 31 30 30 29 28 26 25 24 23 22 22 22 21 21 22 22 23 23 23 23 23 23 23 24 23 20 17 16 17 18 18 17 16 15 16 17 17 18 18 18 19 21 23 23 24 24 25 26 27 28 30 32 32 32 32 31 30 31 32 32 32 30
32 31 30 30 29 27 26 25 24 23 22 22 21 21 21 21 21 22 22 22 22 22 22 22 22 23 21 19 17 19 20 20 19 18 16 16 17 17 18 19 19 19 20 22 23 23 22 22 24 26 27 28 29 30 30 31 31 31 31 31 32 32 32
31 30 30 29 28 27 26 25 24 22 21 21 20 20 20 20 20 21 21 22 22 21 21 21 21 22 22 21 19 18 19 20 19 19 17 17 17 17 18 19 19 19 20 22 23 23 23 23 24 26 27 27 28 30 31 31 31 30 30 31 32 33 33
30 30 29 28 27 26 25 24 23 21 21 20 19 19 19 19 19 20 20 21 21 21 21 21 21 21 22 22 21 19 17 18 19 18 18 18 18 18 18 18 18 19 21 23 23 24 25 25 25 26 26 28 29 30 31 30 30 30 30 31 32 34 34
30 29 28 27 26 26 25 24 22 21 20 19 18 18 19 19 19 19 19 19 19 20 20 21 21 21 22 22 20 18 16 16 18 19 18 18 18 19 18 18 18 19 20 21 22 23 24 25 26 27 27 29 30 30 31 30 30 31 31 32 34 35 34
30 28 27 26 25 25 24 23 22 21 19 18 18 18 18 19 18 18 18 18 18 19 20 20 21 21 21 20 18 17 16 16 17 18 19 20 19 19 19 18 18 18 19 19 21 22 23 24 26 27 28 29 30 31 31 31 31 31 32 33 34 34 34
29 28 27 25 24 24 23 22 21 20 19 18 18 18 19 19 18 18 17 17 17 18 19 20 20 20 20 19 18 17 16 16 16 18 19 21 21 21 20 20 19 19 19 20 21 22 23 24 25 27 27 28 29 30 30 31 31 31 31 32 33 33 33
29 27 26 25 24 23 22 21 20 20 19 19 19 19 19 19 19 18 17 17 17 17 18 19 20 20 19 20 19 18 16 16 16 17 18 20 21 22 22 21 21 21 21 21 21 21 21 22 24 25 26 27 29 30 30 30 30 30 30 30 31 32 31
28 26 25 24 23 22 21 20 20 20 20 20 20 20 19 19 19 19 18 18 18 18 18 19 20 20 20 21 20 18 16 16 17 17 18 18 19 20 20 20 20 20 20 20 21 21 21 22 23 23 25 26 28 29 30 30 29 29 28 28 29 31 31
26 26 25 24 24 23 22 21 21 21 21 21 21 21 20 19 19 19 19 19 18 18 19 20 21 21 20 20 19 17 17 18 18 18 18 17 16 17 19 20 19 19 19 19 19 20 21 22 23 24 24 25 26 28 29 29 28 27 26 27 28 29 29
25 25 25 25 24 23 23 22 22 22 22 22 22 22 21 20 19 20 20 20 19 19 19 20 21 21 20 19 18 18 18 18 17 17 16 15 15 16 17 19 19 19 19 18 19 20 21 21 22 22 22 23 25 25 26 26 26 25 25 26 27 27 29
25 25 25 25 24 24 23 23 22 22 22 22 21 21 21 20 20 20 20 20 20 19 19 19 20 20 20 20 19 19 19 18 17 16 15 15 16 17 17 17 17 17 18 18 18 19 20 19 19 20 21 23 24 24 23 24 24 25 26 27 27 28 29
27 26 26 25 25 24 23 23 21 21 20 20 20 20 20 21 21 21 21 21 20 20 19 19 19 20 20 19 19 19 19 18 17 16 15 15 16 17 18 18 17 16 17 17 18 18 19 19 19 19 21 22 22 21 22 24 25 26 27 28 29 30 30
28 27 26 25 25 24 23 22 20 20 19 19 19 19 20 20 21 22 21 21 20 19 18 19 19 19 19 19 19 18 18 18 18 17 17 16 15 15 17 18 18 18 18 19 19 19 19 20 20 21 21 20 19 18 20 22 24 26 27 28 28 29 29
28 27 25 25 24 24 23 22 21 20 20 19 19 20 20 20 21 21 21 20 19 18 18 18 18 18 18 18 19 19 18 18 18 18 18 18 17 16 16 17 18 19 19 19 20 20 19 18 19 20 20 20 20 20 20 20 23 25 27 28 27 26 27
26 25 25 24 24 23 23 22 22 22 22 22 22 22 22 22 21 21 20 19 18 18 18 18 18 18 18 18 19 19 19 19 19 18 18 18 19 18 18 17 16 17 17 15 16 17 17 16 17 17 18 19 21 23 23 24 26 27 27 27 25 23 24
24 24 24 24 24 23 23 23 23 23 23 23 23 24 23 23 23 22 21 20 20 19 19 19 20 20 20 20 20 20 20 20 20 19 19 19 19 19 19 19 18 18 17 16 14 15 16 17 17 18 19 20 21 23 24 26 28 30 30 29 27 25 24
23 23 24 24 24 24 24 24 24 24 25 26 25 25 24 24 23 23 22 22 21 21 21 21 21 21 22 22 21 21 21 21 21 20 20 20 20 20 20 21 21 20 20 18 16 15 16 17 17 18 19 21 22 23 24 24 27 30 32 32 31 30 29
23 23 24 24 24 24 24 25 25 26 27 26 25 23 21 21 21 21 22 22 22 23 23 22 22 22 22 23 23 22 22 22 22 22 21 21 21 21 21 21 21 21 21 20 18 17 18 19 19 19 20 21 21 23 24 25 26 28 30 31 31 31 31
24 23 23 24 24 24 25 25 26 25 23 21 19 18 17 17 17 18 19 20 20 21 21 21 21 21 22 22 23 23 22 22 22 22 22 21 21 22 22 21 21 22 22 22 22 21 22 22 23 24 25 25 24 23 24 25 26 27 28 30 30 31 32